Wetterdaten: Freitag, 10.03.2017
Datum Zeit Temp. A. Temp. A. max Feuchte A. Luftdruck Regen Wind Richtung Richtung Sonnenschein ET UV Solar Taupunkt Windchill Windböen
10.03.2017 00:00 6,9 °C 6,9 °C 92 % 1021,2 hPa 0,0 mm 26,4 km/h (4 Bft) W-SW 242 ° 0 min 0,000 mm 0,0 UV-I 0 W/m² 5,7 °C 2,8 °C 35,4 km/h (5 Bft)
10.03.2017 00:01 6,9 °C 6,9 °C 92 % 1021,1 hPa 0,0 mm 16,8 km/h (3 Bft) W-NW 302 ° 0 min 0,000 mm 0,0 UV-I 0 W/m² 5,7 °C 3,8 °C 22,5 km/h (4 Bft)
10.03.2017 00:02 6,9 °C 6,9 °C 92 % 1021,2 hPa 0,0 mm 18,5 km/h (3 Bft) W 264 ° 0 min 0,000 mm 0,0 UV-I 0 W/m² 5,7 °C 3,6 °C 27,4 km/h (4 Bft)
10.03.2017 00:03 6,9 °C 6,9 °C 92 % 1021,2 hPa 0,0 mm 16,0 km/h (3 Bft) W-SW 253 ° 0 min 0,000 mm 0,0 UV-I 0 W/m² 5,7 °C 4,0 °C 25,7 km/h (4 Bft)
10.03.2017 00:04 6,9 °C 6,9 °C 92 % 1021,2 hPa 0,0 mm 19,4 km/h (3 Bft) W 269 ° 0 min 0,000 mm 0,0 UV-I 0 W/m² 5,7 °C 3,5 °C 29,0 km/h (5 Bft)
10.03.2017 00:05 6,9 °C 6,9 °C 92 % 1021,2 hPa 0,0 mm 13,1 km/h (3 Bft) SW 218 ° 0 min 0,000 mm 0,0 UV-I 0 W/m² 5,7 °C 4,4 °C 19,3 km/h (3 Bft)
10.03.2017 00:06 6,9 °C 6,9 °C 92 % 1021,2 hPa 0,0 mm 21,8 km/h (4 Bft) W-NW 294 ° 0 min 0,000 mm 0,0 UV-I 0 W/m² 5,7 °C 3,3 °C 27,4 km/h (4 Bft)
10.03.2017 00:07 6,9 °C 6,9 °C 92 % 1021,2 hPa 0,0 mm 22,1 km/h (4 Bft) W 269 ° 0 min 0,000 mm 0,0 UV-I 0 W/m² 5,7 °C 3,2 °C 35,4 km/h (5 Bft)
10.03.2017 00:08 6,9 °C 6,9 °C 92 % 1021,1 hPa 0,0 mm 19,0 km/h (3 Bft) SW 236 ° 0 min 0,000 mm 0,0 UV-I 0 W/m² 5,7 °C 3,6 °C 35,4 km/h (5 Bft)
10.03.2017 00:09 6,9 °C 6,9 °C 91 % 1021,1 hPa 0,0 mm 17,3 km/h (3 Bft) W 259 ° 0 min 0,000 mm 0,0 UV-I 0 W/m² 5,5 °C 3,8 °C 27,4 km/h (4 Bft)
10.03.2017 00:10 6,9 °C 6,9 °C 91 % 1021,1 hPa 0,0 mm 20,4 km/h (4 Bft) W-NW 290 ° 0 min 0,000 mm 0,0 UV-I 0 W/m² 5,5 °C 3,4 °C 25,7 km/h (4 Bft)
10.03.2017 00:11 6,9 °C 6,9 °C 91 % 1021,0 hPa 0,0 mm 12,2 km/h (2 Bft) W 278 ° 0 min 0,000 mm 0,0 UV-I 0 W/m² 5,5 °C 4,5 °C 19,3 km/h (3 Bft)
10.03.2017 00:12 6,9 °C 6,9 °C 92 % 1021,1 hPa 0,0 mm 18,8 km/h (3 Bft) W 261 ° 0 min 0,000 mm 0,0 UV-I 0 W/m² 5,7 °C 3,6 °C 29,0 km/h (5 Bft)
10.03.2017 00:13 6,9 °C 6,9 °C 92 % 1021,2 hPa 0,0 mm 17,4 km/h (3 Bft) W 266 ° 0 min 0,000 mm 0,0 UV-I 0 W/m² 5,7 °C 3,8 °C 22,5 km/h (4 Bft)
10.03.2017 00:14 6,9 °C 6,9 °C 92 % 1021,1 hPa 0,0 mm 18,9 km/h (3 Bft) W-NW 299 ° 0 min 0,000 mm 0,0 UV-I 0 W/m² 5,7 °C 3,6 °C 25,7 km/h (4 Bft)
10.03.2017 00:15 6,9 °C 6,9 °C 91 % 1021,1 hPa 0,0 mm 11,0 km/h (2 Bft) W-SW 239 ° 0 min 0,000 mm 0,0 UV-I 0 W/m² 5,5 °C 4,7 °C 17,7 km/h (3 Bft)
10.03.2017 00:16 6,9 °C 6,9 °C 92 % 1021,0 hPa 0,0 mm 14,5 km/h (3 Bft) W-SW 243 ° 0 min 0,000 mm 0,0 UV-I 0 W/m² 5,7 °C 4,2 °C 25,7 km/h (4 Bft)
10.03.2017 00:17 6,9 °C 6,9 °C 92 % 1021,0 hPa 0,0 mm 13,8 km/h (3 Bft) W-SW 254 ° 0 min 0,000 mm 0,0 UV-I 0 W/m² 5,7 °C 4,3 °C 24,1 km/h (4 Bft)
10.03.2017 00:18 6,9 °C 6,9 °C 92 % 1021,0 hPa 0,0 mm 19,2 km/h (3 Bft) W-SW 252 ° 0 min 0,000 mm 0,0 UV-I 0 W/m² 5,7 °C 3,6 °C 32,2 km/h (5 Bft)
10.03.2017 00:19 6,9 °C 6,9 °C 92 % 1021,0 hPa 0,0 mm 15,0 km/h (3 Bft) SW 232 ° 0 min 0,000 mm 0,0 UV-I 0 W/m² 5,7 °C 4,1 °C 25,7 km/h (4 Bft)
10.03.2017 00:20 6,9 °C 6,9 °C 92 % 1021,0 hPa 0,0 mm 19,8 km/h (3 Bft) W-SW 247 ° 0 min 0,000 mm 0,0 UV-I 0 W/m² 5,7 °C 3,5 °C 27,4 km/h (4 Bft)
10.03.2017 00:21 6,9 °C 6,9 °C 91 % 1021,0 hPa 0,0 mm 19,2 km/h (3 Bft) W-SW 255 ° 0 min 0,000 mm 0,0 UV-I 0 W/m² 5,5 °C 3,6 °C 25,7 km/h (4 Bft)
10.03.2017 00:22 6,8 °C 6,9 °C 91 % 1021,1 hPa 0,0 mm 15,1 km/h (3 Bft) SW 229 ° 0 min 0,000 mm 0,0 UV-I 0 W/m² 5,4 °C 4,0 °C 24,1 km/h (4 Bft)
10.03.2017 00:23 6,8 °C 6,9 °C 92 % 1021,0 hPa 0,0 mm 15,7 km/h (3 Bft) SW 234 ° 0 min 0,000 mm 0,0 UV-I 0 W/m² 5,6 °C 3,9 °C 20,9 km/h (4 Bft)
10.03.2017 00:24 6,8 °C 6,8 °C 92 % 1021,1 hPa 0,0 mm 12,3 km/h (3 Bft) W-SW 238 ° 0 min 0,000 mm 0,0 UV-I 0 W/m² 5,6 °C 4,4 °C 20,9 km/h (4 Bft)
10.03.2017 00:25 6,8 °C 6,8 °C 91 % 1021,0 hPa 0,0 mm 18,7 km/h (3 Bft) W 259 ° 0 min 0,000 mm 0,0 UV-I 0 W/m² 5,4 °C 3,5 °C 25,7 km/h (4 Bft)
10.03.2017 00:26 6,8 °C 6,8 °C 91 % 1021,1 hPa 0,0 mm 18,4 km/h (3 Bft) W-SW 246 ° 0 min 0,000 mm 0,0 UV-I 0 W/m² 5,4 °C 3,5 °C 25,7 km/h (4 Bft)
10.03.2017 00:27 6,8 °C 6,8 °C 92 % 1021,0 hPa 0,0 mm 18,7 km/h (3 Bft) W 264 ° 0 min 0,000 mm 0,0 UV-I 0 W/m² 5,6 °C 3,5 °C 22,5 km/h (4 Bft)
10.03.2017 00:28 6,8 °C 6,8 °C 92 % 1021,0 hPa 0,0 mm 15,0 km/h (3 Bft) W-SW 253 ° 0 min 0,000 mm 0,0 UV-I 0 W/m² 5,6 °C 4,0 °C 22,5 km/h (4 Bft)
10.03.2017 00:29 6,8 °C 6,8 °C 91 % 1021,0 hPa 0,0 mm 14,9 km/h (3 Bft) W 261 ° 0 min 0,000 mm 0,0 UV-I 0 W/m² 5,4 °C 4,0 °C 20,9 km/h (4 Bft)
10.03.2017 00:30 6,8 °C 6,8 °C 91 % 1021,0 hPa 0,0 mm 17,8 km/h (3 Bft) W 263 ° 0 min 0,000 mm 0,0 UV-I 0 W/m² 5,4 °C 3,6 °C 25,7 km/h (4 Bft)
10.03.2017 00:31 6,8 °C 6,8 °C 91 % 1021,0 hPa 0,0 mm 19,7 km/h (3 Bft) SW 232 ° 0 min 0,000 mm 0,0 UV-I 0 W/m² 5,4 °C 3,4 °C 25,7 km/h (4 Bft)
10.03.2017 00:32 6,8 °C 6,8 °C 91 % 1021,1 hPa 0,0 mm 12,3 km/h (3 Bft) SW 219 ° 0 min 0,000 mm 0,0 UV-I 0 W/m² 5,4 °C 4,4 °C 19,3 km/h (3 Bft)
10.03.2017 00:33 6,8 °C 6,8 °C 91 % 1021,0 hPa 0,0 mm 16,0 km/h (3 Bft) W-SW 257 ° 0 min 0,000 mm 0,0 UV-I 0 W/m² 5,4 °C 3,8 °C 24,1 km/h (4 Bft)
10.03.2017 00:34 6,7 °C 6,8 °C 91 % 1021,1 hPa 0,0 mm 13,9 km/h (3 Bft) W-SW 249 ° 0 min 0,000 mm 0,0 UV-I 0 W/m² 5,3 °C 4,0 °C 19,3 km/h (3 Bft)
10.03.2017 00:35 6,7 °C 6,8 °C 91 % 1021,2 hPa 0,0 mm 18,3 km/h (3 Bft) W-SW 245 ° 0 min 0,000 mm 0,0 UV-I 0 W/m² 5,3 °C 3,4 °C 22,5 km/h (4 Bft)
10.03.2017 00:36 6,7 °C 6,7 °C 91 % 1021,1 hPa 0,0 mm 14,8 km/h (3 Bft) W-SW 250 ° 0 min 0,000 mm 0,0 UV-I 0 W/m² 5,3 °C 3,9 °C 19,3 km/h (3 Bft)
10.03.2017 00:37 6,7 °C 6,7 °C 91 % 1021,1 hPa 0,0 mm 19,4 km/h (3 Bft) W-SW 255 ° 0 min 0,000 mm 0,0 UV-I 0 W/m² 5,3 °C 3,3 °C 27,4 km/h (4 Bft)
10.03.2017 00:38 6,7 °C 6,8 °C 91 % 1021,2 hPa 0,0 mm 16,3 km/h (3 Bft) SW 216 ° 0 min 0,000 mm 0,0 UV-I 0 W/m² 5,3 °C 3,7 °C 22,5 km/h (4 Bft)
10.03.2017 00:39 6,7 °C 6,8 °C 91 % 1021,1 hPa 0,0 mm 12,9 km/h (3 Bft) S-SW 202 ° 0 min 0,000 mm 0,0 UV-I 0 W/m² 5,3 °C 4,2 °C 19,3 km/h (3 Bft)
10.03.2017 00:40 6,8 °C 6,8 °C 91 % 1021,1 hPa 0,0 mm 16,8 km/h (3 Bft) W-NW 287 ° 0 min 0,000 mm 0,0 UV-I 0 W/m² 5,4 °C 3,7 °C 22,5 km/h (4 Bft)
10.03.2017 00:41 6,8 °C 6,8 °C 91 % 1021,1 hPa 0,0 mm 17,3 km/h (3 Bft) SW 234 ° 0 min 0,000 mm 0,0 UV-I 0 W/m² 5,4 °C 3,7 °C 24,1 km/h (4 Bft)
10.03.2017 00:42 6,8 °C 6,8 °C 91 % 1021,0 hPa 0,0 mm 11,7 km/h (2 Bft) SW 233 ° 0 min 0,000 mm 0,0 UV-I 0 W/m² 5,4 °C 4,5 °C 19,3 km/h (3 Bft)
10.03.2017 00:43 6,8 °C 6,8 °C 91 % 1021,1 hPa 0,0 mm 17,3 km/h (3 Bft) W 267 ° 0 min 0,000 mm 0,0 UV-I 0 W/m² 5,4 °C 3,7 °C 25,7 km/h (4 Bft)
10.03.2017 00:44 6,8 °C 6,8 °C 91 % 1021,1 hPa 0,0 mm 15,0 km/h (3 Bft) SW 229 ° 0 min 0,000 mm 0,0 UV-I 0 W/m² 5,4 °C 4,0 °C 24,1 km/h (4 Bft)
10.03.2017 00:45 6,8 °C 6,8 °C 91 % 1021,1 hPa 0,0 mm 15,7 km/h (3 Bft) W 263 ° 0 min 0,000 mm 0,0 UV-I 0 W/m² 5,4 °C 3,9 °C 20,9 km/h (4 Bft)
10.03.2017 00:46 6,8 °C 6,8 °C 91 % 1021,1 hPa 0,0 mm 18,1 km/h (3 Bft) SW 236 ° 0 min 0,000 mm 0,0 UV-I 0 W/m² 5,4 °C 3,6 °C 30,6 km/h (5 Bft)
10.03.2017 00:47 6,8 °C 6,8 °C 91 % 1021,1 hPa 0,0 mm 21,2 km/h (4 Bft) W-SW 254 ° 0 min 0,000 mm 0,0 UV-I 0 W/m² 5,4 °C 3,2 °C 30,6 km/h (5 Bft)
10.03.2017 00:48 6,8 °C 6,8 °C 91 % 1021,1 hPa 0,0 mm 20,4 km/h (4 Bft) W-SW 256 ° 0 min 0,000 mm 0,0 UV-I 0 W/m² 5,4 °C 3,3 °C 25,7 km/h (4 Bft)
10.03.2017 00:49 6,8 °C 6,8 °C 91 % 1021,0 hPa 0,0 mm 14,7 km/h (3 Bft) W 273 ° 0 min 0,000 mm 0,0 UV-I 0 W/m² 5,4 °C 4,0 °C 22,5 km/h (4 Bft)
10.03.2017 00:50 6,8 °C 6,8 °C 91 % 1021,0 hPa 0,0 mm 16,9 km/h (3 Bft) W-SW 255 ° 0 min 0,000 mm 0,0 UV-I 0 W/m² 5,4 °C 3,7 °C 25,7 km/h (4 Bft)
10.03.2017 00:51 6,8 °C 6,8 °C 91 % 1021,1 hPa 0,0 mm 14,8 km/h (3 Bft) W-SW 244 ° 0 min 0,000 mm 0,0 UV-I 0 W/m² 5,4 °C 4,0 °C 30,6 km/h (5 Bft)
10.03.2017 00:52 6,8 °C 6,8 °C 91 % 1021,1 hPa 0,0 mm 17,1 km/h (3 Bft) W-SW 250 ° 0 min 0,000 mm 0,0 UV-I 0 W/m² 5,4 °C 3,7 °C 24,1 km/h (4 Bft)
10.03.2017 00:53 6,8 °C 6,8 °C 91 % 1021,1 hPa 0,0 mm 12,7 km/h (3 Bft) W-SW 257 ° 0 min 0,000 mm 0,0 UV-I 0 W/m² 5,4 °C 4,3 °C 27,4 km/h (4 Bft)
10.03.2017 00:54 6,8 °C 6,8 °C 91 % 1021,1 hPa 0,0 mm 15,7 km/h (3 Bft) W-SW 254 ° 0 min 0,000 mm 0,0 UV-I 0 W/m² 5,4 °C 3,9 °C 22,5 km/h (4 Bft)
10.03.2017 00:55 6,8 °C 6,8 °C 91 % 1021,1 hPa 0,0 mm 15,8 km/h (3 Bft) W 261 ° 0 min 0,000 mm 0,0 UV-I 0 W/m² 5,4 °C 3,9 °C 30,6 km/h (5 Bft)
10.03.2017 00:56 6,8 °C 6,8 °C 91 % 1021,2 hPa 0,0 mm 19,7 km/h (3 Bft) W 267 ° 0 min 0,000 mm 0,0 UV-I 0 W/m² 5,4 °C 3,4 °C 30,6 km/h (5 Bft)
10.03.2017 00:57 6,8 °C 6,8 °C 91 % 1021,2 hPa 0,0 mm 14,2 km/h (3 Bft) W-NW 290 ° 0 min 0,000 mm 0,0 UV-I 0 W/m² 5,4 °C 4,1 °C 24,1 km/h (4 Bft)
10.03.2017 00:58 6,8 °C 6,8 °C 91 % 1021,3 hPa 0,0 mm 18,0 km/h (3 Bft) W-SW 254 ° 0 min 0,000 mm 0,0 UV-I 0 W/m² 5,4 °C 3,6 °C 24,1 km/h (4 Bft)
10.03.2017 00:59 6,8 °C 6,8 °C 91 % 1021,3 hPa 0,0 mm 15,4 km/h (3 Bft) NW 306 ° 0 min 0,000 mm 0,0 UV-I 0 W/m² 5,4 °C 3,9 °C 22,5 km/h (4 Bft)
10.03.2017 01:00 6,8 °C 6,8 °C 91 % 1021,3 hPa 0,0 mm 11,6 km/h (2 Bft) W-NW 302 ° 0 min 0,025 mm 0,0 UV-I 0 W/m² 5,4 °C 4,5 °C 20,9 km/h (4 Bft)
10.03.2017 01:01 6,8 °C 6,8 °C 91 % 1021,3 hPa 0,0 mm 12,1 km/h (2 Bft) W-SW 248 ° 0 min 0,000 mm 0,0 UV-I 0 W/m² 5,4 °C 4,4 °C 17,7 km/h (3 Bft)
10.03.2017 01:02 6,8 °C 6,8 °C 91 % 1021,3 hPa 0,0 mm 16,7 km/h (3 Bft) W 266 ° 0 min 0,000 mm 0,0 UV-I 0 W/m² 5,4 °C 3,7 °C 24,1 km/h (4 Bft)
10.03.2017 01:03 6,8 °C 6,8 °C 91 % 1021,3 hPa 0,0 mm 14,6 km/h (3 Bft) W 264 ° 0 min 0,000 mm 0,0 UV-I 0 W/m² 5,4 °C 4,0 °C 20,9 km/h (4 Bft)
10.03.2017 01:04 6,8 °C 6,8 °C 91 % 1021,3 hPa 0,0 mm 12,3 km/h (3 Bft) W 261 ° 0 min 0,000 mm 0,0 UV-I 0 W/m² 5,4 °C 4,4 °C 16,1 km/h (3 Bft)
10.03.2017 01:05 6,7 °C 6,8 °C 91 % 1021,3 hPa 0,0 mm 15,2 km/h (3 Bft) W-NW 294 ° 0 min 0,000 mm 0,0 UV-I 0 W/m² 5,3 °C 3,8 °C 22,5 km/h (4 Bft)
10.03.2017 01:06 6,7 °C 6,7 °C 91 % 1021,3 hPa 0,0 mm 15,5 km/h (3 Bft) W 267 ° 0 min 0,000 mm 0,0 UV-I 0 W/m² 5,3 °C 3,8 °C 24,1 km/h (4 Bft)
10.03.2017 01:07 6,7 °C 6,7 °C 91 % 1021,3 hPa 0,0 mm 18,0 km/h (3 Bft) W-NW 288 ° 0 min 0,000 mm 0,0 UV-I 0 W/m² 5,3 °C 3,4 °C 22,5 km/h (4 Bft)
10.03.2017 01:08 6,7 °C 6,7 °C 91 % 1021,3 hPa 0,0 mm 19,7 km/h (3 Bft) W-SW 250 ° 0 min 0,000 mm 0,0 UV-I 0 W/m² 5,3 °C 3,2 °C 30,6 km/h (5 Bft)
10.03.2017 01:09 6,7 °C 6,7 °C 91 % 1021,4 hPa 0,0 mm 19,6 km/h (3 Bft) W-SW 249 ° 0 min 0,000 mm 0,0 UV-I 0 W/m² 5,3 °C 3,3 °C 24,1 km/h (4 Bft)
10.03.2017 01:10 6,7 °C 6,7 °C 91 % 1021,4 hPa 0,0 mm 17,0 km/h (3 Bft) W-SW 253 ° 0 min 0,000 mm 0,0 UV-I 0 W/m² 5,3 °C 3,6 °C 24,1 km/h (4 Bft)
10.03.2017 01:11 6,7 °C 6,7 °C 91 % 1021,4 hPa 0,0 mm 16,8 km/h (3 Bft) W 279 ° 0 min 0,000 mm 0,0 UV-I 0 W/m² 5,3 °C 3,6 °C 22,5 km/h (4 Bft)
10.03.2017 01:12 6,7 °C 6,7 °C 91 % 1021,4 hPa 0,0 mm 16,7 km/h (3 Bft) SW 222 ° 0 min 0,000 mm 0,0 UV-I 0 W/m² 5,3 °C 3,6 °C 27,4 km/h (4 Bft)
10.03.2017 01:13 6,7 °C 6,7 °C 91 % 1021,4 hPa 0,0 mm 15,1 km/h (3 Bft) W 267 ° 0 min 0,000 mm 0,0 UV-I 0 W/m² 5,3 °C 3,8 °C 19,3 km/h (3 Bft)
10.03.2017 01:14 6,7 °C 6,7 °C 91 % 1021,3 hPa 0,0 mm 12,8 km/h (3 Bft) W 260 ° 0 min 0,000 mm 0,0 UV-I 0 W/m² 5,3 °C 4,2 °C 20,9 km/h (4 Bft)
10.03.2017 01:15 6,7 °C 6,7 °C 91 % 1021,5 hPa 0,0 mm 15,7 km/h (3 Bft) W-NW 292 ° 0 min 0,000 mm 0,0 UV-I 0 W/m² 5,3 °C 3,7 °C 24,1 km/h (4 Bft)
10.03.2017 01:16 6,7 °C 6,7 °C 91 % 1021,4 hPa 0,0 mm 16,0 km/h (3 Bft) W-SW 245 ° 0 min 0,000 mm 0,0 UV-I 0 W/m² 5,3 °C 3,7 °C 25,7 km/h (4 Bft)
10.03.2017 01:17 6,7 °C 6,7 °C 91 % 1021,5 hPa 0,0 mm 18,9 km/h (3 Bft) W-SW 250 ° 0 min 0,000 mm 0,0 UV-I 0 W/m² 5,3 °C 3,3 °C 22,5 km/h (4 Bft)
10.03.2017 01:18 6,7 °C 6,7 °C 91 % 1021,6 hPa 0,0 mm 19,7 km/h (3 Bft) W-NW 293 ° 0 min 0,000 mm 0,0 UV-I 0 W/m² 5,3 °C 3,2 °C 27,4 km/h (4 Bft)
10.03.2017 01:19 6,7 °C 6,7 °C 91 % 1021,6 hPa 0,0 mm 18,5 km/h (3 Bft) W 259 ° 0 min 0,000 mm 0,0 UV-I 0 W/m² 5,3 °C 3,4 °C 27,4 km/h (4 Bft)
10.03.2017 01:20 6,7 °C 6,7 °C 91 % 1021,5 hPa 0,0 mm 12,1 km/h (2 Bft) W 274 ° 0 min 0,000 mm 0,0 UV-I 0 W/m² 5,3 °C 4,3 °C 16,1 km/h (3 Bft)
10.03.2017 01:21 6,7 °C 6,7 °C 91 % 1021,5 hPa 0,0 mm 22,4 km/h (4 Bft) W-SW 254 ° 0 min 0,000 mm 0,0 UV-I 0 W/m² 5,3 °C 3,0 °C 38,6 km/h (5 Bft)
10.03.2017 01:22 6,7 °C 6,7 °C 91 % 1021,4 hPa 0,0 mm 21,3 km/h (4 Bft) W 276 ° 0 min 0,000 mm 0,0 UV-I 0 W/m² 5,3 °C 3,1 °C 27,4 km/h (4 Bft)
10.03.2017 01:23 6,6 °C 6,7 °C 91 % 1021,4 hPa 0,0 mm 17,2 km/h (3 Bft) W 268 ° 0 min 0,000 mm 0,0 UV-I 0 W/m² 5,2 °C 3,4 °C 24,1 km/h (4 Bft)
10.03.2017 01:24 6,6 °C 6,7 °C 91 % 1021,5 hPa 0,0 mm 23,5 km/h (4 Bft) W 265 ° 0 min 0,000 mm 0,0 UV-I 0 W/m² 5,2 °C 2,7 °C 32,2 km/h (5 Bft)
10.03.2017 01:25 6,7 °C 6,7 °C 91 % 1021,5 hPa 0,0 mm 20,7 km/h (4 Bft) W 261 ° 0 min 0,000 mm 0,0 UV-I 0 W/m² 5,3 °C 3,1 °C 29,0 km/h (5 Bft)
10.03.2017 01:26 6,7 °C 6,7 °C 91 % 1021,5 hPa 0,0 mm 14,1 km/h (3 Bft) W-SW 254 ° 0 min 0,000 mm 0,0 UV-I 0 W/m² 5,3 °C 4,0 °C 20,9 km/h (4 Bft)
10.03.2017 01:27 6,6 °C 6,7 °C 91 % 1021,5 hPa 0,0 mm 16,0 km/h (3 Bft) W 259 ° 0 min 0,000 mm 0,0 UV-I 0 W/m² 5,2 °C 3,6 °C 20,9 km/h (4 Bft)
10.03.2017 01:28 6,6 °C 6,6 °C 91 % 1021,5 hPa 0,0 mm 15,8 km/h (3 Bft) W-NW 282 ° 0 min 0,000 mm 0,0 UV-I 0 W/m² 5,2 °C 3,6 °C 22,5 km/h (4 Bft)
10.03.2017 01:29 6,6 °C 6,6 °C 91 % 1021,5 hPa 0,0 mm 12,5 km/h (3 Bft) W 267 ° 0 min 0,000 mm 0,0 UV-I 0 W/m² 5,2 °C 4,1 °C 16,1 km/h (3 Bft)
10.03.2017 01:30 6,6 °C 6,6 °C 91 % 1021,5 hPa 0,0 mm 11,3 km/h (2 Bft) W-SW 258 ° 0 min 0,000 mm 0,0 UV-I 0 W/m² 5,2 °C 4,3 °C 14,5 km/h (3 Bft)
10.03.2017 01:31 6,5 °C 6,6 °C 91 % 1021,5 hPa 0,0 mm 12,9 km/h (3 Bft) W-SW 242 ° 0 min 0,000 mm 0,0 UV-I 0 W/m² 5,1 °C 3,9 °C 20,9 km/h (4 Bft)
10.03.2017 01:32 6,5 °C 6,5 °C 91 % 1021,5 hPa 0,0 mm 15,9 km/h (3 Bft) W-SW 251 ° 0 min 0,000 mm 0,0 UV-I 0 W/m² 5,1 °C 3,5 °C 20,9 km/h (4 Bft)
10.03.2017 01:33 6,5 °C 6,5 °C 91 % 1021,4 hPa 0,0 mm 13,8 km/h (3 Bft) W-SW 249 ° 0 min 0,000 mm 0,0 UV-I 0 W/m² 5,1 °C 3,8 °C 22,5 km/h (4 Bft)
10.03.2017 01:34 6,5 °C 6,5 °C 91 % 1021,5 hPa 0,0 mm 12,1 km/h (2 Bft) W-NW 287 ° 0 min 0,000 mm 0,0 UV-I 0 W/m² 5,1 °C 4,1 °C 17,7 km/h (3 Bft)
10.03.2017 01:35 6,5 °C 6,5 °C 91 % 1021,6 hPa 0,0 mm 13,3 km/h (3 Bft) W 261 ° 0 min 0,000 mm 0,0 UV-I 0 W/m² 5,1 °C 3,9 °C 20,9 km/h (4 Bft)
10.03.2017 01:36 6,5 °C 6,5 °C 91 % 1021,5 hPa 0,0 mm 13,6 km/h (3 Bft) W-SW 242 ° 0 min 0,000 mm 0,0 UV-I 0 W/m² 5,1 °C 3,8 °C 19,3 km/h (3 Bft)
10.03.2017 01:37 6,4 °C 6,5 °C 91 % 1021,5 hPa 0,0 mm 19,4 km/h (3 Bft) W 281 ° 0 min 0,000 mm 0,0 UV-I 0 W/m² 5,0 °C 2,9 °C 24,1 km/h (4 Bft)
10.03.2017 01:38 6,4 °C 6,5 °C 91 % 1021,5 hPa 0,0 mm 17,3 km/h (3 Bft) W 267 ° 0 min 0,000 mm 0,0 UV-I 0 W/m² 5,0 °C 3,2 °C 22,5 km/h (4 Bft)
10.03.2017 01:39 6,4 °C 6,4 °C 91 % 1021,5 hPa 0,0 mm 14,0 km/h (3 Bft) W-SW 257 ° 0 min 0,000 mm 0,0 UV-I 0 W/m² 5,0 °C 3,6 °C 20,9 km/h (4 Bft)
10.03.2017 01:40 6,4 °C 6,4 °C 91 % 1021,5 hPa 0,0 mm 16,3 km/h (3 Bft) W-SW 244 ° 0 min 0,000 mm 0,0 UV-I 0 W/m² 5,0 °C 3,3 °C 24,1 km/h (4 Bft)
10.03.2017 01:41 6,4 °C 6,5 °C 91 % 1021,5 hPa 0,0 mm 11,1 km/h (2 Bft) W 265 ° 0 min 0,000 mm 0,0 UV-I 0 W/m² 5,0 °C 4,1 °C 17,7 km/h (3 Bft)
10.03.2017 01:42 6,4 °C 6,4 °C 91 % 1021,5 hPa 0,0 mm 9,8 km/h (2 Bft) W-SW 255 ° 0 min 0,000 mm 0,0 UV-I 0 W/m² 5,0 °C 4,4 °C 12,9 km/h (3 Bft)
10.03.2017 01:43 6,4 °C 6,4 °C 91 % 1021,5 hPa 0,0 mm 11,8 km/h (2 Bft) W 271 ° 0 min 0,000 mm 0,0 UV-I 0 W/m² 5,0 °C 4,0 °C 16,1 km/h (3 Bft)
10.03.2017 01:44 6,4 °C 6,4 °C 91 % 1021,5 hPa 0,0 mm 19,9 km/h (4 Bft) W-SW 258 ° 0 min 0,000 mm 0,0 UV-I 0 W/m² 5,0 °C 2,8 °C 29,0 km/h (5 Bft)
10.03.2017 01:45 6,4 °C 6,4 °C 91 % 1021,5 hPa 0,0 mm 16,2 km/h (3 Bft) W-SW 252 ° 0 min 0,000 mm 0,0 UV-I 0 W/m² 5,0 °C 3,3 °C 22,5 km/h (4 Bft)
10.03.2017 01:46 6,4 °C 6,4 °C 91 % 1021,5 hPa 0,0 mm 15,4 km/h (3 Bft) W-SW 258 ° 0 min 0,000 mm 0,0 UV-I 0 W/m² 5,0 °C 3,4 °C 25,7 km/h (4 Bft)
10.03.2017 01:47 6,5 °C 6,5 °C 91 % 1021,6 hPa 0,0 mm 17,2 km/h (3 Bft) W-SW 250 ° 0 min 0,000 mm 0,0 UV-I 0 W/m² 5,1 °C 3,3 °C 27,4 km/h (4 Bft)
10.03.2017 01:48 6,5 °C 6,5 °C 91 % 1021,7 hPa 0,0 mm 17,6 km/h (3 Bft) SW 234 ° 0 min 0,000 mm 0,0 UV-I 0 W/m² 5,1 °C 3,2 °C 25,7 km/h (4 Bft)
10.03.2017 01:49 6,5 °C 6,5 °C 91 % 1021,6 hPa 0,0 mm 15,7 km/h (3 Bft) W 272 ° 0 min 0,000 mm 0,0 UV-I 0 W/m² 5,1 °C 3,5 °C 19,3 km/h (3 Bft)
10.03.2017 01:50 6,4 °C 6,5 °C 91 % 1021,6 hPa 0,0 mm 13,9 km/h (3 Bft) W 268 ° 0 min 0,000 mm 0,0 UV-I 0 W/m² 5,0 °C 3,6 °C 22,5 km/h (4 Bft)
10.03.2017 01:51 6,5 °C 6,5 °C 91 % 1021,6 hPa 0,0 mm 8,5 km/h (2 Bft) W-NW 284 ° 0 min 0,000 mm 0,0 UV-I 0 W/m² 5,1 °C 4,8 °C 12,9 km/h (3 Bft)
10.03.2017 01:52 6,5 °C 6,5 °C 91 % 1021,6 hPa 0,0 mm 10,4 km/h (2 Bft) W-SW 249 ° 0 min 0,000 mm 0,0 UV-I 0 W/m² 5,1 °C 4,4 °C 14,5 km/h (3 Bft)
10.03.2017 01:53 6,5 °C 6,5 °C 91 % 1021,5 hPa 0,0 mm 12,8 km/h (3 Bft) W 259 ° 0 min 0,000 mm 0,0 UV-I 0 W/m² 5,1 °C 3,9 °C 16,1 km/h (3 Bft)
10.03.2017 01:54 6,5 °C 6,5 °C 91 % 1021,5 hPa 0,0 mm 10,2 km/h (2 Bft) W-NW 288 ° 0 min 0,000 mm 0,0 UV-I 0 W/m² 5,1 °C 4,4 °C 14,5 km/h (3 Bft)
10.03.2017 01:55 6,5 °C 6,5 °C 91 % 1021,5 hPa 0,0 mm 11,9 km/h (2 Bft) W 261 ° 0 min 0,000 mm 0,0 UV-I 0 W/m² 5,1 °C 4,1 °C 22,5 km/h (4 Bft)
10.03.2017 01:56 6,5 °C 6,5 °C 91 % 1021,5 hPa 0,0 mm 15,6 km/h (3 Bft) W-NW 290 ° 0 min 0,000 mm 0,0 UV-I 0 W/m² 5,1 °C 3,5 °C 24,1 km/h (4 Bft)
10.03.2017 01:57 6,4 °C 6,5 °C 91 % 1021,5 hPa 0,0 mm 13,0 km/h (3 Bft) W 274 ° 0 min 0,000 mm 0,0 UV-I 0 W/m² 5,0 °C 3,8 °C 16,1 km/h (3 Bft)
10.03.2017 01:58 6,5 °C 6,5 °C 91 % 1021,5 hPa 0,0 mm 14,0 km/h (3 Bft) W-SW 254 ° 0 min 0,000 mm 0,0 UV-I 0 W/m² 5,1 °C 3,7 °C 19,3 km/h (3 Bft)
10.03.2017 01:59 6,4 °C 6,5 °C 91 % 1021,5 hPa 0,0 mm 11,5 km/h (2 Bft) W-NW 283 ° 0 min 0,000 mm 0,0 UV-I 0 W/m² 5,0 °C 4,0 °C 19,3 km/h (3 Bft)
10.03.2017 02:00 6,4 °C 6,5 °C 91 % 1021,5 hPa 0,0 mm 11,1 km/h (2 Bft) W-SW 252 ° 0 min 0,000 mm 0,0 UV-I 0 W/m² 5,0 °C 4,1 °C 14,5 km/h (3 Bft)
10.03.2017 02:01 6,4 °C 6,5 °C 91 % 1021,6 hPa 0,0 mm 11,5 km/h (2 Bft) W-SW 244 ° 0 min 0,026 mm 0,0 UV-I 0 W/m² 5,0 °C 4,0 °C 14,5 km/h (3 Bft)
10.03.2017 02:02 6,4 °C 6,4 °C 91 % 1021,6 hPa 0,0 mm 13,6 km/h (3 Bft) W-NW 283 ° 0 min 0,000 mm 0,0 UV-I 0 W/m² 5,0 °C 3,7 °C 25,7 km/h (4 Bft)
10.03.2017 02:03 6,4 °C 6,4 °C 91 % 1021,5 hPa 0,0 mm 15,2 km/h (3 Bft) W-NW 284 ° 0 min 0,000 mm 0,0 UV-I 0 W/m² 5,0 °C 3,4 °C 24,1 km/h (4 Bft)
10.03.2017 02:04 6,4 °C 6,5 °C 91 % 1021,6 hPa 0,0 mm 13,5 km/h (3 Bft) W 277 ° 0 min 0,000 mm 0,0 UV-I 0 W/m² 5,0 °C 3,7 °C 16,1 km/h (3 Bft)
10.03.2017 02:05 6,4 °C 6,4 °C 91 % 1021,5 hPa 0,0 mm 13,3 km/h (3 Bft) W 273 ° 0 min 0,000 mm 0,0 UV-I 0 W/m² 5,0 °C 3,7 °C 20,9 km/h (4 Bft)
10.03.2017 02:06 6,4 °C 6,4 °C 91 % 1021,6 hPa 0,0 mm 14,8 km/h (3 Bft) W-NW 293 ° 0 min 0,000 mm 0,0 UV-I 0 W/m² 5,0 °C 3,5 °C 20,9 km/h (4 Bft)
10.03.2017 02:07 6,4 °C 6,5 °C 91 % 1021,5 hPa 0,0 mm 10,1 km/h (2 Bft) W-SW 252 ° 0 min 0,000 mm 0,0 UV-I 0 W/m² 5,0 °C 4,3 °C 17,7 km/h (3 Bft)
10.03.2017 02:08 6,4 °C 6,5 °C 91 % 1021,6 hPa 0,0 mm 11,7 km/h (2 Bft) W 267 ° 0 min 0,000 mm 0,0 UV-I 0 W/m² 5,0 °C 4,0 °C 19,3 km/h (3 Bft)
10.03.2017 02:09 6,4 °C 6,4 °C 91 % 1021,5 hPa 0,0 mm 11,9 km/h (2 Bft) W 263 ° 0 min 0,000 mm 0,0 UV-I 0 W/m² 5,0 °C 4,0 °C 16,1 km/h (3 Bft)
10.03.2017 02:10 6,4 °C 6,4 °C 91 % 1021,5 hPa 0,0 mm 8,8 km/h (2 Bft) W-SW 250 ° 0 min 0,000 mm 0,0 UV-I 0 W/m² 5,0 °C 4,6 °C 14,5 km/h (3 Bft)
10.03.2017 02:11 6,4 °C 6,4 °C 91 % 1021,5 hPa 0,0 mm 7,6 km/h (2 Bft) W 261 ° 0 min 0,000 mm 0,0 UV-I 0 W/m² 5,0 °C 4,9 °C 11,3 km/h (2 Bft)
10.03.2017 02:12 6,4 °C 6,4 °C 91 % 1021,6 hPa 0,0 mm 11,4 km/h (2 Bft) W-SW 244 ° 0 min 0,000 mm 0,0 UV-I 0 W/m² 5,0 °C 4,1 °C 14,5 km/h (3 Bft)
10.03.2017 02:13 6,4 °C 6,4 °C 91 % 1021,5 hPa 0,0 mm 10,6 km/h (2 Bft) W-SW 250 ° 0 min 0,000 mm 0,0 UV-I 0 W/m² 5,0 °C 4,2 °C 16,1 km/h (3 Bft)
10.03.2017 02:14 6,4 °C 6,4 °C 91 % 1021,5 hPa 0,0 mm 10,2 km/h (2 Bft) W 277 ° 0 min 0,000 mm 0,0 UV-I 0 W/m² 5,0 °C 4,3 °C 14,5 km/h (3 Bft)
10.03.2017 02:15 6,4 °C 6,4 °C 91 % 1021,6 hPa 0,0 mm 12,1 km/h (2 Bft) W 263 ° 0 min 0,000 mm 0,0 UV-I 0 W/m² 5,0 °C 3,9 °C 16,1 km/h (3 Bft)
10.03.2017 02:16 6,4 °C 6,4 °C 91 % 1021,5 hPa 0,0 mm 12,7 km/h (3 Bft) W 267 ° 0 min 0,000 mm 0,0 UV-I 0 W/m² 5,0 °C 3,8 °C 16,1 km/h (3 Bft)
10.03.2017 02:17 6,3 °C 6,4 °C 91 % 1021,5 hPa 0,0 mm 14,5 km/h (3 Bft) W 259 ° 0 min 0,000 mm 0,0 UV-I 0 W/m² 4,9 °C 3,4 °C 24,1 km/h (4 Bft)
10.03.2017 02:18 6,3 °C 6,3 °C 91 % 1021,5 hPa 0,0 mm 14,9 km/h (3 Bft) W-SW 251 ° 0 min 0,000 mm 0,0 UV-I 0 W/m² 4,9 °C 3,4 °C 25,7 km/h (4 Bft)
10.03.2017 02:19 6,3 °C 6,3 °C 91 % 1021,6 hPa 0,0 mm 17,6 km/h (3 Bft) W 272 ° 0 min 0,000 mm 0,0 UV-I 0 W/m² 4,9 °C 3,0 °C 29,0 km/h (5 Bft)
10.03.2017 02:20 6,3 °C 6,3 °C 91 % 1021,5 hPa 0,0 mm 15,4 km/h (3 Bft) W-SW 252 ° 0 min 0,000 mm 0,0 UV-I 0 W/m² 4,9 °C 3,3 °C 19,3 km/h (3 Bft)
10.03.2017 02:21 6,3 °C 6,3 °C 91 % 1021,6 hPa 0,0 mm 13,2 km/h (3 Bft) W-SW 258 ° 0 min 0,000 mm 0,0 UV-I 0 W/m² 4,9 °C 3,6 °C 19,3 km/h (3 Bft)
10.03.2017 02:22 6,3 °C 6,3 °C 91 % 1021,6 hPa 0,0 mm 9,5 km/h (2 Bft) W-SW 257 ° 0 min 0,000 mm 0,0 UV-I 0 W/m² 4,9 °C 4,3 °C 12,9 km/h (3 Bft)
10.03.2017 02:23 6,3 °C 6,3 °C 91 % 1021,7 hPa 0,0 mm 13,8 km/h (3 Bft) W-SW 240 ° 0 min 0,000 mm 0,0 UV-I 0 W/m² 4,9 °C 3,5 °C 20,9 km/h (4 Bft)
10.03.2017 02:24 6,3 °C 6,3 °C 91 % 1021,7 hPa 0,0 mm 9,7 km/h (2 Bft) W-SW 249 ° 0 min 0,000 mm 0,0 UV-I 0 W/m² 4,9 °C 4,3 °C 14,5 km/h (3 Bft)
10.03.2017 02:25 6,3 °C 6,3 °C 91 % 1021,7 hPa 0,0 mm 7,8 km/h (2 Bft) W-NW 290 ° 0 min 0,000 mm 0,0 UV-I 0 W/m² 4,9 °C 4,7 °C 12,9 km/h (3 Bft)
10.03.2017 02:26 6,3 °C 6,3 °C 91 % 1021,7 hPa 0,0 mm 6,7 km/h (2 Bft) W 270 ° 0 min 0,000 mm 0,0 UV-I 0 W/m² 4,9 °C 5,0 °C 11,3 km/h (2 Bft)
10.03.2017 02:27 6,2 °C 6,3 °C 91 % 1021,7 hPa 0,0 mm 11,3 km/h (2 Bft) W 261 ° 0 min 0,000 mm 0,0 UV-I 0 W/m² 4,8 °C 3,8 °C 17,7 km/h (3 Bft)
10.03.2017 02:28 6,2 °C 6,3 °C 91 % 1021,7 hPa 0,0 mm 10,9 km/h (2 Bft) W 279 ° 0 min 0,000 mm 0,0 UV-I 0 W/m² 4,8 °C 3,9 °C 14,5 km/h (3 Bft)
10.03.2017 02:29 6,2 °C 6,3 °C 91 % 1021,8 hPa 0,0 mm 10,7 km/h (2 Bft) W-SW 244 ° 0 min 0,000 mm 0,0 UV-I 0 W/m² 4,8 °C 4,0 °C 12,9 km/h (3 Bft)
10.03.2017 02:30 6,2 °C 6,2 °C 91 % 1021,7 hPa 0,0 mm 9,1 km/h (2 Bft) W-SW 240 ° 0 min 0,000 mm 0,0 UV-I 0 W/m² 4,8 °C 4,3 °C 14,5 km/h (3 Bft)
10.03.2017 02:31 6,2 °C 6,2 °C 91 % 1021,6 hPa 0,0 mm 11,4 km/h (2 Bft) W-SW 254 ° 0 min 0,000 mm 0,0 UV-I 0 W/m² 4,8 °C 3,8 °C 19,3 km/h (3 Bft)
10.03.2017 02:32 6,2 °C 6,2 °C 91 % 1021,6 hPa 0,0 mm 9,7 km/h (2 Bft) W-SW 257 ° 0 min 0,000 mm 0,0 UV-I 0 W/m² 4,8 °C 4,2 °C 14,5 km/h (3 Bft)
10.03.2017 02:33 6,2 °C 6,2 °C 91 % 1021,7 hPa 0,0 mm 9,3 km/h (2 Bft) W 266 ° 0 min 0,000 mm 0,0 UV-I 0 W/m² 4,8 °C 4,2 °C 14,5 km/h (3 Bft)
10.03.2017 02:34 6,2 °C 6,2 °C 91 % 1021,8 hPa 0,0 mm 8,2 km/h (2 Bft) W 259 ° 0 min 0,000 mm 0,0 UV-I 0 W/m² 4,8 °C 4,5 °C 17,7 km/h (3 Bft)
10.03.2017 02:35 6,2 °C 6,2 °C 91 % 1021,7 hPa 0,0 mm 19,8 km/h (3 Bft) W 264 ° 0 min 0,000 mm 0,0 UV-I 0 W/m² 4,8 °C 2,6 °C 25,7 km/h (4 Bft)
10.03.2017 02:36 6,2 °C 6,2 °C 91 % 1021,6 hPa 0,0 mm 15,6 km/h (3 Bft) W 261 ° 0 min 0,000 mm 0,0 UV-I 0 W/m² 4,8 °C 3,1 °C 24,1 km/h (4 Bft)
10.03.2017 02:37 6,1 °C 6,2 °C 91 % 1021,5 hPa 0,0 mm 9,8 km/h (2 Bft) W 270 ° 0 min 0,000 mm 0,0 UV-I 0 W/m² 4,7 °C 4,0 °C 14,5 km/h (3 Bft)
10.03.2017 02:38 6,2 °C 6,2 °C 91 % 1021,5 hPa 0,0 mm 11,2 km/h (2 Bft) W-SW 249 ° 0 min 0,000 mm 0,0 UV-I 0 W/m² 4,8 °C 3,9 °C 12,9 km/h (3 Bft)
10.03.2017 02:39 6,2 °C 6,2 °C 91 % 1021,5 hPa 0,0 mm 7,5 km/h (2 Bft) W-SW 252 ° 0 min 0,000 mm 0,0 UV-I 0 W/m² 4,8 °C 4,7 °C 11,3 km/h (2 Bft)
10.03.2017 02:40 6,1 °C 6,2 °C 91 % 1021,5 hPa 0,0 mm 10,3 km/h (2 Bft) W 263 ° 0 min 0,000 mm 0,0 UV-I 0 W/m² 4,7 °C 3,9 °C 20,9 km/h (4 Bft)
10.03.2017 02:41 6,1 °C 6,1 °C 91 % 1021,5 hPa 0,0 mm 12,7 km/h (3 Bft) W-NW 283 ° 0 min 0,000 mm 0,0 UV-I 0 W/m² 4,7 °C 3,5 °C 17,7 km/h (3 Bft)
10.03.2017 02:42 6,1 °C 6,1 °C 91 % 1021,6 hPa 0,0 mm 6,8 km/h (2 Bft) W 279 ° 0 min 0,000 mm 0,0 UV-I 0 W/m² 4,7 °C 4,7 °C 11,3 km/h (2 Bft)
10.03.2017 02:43 6,1 °C 6,2 °C 91 % 1021,6 hPa 0,0 mm 6,1 km/h (2 Bft) W 276 ° 0 min 0,000 mm 0,0 UV-I 0 W/m² 4,7 °C 5,0 °C 12,9 km/h (3 Bft)
10.03.2017 02:44 6,1 °C 6,1 °C 91 % 1021,7 hPa 0,0 mm 14,4 km/h (3 Bft) W-SW 255 ° 0 min 0,000 mm 0,0 UV-I 0 W/m² 4,7 °C 3,2 °C 19,3 km/h (3 Bft)
10.03.2017 02:45 6,1 °C 6,1 °C 91 % 1021,8 hPa 0,0 mm 11,1 km/h (2 Bft) W 279 ° 0 min 0,000 mm 0,0 UV-I 0 W/m² 4,7 °C 3,8 °C 14,5 km/h (3 Bft)
10.03.2017 02:46 6,1 °C 6,1 °C 91 % 1021,8 hPa 0,0 mm 10,3 km/h (2 Bft) W-NW 289 ° 0 min 0,000 mm 0,0 UV-I 0 W/m² 4,7 °C 3,9 °C 16,1 km/h (3 Bft)
10.03.2017 02:47 6,1 °C 6,1 °C 91 % 1021,8 hPa 0,0 mm 12,9 km/h (3 Bft) W 279 ° 0 min 0,000 mm 0,0 UV-I 0 W/m² 4,7 °C 3,4 °C 20,9 km/h (4 Bft)
10.03.2017 02:48 6,1 °C 6,1 °C 91 % 1021,8 hPa 0,0 mm 11,7 km/h (2 Bft) W-NW 298 ° 0 min 0,000 mm 0,0 UV-I 0 W/m² 4,7 °C 3,6 °C 20,9 km/h (4 Bft)
10.03.2017 02:49 6,1 °C 6,1 °C 91 % 1021,7 hPa 0,0 mm 15,2 km/h (3 Bft) W-SW 247 ° 0 min 0,000 mm 0,0 UV-I 0 W/m² 4,7 °C 3,1 °C 22,5 km/h (4 Bft)
10.03.2017 02:50 6,1 °C 6,1 °C 91 % 1021,8 hPa 0,0 mm 16,2 km/h (3 Bft) W 269 ° 0 min 0,000 mm 0,0 UV-I 0 W/m² 4,7 °C 2,9 °C 22,5 km/h (4 Bft)
10.03.2017 02:51 6,1 °C 6,1 °C 91 % 1021,8 hPa 0,0 mm 21,4 km/h (4 Bft) W-NW 288 ° 0 min 0,000 mm 0,0 UV-I 0 W/m² 4,7 °C 2,3 °C 37,0 km/h (5 Bft)
10.03.2017 02:52 6,1 °C 6,1 °C 91 % 1021,8 hPa 0,0 mm 18,9 km/h (3 Bft) W-SW 240 ° 0 min 0,000 mm 0,0 UV-I 0 W/m² 4,7 °C 2,6 °C 22,5 km/h (4 Bft)
10.03.2017 02:53 6,1 °C 6,1 °C 90 % 1022,0 hPa 0,0 mm 13,9 km/h (3 Bft) W 269 ° 0 min 0,000 mm 0,0 UV-I 0 W/m² 4,6 °C 3,3 °C 19,3 km/h (3 Bft)
10.03.2017 02:54 6,1 °C 6,1 °C 90 % 1021,9 hPa 0,0 mm 14,1 km/h (3 Bft) W-SW 251 ° 0 min 0,000 mm 0,0 UV-I 0 W/m² 4,6 °C 3,2 °C 20,9 km/h (4 Bft)
10.03.2017 02:55 6,1 °C 6,1 °C 90 % 1021,9 hPa 0,0 mm 18,2 km/h (3 Bft) W 279 ° 0 min 0,000 mm 0,0 UV-I 0 W/m² 4,6 °C 2,7 °C 27,4 km/h (4 Bft)
10.03.2017 02:56 6,1 °C 6,1 °C 90 % 1021,9 hPa 0,0 mm 17,0 km/h (3 Bft) S-SW 212 ° 0 min 0,000 mm 0,0 UV-I 0 W/m² 4,6 °C 2,8 °C 22,5 km/h (4 Bft)
10.03.2017 02:57 6,1 °C 6,1 °C 90 % 1022,0 hPa 0,0 mm 9,6 km/h (2 Bft) S-SW 206 ° 0 min 0,000 mm 0,0 UV-I 0 W/m² 4,6 °C 4,1 °C 12,9 km/h (3 Bft)
10.03.2017 02:58 6,1 °C 6,1 °C 90 % 1022,0 hPa 0,0 mm 13,3 km/h (3 Bft) W 259 ° 0 min 0,000 mm 0,0 UV-I 0 W/m² 4,6 °C 3,4 °C 22,5 km/h (4 Bft)
10.03.2017 02:59 6,1 °C 6,1 °C 90 % 1022,0 hPa 0,0 mm 11,9 km/h (2 Bft) W 271 ° 0 min 0,000 mm 0,0 UV-I 0 W/m² 4,6 °C 3,6 °C 14,5 km/h (3 Bft)
10.03.2017 03:00 6,1 °C 6,1 °C 90 % 1022,0 hPa 0,0 mm 7,4 km/h (2 Bft) W-SW 254 ° 0 min 0,000 mm 0,0 UV-I 0 W/m² 4,6 °C 4,6 °C 12,9 km/h (3 Bft)
10.03.2017 03:01 6,1 °C 6,1 °C 90 % 1022,0 hPa 0,0 mm 9,7 km/h (2 Bft) W 281 ° 0 min 0,025 mm 0,0 UV-I 0 W/m² 4,6 °C 4,0 °C 14,5 km/h (3 Bft)
10.03.2017 03:02 6,1 °C 6,1 °C 90 % 1021,9 hPa 0,0 mm 13,1 km/h (3 Bft) W-NW 294 ° 0 min 0,000 mm 0,0 UV-I 0 W/m² 4,6 °C 3,4 °C 16,1 km/h (3 Bft)
10.03.2017 03:03 6,1 °C 6,1 °C 90 % 1021,8 hPa 0,0 mm 10,2 km/h (2 Bft) W 267 ° 0 min 0,000 mm 0,0 UV-I 0 W/m² 4,6 °C 3,9 °C 14,5 km/h (3 Bft)
10.03.2017 03:04 6,1 °C 6,1 °C 90 % 1021,9 hPa 0,0 mm 7,9 km/h (2 Bft) W-NW 297 ° 0 min 0,000 mm 0,0 UV-I 0 W/m² 4,6 °C 4,5 °C 11,3 km/h (2 Bft)
10.03.2017 03:05 6,1 °C 6,1 °C 90 % 1022,0 hPa 0,0 mm 13,7 km/h (3 Bft) W-NW 298 ° 0 min 0,000 mm 0,0 UV-I 0 W/m² 4,6 °C 3,3 °C 20,9 km/h (4 Bft)
10.03.2017 03:06 6,1 °C 6,1 °C 90 % 1022,0 hPa 0,0 mm 12,1 km/h (2 Bft) W 261 ° 0 min 0,000 mm 0,0 UV-I 0 W/m² 4,6 °C 3,6 °C 17,7 km/h (3 Bft)
10.03.2017 03:07 6,1 °C 6,1 °C 90 % 1022,0 hPa 0,0 mm 14,0 km/h (3 Bft) W 269 ° 0 min 0,000 mm 0,0 UV-I 0 W/m² 4,6 °C 3,3 °C 24,1 km/h (4 Bft)
10.03.2017 03:08 6,1 °C 6,1 °C 90 % 1022,1 hPa 0,0 mm 12,0 km/h (2 Bft) W 267 ° 0 min 0,000 mm 0,0 UV-I 0 W/m² 4,6 °C 3,6 °C 27,4 km/h (4 Bft)
10.03.2017 03:09 6,1 °C 6,1 °C 90 % 1022,1 hPa 0,0 mm 12,1 km/h (2 Bft) W-NW 300 ° 0 min 0,000 mm 0,0 UV-I 0 W/m² 4,6 °C 3,6 °C 24,1 km/h (4 Bft)
10.03.2017 03:10 5,9 °C 6,1 °C 90 % 1022,1 hPa 0,0 mm 7,6 km/h (2 Bft) W-SW 244 ° 0 min 0,000 mm 0,0 UV-I 0 W/m² 4,4 °C 4,3 °C 12,9 km/h (3 Bft)
10.03.2017 03:11 5,9 °C 5,9 °C 91 % 1022,0 hPa 0,0 mm 16,4 km/h (3 Bft) W-SW 239 ° 0 min 0,000 mm 0,0 UV-I 0 W/m² 4,5 °C 2,7 °C 22,5 km/h (4 Bft)
10.03.2017 03:12 5,9 °C 5,9 °C 90 % 1022,0 hPa 0,0 mm 12,2 km/h (2 Bft) W-SW 250 ° 0 min 0,000 mm 0,0 UV-I 0 W/m² 4,4 °C 3,3 °C 20,9 km/h (4 Bft)
10.03.2017 03:13 5,9 °C 5,9 °C 90 % 1022,0 hPa 0,0 mm 13,2 km/h (3 Bft) W 273 ° 0 min 0,000 mm 0,0 UV-I 0 W/m² 4,4 °C 3,1 °C 16,1 km/h (3 Bft)
10.03.2017 03:14 5,9 °C 5,9 °C 91 % 1022,0 hPa 0,0 mm 13,3 km/h (3 Bft) W 261 ° 0 min 0,000 mm 0,0 UV-I 0 W/m² 4,5 °C 3,1 °C 19,3 km/h (3 Bft)
10.03.2017 03:15 5,9 °C 5,9 °C 91 % 1022,0 hPa 0,0 mm 10,7 km/h (2 Bft) W-NW 287 ° 0 min 0,000 mm 0,0 UV-I 0 W/m² 4,5 °C 3,6 °C 17,7 km/h (3 Bft)
10.03.2017 03:16 5,9 °C 5,9 °C 90 % 1022,0 hPa 0,0 mm 14,7 km/h (3 Bft) W-SW 248 ° 0 min 0,000 mm 0,0 UV-I 0 W/m² 4,4 °C 2,9 °C 22,5 km/h (4 Bft)
10.03.2017 03:17 5,8 °C 5,9 °C 90 % 1022,0 hPa 0,0 mm 15,0 km/h (3 Bft) W-SW 255 ° 0 min 0,000 mm 0,0 UV-I 0 W/m² 4,3 °C 2,7 °C 22,5 km/h (4 Bft)
10.03.2017 03:18 5,8 °C 5,8 °C 90 % 1022,1 hPa 0,0 mm 11,4 km/h (2 Bft) W-NW 294 ° 0 min 0,000 mm 0,0 UV-I 0 W/m² 4,3 °C 3,3 °C 17,7 km/h (3 Bft)
10.03.2017 03:19 5,8 °C 5,8 °C 90 % 1022,0 hPa 0,0 mm 13,8 km/h (3 Bft) W-NW 300 ° 0 min 0,000 mm 0,0 UV-I 0 W/m² 4,3 °C 2,9 °C 19,3 km/h (3 Bft)
10.03.2017 03:20 5,8 °C 5,8 °C 91 % 1022,0 hPa 0,0 mm 12,3 km/h (3 Bft) W 260 ° 0 min 0,000 mm 0,0 UV-I 0 W/m² 4,4 °C 3,2 °C 16,1 km/h (3 Bft)
10.03.2017 03:21 5,8 °C 5,8 °C 91 % 1022,0 hPa 0,0 mm 15,0 km/h (3 Bft) W 261 ° 0 min 0,000 mm 0,0 UV-I 0 W/m² 4,4 °C 2,7 °C 25,7 km/h (4 Bft)
10.03.2017 03:22 5,9 °C 5,9 °C 91 % 1021,9 hPa 0,0 mm 16,1 km/h (3 Bft) W-NW 302 ° 0 min 0,000 mm 0,0 UV-I 0 W/m² 4,5 °C 2,7 °C 20,9 km/h (4 Bft)
10.03.2017 03:23 5,9 °C 5,9 °C 91 % 1021,9 hPa 0,0 mm 13,6 km/h (3 Bft) W 273 ° 0 min 0,000 mm 0,0 UV-I 0 W/m² 4,5 °C 3,1 °C 19,3 km/h (3 Bft)
10.03.2017 03:24 5,9 °C 5,9 °C 91 % 1021,9 hPa 0,0 mm 16,0 km/h (3 Bft) W 260 ° 0 min 0,000 mm 0,0 UV-I 0 W/m² 4,5 °C 2,7 °C 20,9 km/h (4 Bft)
10.03.2017 03:25 5,9 °C 5,9 °C 91 % 1021,8 hPa 0,0 mm 11,9 km/h (2 Bft) W 265 ° 0 min 0,000 mm 0,0 UV-I 0 W/m² 4,5 °C 3,4 °C 16,1 km/h (3 Bft)
10.03.2017 03:26 5,9 °C 5,9 °C 91 % 1021,8 hPa 0,0 mm 12,9 km/h (3 Bft) W 264 ° 0 min 0,000 mm 0,0 UV-I 0 W/m² 4,5 °C 3,2 °C 19,3 km/h (3 Bft)
10.03.2017 03:27 5,9 °C 5,9 °C 91 % 1021,9 hPa 0,0 mm 9,8 km/h (2 Bft) NW 305 ° 0 min 0,000 mm 0,0 UV-I 0 W/m² 4,5 °C 3,8 °C 11,3 km/h (2 Bft)
10.03.2017 03:28 5,9 °C 5,9 °C 91 % 1021,9 hPa 0,0 mm 10,9 km/h (2 Bft) W-NW 289 ° 0 min 0,000 mm 0,0 UV-I 0 W/m² 4,5 °C 3,6 °C 17,7 km/h (3 Bft)
10.03.2017 03:29 5,9 °C 5,9 °C 91 % 1021,9 hPa 0,0 mm 11,0 km/h (2 Bft) W-NW 295 ° 0 min 0,000 mm 0,0 UV-I 0 W/m² 4,5 °C 3,5 °C 19,3 km/h (3 Bft)
10.03.2017 03:30 5,9 °C 5,9 °C 91 % 1021,9 hPa 0,0 mm 10,3 km/h (2 Bft) W-SW 252 ° 0 min 0,000 mm 0,0 UV-I 0 W/m² 4,5 °C 3,7 °C 14,5 km/h (3 Bft)
10.03.2017 03:31 5,9 °C 5,9 °C 91 % 1021,9 hPa 0,0 mm 9,2 km/h (2 Bft) W 269 ° 0 min 0,000 mm 0,0 UV-I 0 W/m² 4,5 °C 3,9 °C 12,9 km/h (3 Bft)
10.03.2017 03:32 5,9 °C 5,9 °C 91 % 1021,9 hPa 0,0 mm 7,6 km/h (2 Bft) W 275 ° 0 min 0,000 mm 0,0 UV-I 0 W/m² 4,5 °C 4,3 °C 11,3 km/h (2 Bft)
10.03.2017 03:33 5,9 °C 5,9 °C 91 % 1021,9 hPa 0,0 mm 7,7 km/h (2 Bft) W-NW 283 ° 0 min 0,000 mm 0,0 UV-I 0 W/m² 4,5 °C 4,3 °C 11,3 km/h (2 Bft)
10.03.2017 03:34 5,9 °C 5,9 °C 91 % 1021,9 hPa 0,0 mm 9,7 km/h (2 Bft) W 260 ° 0 min 0,000 mm 0,0 UV-I 0 W/m² 4,5 °C 3,8 °C 14,5 km/h (3 Bft)
10.03.2017 03:35 5,9 °C 5,9 °C 91 % 1021,9 hPa 0,0 mm 20,2 km/h (4 Bft) W-NW 286 ° 0 min 0,000 mm 0,0 UV-I 0 W/m² 4,5 °C 2,2 °C 24,1 km/h (4 Bft)
10.03.2017 03:36 5,9 °C 5,9 °C 91 % 1022,0 hPa 0,0 mm 12,1 km/h (2 Bft) W-SW 257 ° 0 min 0,000 mm 0,0 UV-I 0 W/m² 4,5 °C 3,3 °C 16,1 km/h (3 Bft)
10.03.2017 03:37 5,9 °C 5,9 °C 91 % 1022,1 hPa 0,0 mm 10,2 km/h (2 Bft) W-SW 257 ° 0 min 0,000 mm 0,0 UV-I 0 W/m² 4,5 °C 3,7 °C 16,1 km/h (3 Bft)
10.03.2017 03:38 5,9 °C 5,9 °C 91 % 1022,0 hPa 0,0 mm 13,9 km/h (3 Bft) W-NW 286 ° 0 min 0,000 mm 0,0 UV-I 0 W/m² 4,5 °C 3,0 °C 20,9 km/h (4 Bft)
10.03.2017 03:39 5,9 °C 5,9 °C 90 % 1022,0 hPa 0,2 mm 17,1 km/h (3 Bft) W 276 ° 0 min 0,000 mm 0,0 UV-I 0 W/m² 4,4 °C 2,6 °C 22,5 km/h (4 Bft)
10.03.2017 03:40 5,8 °C 5,9 °C 89 % 1022,1 hPa 0,0 mm 18,6 km/h (3 Bft) NW 306 ° 0 min 0,000 mm 0,0 UV-I 0 W/m² 4,1 °C 2,2 °C 32,2 km/h (5 Bft)
10.03.2017 03:41 5,8 °C 5,8 °C 89 % 1022,2 hPa 0,0 mm 14,3 km/h (3 Bft) W-SW 257 ° 0 min 0,000 mm 0,0 UV-I 0 W/m² 4,1 °C 2,8 °C 20,9 km/h (4 Bft)
10.03.2017 03:42 5,8 °C 5,8 °C 89 % 1022,2 hPa 0,0 mm 12,3 km/h (3 Bft) W 265 ° 0 min 0,000 mm 0,0 UV-I 0 W/m² 4,1 °C 3,2 °C 17,7 km/h (3 Bft)
10.03.2017 03:43 5,7 °C 5,8 °C 89 % 1022,3 hPa 0,0 mm 15,0 km/h (3 Bft) W-NW 294 ° 0 min 0,000 mm 0,0 UV-I 0 W/m² 4,0 °C 2,6 °C 22,5 km/h (4 Bft)
10.03.2017 03:44 5,7 °C 5,8 °C 90 % 1022,3 hPa 0,0 mm 13,3 km/h (3 Bft) W-NW 285 ° 0 min 0,000 mm 0,0 UV-I 0 W/m² 4,2 °C 2,9 °C 17,7 km/h (3 Bft)
10.03.2017 03:45 5,6 °C 5,7 °C 90 % 1022,3 hPa 0,2 mm 16,6 km/h (3 Bft) W-SW 251 ° 0 min 0,000 mm 0,0 UV-I 0 W/m² 4,1 °C 2,3 °C 32,2 km/h (5 Bft)
10.03.2017 03:46 5,6 °C 5,6 °C 90 % 1022,5 hPa 0,0 mm 15,6 km/h (3 Bft) W 275 ° 0 min 0,000 mm 0,0 UV-I 0 W/m² 4,1 °C 2,4 °C 20,9 km/h (4 Bft)
10.03.2017 03:47 5,5 °C 5,6 °C 90 % 1022,4 hPa 0,0 mm 17,4 km/h (3 Bft) W-NW 286 ° 0 min 0,000 mm 0,0 UV-I 0 W/m² 4,0 °C 2,0 °C 32,2 km/h (5 Bft)
10.03.2017 03:48 5,4 °C 5,5 °C 89 % 1022,4 hPa 0,0 mm 16,7 km/h (3 Bft) NW 317 ° 0 min 0,000 mm 0,0 UV-I 0 W/m² 3,7 °C 2,0 °C 29,0 km/h (5 Bft)
10.03.2017 03:49 5,4 °C 5,4 °C 89 % 1022,3 hPa 0,0 mm 11,9 km/h (2 Bft) W 270 ° 0 min 0,000 mm 0,0 UV-I 0 W/m² 3,7 °C 2,8 °C 20,9 km/h (4 Bft)
10.03.2017 03:50 5,3 °C 5,4 °C 89 % 1022,4 hPa 0,2 mm 12,6 km/h (3 Bft) W-NW 295 ° 0 min 0,000 mm 0,0 UV-I 0 W/m² 3,6 °C 2,5 °C 20,9 km/h (4 Bft)
10.03.2017 03:51 5,2 °C 5,3 °C 89 % 1022,5 hPa 0,2 mm 22,1 km/h (4 Bft) W-NW 287 ° 0 min 0,000 mm 0,0 UV-I 0 W/m² 3,5 °C 1,1 °C 37,0 km/h (5 Bft)
10.03.2017 03:52 5,2 °C 5,2 °C 89 % 1022,4 hPa 0,0 mm 17,2 km/h (3 Bft) W 270 ° 0 min 0,000 mm 0,0 UV-I 0 W/m² 3,5 °C 1,7 °C 25,7 km/h (4 Bft)
10.03.2017 03:53 5,2 °C 5,2 °C 89 % 1022,5 hPa 0,0 mm 14,4 km/h (3 Bft) W 279 ° 0 min 0,000 mm 0,0 UV-I 0 W/m² 3,5 °C 2,1 °C 25,7 km/h (4 Bft)
10.03.2017 03:54 5,1 °C 5,2 °C 89 % 1022,4 hPa 0,0 mm 11,7 km/h (2 Bft) W-NW 299 ° 0 min 0,000 mm 0,0 UV-I 0 W/m² 3,4 °C 2,4 °C 25,7 km/h (4 Bft)
10.03.2017 03:55 5,1 °C 5,1 °C 90 % 1022,4 hPa 0,2 mm 14,3 km/h (3 Bft) NW 311 ° 0 min 0,000 mm 0,0 UV-I 0 W/m² 3,6 °C 2,0 °C 19,3 km/h (3 Bft)
10.03.2017 03:56 5,0 °C 5,1 °C 90 % 1022,5 hPa 0,0 mm 13,9 km/h (3 Bft) W-SW 255 ° 0 min 0,000 mm 0,0 UV-I 0 W/m² 3,5 °C 1,9 °C 20,9 km/h (4 Bft)
10.03.2017 03:57 4,9 °C 5,0 °C 90 % 1022,6 hPa 0,0 mm 14,9 km/h (3 Bft) W 280 ° 0 min 0,000 mm 0,0 UV-I 0 W/m² 3,4 °C 1,6 °C 20,9 km/h (4 Bft)
10.03.2017 03:58 4,9 °C 4,9 °C 90 % 1022,7 hPa 0,0 mm 17,0 km/h (3 Bft) W 280 ° 0 min 0,000 mm 0,0 UV-I 0 W/m² 3,4 °C 1,3 °C 19,3 km/h (3 Bft)
10.03.2017 03:59 4,9 °C 4,9 °C 90 % 1022,6 hPa 0,2 mm 16,6 km/h (3 Bft) W-NW 298 ° 0 min 0,000 mm 0,0 UV-I 0 W/m² 3,4 °C 1,4 °C 22,5 km/h (4 Bft)
10.03.2017 04:00 4,8 °C 4,9 °C 90 % 1022,6 hPa 0,0 mm 13,5 km/h (3 Bft) N-NW 333 ° 0 min 0,026 mm 0,0 UV-I 0 W/m² 3,3 °C 1,7 °C 32,2 km/h (5 Bft)
10.03.2017 04:01 4,8 °C 4,9 °C 91 % 1022,6 hPa 0,0 mm 18,4 km/h (3 Bft) W-SW 257 ° 0 min 0,000 mm 0,0 UV-I 0 W/m² 3,5 °C 1,0 °C 27,4 km/h (4 Bft)
10.03.2017 04:02 4,8 °C 4,8 °C 91 % 1022,6 hPa 0,0 mm 19,0 km/h (3 Bft) W-SW 247 ° 0 min 0,000 mm 0,0 UV-I 0 W/m² 3,5 °C 0,9 °C 32,2 km/h (5 Bft)
10.03.2017 04:03 4,7 °C 4,8 °C 91 % 1022,4 hPa 0,0 mm 14,3 km/h (3 Bft) W 280 ° 0 min 0,000 mm 0,0 UV-I 0 W/m² 3,4 °C 1,5 °C 20,9 km/h (4 Bft)
10.03.2017 04:04 4,7 °C 4,7 °C 90 % 1022,3 hPa 0,2 mm 13,4 km/h (3 Bft) W-NW 298 ° 0 min 0,000 mm 0,0 UV-I 0 W/m² 3,2 °C 1,6 °C 19,3 km/h (3 Bft)
10.03.2017 04:05 4,7 °C 4,7 °C 90 % 1022,3 hPa 0,0 mm 8,8 km/h (2 Bft) W 265 ° 0 min 0,000 mm 0,0 UV-I 0 W/m² 3,2 °C 2,6 °C 14,5 km/h (3 Bft)
10.03.2017 04:06 4,7 °C 4,7 °C 90 % 1022,2 hPa 0,0 mm 15,4 km/h (3 Bft) W-NW 285 ° 0 min 0,000 mm 0,0 UV-I 0 W/m² 3,2 °C 1,3 °C 22,5 km/h (4 Bft)
10.03.2017 04:07 4,6 °C 4,7 °C 90 % 1022,3 hPa 0,0 mm 13,1 km/h (3 Bft) W-SW 252 ° 0 min 0,000 mm 0,0 UV-I 0 W/m² 3,1 °C 1,6 °C 22,5 km/h (4 Bft)
10.03.2017 04:08 4,6 °C 4,7 °C 90 % 1022,3 hPa 0,0 mm 18,5 km/h (3 Bft) W 263 ° 0 min 0,000 mm 0,0 UV-I 0 W/m² 3,1 °C 0,8 °C 27,4 km/h (4 Bft)
10.03.2017 04:09 4,6 °C 4,6 °C 90 % 1022,3 hPa 0,0 mm 13,0 km/h (3 Bft) W 261 ° 0 min 0,000 mm 0,0 UV-I 0 W/m² 3,1 °C 1,6 °C 19,3 km/h (3 Bft)
10.03.2017 04:10 4,6 °C 4,6 °C 90 % 1022,4 hPa 0,0 mm 15,0 km/h (3 Bft) W 263 ° 0 min 0,000 mm 0,0 UV-I 0 W/m² 3,1 °C 1,3 °C 20,9 km/h (4 Bft)
10.03.2017 04:11 4,6 °C 4,6 °C 90 % 1022,4 hPa 0,0 mm 12,5 km/h (3 Bft) W 279 ° 0 min 0,000 mm 0,0 UV-I 0 W/m² 3,1 °C 1,7 °C 22,5 km/h (4 Bft)
10.03.2017 04:12 4,6 °C 4,6 °C 90 % 1022,4 hPa 0,0 mm 14,2 km/h (3 Bft) W 274 ° 0 min 0,000 mm 0,0 UV-I 0 W/m² 3,1 °C 1,4 °C 22,5 km/h (4 Bft)
10.03.2017 04:13 4,6 °C 4,6 °C 91 % 1022,4 hPa 0,0 mm 13,9 km/h (3 Bft) W 275 ° 0 min 0,000 mm 0,0 UV-I 0 W/m² 3,3 °C 1,4 °C 19,3 km/h (3 Bft)
10.03.2017 04:14 4,6 °C 4,6 °C 91 % 1022,5 hPa 0,0 mm 13,0 km/h (3 Bft) W-NW 287 ° 0 min 0,000 mm 0,0 UV-I 0 W/m² 3,3 °C 1,6 °C 17,7 km/h (3 Bft)
10.03.2017 04:15 4,6 °C 4,6 °C 91 % 1022,5 hPa 0,0 mm 14,9 km/h (3 Bft) W 277 ° 0 min 0,000 mm 0,0 UV-I 0 W/m² 3,3 °C 1,3 °C 20,9 km/h (4 Bft)
10.03.2017 04:16 4,6 °C 4,6 °C 91 % 1022,5 hPa 0,0 mm 12,1 km/h (2 Bft) W-SW 250 ° 0 min 0,000 mm 0,0 UV-I 0 W/m² 3,3 °C 1,8 °C 20,9 km/h (4 Bft)
10.03.2017 04:17 4,6 °C 4,6 °C 91 % 1022,5 hPa 0,0 mm 17,0 km/h (3 Bft) W 264 ° 0 min 0,000 mm 0,0 UV-I 0 W/m² 3,3 °C 1,0 °C 25,7 km/h (4 Bft)
10.03.2017 04:18 4,6 °C 4,6 °C 91 % 1022,5 hPa 0,0 mm 14,1 km/h (3 Bft) NW 312 ° 0 min 0,000 mm 0,0 UV-I 0 W/m² 3,3 °C 1,4 °C 25,7 km/h (4 Bft)
10.03.2017 04:19 4,5 °C 4,6 °C 91 % 1022,5 hPa 0,0 mm 13,2 km/h (3 Bft) W 265 ° 0 min 0,000 mm 0,0 UV-I 0 W/m² 3,2 °C 1,4 °C 19,3 km/h (3 Bft)
10.03.2017 04:20 4,5 °C 4,5 °C 91 % 1022,5 hPa 0,0 mm 13,2 km/h (3 Bft) W 259 ° 0 min 0,000 mm 0,0 UV-I 0 W/m² 3,2 °C 1,4 °C 16,1 km/h (3 Bft)
10.03.2017 04:21 4,5 °C 4,5 °C 91 % 1022,5 hPa 0,0 mm 10,7 km/h (2 Bft) W 267 ° 0 min 0,000 mm 0,0 UV-I 0 W/m² 3,2 °C 1,9 °C 19,3 km/h (3 Bft)
10.03.2017 04:22 4,5 °C 4,5 °C 90 % 1022,6 hPa 0,0 mm 15,8 km/h (3 Bft) W-NW 283 ° 0 min 0,000 mm 0,0 UV-I 0 W/m² 3,0 °C 1,0 °C 20,9 km/h (4 Bft)
10.03.2017 04:23 4,5 °C 4,5 °C 90 % 1022,6 hPa 0,0 mm 15,1 km/h (3 Bft) NW 325 ° 0 min 0,000 mm 0,0 UV-I 0 W/m² 3,0 °C 1,1 °C 24,1 km/h (4 Bft)
10.03.2017 04:24 4,5 °C 4,5 °C 90 % 1022,5 hPa 0,0 mm 16,2 km/h (3 Bft) W 277 ° 0 min 0,000 mm 0,0 UV-I 0 W/m² 3,0 °C 0,9 °C 25,7 km/h (4 Bft)
10.03.2017 04:25 4,5 °C 4,5 °C 89 % 1022,7 hPa 0,0 mm 18,2 km/h (3 Bft) W-NW 283 ° 0 min 0,000 mm 0,0 UV-I 0 W/m² 2,8 °C 0,7 °C 25,7 km/h (4 Bft)
10.03.2017 04:26 4,5 °C 4,5 °C 89 % 1022,7 hPa 0,0 mm 15,1 km/h (3 Bft) W-NW 286 ° 0 min 0,000 mm 0,0 UV-I 0 W/m² 2,8 °C 1,1 °C 19,3 km/h (3 Bft)
10.03.2017 04:27 4,5 °C 4,5 °C 89 % 1022,7 hPa 0,0 mm 20,3 km/h (4 Bft) W-SW 252 ° 0 min 0,000 mm 0,0 UV-I 0 W/m² 2,8 °C 0,4 °C 29,0 km/h (5 Bft)
10.03.2017 04:28 4,5 °C 4,5 °C 89 % 1022,7 hPa 0,0 mm 16,8 km/h (3 Bft) W 280 ° 0 min 0,000 mm 0,0 UV-I 0 W/m² 2,8 °C 0,9 °C 24,1 km/h (4 Bft)
10.03.2017 04:29 4,4 °C 4,5 °C 89 % 1022,7 hPa 0,0 mm 15,3 km/h (3 Bft) W-NW 287 ° 0 min 0,000 mm 0,0 UV-I 0 W/m² 2,7 °C 1,0 °C 20,9 km/h (4 Bft)
10.03.2017 04:30 4,4 °C 4,5 °C 89 % 1022,6 hPa 0,0 mm 13,7 km/h (3 Bft) W-NW 290 ° 0 min 0,000 mm 0,0 UV-I 0 W/m² 2,7 °C 1,2 °C 17,7 km/h (3 Bft)
10.03.2017 04:31 4,5 °C 4,5 °C 89 % 1022,6 hPa 0,0 mm 16,0 km/h (3 Bft) W 274 ° 0 min 0,000 mm 0,0 UV-I 0 W/m² 2,8 °C 1,0 °C 20,9 km/h (4 Bft)
10.03.2017 04:32 4,4 °C 4,5 °C 89 % 1022,6 hPa 0,0 mm 17,3 km/h (3 Bft) W 272 ° 0 min 0,000 mm 0,0 UV-I 0 W/m² 2,7 °C 0,7 °C 29,0 km/h (5 Bft)
10.03.2017 04:33 4,4 °C 4,4 °C 89 % 1022,6 hPa 0,0 mm 11,3 km/h (2 Bft) W 281 ° 0 min 0,000 mm 0,0 UV-I 0 W/m² 2,7 °C 1,7 °C 14,5 km/h (3 Bft)
10.03.2017 04:34 4,4 °C 4,4 °C 89 % 1022,6 hPa 0,0 mm 17,7 km/h (3 Bft) W 281 ° 0 min 0,000 mm 0,0 UV-I 0 W/m² 2,7 °C 0,6 °C 25,7 km/h (4 Bft)
10.03.2017 04:35 4,4 °C 4,4 °C 89 % 1022,6 hPa 0,0 mm 11,9 km/h (2 Bft) W-NW 283 ° 0 min 0,000 mm 0,0 UV-I 0 W/m² 2,7 °C 1,5 °C 19,3 km/h (3 Bft)
10.03.2017 04:36 4,4 °C 4,4 °C 89 % 1022,7 hPa 0,0 mm 11,8 km/h (2 Bft) W-NW 298 ° 0 min 0,000 mm 0,0 UV-I 0 W/m² 2,7 °C 1,6 °C 19,3 km/h (3 Bft)
10.03.2017 04:37 4,3 °C 4,4 °C 90 % 1022,8 hPa 0,0 mm 13,1 km/h (3 Bft) W 274 ° 0 min 0,000 mm 0,0 UV-I 0 W/m² 2,8 °C 1,2 °C 22,5 km/h (4 Bft)
10.03.2017 04:38 4,3 °C 4,3 °C 90 % 1022,8 hPa 0,0 mm 13,6 km/h (3 Bft) W 272 ° 0 min 0,000 mm 0,0 UV-I 0 W/m² 2,8 °C 1,1 °C 22,5 km/h (4 Bft)
10.03.2017 04:39 4,3 °C 4,3 °C 90 % 1022,8 hPa 0,0 mm 12,7 km/h (3 Bft) W 278 ° 0 min 0,000 mm 0,0 UV-I 0 W/m² 2,8 °C 1,3 °C 22,5 km/h (4 Bft)
10.03.2017 04:40 4,3 °C 4,3 °C 90 % 1022,9 hPa 0,0 mm 16,2 km/h (3 Bft) W 280 ° 0 min 0,000 mm 0,0 UV-I 0 W/m² 2,8 °C 0,7 °C 30,6 km/h (5 Bft)
10.03.2017 04:41 4,3 °C 4,3 °C 90 % 1022,9 hPa 0,0 mm 15,8 km/h (3 Bft) W 279 ° 0 min 0,000 mm 0,0 UV-I 0 W/m² 2,8 °C 0,8 °C 24,1 km/h (4 Bft)
10.03.2017 04:42 4,3 °C 4,3 °C 90 % 1023,0 hPa 0,0 mm 13,0 km/h (3 Bft) W 280 ° 0 min 0,000 mm 0,0 UV-I 0 W/m² 2,8 °C 1,2 °C 22,5 km/h (4 Bft)
10.03.2017 04:43 4,3 °C 4,3 °C 90 % 1023,0 hPa 0,0 mm 17,8 km/h (3 Bft) W 270 ° 0 min 0,000 mm 0,0 UV-I 0 W/m² 2,8 °C 0,5 °C 24,1 km/h (4 Bft)
10.03.2017 04:44 4,3 °C 4,3 °C 90 % 1023,1 hPa 0,0 mm 13,9 km/h (3 Bft) W-SW 248 ° 0 min 0,000 mm 0,0 UV-I 0 W/m² 2,8 °C 1,1 °C 22,5 km/h (4 Bft)
10.03.2017 04:45 4,3 °C 4,3 °C 90 % 1023,1 hPa 0,0 mm 13,8 km/h (3 Bft) NW 304 ° 0 min 0,000 mm 0,0 UV-I 0 W/m² 2,8 °C 1,1 °C 20,9 km/h (4 Bft)
10.03.2017 04:46 4,3 °C 4,3 °C 90 % 1023,2 hPa 0,0 mm 14,9 km/h (3 Bft) W 278 ° 0 min 0,000 mm 0,0 UV-I 0 W/m² 2,8 °C 0,9 °C 20,9 km/h (4 Bft)
10.03.2017 04:47 4,3 °C 4,3 °C 90 % 1023,2 hPa 0,0 mm 11,3 km/h (2 Bft) W-NW 290 ° 0 min 0,000 mm 0,0 UV-I 0 W/m² 2,8 °C 1,5 °C 14,5 km/h (3 Bft)
10.03.2017 04:48 4,3 °C 4,3 °C 90 % 1023,1 hPa 0,0 mm 10,1 km/h (2 Bft) W 273 ° 0 min 0,000 mm 0,0 UV-I 0 W/m² 2,8 °C 1,8 °C 17,7 km/h (3 Bft)
10.03.2017 04:49 4,3 °C 4,3 °C 90 % 1023,2 hPa 0,0 mm 12,4 km/h (3 Bft) W-SW 253 ° 0 min 0,000 mm 0,0 UV-I 0 W/m² 2,8 °C 1,3 °C 19,3 km/h (3 Bft)
10.03.2017 04:50 4,3 °C 4,3 °C 90 % 1023,2 hPa 0,0 mm 14,8 km/h (3 Bft) W-NW 296 ° 0 min 0,000 mm 0,0 UV-I 0 W/m² 2,8 °C 0,9 °C 20,9 km/h (4 Bft)
10.03.2017 04:51 4,3 °C 4,3 °C 90 % 1023,2 hPa 0,0 mm 9,7 km/h (2 Bft) W-NW 294 ° 0 min 0,000 mm 0,0 UV-I 0 W/m² 2,8 °C 1,9 °C 14,5 km/h (3 Bft)
10.03.2017 04:52 4,2 °C 4,3 °C 90 % 1023,2 hPa 0,0 mm 9,3 km/h (2 Bft) W-SW 258 ° 0 min 0,000 mm 0,0 UV-I 0 W/m² 2,7 °C 1,9 °C 14,5 km/h (3 Bft)
10.03.2017 04:53 4,2 °C 4,2 °C 90 % 1023,2 hPa 0,0 mm 8,8 km/h (2 Bft) W 263 ° 0 min 0,000 mm 0,0 UV-I 0 W/m² 2,7 °C 2,0 °C 14,5 km/h (3 Bft)
10.03.2017 04:54 4,2 °C 4,2 °C 90 % 1023,1 hPa 0,0 mm 10,0 km/h (2 Bft) W 262 ° 0 min 0,000 mm 0,0 UV-I 0 W/m² 2,7 °C 1,7 °C 14,5 km/h (3 Bft)
10.03.2017 04:55 4,2 °C 4,2 °C 90 % 1023,1 hPa 0,0 mm 10,6 km/h (2 Bft) W 276 ° 0 min 0,000 mm 0,0 UV-I 0 W/m² 2,7 °C 1,6 °C 14,5 km/h (3 Bft)
10.03.2017 04:56 4,2 °C 4,2 °C 90 % 1023,1 hPa 0,0 mm 11,9 km/h (2 Bft) W-NW 296 ° 0 min 0,000 mm 0,0 UV-I 0 W/m² 2,7 °C 1,3 °C 16,1 km/h (3 Bft)
10.03.2017 04:57 4,2 °C 4,2 °C 90 % 1023,2 hPa 0,0 mm 15,8 km/h (3 Bft) W 276 ° 0 min 0,000 mm 0,0 UV-I 0 W/m² 2,7 °C 0,6 °C 29,0 km/h (5 Bft)
10.03.2017 04:58 4,2 °C 4,2 °C 90 % 1023,1 hPa 0,0 mm 12,9 km/h (3 Bft) W-NW 290 ° 0 min 0,000 mm 0,0 UV-I 0 W/m² 2,7 °C 1,1 °C 20,9 km/h (4 Bft)
10.03.2017 04:59 4,1 °C 4,2 °C 90 % 1023,1 hPa 0,0 mm 12,9 km/h (3 Bft) W 271 ° 0 min 0,000 mm 0,0 UV-I 0 W/m² 2,6 °C 1,0 °C 20,9 km/h (4 Bft)
10.03.2017 05:00 4,1 °C 4,1 °C 90 % 1023,2 hPa 0,0 mm 18,5 km/h (3 Bft) W-NW 286 ° 0 min 0,000 mm 0,0 UV-I 0 W/m² 2,6 °C 0,1 °C 27,4 km/h (4 Bft)
10.03.2017 05:01 4,1 °C 4,1 °C 90 % 1023,2 hPa 0,0 mm 12,3 km/h (3 Bft) W 273 ° 0 min 0,025 mm 0,0 UV-I 0 W/m² 2,6 °C 1,1 °C 17,7 km/h (3 Bft)
10.03.2017 05:02 4,1 °C 4,1 °C 89 % 1023,2 hPa 0,0 mm 9,9 km/h (2 Bft) W 281 ° 0 min 0,000 mm 0,0 UV-I 0 W/m² 2,5 °C 1,6 °C 14,5 km/h (3 Bft)
10.03.2017 05:03 4,1 °C 4,1 °C 89 % 1023,2 hPa 0,0 mm 14,5 km/h (3 Bft) W-SW 241 ° 0 min 0,000 mm 0,0 UV-I 0 W/m² 2,5 °C 0,7 °C 17,7 km/h (3 Bft)
10.03.2017 05:04 4,1 °C 4,1 °C 89 % 1023,2 hPa 0,0 mm 16,7 km/h (3 Bft) W 275 ° 0 min 0,000 mm 0,0 UV-I 0 W/m² 2,5 °C 0,4 °C 27,4 km/h (4 Bft)
10.03.2017 05:05 4,1 °C 4,1 °C 89 % 1023,2 hPa 0,0 mm 17,6 km/h (3 Bft) W-SW 252 ° 0 min 0,000 mm 0,0 UV-I 0 W/m² 2,5 °C 0,2 °C 27,4 km/h (4 Bft)
10.03.2017 05:06 4,1 °C 4,1 °C 89 % 1023,2 hPa 0,0 mm 13,9 km/h (3 Bft) W-SW 256 ° 0 min 0,000 mm 0,0 UV-I 0 W/m² 2,5 °C 0,8 °C 17,7 km/h (3 Bft)
10.03.2017 05:07 4,1 °C 4,1 °C 89 % 1023,2 hPa 0,0 mm 16,2 km/h (3 Bft) W 281 ° 0 min 0,000 mm 0,0 UV-I 0 W/m² 2,5 °C 0,5 °C 24,1 km/h (4 Bft)
10.03.2017 05:08 4,1 °C 4,1 °C 89 % 1023,2 hPa 0,0 mm 11,6 km/h (2 Bft) W 268 ° 0 min 0,000 mm 0,0 UV-I 0 W/m² 2,5 °C 1,2 °C 17,7 km/h (3 Bft)
10.03.2017 05:09 4,1 °C 4,1 °C 89 % 1023,3 hPa 0,0 mm 11,0 km/h (2 Bft) W-SW 258 ° 0 min 0,000 mm 0,0 UV-I 0 W/m² 2,5 °C 1,4 °C 16,1 km/h (3 Bft)
10.03.2017 05:10 4,1 °C 4,1 °C 89 % 1023,3 hPa 0,0 mm 13,7 km/h (3 Bft) W-NW 284 ° 0 min 0,000 mm 0,0 UV-I 0 W/m² 2,5 °C 0,9 °C 19,3 km/h (3 Bft)
10.03.2017 05:11 4,1 °C 4,1 °C 88 % 1023,4 hPa 0,0 mm 11,6 km/h (2 Bft) W 263 ° 0 min 0,000 mm 0,0 UV-I 0 W/m² 2,3 °C 1,2 °C 17,7 km/h (3 Bft)
10.03.2017 05:12 4,1 °C 4,1 °C 88 % 1023,5 hPa 0,0 mm 12,4 km/h (3 Bft) W 280 ° 0 min 0,000 mm 0,0 UV-I 0 W/m² 2,3 °C 1,1 °C 16,1 km/h (3 Bft)
10.03.2017 05:13 4,1 °C 4,1 °C 88 % 1023,5 hPa 0,0 mm 8,6 km/h (2 Bft) W-NW 287 ° 0 min 0,000 mm 0,0 UV-I 0 W/m² 2,3 °C 1,9 °C 16,1 km/h (3 Bft)
10.03.2017 05:14 4,0 °C 4,1 °C 88 % 1023,5 hPa 0,0 mm 13,9 km/h (3 Bft) W 269 ° 0 min 0,000 mm 0,0 UV-I 0 W/m² 2,2 °C 0,7 °C 19,3 km/h (3 Bft)
10.03.2017 05:15 4,0 °C 4,1 °C 88 % 1023,4 hPa 0,0 mm 14,2 km/h (3 Bft) W 268 ° 0 min 0,000 mm 0,0 UV-I 0 W/m² 2,2 °C 0,6 °C 19,3 km/h (3 Bft)
10.03.2017 05:16 4,0 °C 4,0 °C 88 % 1023,4 hPa 0,0 mm 13,9 km/h (3 Bft) W 281 ° 0 min 0,000 mm 0,0 UV-I 0 W/m² 2,2 °C 0,7 °C 17,7 km/h (3 Bft)
10.03.2017 05:17 4,0 °C 4,1 °C 88 % 1023,4 hPa 0,0 mm 12,8 km/h (3 Bft) W-SW 249 ° 0 min 0,000 mm 0,0 UV-I 0 W/m² 2,2 °C 0,9 °C 17,7 km/h (3 Bft)
10.03.2017 05:18 4,0 °C 4,0 °C 88 % 1023,3 hPa 0,0 mm 9,5 km/h (2 Bft) W-NW 284 ° 0 min 0,000 mm 0,0 UV-I 0 W/m² 2,2 °C 1,6 °C 16,1 km/h (3 Bft)
10.03.2017 05:19 3,9 °C 4,0 °C 88 % 1023,3 hPa 0,0 mm 13,6 km/h (3 Bft) W 277 ° 0 min 0,000 mm 0,0 UV-I 0 W/m² 2,1 °C 0,6 °C 20,9 km/h (4 Bft)
10.03.2017 05:20 3,9 °C 4,0 °C 88 % 1023,3 hPa 0,0 mm 8,6 km/h (2 Bft) W 260 ° 0 min 0,000 mm 0,0 UV-I 0 W/m² 2,1 °C 1,7 °C 14,5 km/h (3 Bft)
10.03.2017 05:21 3,9 °C 3,9 °C 89 % 1023,3 hPa 0,0 mm 14,6 km/h (3 Bft) W 275 ° 0 min 0,000 mm 0,0 UV-I 0 W/m² 2,3 °C 0,5 °C 17,7 km/h (3 Bft)
10.03.2017 05:22 3,8 °C 3,9 °C 89 % 1023,4 hPa 0,0 mm 11,2 km/h (2 Bft) W-SW 245 ° 0 min 0,000 mm 0,0 UV-I 0 W/m² 2,2 °C 1,0 °C 16,1 km/h (3 Bft)
10.03.2017 05:23 3,8 °C 3,8 °C 89 % 1023,3 hPa 0,0 mm 14,3 km/h (3 Bft) W-NW 288 ° 0 min 0,000 mm 0,0 UV-I 0 W/m² 2,2 °C 0,4 °C 20,9 km/h (4 Bft)
10.03.2017 05:24 3,7 °C 3,8 °C 89 % 1023,4 hPa 0,0 mm 14,4 km/h (3 Bft) W 271 ° 0 min 0,000 mm 0,0 UV-I 0 W/m² 2,1 °C 0,2 °C 19,3 km/h (3 Bft)
10.03.2017 05:25 3,7 °C 3,8 °C 90 % 1023,4 hPa 0,0 mm 14,2 km/h (3 Bft) W 281 ° 0 min 0,000 mm 0,0 UV-I 0 W/m² 2,2 °C 0,3 °C 17,7 km/h (3 Bft)
10.03.2017 05:26 3,7 °C 3,7 °C 90 % 1023,4 hPa 0,0 mm 10,9 km/h (2 Bft) W-NW 283 ° 0 min 0,000 mm 0,0 UV-I 0 W/m² 2,2 °C 0,9 °C 14,5 km/h (3 Bft)
10.03.2017 05:27 3,7 °C 3,7 °C 90 % 1023,4 hPa 0,0 mm 12,5 km/h (3 Bft) W 277 ° 0 min 0,000 mm 0,0 UV-I 0 W/m² 2,2 °C 0,6 °C 19,3 km/h (3 Bft)
10.03.2017 05:28 3,6 °C 3,7 °C 90 % 1023,4 hPa 0,0 mm 9,7 km/h (2 Bft) W 276 ° 0 min 0,000 mm 0,0 UV-I 0 W/m² 2,1 °C 1,1 °C 16,1 km/h (3 Bft)
10.03.2017 05:29 3,7 °C 3,7 °C 90 % 1023,4 hPa 0,0 mm 15,4 km/h (3 Bft) W-SW 250 ° 0 min 0,000 mm 0,0 UV-I 0 W/m² 2,2 °C 0,1 °C 19,3 km/h (3 Bft)
10.03.2017 05:30 3,6 °C 3,7 °C 90 % 1023,4 hPa 0,0 mm 10,4 km/h (2 Bft) W 267 ° 0 min 0,000 mm 0,0 UV-I 0 W/m² 2,1 °C 0,9 °C 12,9 km/h (3 Bft)
10.03.2017 05:31 3,6 °C 3,7 °C 90 % 1023,5 hPa 0,0 mm 10,4 km/h (2 Bft) W-SW 249 ° 0 min 0,000 mm 0,0 UV-I 0 W/m² 2,1 °C 0,9 °C 14,5 km/h (3 Bft)
10.03.2017 05:32 3,6 °C 3,6 °C 90 % 1023,4 hPa 0,0 mm 12,9 km/h (3 Bft) W 259 ° 0 min 0,000 mm 0,0 UV-I 0 W/m² 2,1 °C 0,4 °C 16,1 km/h (3 Bft)
10.03.2017 05:33 3,6 °C 3,6 °C 90 % 1023,4 hPa 0,0 mm 13,1 km/h (3 Bft) W-SW 252 ° 0 min 0,000 mm 0,0 UV-I 0 W/m² 2,1 °C 0,4 °C 19,3 km/h (3 Bft)
10.03.2017 05:34 3,5 °C 3,6 °C 91 % 1023,4 hPa 0,0 mm 14,0 km/h (3 Bft) W-NW 283 ° 0 min 0,000 mm 0,0 UV-I 0 W/m² 2,2 °C 0,1 °C 17,7 km/h (3 Bft)
10.03.2017 05:35 3,6 °C 3,6 °C 91 % 1023,4 hPa 0,0 mm 8,2 km/h (2 Bft) W-SW 250 ° 0 min 0,000 mm 0,0 UV-I 0 W/m² 2,3 °C 1,4 °C 12,9 km/h (3 Bft)
10.03.2017 05:36 3,6 °C 3,6 °C 91 % 1023,4 hPa 0,0 mm 8,0 km/h (2 Bft) W-SW 251 ° 0 min 0,000 mm 0,0 UV-I 0 W/m² 2,3 °C 1,5 °C 11,3 km/h (2 Bft)
10.03.2017 05:37 3,6 °C 3,6 °C 91 % 1023,5 hPa 0,0 mm 12,0 km/h (2 Bft) W-SW 255 ° 0 min 0,000 mm 0,0 UV-I 0 W/m² 2,3 °C 0,6 °C 16,1 km/h (3 Bft)
10.03.2017 05:38 3,5 °C 3,6 °C 91 % 1023,5 hPa 0,0 mm 8,7 km/h (2 Bft) W-SW 242 ° 0 min 0,000 mm 0,0 UV-I 0 W/m² 2,2 °C 1,2 °C 16,1 km/h (3 Bft)
10.03.2017 05:39 3,5 °C 3,5 °C 91 % 1023,5 hPa 0,0 mm 7,3 km/h (2 Bft) W-SW 243 ° 0 min 0,000 mm 0,0 UV-I 0 W/m² 2,2 °C 1,6 °C 11,3 km/h (2 Bft)
10.03.2017 05:40 3,5 °C 3,5 °C 91 % 1023,5 hPa 0,0 mm 9,9 km/h (2 Bft) W-SW 249 ° 0 min 0,000 mm 0,0 UV-I 0 W/m² 2,2 °C 0,9 °C 14,5 km/h (3 Bft)
10.03.2017 05:41 3,5 °C 3,5 °C 92 % 1023,5 hPa 0,0 mm 10,7 km/h (2 Bft) W-SW 246 ° 0 min 0,000 mm 0,0 UV-I 0 W/m² 2,3 °C 0,7 °C 14,5 km/h (3 Bft)
10.03.2017 05:42 3,6 °C 3,6 °C 92 % 1023,6 hPa 0,0 mm 10,5 km/h (2 Bft) W-SW 249 ° 0 min 0,000 mm 0,0 UV-I 0 W/m² 2,4 °C 0,9 °C 14,5 km/h (3 Bft)
10.03.2017 05:43 3,6 °C 3,6 °C 92 % 1023,6 hPa 0,0 mm 11,3 km/h (2 Bft) W-NW 294 ° 0 min 0,000 mm 0,0 UV-I 0 W/m² 2,4 °C 0,7 °C 17,7 km/h (3 Bft)
10.03.2017 05:44 3,6 °C 3,6 °C 92 % 1023,6 hPa 0,0 mm 11,5 km/h (2 Bft) W-SW 250 ° 0 min 0,000 mm 0,0 UV-I 0 W/m² 2,4 °C 0,7 °C 17,7 km/h (3 Bft)
10.03.2017 05:45 3,7 °C 3,7 °C 92 % 1023,6 hPa 0,0 mm 14,2 km/h (3 Bft) W-SW 252 ° 0 min 0,000 mm 0,0 UV-I 0 W/m² 2,5 °C 0,3 °C 17,7 km/h (3 Bft)
10.03.2017 05:46 3,7 °C 3,7 °C 92 % 1023,7 hPa 0,0 mm 14,9 km/h (3 Bft) W-NW 286 ° 0 min 0,000 mm 0,0 UV-I 0 W/m² 2,5 °C 0,2 °C 20,9 km/h (4 Bft)
10.03.2017 05:47 3,8 °C 3,8 °C 92 % 1023,7 hPa 0,0 mm 13,7 km/h (3 Bft) W-SW 248 ° 0 min 0,000 mm 0,0 UV-I 0 W/m² 2,6 °C 0,5 °C 19,3 km/h (3 Bft)
10.03.2017 05:48 3,8 °C 3,8 °C 92 % 1023,6 hPa 0,0 mm 9,8 km/h (2 Bft) W-NW 286 ° 0 min 0,000 mm 0,0 UV-I 0 W/m² 2,6 °C 1,3 °C 14,5 km/h (3 Bft)
10.03.2017 05:49 3,8 °C 3,8 °C 92 % 1023,6 hPa 0,0 mm 8,6 km/h (2 Bft) SW 232 ° 0 min 0,000 mm 0,0 UV-I 0 W/m² 2,6 °C 1,6 °C 14,5 km/h (3 Bft)
10.03.2017 05:50 3,8 °C 3,8 °C 92 % 1023,6 hPa 0,0 mm 8,7 km/h (2 Bft) W 263 ° 0 min 0,000 mm 0,0 UV-I 0 W/m² 2,6 °C 1,5 °C 12,9 km/h (3 Bft)
10.03.2017 05:51 3,9 °C 3,9 °C 92 % 1023,6 hPa 0,0 mm 9,7 km/h (2 Bft) W 261 ° 0 min 0,000 mm 0,0 UV-I 0 W/m² 2,7 °C 1,4 °C 16,1 km/h (3 Bft)
10.03.2017 05:52 3,9 °C 3,9 °C 92 % 1023,6 hPa 0,0 mm 11,7 km/h (2 Bft) W-NW 290 ° 0 min 0,000 mm 0,0 UV-I 0 W/m² 2,7 °C 1,0 °C 16,1 km/h (3 Bft)
10.03.2017 05:53 3,9 °C 3,9 °C 92 % 1023,6 hPa 0,0 mm 8,3 km/h (2 Bft) W-SW 254 ° 0 min 0,000 mm 0,0 UV-I 0 W/m² 2,7 °C 1,8 °C 12,9 km/h (3 Bft)
10.03.2017 05:54 3,9 °C 3,9 °C 92 % 1023,7 hPa 0,0 mm 8,8 km/h (2 Bft) W-NW 290 ° 0 min 0,000 mm 0,0 UV-I 0 W/m² 2,7 °C 1,6 °C 14,5 km/h (3 Bft)
10.03.2017 05:55 3,9 °C 3,9 °C 92 % 1023,7 hPa 0,0 mm 10,6 km/h (2 Bft) W-NW 284 ° 0 min 0,000 mm 0,0 UV-I 0 W/m² 2,7 °C 1,2 °C 17,7 km/h (3 Bft)
10.03.2017 05:56 3,9 °C 3,9 °C 92 % 1023,7 hPa 0,0 mm 8,4 km/h (2 Bft) W-SW 251 ° 0 min 0,000 mm 0,0 UV-I 0 W/m² 2,7 °C 1,7 °C 17,7 km/h (3 Bft)
10.03.2017 05:57 3,9 °C 3,9 °C 91 % 1023,8 hPa 0,0 mm 12,9 km/h (3 Bft) W 275 ° 0 min 0,000 mm 0,0 UV-I 0 W/m² 2,6 °C 0,8 °C 20,9 km/h (4 Bft)
10.03.2017 05:58 3,9 °C 3,9 °C 92 % 1023,9 hPa 0,0 mm 12,1 km/h (2 Bft) W-NW 282 ° 0 min 0,000 mm 0,0 UV-I 0 W/m² 2,7 °C 0,9 °C 14,5 km/h (3 Bft)
10.03.2017 05:59 3,9 °C 3,9 °C 92 % 1023,9 hPa 0,0 mm 8,4 km/h (2 Bft) W-SW 257 ° 0 min 0,000 mm 0,0 UV-I 0 W/m² 2,7 °C 1,7 °C 11,3 km/h (2 Bft)
10.03.2017 06:00 4,0 °C 4,0 °C 92 % 1023,9 hPa 0,0 mm 6,3 km/h (2 Bft) W-SW 252 ° 0 min 0,000 mm 0,0 UV-I 0 W/m² 2,8 °C 2,5 °C 9,7 km/h (2 Bft)
10.03.2017 06:01 4,0 °C 4,0 °C 92 % 1023,9 hPa 0,0 mm 9,7 km/h (2 Bft) SW 233 ° 0 min 0,000 mm 0,0 UV-I 0 W/m² 2,8 °C 1,5 °C 16,1 km/h (3 Bft)
10.03.2017 06:02 4,0 °C 4,0 °C 92 % 1023,9 hPa 0,0 mm 8,5 km/h (2 Bft) W 263 ° 0 min 0,000 mm 0,0 UV-I 0 W/m² 2,8 °C 1,8 °C 14,5 km/h (3 Bft)
10.03.2017 06:03 4,0 °C 4,0 °C 91 % 1023,9 hPa 0,0 mm 7,2 km/h (2 Bft) W 265 ° 0 min 0,000 mm 0,0 UV-I 0 W/m² 2,7 °C 2,2 °C 9,7 km/h (2 Bft)
10.03.2017 06:04 4,0 °C 4,0 °C 91 % 1023,9 hPa 0,0 mm 8,9 km/h (2 Bft) W-SW 254 ° 0 min 0,000 mm 0,0 UV-I 0 W/m² 2,7 °C 1,7 °C 12,9 km/h (3 Bft)
10.03.2017 06:05 4,0 °C 4,1 °C 91 % 1023,9 hPa 0,0 mm 6,6 km/h (2 Bft) W 271 ° 0 min 0,000 mm 0,0 UV-I 0 W/m² 2,7 °C 2,4 °C 11,3 km/h (2 Bft)
10.03.2017 06:06 4,0 °C 4,0 °C 91 % 1023,9 hPa 0,0 mm 5,2 km/h (1 Bft) W 278 ° 0 min 0,000 mm 0,0 UV-I 0 W/m² 2,7 °C 2,9 °C 9,7 km/h (2 Bft)
10.03.2017 06:07 3,9 °C 4,0 °C 91 % 1023,9 hPa 0,0 mm 6,3 km/h (2 Bft) W-SW 253 ° 0 min 0,000 mm 0,0 UV-I 0 W/m² 2,6 °C 2,4 °C 11,3 km/h (2 Bft)
10.03.2017 06:08 3,9 °C 4,0 °C 91 % 1023,9 hPa 0,0 mm 10,2 km/h (2 Bft) W-SW 254 ° 0 min 0,000 mm 0,0 UV-I 0 W/m² 2,6 °C 1,3 °C 12,9 km/h (3 Bft)
10.03.2017 06:09 3,9 °C 3,9 °C 91 % 1023,9 hPa 0,0 mm 8,1 km/h (2 Bft) W-NW 282 ° 0 min 0,000 mm 0,0 UV-I 0 W/m² 2,6 °C 1,8 °C 12,9 km/h (3 Bft)
10.03.2017 06:10 3,9 °C 3,9 °C 91 % 1023,9 hPa 0,0 mm 6,8 km/h (2 Bft) W 262 ° 0 min 0,000 mm 0,0 UV-I 0 W/m² 2,6 °C 2,2 °C 11,3 km/h (2 Bft)
10.03.2017 06:11 3,8 °C 3,9 °C 91 % 1024,0 hPa 0,0 mm 6,8 km/h (2 Bft) W-SW 248 ° 0 min 0,000 mm 0,0 UV-I 0 W/m² 2,5 °C 2,1 °C 12,9 km/h (3 Bft)
10.03.2017 06:12 3,8 °C 3,8 °C 91 % 1023,9 hPa 0,0 mm 8,2 km/h (2 Bft) SW 233 ° 0 min 0,000 mm 0,0 UV-I 0 W/m² 2,5 °C 1,7 °C 16,1 km/h (3 Bft)
10.03.2017 06:13 3,8 °C 3,8 °C 91 % 1023,9 hPa 0,0 mm 7,8 km/h (2 Bft) W 281 ° 0 min 0,000 mm 0,0 UV-I 0 W/m² 2,5 °C 1,8 °C 11,3 km/h (2 Bft)
10.03.2017 06:14 3,7 °C 3,8 °C 91 % 1023,9 hPa 0,0 mm 10,9 km/h (2 Bft) W-SW 254 ° 0 min 0,000 mm 0,0 UV-I 0 W/m² 2,4 °C 0,9 °C 14,5 km/h (3 Bft)
10.03.2017 06:15 3,7 °C 3,7 °C 91 % 1023,9 hPa 0,0 mm 7,8 km/h (2 Bft) W-SW 244 ° 0 min 0,000 mm 0,0 UV-I 0 W/m² 2,4 °C 1,7 °C 14,5 km/h (3 Bft)
10.03.2017 06:16 3,6 °C 3,7 °C 92 % 1023,9 hPa 0,0 mm 8,9 km/h (2 Bft) W 271 ° 0 min 0,000 mm 0,0 UV-I 0 W/m² 2,4 °C 1,3 °C 14,5 km/h (3 Bft)
10.03.2017 06:17 3,6 °C 3,6 °C 92 % 1023,9 hPa 0,0 mm 6,8 km/h (2 Bft) W-SW 248 ° 0 min 0,000 mm 0,0 UV-I 0 W/m² 2,4 °C 1,8 °C 8,0 km/h (2 Bft)
10.03.2017 06:18 3,6 °C 3,6 °C 92 % 1023,9 hPa 0,0 mm 8,0 km/h (2 Bft) W 281 ° 0 min 0,000 mm 0,0 UV-I 0 W/m² 2,4 °C 1,5 °C 12,9 km/h (3 Bft)
10.03.2017 06:19 3,6 °C 3,6 °C 92 % 1023,9 hPa 0,0 mm 7,8 km/h (2 Bft) W 263 ° 0 min 0,000 mm 0,0 UV-I 0 W/m² 2,4 °C 1,5 °C 12,9 km/h (3 Bft)
10.03.2017 06:20 3,6 °C 3,6 °C 92 % 1023,9 hPa 0,0 mm 10,5 km/h (2 Bft) W-SW 252 ° 0 min 0,000 mm 0,0 UV-I 0 W/m² 2,4 °C 0,9 °C 12,9 km/h (3 Bft)
10.03.2017 06:21 3,6 °C 3,6 °C 92 % 1024,0 hPa 0,0 mm 8,6 km/h (2 Bft) W 268 ° 0 min 0,000 mm 0,0 UV-I 0 W/m² 2,4 °C 1,3 °C 12,9 km/h (3 Bft)
10.03.2017 06:22 3,6 °C 3,6 °C 92 % 1024,0 hPa 0,0 mm 5,4 km/h (1 Bft) W-NW 285 ° 0 min 0,000 mm 0,0 UV-I 0 W/m² 2,4 °C 2,3 °C 9,7 km/h (2 Bft)
10.03.2017 06:23 3,5 °C 3,6 °C 92 % 1024,0 hPa 0,0 mm 9,3 km/h (2 Bft) W-NW 288 ° 0 min 0,000 mm 0,0 UV-I 0 W/m² 2,3 °C 1,0 °C 12,9 km/h (3 Bft)
10.03.2017 06:24 3,5 °C 3,5 °C 92 % 1024,0 hPa 0,0 mm 9,8 km/h (2 Bft) W-SW 249 ° 0 min 0,000 mm 0,0 UV-I 0 W/m² 2,3 °C 0,9 °C 12,9 km/h (3 Bft)
10.03.2017 06:25 3,4 °C 3,5 °C 92 % 1023,9 hPa 0,0 mm 7,3 km/h (2 Bft) W 263 ° 0 min 0,000 mm 0,0 UV-I 0 W/m² 2,2 °C 1,5 °C 12,9 km/h (3 Bft)
10.03.2017 06:26 3,4 °C 3,4 °C 92 % 1023,9 hPa 0,0 mm 5,8 km/h (2 Bft) W-SW 242 ° 0 min 0,000 mm 0,0 UV-I 0 W/m² 2,2 °C 2,0 °C 8,0 km/h (2 Bft)
10.03.2017 06:27 3,3 °C 3,4 °C 92 % 1023,9 hPa 0,0 mm 8,7 km/h (2 Bft) W-SW 241 ° 0 min 0,000 mm 0,0 UV-I 0 W/m² 2,1 °C 0,9 °C 14,5 km/h (3 Bft)
10.03.2017 06:28 3,3 °C 3,3 °C 92 % 1023,8 hPa 0,0 mm 9,3 km/h (2 Bft) SW 223 ° 0 min 0,000 mm 0,0 UV-I 0 W/m² 2,1 °C 0,8 °C 12,9 km/h (3 Bft)
10.03.2017 06:29 3,3 °C 3,3 °C 92 % 1023,8 hPa 0,0 mm 12,5 km/h (3 Bft) W 275 ° 0 min 0,000 mm 0,0 UV-I 0 W/m² 2,1 °C 0,1 °C 16,1 km/h (3 Bft)
10.03.2017 06:30 3,3 °C 3,3 °C 92 % 1023,8 hPa 0,0 mm 6,6 km/h (2 Bft) SW 236 ° 0 min 0,000 mm 0,0 UV-I 0 W/m² 2,1 °C 1,6 °C 11,3 km/h (2 Bft)
10.03.2017 06:31 3,4 °C 3,4 °C 93 % 1023,8 hPa 0,0 mm 10,4 km/h (2 Bft) W 269 ° 0 min 0,000 mm 0,0 UV-I 0 W/m² 2,4 °C 0,7 °C 16,1 km/h (3 Bft)
10.03.2017 06:32 3,4 °C 3,4 °C 93 % 1023,8 hPa 0,0 mm 15,0 km/h (3 Bft) W-SW 246 ° 0 min 0,000 mm 0,0 UV-I 0 W/m² 2,4 °C -0,2 °C 20,9 km/h (4 Bft)
10.03.2017 06:33 3,5 °C 3,5 °C 92 % 1023,8 hPa 0,0 mm 7,4 km/h (2 Bft) W 264 ° 0 min 0,000 mm 0,0 UV-I 0 W/m² 2,3 °C 1,5 °C 9,7 km/h (2 Bft)
10.03.2017 06:34 3,4 °C 3,5 °C 92 % 1023,8 hPa 0,0 mm 6,3 km/h (2 Bft) W 260 ° 0 min 0,000 mm 0,0 UV-I 0 W/m² 2,2 °C 1,8 °C 12,9 km/h (3 Bft)
10.03.2017 06:35 3,5 °C 3,5 °C 92 % 1023,9 hPa 0,0 mm 10,1 km/h (2 Bft) W 270 ° 0 min 0,000 mm 0,0 UV-I 0 W/m² 2,3 °C 0,8 °C 14,5 km/h (3 Bft)
10.03.2017 06:36 3,5 °C 3,5 °C 92 % 1023,9 hPa 0,0 mm 10,5 km/h (2 Bft) W-SW 246 ° 0 min 0,000 mm 0,0 UV-I 0 W/m² 2,3 °C 0,8 °C 12,9 km/h (3 Bft)
10.03.2017 06:37 3,5 °C 3,5 °C 92 % 1023,9 hPa 0,0 mm 9,2 km/h (2 Bft) W 269 ° 0 min 0,000 mm 0,0 UV-I 0 W/m² 2,3 °C 1,1 °C 12,9 km/h (3 Bft)
10.03.2017 06:38 3,6 °C 3,6 °C 93 % 1023,9 hPa 0,0 mm 7,3 km/h (2 Bft) W 279 ° 0 min 0,000 mm 0,0 UV-I 0 W/m² 2,6 °C 1,7 °C 11,3 km/h (2 Bft)
10.03.2017 06:39 3,6 °C 3,6 °C 93 % 1023,9 hPa 0,0 mm 6,0 km/h (2 Bft) W-SW 255 ° 0 min 0,000 mm 0,0 UV-I 0 W/m² 2,6 °C 2,1 °C 9,7 km/h (2 Bft)
10.03.2017 06:40 3,6 °C 3,6 °C 92 % 1023,9 hPa 0,0 mm 6,1 km/h (2 Bft) W-SW 257 ° 0 min 0,000 mm 0,0 UV-I 0 W/m² 2,4 °C 2,1 °C 9,7 km/h (2 Bft)
10.03.2017 06:41 3,6 °C 3,6 °C 92 % 1024,0 hPa 0,0 mm 7,9 km/h (2 Bft) W-SW 246 ° 0 min 0,000 mm 0,0 UV-I 0 W/m² 2,4 °C 1,5 °C 11,3 km/h (2 Bft)
10.03.2017 06:42 3,6 °C 3,6 °C 92 % 1023,9 hPa 0,0 mm 9,1 km/h (2 Bft) W-SW 248 ° 0 min 0,000 mm 0,0 UV-I 0 W/m² 2,4 °C 1,2 °C 12,9 km/h (3 Bft)
10.03.2017 06:43 3,6 °C 3,6 °C 92 % 1023,9 hPa 0,0 mm 8,5 km/h (2 Bft) SW 226 ° 0 min 0,000 mm 0,0 UV-I 0 W/m² 2,4 °C 1,4 °C 16,1 km/h (3 Bft)
10.03.2017 06:44 3,6 °C 3,6 °C 92 % 1023,9 hPa 0,0 mm 13,7 km/h (3 Bft) W 267 ° 0 min 0,000 mm 0,0 UV-I 0 W/m² 2,4 °C 0,2 °C 22,5 km/h (4 Bft)
10.03.2017 06:45 3,6 °C 3,6 °C 92 % 1023,9 hPa 0,0 mm 8,3 km/h (2 Bft) W-SW 244 ° 0 min 0,000 mm 0,0 UV-I 0 W/m² 2,4 °C 1,4 °C 12,9 km/h (3 Bft)
10.03.2017 06:46 3,6 °C 3,6 °C 92 % 1023,8 hPa 0,0 mm 11,0 km/h (2 Bft) W-SW 246 ° 0 min 0,000 mm 0,0 UV-I 0 W/m² 2,4 °C 0,8 °C 19,3 km/h (3 Bft)
10.03.2017 06:47 3,6 °C 3,6 °C 92 % 1023,9 hPa 0,0 mm 16,4 km/h (3 Bft) W 273 ° 0 min 0,000 mm 0,0 UV-I 0 W/m² 2,4 °C -0,2 °C 24,1 km/h (4 Bft)
10.03.2017 06:48 3,6 °C 3,6 °C 91 % 1023,9 hPa 0,0 mm 8,1 km/h (2 Bft) SW 234 ° 0 min 0,000 mm 0,0 UV-I 0 W/m² 2,3 °C 1,5 °C 14,5 km/h (3 Bft)
10.03.2017 06:49 3,6 °C 3,6 °C 91 % 1023,9 hPa 0,0 mm 9,5 km/h (2 Bft) W-SW 257 ° 0 min 0,000 mm 0,0 UV-I 0 W/m² 2,3 °C 1,1 °C 12,9 km/h (3 Bft)
10.03.2017 06:50 3,6 °C 3,6 °C 91 % 1023,9 hPa 0,0 mm 12,2 km/h (2 Bft) W-SW 253 ° 0 min 0,000 mm 0,0 UV-I 0 W/m² 2,3 °C 0,5 °C 20,9 km/h (4 Bft)
10.03.2017 06:51 3,6 °C 3,6 °C 91 % 1023,9 hPa 0,0 mm 9,5 km/h (2 Bft) SW 232 ° 0 min 0,000 mm 0,0 UV-I 5 W/m² 2,3 °C 1,1 °C 16,1 km/h (3 Bft)
10.03.2017 06:52 3,6 °C 3,6 °C 91 % 1023,9 hPa 0,0 mm 9,2 km/h (2 Bft) SW 229 ° 0 min 0,000 mm 0,0 UV-I 5 W/m² 2,3 °C 1,2 °C 12,9 km/h (3 Bft)
10.03.2017 06:53 3,6 °C 3,6 °C 91 % 1023,9 hPa 0,0 mm 9,1 km/h (2 Bft) W-SW 252 ° 0 min 0,000 mm 0,0 UV-I 5 W/m² 2,3 °C 1,2 °C 12,9 km/h (3 Bft)
10.03.2017 06:54 3,5 °C 3,6 °C 91 % 1024,0 hPa 0,0 mm 13,5 km/h (3 Bft) W-SW 257 ° 0 min 0,000 mm 0,0 UV-I 5 W/m² 2,2 °C 0,2 °C 22,5 km/h (4 Bft)
10.03.2017 06:55 3,5 °C 3,5 °C 91 % 1024,0 hPa 0,0 mm 14,5 km/h (3 Bft) W-SW 248 ° 0 min 0,000 mm 0,0 UV-I 5 W/m² 2,2 °C -0,0 °C 19,3 km/h (3 Bft)
10.03.2017 06:56 3,4 °C 3,5 °C 91 % 1024,0 hPa 0,0 mm 4,4 km/h (1 Bft) W-SW 250 ° 0 min 0,000 mm 0,0 UV-I 7 W/m² 2,1 °C 3,4 °C 9,7 km/h (2 Bft)
10.03.2017 06:57 3,4 °C 3,4 °C 91 % 1024,0 hPa 0,0 mm 7,6 km/h (2 Bft) W 266 ° 0 min 0,000 mm 0,0 UV-I 7 W/m² 2,1 °C 1,4 °C 12,9 km/h (3 Bft)
10.03.2017 06:58 3,4 °C 3,4 °C 91 % 1024,0 hPa 0,0 mm 8,4 km/h (2 Bft) W-SW 246 ° 0 min 0,000 mm 0,0 UV-I 7 W/m² 2,1 °C 1,1 °C 11,3 km/h (2 Bft)
10.03.2017 06:59 3,3 °C 3,4 °C 91 % 1024,0 hPa 0,0 mm 5,8 km/h (2 Bft) SW 232 ° 0 min 0,000 mm 0,0 UV-I 7 W/m² 2,0 °C 1,8 °C 8,0 km/h (2 Bft)
10.03.2017 07:00 3,3 °C 3,3 °C 91 % 1024,0 hPa 0,0 mm 5,9 km/h (2 Bft) W 262 ° 0 min 0,000 mm 0,0 UV-I 7 W/m² 2,0 °C 1,8 °C 9,7 km/h (2 Bft)
10.03.2017 07:01 3,3 °C 3,3 °C 91 % 1024,1 hPa 0,0 mm 4,9 km/h (1 Bft) W 264 ° 0 min 0,000 mm 0,0 UV-I 7 W/m² 2,0 °C 2,2 °C 8,0 km/h (2 Bft)
10.03.2017 07:02 3,3 °C 3,3 °C 91 % 1024,1 hPa 0,0 mm 5,2 km/h (1 Bft) W-SW 254 ° 0 min 0,000 mm 0,0 UV-I 9 W/m² 2,0 °C 2,1 °C 6,4 km/h (2 Bft)
10.03.2017 07:03 3,2 °C 3,3 °C 91 % 1024,1 hPa 0,0 mm 4,4 km/h (1 Bft) W-SW 248 ° 0 min 0,000 mm 0,0 UV-I 11 W/m² 1,9 °C 3,2 °C 6,4 km/h (2 Bft)
10.03.2017 07:04 3,2 °C 3,2 °C 91 % 1024,1 hPa 0,0 mm 6,0 km/h (2 Bft) W-SW 258 ° 0 min 0,000 mm 0,0 UV-I 11 W/m² 1,9 °C 1,7 °C 8,0 km/h (2 Bft)
10.03.2017 07:05 3,2 °C 3,2 °C 91 % 1024,1 hPa 0,0 mm 5,8 km/h (2 Bft) SW 232 ° 0 min 0,000 mm 0,0 UV-I 11 W/m² 1,9 °C 1,7 °C 11,3 km/h (2 Bft)
10.03.2017 07:06 3,2 °C 3,2 °C 91 % 1024,1 hPa 0,0 mm 5,0 km/h (1 Bft) W-SW 243 ° 0 min 0,000 mm 0,0 UV-I 12 W/m² 1,9 °C 2,0 °C 8,0 km/h (2 Bft)
10.03.2017 07:07 3,3 °C 3,3 °C 91 % 1024,1 hPa 0,0 mm 5,8 km/h (2 Bft) W 271 ° 0 min 0,000 mm 0,0 UV-I 14 W/m² 2,0 °C 1,8 °C 9,7 km/h (2 Bft)
10.03.2017 07:08 3,2 °C 3,3 °C 91 % 1024,1 hPa 0,0 mm 3,7 km/h (1 Bft) SW 232 ° 0 min 0,000 mm 0,0 UV-I 18 W/m² 1,9 °C 3,2 °C 6,4 km/h (2 Bft)
10.03.2017 07:09 3,2 °C 3,3 °C 91 % 1024,1 hPa 0,0 mm 7,5 km/h (2 Bft) W-SW 253 ° 0 min 0,000 mm 0,0 UV-I 19 W/m² 1,9 °C 1,2 °C 11,3 km/h (2 Bft)
10.03.2017 07:10 3,2 °C 3,3 °C 91 % 1024,1 hPa 0,0 mm 7,4 km/h (2 Bft) SW 218 ° 0 min 0,000 mm 0,0 UV-I 21 W/m² 1,9 °C 1,2 °C 11,3 km/h (2 Bft)
10.03.2017 07:11 3,2 °C 3,3 °C 91 % 1024,1 hPa 0,0 mm 5,9 km/h (2 Bft) SW 232 ° 0 min 0,000 mm 0,0 UV-I 21 W/m² 1,9 °C 1,7 °C 11,3 km/h (2 Bft)
10.03.2017 07:12 3,3 °C 3,3 °C 91 % 1024,1 hPa 0,0 mm 8,9 km/h (2 Bft) SW 231 ° 0 min 0,000 mm 0,0 UV-I 21 W/m² 2,0 °C 0,9 °C 12,9 km/h (3 Bft)
10.03.2017 07:13 3,3 °C 3,3 °C 91 % 1024,1 hPa 0,0 mm 7,2 km/h (2 Bft) SW 223 ° 0 min 0,000 mm 0,0 UV-I 23 W/m² 2,0 °C 1,4 °C 9,7 km/h (2 Bft)
10.03.2017 07:14 3,3 °C 3,3 °C 91 % 1024,1 hPa 0,0 mm 7,5 km/h (2 Bft) W-SW 252 ° 0 min 0,000 mm 0,0 UV-I 23 W/m² 2,0 °C 1,3 °C 9,7 km/h (2 Bft)
10.03.2017 07:15 3,3 °C 3,3 °C 91 % 1024,2 hPa 0,0 mm 7,8 km/h (2 Bft) W-SW 239 ° 0 min 0,000 mm 0,0 UV-I 23 W/m² 2,0 °C 1,2 °C 12,9 km/h (3 Bft)
10.03.2017 07:16 3,3 °C 3,3 °C 91 % 1024,2 hPa 0,0 mm 7,3 km/h (2 Bft) W-SW 257 ° 0 min 0,000 mm 0,0 UV-I 21 W/m² 2,0 °C 1,3 °C 11,3 km/h (2 Bft)
10.03.2017 07:17 3,3 °C 3,3 °C 91 % 1024,3 hPa 0,0 mm 4,6 km/h (1 Bft) SW 229 ° 0 min 0,000 mm 0,0 UV-I 19 W/m² 2,0 °C 2,3 °C 6,4 km/h (2 Bft)
10.03.2017 07:18 3,3 °C 3,3 °C 91 % 1024,3 hPa 0,0 mm 4,5 km/h (1 Bft) W 266 ° 0 min 0,000 mm 0,0 UV-I 19 W/m² 2,0 °C 3,3 °C 6,4 km/h (2 Bft)
10.03.2017 07:19 3,3 °C 3,3 °C 91 % 1024,3 hPa 0,0 mm 8,8 km/h (2 Bft) W 268 ° 0 min 0,000 mm 0,0 UV-I 19 W/m² 2,0 °C 0,9 °C 12,9 km/h (3 Bft)
10.03.2017 07:20 3,3 °C 3,3 °C 91 % 1024,3 hPa 0,0 mm 7,4 km/h (2 Bft) W-SW 247 ° 0 min 0,000 mm 0,0 UV-I 19 W/m² 2,0 °C 1,3 °C 11,3 km/h (2 Bft)
10.03.2017 07:21 3,3 °C 3,3 °C 91 % 1024,3 hPa 0,0 mm 5,8 km/h (2 Bft) W-SW 244 ° 0 min 0,000 mm 0,0 UV-I 21 W/m² 2,0 °C 1,8 °C 9,7 km/h (2 Bft)
10.03.2017 07:22 3,3 °C 3,3 °C 91 % 1024,3 hPa 0,0 mm 5,7 km/h (1 Bft) W-SW 247 ° 0 min 0,000 mm 0,0 UV-I 23 W/m² 2,0 °C 1,9 °C 8,0 km/h (2 Bft)
10.03.2017 07:23 3,3 °C 3,3 °C 91 % 1024,3 hPa 0,0 mm 4,9 km/h (1 Bft) W-SW 244 ° 0 min 0,000 mm 0,0 UV-I 30 W/m² 2,0 °C 2,2 °C 8,0 km/h (2 Bft)
10.03.2017 07:24 3,3 °C 3,3 °C 91 % 1024,3 hPa 0,0 mm 5,1 km/h (1 Bft) W-SW 241 ° 0 min 0,000 mm 0,0 UV-I 35 W/m² 2,0 °C 2,1 °C 8,0 km/h (2 Bft)
10.03.2017 07:25 3,3 °C 3,3 °C 91 % 1024,3 hPa 0,0 mm 5,4 km/h (1 Bft) W-SW 248 ° 0 min 0,000 mm 0,0 UV-I 39 W/m² 2,0 °C 2,0 °C 11,3 km/h (2 Bft)
10.03.2017 07:26 3,3 °C 3,3 °C 91 % 1024,3 hPa 0,0 mm 8,3 km/h (2 Bft) W-SW 253 ° 0 min 0,000 mm 0,0 UV-I 42 W/m² 2,0 °C 1,1 °C 11,3 km/h (2 Bft)
10.03.2017 07:27 3,3 °C 3,3 °C 91 % 1024,3 hPa 0,0 mm 10,0 km/h (2 Bft) W-SW 253 ° 0 min 0,000 mm 0,0 UV-I 46 W/m² 2,0 °C 0,6 °C 12,9 km/h (3 Bft)
10.03.2017 07:28 3,3 °C 3,3 °C 91 % 1024,3 hPa 0,0 mm 6,9 km/h (2 Bft) W 273 ° 0 min 0,000 mm 0,0 UV-I 49 W/m² 2,0 °C 1,5 °C 11,3 km/h (2 Bft)
10.03.2017 07:29 3,3 °C 3,3 °C 91 % 1024,3 hPa 0,0 mm 6,0 km/h (2 Bft) W-SW 251 ° 0 min 0,000 mm 0,0 UV-I 47 W/m² 2,0 °C 1,8 °C 11,3 km/h (2 Bft)
10.03.2017 07:30 3,4 °C 3,4 °C 91 % 1024,3 hPa 0,0 mm 12,4 km/h (3 Bft) W-SW 258 ° 0 min 0,000 mm 0,0 UV-I 46 W/m² 2,1 °C 0,2 °C 16,1 km/h (3 Bft)
10.03.2017 07:31 3,4 °C 3,4 °C 92 % 1024,2 hPa 0,0 mm 7,6 km/h (2 Bft) W-SW 256 ° 0 min 0,000 mm 0,0 UV-I 46 W/m² 2,2 °C 1,4 °C 11,3 km/h (2 Bft)
10.03.2017 07:32 3,4 °C 3,4 °C 91 % 1024,3 hPa 0,0 mm 10,1 km/h (2 Bft) W-SW 243 ° 0 min 0,000 mm 0,0 UV-I 40 W/m² 2,1 °C 0,7 °C 16,1 km/h (3 Bft)
10.03.2017 07:33 3,5 °C 3,5 °C 91 % 1024,3 hPa 0,0 mm 9,3 km/h (2 Bft) W-SW 249 ° 0 min 0,000 mm 0,0 UV-I 37 W/m² 2,2 °C 1,0 °C 12,9 km/h (3 Bft)
10.03.2017 07:34 3,5 °C 3,5 °C 91 % 1024,3 hPa 0,0 mm 7,4 km/h (2 Bft) W-SW 246 ° 0 min 0,000 mm 0,0 UV-I 37 W/m² 2,2 °C 1,5 °C 11,3 km/h (2 Bft)
10.03.2017 07:35 3,5 °C 3,5 °C 91 % 1024,3 hPa 0,0 mm 6,4 km/h (2 Bft) W-SW 251 ° 0 min 0,000 mm 0,0 UV-I 37 W/m² 2,2 °C 1,9 °C 9,7 km/h (2 Bft)
10.03.2017 07:36 3,5 °C 3,5 °C 91 % 1024,3 hPa 0,0 mm 7,4 km/h (2 Bft) W-SW 258 ° 0 min 0,000 mm 0,0 UV-I 35 W/m² 2,2 °C 1,5 °C 11,3 km/h (2 Bft)
10.03.2017 07:37 3,5 °C 3,5 °C 91 % 1024,4 hPa 0,0 mm 9,7 km/h (2 Bft) W-SW 254 ° 0 min 0,000 mm 0,0 UV-I 35 W/m² 2,2 °C 0,9 °C 11,3 km/h (2 Bft)
10.03.2017 07:38 3,5 °C 3,5 °C 91 % 1024,4 hPa 0,0 mm 9,2 km/h (2 Bft) W 267 ° 0 min 0,000 mm 0,0 UV-I 33 W/m² 2,2 °C 1,1 °C 12,9 km/h (3 Bft)
10.03.2017 07:39 3,6 °C 3,6 °C 91 % 1024,3 hPa 0,0 mm 4,8 km/h (1 Bft) W 264 ° 0 min 0,000 mm 0,0 UV-I 35 W/m² 2,3 °C 2,6 °C 8,0 km/h (2 Bft)
10.03.2017 07:40 3,6 °C 3,6 °C 91 % 1024,4 hPa 0,0 mm 3,9 km/h (1 Bft) W-NW 300 ° 0 min 0,000 mm 0,0 UV-I 37 W/m² 2,3 °C 3,6 °C 6,4 km/h (2 Bft)
10.03.2017 07:41 3,6 °C 3,6 °C 91 % 1024,3 hPa 0,0 mm 5,8 km/h (2 Bft) W 263 ° 0 min 0,000 mm 0,0 UV-I 37 W/m² 2,3 °C 2,2 °C 9,7 km/h (2 Bft)
10.03.2017 07:42 3,6 °C 3,6 °C 91 % 1024,3 hPa 0,0 mm 10,1 km/h (2 Bft) W-SW 254 ° 0 min 0,000 mm 0,0 UV-I 37 W/m² 2,3 °C 1,0 °C 12,9 km/h (3 Bft)
10.03.2017 07:43 3,6 °C 3,6 °C 91 % 1024,3 hPa 0,0 mm 8,0 km/h (2 Bft) W 263 ° 0 min 0,000 mm 0,0 UV-I 40 W/m² 2,3 °C 1,5 °C 12,9 km/h (3 Bft)
10.03.2017 07:44 3,6 °C 3,6 °C 91 % 1024,4 hPa 0,0 mm 4,9 km/h (1 Bft) W 271 ° 0 min 0,000 mm 0,0 UV-I 49 W/m² 2,3 °C 2,5 °C 8,0 km/h (2 Bft)
10.03.2017 07:45 3,6 °C 3,6 °C 91 % 1024,4 hPa 0,0 mm 5,4 km/h (1 Bft) W 260 ° 0 min 0,000 mm 0,0 UV-I 60 W/m² 2,3 °C 2,3 °C 9,7 km/h (2 Bft)
10.03.2017 07:46 3,6 °C 3,6 °C 91 % 1024,4 hPa 0,0 mm 4,7 km/h (1 Bft) W 270 ° 0 min 0,000 mm 0,0 UV-I 69 W/m² 2,3 °C 2,6 °C 6,4 km/h (2 Bft)
10.03.2017 07:47 3,6 °C 3,6 °C 92 % 1024,5 hPa 0,0 mm 10,0 km/h (2 Bft) W-SW 253 ° 0 min 0,000 mm 0,0 UV-I 69 W/m² 2,4 °C 1,0 °C 14,5 km/h (3 Bft)
10.03.2017 07:48 3,7 °C 3,7 °C 91 % 1024,4 hPa 0,0 mm 9,2 km/h (2 Bft) W-SW 254 ° 0 min 0,000 mm 0,0 UV-I 70 W/m² 2,4 °C 1,3 °C 17,7 km/h (3 Bft)
10.03.2017 07:49 3,7 °C 3,7 °C 91 % 1024,4 hPa 0,0 mm 8,0 km/h (2 Bft) W-SW 258 ° 0 min 0,000 mm 0,0 UV-I 72 W/m² 2,4 °C 1,6 °C 19,3 km/h (3 Bft)
10.03.2017 07:50 3,7 °C 3,7 °C 91 % 1024,5 hPa 0,0 mm 10,9 km/h (2 Bft) W-SW 250 ° 0 min 0,000 mm 0,0 UV-I 70 W/m² 2,4 °C 0,9 °C 14,5 km/h (3 Bft)
10.03.2017 07:51 3,7 °C 3,7 °C 91 % 1024,5 hPa 0,0 mm 10,0 km/h (2 Bft) W 275 ° 0 min 0,000 mm 0,0 UV-I 69 W/m² 2,4 °C 1,1 °C 14,5 km/h (3 Bft)
10.03.2017 07:52 3,7 °C 3,7 °C 91 % 1024,5 hPa 0,0 mm 11,3 km/h (2 Bft) W-NW 285 ° 0 min 0,000 mm 0,0 UV-I 65 W/m² 2,4 °C 0,8 °C 16,1 km/h (3 Bft)
10.03.2017 07:53 3,8 °C 3,8 °C 91 % 1024,5 hPa 0,0 mm 9,0 km/h (2 Bft) W-SW 248 ° 0 min 0,000 mm 0,0 UV-I 72 W/m² 2,5 °C 1,5 °C 12,9 km/h (3 Bft)
10.03.2017 07:54 3,8 °C 3,8 °C 91 % 1024,5 hPa 0,0 mm 13,3 km/h (3 Bft) W-SW 250 ° 0 min 0,000 mm 0,0 UV-I 70 W/m² 2,5 °C 0,6 °C 19,3 km/h (3 Bft)
10.03.2017 07:55 3,8 °C 3,8 °C 91 % 1024,5 hPa 0,0 mm 9,0 km/h (2 Bft) W-SW 254 ° 0 min 0,000 mm 0,0 UV-I 63 W/m² 2,5 °C 1,5 °C 11,3 km/h (2 Bft)
10.03.2017 07:56 3,8 °C 3,8 °C 91 % 1024,6 hPa 0,0 mm 7,5 km/h (2 Bft) W-SW 244 ° 0 min 0,000 mm 0,0 UV-I 58 W/m² 2,5 °C 1,9 °C 11,3 km/h (2 Bft)
10.03.2017 07:57 3,8 °C 3,8 °C 91 % 1024,6 hPa 0,0 mm 4,0 km/h (1 Bft) W 263 ° 0 min 0,000 mm 0,0 UV-I 54 W/m² 2,5 °C 3,8 °C 9,7 km/h (2 Bft)
10.03.2017 07:58 3,9 °C 3,9 °C 91 % 1024,6 hPa 0,0 mm 10,2 km/h (2 Bft) W 261 ° 0 min 0,000 mm 0,0 UV-I 56 W/m² 2,6 °C 1,3 °C 22,5 km/h (4 Bft)
10.03.2017 07:59 3,8 °C 3,9 °C 91 % 1024,6 hPa 0,0 mm 11,9 km/h (2 Bft) W-SW 248 ° 0 min 0,000 mm 0,0 UV-I 62 W/m² 2,5 °C 0,8 °C 16,1 km/h (3 Bft)
10.03.2017 08:00 3,8 °C 3,9 °C 91 % 1024,6 hPa 0,0 mm 11,7 km/h (2 Bft) W-NW 283 ° 0 min 0,025 mm 0,5 UV-I 77 W/m² 2,5 °C 0,9 °C 16,1 km/h (3 Bft)
10.03.2017 08:01 3,8 °C 3,8 °C 90 % 1024,6 hPa 0,0 mm 8,8 km/h (2 Bft) W 263 ° 0 min 0,000 mm 0,5 UV-I 107 W/m² 2,3 °C 1,5 °C 14,5 km/h (3 Bft)
10.03.2017 08:02 3,9 °C 3,9 °C 90 % 1024,6 hPa 0,0 mm 10,7 km/h (2 Bft) W-NW 288 ° 0 min 0,000 mm 0,0 UV-I 116 W/m² 2,4 °C 1,2 °C 14,5 km/h (3 Bft)
10.03.2017 08:03 3,9 °C 3,9 °C 90 % 1024,7 hPa 0,0 mm 8,6 km/h (2 Bft) W 280 ° 0 min 0,000 mm 0,0 UV-I 83 W/m² 2,4 °C 1,7 °C 17,7 km/h (3 Bft)
10.03.2017 08:04 3,9 °C 3,9 °C 91 % 1024,7 hPa 0,0 mm 11,7 km/h (2 Bft) W 263 ° 0 min 0,000 mm 0,0 UV-I 63 W/m² 2,6 °C 1,0 °C 16,1 km/h (3 Bft)
10.03.2017 08:05 3,9 °C 3,9 °C 91 % 1024,8 hPa 0,0 mm 14,2 km/h (3 Bft) W-NW 285 ° 0 min 0,000 mm 0,0 UV-I 47 W/m² 2,6 °C 0,5 °C 19,3 km/h (3 Bft)
10.03.2017 08:06 3,9 °C 3,9 °C 90 % 1024,7 hPa 0,0 mm 11,8 km/h (2 Bft) W-NW 290 ° 0 min 0,000 mm 0,0 UV-I 37 W/m² 2,4 °C 1,0 °C 17,7 km/h (3 Bft)
10.03.2017 08:07 3,9 °C 3,9 °C 90 % 1024,7 hPa 0,0 mm 8,0 km/h (2 Bft) W-SW 254 ° 0 min 0,000 mm 0,0 UV-I 30 W/m² 2,4 °C 1,8 °C 11,3 km/h (2 Bft)
10.03.2017 08:08 3,9 °C 3,9 °C 90 % 1024,8 hPa 0,0 mm 14,3 km/h (3 Bft) W 269 ° 0 min 0,000 mm 0,0 UV-I 28 W/m² 2,4 °C 0,5 °C 17,7 km/h (3 Bft)
10.03.2017 08:09 3,9 °C 3,9 °C 90 % 1024,8 hPa 0,0 mm 13,1 km/h (3 Bft) W 278 ° 0 min 0,000 mm 0,0 UV-I 25 W/m² 2,4 °C 0,7 °C 16,1 km/h (3 Bft)
10.03.2017 08:10 3,9 °C 3,9 °C 90 % 1024,8 hPa 0,0 mm 10,6 km/h (2 Bft) W 274 ° 0 min 0,000 mm 0,0 UV-I 23 W/m² 2,4 °C 1,2 °C 14,5 km/h (3 Bft)
10.03.2017 08:11 3,9 °C 3,9 °C 90 % 1024,8 hPa 0,0 mm 9,7 km/h (2 Bft) W 270 ° 0 min 0,000 mm 0,0 UV-I 21 W/m² 2,4 °C 1,4 °C 16,1 km/h (3 Bft)
10.03.2017 08:12 3,9 °C 3,9 °C 90 % 1024,8 hPa 0,0 mm 9,5 km/h (2 Bft) W-NW 292 ° 0 min 0,000 mm 0,0 UV-I 30 W/m² 2,4 °C 1,5 °C 12,9 km/h (3 Bft)
10.03.2017 08:13 3,9 °C 3,9 °C 90 % 1024,7 hPa 0,0 mm 9,3 km/h (2 Bft) W-NW 285 ° 0 min 0,000 mm 0,0 UV-I 42 W/m² 2,4 °C 1,5 °C 12,9 km/h (3 Bft)
10.03.2017 08:14 3,9 °C 3,9 °C 90 % 1024,8 hPa 0,0 mm 10,0 km/h (2 Bft) SW 235 ° 0 min 0,000 mm 0,0 UV-I 51 W/m² 2,4 °C 1,3 °C 16,1 km/h (3 Bft)
10.03.2017 08:15 3,8 °C 3,9 °C 91 % 1024,8 hPa 0,0 mm 16,1 km/h (3 Bft) W 278 ° 0 min 0,000 mm 0,5 UV-I 65 W/m² 2,5 °C 0,1 °C 20,9 km/h (4 Bft)
10.03.2017 08:16 3,8 °C 3,9 °C 90 % 1024,8 hPa 0,0 mm 12,3 km/h (3 Bft) W-NW 296 ° 0 min 0,000 mm 0,5 UV-I 67 W/m² 2,3 °C 0,7 °C 22,5 km/h (4 Bft)
10.03.2017 08:17 3,9 °C 3,9 °C 90 % 1024,8 hPa 0,0 mm 7,8 km/h (2 Bft) W 280 ° 0 min 0,000 mm 0,5 UV-I 63 W/m² 2,4 °C 1,9 °C 12,9 km/h (3 Bft)
10.03.2017 08:18 3,8 °C 3,9 °C 91 % 1024,8 hPa 0,0 mm 7,2 km/h (2 Bft) W 277 ° 0 min 0,000 mm 0,5 UV-I 60 W/m² 2,5 °C 2,0 °C 12,9 km/h (3 Bft)
10.03.2017 08:19 3,8 °C 3,8 °C 91 % 1024,7 hPa 0,0 mm 7,8 km/h (2 Bft) W-SW 254 ° 0 min 0,000 mm 0,0 UV-I 54 W/m² 2,5 °C 1,8 °C 12,9 km/h (3 Bft)
10.03.2017 08:20 3,8 °C 3,8 °C 91 % 1024,7 hPa 0,0 mm 12,9 km/h (3 Bft) W-SW 255 ° 0 min 0,000 mm 0,0 UV-I 54 W/m² 2,5 °C 0,6 °C 17,7 km/h (3 Bft)
10.03.2017 08:21 3,8 °C 3,8 °C 91 % 1024,7 hPa 0,0 mm 10,8 km/h (2 Bft) W 278 ° 0 min 0,000 mm 0,6 UV-I 62 W/m² 2,5 °C 1,0 °C 16,1 km/h (3 Bft)
10.03.2017 08:22 3,8 °C 3,8 °C 91 % 1024,7 hPa 0,0 mm 10,4 km/h (2 Bft) W-SW 252 ° 0 min 0,000 mm 0,6 UV-I 76 W/m² 2,5 °C 1,1 °C 19,3 km/h (3 Bft)
10.03.2017 08:23 3,8 °C 3,8 °C 91 % 1024,8 hPa 0,0 mm 16,7 km/h (3 Bft) W-NW 286 ° 0 min 0,000 mm 0,6 UV-I 90 W/m² 2,5 °C 0,0 °C 24,1 km/h (4 Bft)
10.03.2017 08:24 3,8 °C 3,8 °C 91 % 1024,8 hPa 0,0 mm 11,3 km/h (2 Bft) W 279 ° 0 min 0,000 mm 0,7 UV-I 107 W/m² 2,5 °C 0,9 °C 17,7 km/h (3 Bft)
10.03.2017 08:25 3,8 °C 3,8 °C 91 % 1024,8 hPa 0,0 mm 10,8 km/h (2 Bft) W 267 ° 0 min 0,000 mm 0,7 UV-I 118 W/m² 2,5 °C 1,0 °C 16,1 km/h (3 Bft)
10.03.2017 08:26 3,8 °C 3,8 °C 91 % 1024,8 hPa 0,0 mm 16,2 km/h (3 Bft) W-NW 300 ° 0 min 0,000 mm 0,7 UV-I 128 W/m² 2,5 °C 0,1 °C 22,5 km/h (4 Bft)
10.03.2017 08:27 3,9 °C 3,9 °C 91 % 1024,8 hPa 0,0 mm 12,4 km/h (3 Bft) W-NW 291 ° 0 min 0,000 mm 0,8 UV-I 132 W/m² 2,6 °C 0,8 °C 17,7 km/h (3 Bft)
10.03.2017 08:28 3,9 °C 3,9 °C 91 % 1024,8 hPa 0,0 mm 13,3 km/h (3 Bft) W-NW 294 ° 0 min 0,000 mm 0,7 UV-I 128 W/m² 2,6 °C 0,7 °C 16,1 km/h (3 Bft)
10.03.2017 08:29 4,0 °C 4,0 °C 91 % 1024,8 hPa 0,0 mm 8,7 km/h (2 Bft) W 279 ° 0 min 0,000 mm 0,7 UV-I 123 W/m² 2,7 °C 1,8 °C 14,5 km/h (3 Bft)
10.03.2017 08:30 4,0 °C 4,0 °C 91 % 1024,8 hPa 0,0 mm 12,9 km/h (3 Bft) W-NW 289 ° 0 min 0,000 mm 0,8 UV-I 132 W/m² 2,7 °C 0,9 °C 19,3 km/h (3 Bft)
10.03.2017 08:31 4,1 °C 4,1 °C 91 % 1024,8 hPa 0,0 mm 11,5 km/h (2 Bft) W-SW 246 ° 0 min 0,000 mm 0,8 UV-I 155 W/m² 2,8 °C 1,3 °C 17,7 km/h (3 Bft)
10.03.2017 08:32 4,2 °C 4,2 °C 91 % 1024,8 hPa 0,0 mm 10,9 km/h (2 Bft) W 281 ° 0 min 0,000 mm 0,8 UV-I 167 W/m² 2,9 °C 1,5 °C 17,7 km/h (3 Bft)
10.03.2017 08:33 4,3 °C 4,3 °C 91 % 1024,8 hPa 0,0 mm 13,7 km/h (3 Bft) W 259 ° 0 min 0,000 mm 0,8 UV-I 162 W/m² 3,0 °C 1,1 °C 17,7 km/h (3 Bft)
10.03.2017 08:34 4,3 °C 4,3 °C 91 % 1024,8 hPa 0,0 mm 11,7 km/h (2 Bft) W 277 ° 0 min 0,000 mm 0,8 UV-I 188 W/m² 3,0 °C 1,5 °C 19,3 km/h (3 Bft)
10.03.2017 08:35 4,4 °C 4,4 °C 91 % 1024,9 hPa 0,0 mm 12,7 km/h (3 Bft) W 268 ° 0 min 0,000 mm 0,7 UV-I 169 W/m² 3,1 °C 1,4 °C 17,7 km/h (3 Bft)
10.03.2017 08:36 4,4 °C 4,4 °C 90 % 1024,9 hPa 0,0 mm 12,1 km/h (2 Bft) W-SW 252 ° 0 min 0,000 mm 0,5 UV-I 123 W/m² 2,9 °C 1,5 °C 17,7 km/h (3 Bft)
10.03.2017 08:37 4,4 °C 4,4 °C 90 % 1024,8 hPa 0,0 mm 14,6 km/h (3 Bft) W 273 ° 0 min 0,000 mm 0,0 UV-I 77 W/m² 2,9 °C 1,1 °C 17,7 km/h (3 Bft)
10.03.2017 08:38 4,4 °C 4,4 °C 90 % 1024,8 hPa 0,0 mm 10,2 km/h (2 Bft) W 279 ° 0 min 0,000 mm 0,0 UV-I 62 W/m² 2,9 °C 1,9 °C 14,5 km/h (3 Bft)
10.03.2017 08:39 4,4 °C 4,4 °C 90 % 1024,9 hPa 0,0 mm 12,1 km/h (2 Bft) W-NW 284 ° 0 min 0,000 mm 0,0 UV-I 49 W/m² 2,9 °C 1,5 °C 16,1 km/h (3 Bft)
10.03.2017 08:40 4,4 °C 4,4 °C 90 % 1024,9 hPa 0,0 mm 11,7 km/h (2 Bft) W-NW 286 ° 0 min 0,000 mm 0,0 UV-I 44 W/m² 2,9 °C 1,6 °C 17,7 km/h (3 Bft)
10.03.2017 08:41 4,3 °C 4,4 °C 90 % 1024,9 hPa 0,0 mm 13,9 km/h (3 Bft) W-NW 288 ° 0 min 0,000 mm 0,0 UV-I 51 W/m² 2,8 °C 1,1 °C 22,5 km/h (4 Bft)
10.03.2017 08:42 4,3 °C 4,3 °C 90 % 1024,9 hPa 0,0 mm 17,0 km/h (3 Bft) W 266 ° 0 min 0,000 mm 0,0 UV-I 54 W/m² 2,8 °C 0,6 °C 22,5 km/h (4 Bft)
10.03.2017 08:43 4,3 °C 4,3 °C 90 % 1024,9 hPa 0,0 mm 15,0 km/h (3 Bft) W-NW 291 ° 0 min 0,000 mm 0,0 UV-I 62 W/m² 2,8 °C 0,9 °C 22,5 km/h (4 Bft)
10.03.2017 08:44 4,2 °C 4,3 °C 90 % 1024,9 hPa 0,0 mm 11,8 km/h (2 Bft) W-NW 286 ° 0 min 0,000 mm 0,5 UV-I 77 W/m² 2,7 °C 1,3 °C 19,3 km/h (3 Bft)
10.03.2017 08:45 4,2 °C 4,3 °C 90 % 1024,8 hPa 0,0 mm 10,5 km/h (2 Bft) W-NW 298 ° 0 min 0,000 mm 0,5 UV-I 93 W/m² 2,7 °C 1,6 °C 17,7 km/h (3 Bft)
10.03.2017 08:46 4,2 °C 4,2 °C 90 % 1024,9 hPa 0,0 mm 9,4 km/h (2 Bft) W-NW 292 ° 0 min 0,000 mm 0,5 UV-I 91 W/m² 2,7 °C 1,8 °C 19,3 km/h (3 Bft)
10.03.2017 08:47 4,2 °C 4,2 °C 90 % 1024,8 hPa 0,0 mm 7,2 km/h (2 Bft) W-NW 288 ° 0 min 0,000 mm 0,5 UV-I 91 W/m² 2,7 °C 2,4 °C 11,3 km/h (2 Bft)
10.03.2017 08:48 4,2 °C 4,2 °C 90 % 1024,8 hPa 0,0 mm 10,1 km/h (2 Bft) W-SW 242 ° 0 min 0,000 mm 0,5 UV-I 93 W/m² 2,7 °C 1,7 °C 12,9 km/h (3 Bft)
10.03.2017 08:49 4,2 °C 4,2 °C 91 % 1024,8 hPa 0,0 mm 15,6 km/h (3 Bft) W-SW 256 ° 0 min 0,000 mm 0,6 UV-I 100 W/m² 2,9 °C 0,7 °C 20,9 km/h (4 Bft)
10.03.2017 08:50 4,1 °C 4,2 °C 90 % 1024,9 hPa 0,0 mm 12,7 km/h (3 Bft) W 279 ° 0 min 0,000 mm 0,6 UV-I 109 W/m² 2,6 °C 1,0 °C 17,7 km/h (3 Bft)
10.03.2017 08:51 4,2 °C 4,2 °C 91 % 1024,9 hPa 0,0 mm 9,5 km/h (2 Bft) W 261 ° 0 min 0,000 mm 0,5 UV-I 90 W/m² 2,9 °C 1,8 °C 17,7 km/h (3 Bft)
10.03.2017 08:52 4,2 °C 4,2 °C 91 % 1024,9 hPa 0,0 mm 13,3 km/h (3 Bft) W-NW 291 ° 0 min 0,000 mm 0,0 UV-I 76 W/m² 2,9 °C 1,0 °C 20,9 km/h (4 Bft)
10.03.2017 08:53 4,1 °C 4,2 °C 90 % 1024,9 hPa 0,0 mm 15,4 km/h (3 Bft) W-SW 243 ° 0 min 0,000 mm 0,0 UV-I 62 W/m² 2,6 °C 0,6 °C 20,9 km/h (4 Bft)
10.03.2017 08:54 4,1 °C 4,1 °C 90 % 1024,9 hPa 0,0 mm 14,4 km/h (3 Bft) W-NW 296 ° 0 min 0,000 mm 0,6 UV-I 65 W/m² 2,6 °C 0,7 °C 17,7 km/h (3 Bft)
10.03.2017 08:55 4,1 °C 4,1 °C 90 % 1024,9 hPa 0,0 mm 11,3 km/h (2 Bft) W-NW 288 ° 0 min 0,000 mm 0,6 UV-I 65 W/m² 2,6 °C 1,3 °C 17,7 km/h (3 Bft)
10.03.2017 08:56 4,1 °C 4,1 °C 90 % 1025,0 hPa 0,0 mm 13,5 km/h (3 Bft) W-SW 254 ° 0 min 0,000 mm 0,7 UV-I 65 W/m² 2,6 °C 0,9 °C 24,1 km/h (4 Bft)
10.03.2017 08:57 4,1 °C 4,1 °C 90 % 1025,0 hPa 0,0 mm 18,2 km/h (3 Bft) W 281 ° 0 min 0,000 mm 0,9 UV-I 76 W/m² 2,6 °C 0,2 °C 27,4 km/h (4 Bft)
10.03.2017 08:58 4,1 °C 4,1 °C 90 % 1025,0 hPa 0,0 mm 16,6 km/h (3 Bft) W-SW 257 ° 0 min 0,000 mm 0,9 UV-I 98 W/m² 2,6 °C 0,4 °C 22,5 km/h (4 Bft)
10.03.2017 08:59 4,0 °C 4,1 °C 90 % 1025,0 hPa 0,0 mm 16,5 km/h (3 Bft) W 263 ° 0 min 0,000 mm 1,0 UV-I 135 W/m² 2,5 °C 0,3 °C 22,5 km/h (4 Bft)
10.03.2017 09:00 4,1 °C 4,1 °C 90 % 1025,0 hPa 0,0 mm 13,4 km/h (3 Bft) W 263 ° 0 min 0,051 mm 0,9 UV-I 165 W/m² 2,6 °C 0,9 °C 19,3 km/h (3 Bft)
10.03.2017 09:01 4,1 °C 4,1 °C 90 % 1025,0 hPa 0,0 mm 13,7 km/h (3 Bft) SW 235 ° 0 min 0,000 mm 0,8 UV-I 158 W/m² 2,6 °C 0,9 °C 24,1 km/h (4 Bft)
10.03.2017 09:02 4,1 °C 4,1 °C 90 % 1025,0 hPa 0,0 mm 15,8 km/h (3 Bft) W-NW 282 ° 0 min 0,000 mm 0,8 UV-I 151 W/m² 2,6 °C 0,5 °C 20,9 km/h (4 Bft)
10.03.2017 09:03 4,1 °C 4,1 °C 90 % 1025,0 hPa 0,0 mm 12,7 km/h (3 Bft) W-NW 300 ° 0 min 0,000 mm 0,7 UV-I 113 W/m² 2,6 °C 1,0 °C 17,7 km/h (3 Bft)
10.03.2017 09:04 4,2 °C 4,2 °C 90 % 1025,0 hPa 0,0 mm 12,2 km/h (2 Bft) W-NW 286 ° 0 min 0,000 mm 0,7 UV-I 118 W/m² 2,7 °C 1,2 °C 17,7 km/h (3 Bft)
10.03.2017 09:05 4,2 °C 4,2 °C 91 % 1025,0 hPa 0,0 mm 7,9 km/h (2 Bft) W 271 ° 0 min 0,000 mm 0,7 UV-I 139 W/m² 2,9 °C 2,2 °C 14,5 km/h (3 Bft)
10.03.2017 09:06 4,2 °C 4,2 °C 90 % 1025,1 hPa 0,0 mm 7,2 km/h (2 Bft) W-NW 296 ° 0 min 0,000 mm 0,5 UV-I 107 W/m² 2,7 °C 2,4 °C 14,5 km/h (3 Bft)
10.03.2017 09:07 4,3 °C 4,3 °C 91 % 1025,2 hPa 0,0 mm 9,4 km/h (2 Bft) W 278 ° 0 min 0,000 mm 0,0 UV-I 65 W/m² 3,0 °C 2,0 °C 14,5 km/h (3 Bft)
10.03.2017 09:08 4,3 °C 4,3 °C 91 % 1025,2 hPa 0,0 mm 9,1 km/h (2 Bft) W 281 ° 0 min 0,000 mm 0,6 UV-I 83 W/m² 3,0 °C 2,0 °C 12,9 km/h (3 Bft)
10.03.2017 09:09 4,3 °C 4,3 °C 90 % 1025,1 hPa 0,0 mm 8,8 km/h (2 Bft) W 263 ° 0 min 0,000 mm 0,7 UV-I 91 W/m² 2,8 °C 2,1 °C 12,9 km/h (3 Bft)
10.03.2017 09:10 4,3 °C 4,3 °C 90 % 1025,1 hPa 0,0 mm 10,3 km/h (2 Bft) W-SW 247 ° 0 min 0,000 mm 0,6 UV-I 91 W/m² 2,8 °C 1,8 °C 17,7 km/h (3 Bft)
10.03.2017 09:11 4,3 °C 4,3 °C 90 % 1025,1 hPa 0,0 mm 9,4 km/h (2 Bft) W 276 ° 0 min 0,000 mm 0,6 UV-I 74 W/m² 2,8 °C 2,0 °C 16,1 km/h (3 Bft)
10.03.2017 09:12 4,2 °C 4,3 °C 90 % 1025,1 hPa 0,0 mm 13,6 km/h (3 Bft) W-NW 285 ° 0 min 0,000 mm 0,5 UV-I 67 W/m² 2,7 °C 1,0 °C 17,7 km/h (3 Bft)
10.03.2017 09:13 4,2 °C 4,3 °C 90 % 1025,2 hPa 0,0 mm 10,7 km/h (2 Bft) W-NW 294 ° 0 min 0,000 mm 0,6 UV-I 67 W/m² 2,7 °C 1,6 °C 14,5 km/h (3 Bft)
10.03.2017 09:14 4,2 °C 4,2 °C 89 % 1025,2 hPa 0,0 mm 6,9 km/h (2 Bft) W 281 ° 0 min 0,000 mm 0,6 UV-I 76 W/m² 2,6 °C 2,5 °C 9,7 km/h (2 Bft)
10.03.2017 09:15 4,2 °C 4,3 °C 90 % 1025,2 hPa 0,0 mm 7,5 km/h (2 Bft) NW 317 ° 0 min 0,000 mm 0,7 UV-I 86 W/m² 2,7 °C 2,3 °C 12,9 km/h (3 Bft)
10.03.2017 09:16 4,2 °C 4,2 °C 89 % 1025,2 hPa 0,0 mm 12,8 km/h (3 Bft) W-NW 284 ° 0 min 0,000 mm 0,6 UV-I 90 W/m² 2,6 °C 1,1 °C 16,1 km/h (3 Bft)
10.03.2017 09:17 4,2 °C 4,2 °C 89 % 1025,1 hPa 0,0 mm 7,0 km/h (2 Bft) W-NW 283 ° 0 min 0,000 mm 0,5 UV-I 74 W/m² 2,6 °C 2,5 °C 11,3 km/h (2 Bft)
10.03.2017 09:18 4,2 °C 4,2 °C 89 % 1025,2 hPa 0,0 mm 10,9 km/h (2 Bft) W 277 ° 0 min 0,000 mm 0,0 UV-I 60 W/m² 2,6 °C 1,5 °C 16,1 km/h (3 Bft)
10.03.2017 09:19 4,2 °C 4,2 °C 89 % 1025,2 hPa 0,0 mm 7,2 km/h (2 Bft) W 264 ° 0 min 0,000 mm 0,0 UV-I 56 W/m² 2,6 °C 2,4 °C 16,1 km/h (3 Bft)
10.03.2017 09:20 4,2 °C 4,2 °C 89 % 1025,2 hPa 0,0 mm 11,3 km/h (2 Bft) NW 325 ° 0 min 0,000 mm 0,0 UV-I 44 W/m² 2,6 °C 1,4 °C 20,9 km/h (4 Bft)
10.03.2017 09:21 4,2 °C 4,2 °C 89 % 1025,2 hPa 0,0 mm 7,7 km/h (2 Bft) NW 318 ° 0 min 0,000 mm 0,0 UV-I 44 W/m² 2,6 °C 2,3 °C 12,9 km/h (3 Bft)
10.03.2017 09:22 4,2 °C 4,2 °C 89 % 1025,2 hPa 0,0 mm 11,5 km/h (2 Bft) W 273 ° 0 min 0,000 mm 0,0 UV-I 47 W/m² 2,6 °C 1,4 °C 14,5 km/h (3 Bft)
10.03.2017 09:23 4,1 °C 4,2 °C 89 % 1025,3 hPa 0,0 mm 13,6 km/h (3 Bft) W 279 ° 0 min 0,000 mm 0,6 UV-I 63 W/m² 2,5 °C 0,9 °C 20,9 km/h (4 Bft)
10.03.2017 09:24 4,1 °C 4,1 °C 89 % 1025,3 hPa 0,0 mm 16,0 km/h (3 Bft) W-NW 282 ° 0 min 0,000 mm 0,6 UV-I 84 W/m² 2,5 °C 0,5 °C 22,5 km/h (4 Bft)
10.03.2017 09:25 4,1 °C 4,1 °C 89 % 1025,2 hPa 0,0 mm 15,3 km/h (3 Bft) W-SW 257 ° 0 min 0,000 mm 0,6 UV-I 83 W/m² 2,5 °C 0,6 °C 20,9 km/h (4 Bft)
10.03.2017 09:26 4,1 °C 4,1 °C 89 % 1025,3 hPa 0,0 mm 12,8 km/h (3 Bft) W-NW 294 ° 0 min 0,000 mm 0,5 UV-I 76 W/m² 2,5 °C 1,0 °C 16,1 km/h (3 Bft)
10.03.2017 09:27 4,1 °C 4,1 °C 89 % 1025,3 hPa 0,0 mm 5,0 km/h (1 Bft) SW 234 ° 0 min 0,000 mm 0,6 UV-I 81 W/m² 2,5 °C 3,1 °C 8,0 km/h (2 Bft)
10.03.2017 09:28 4,1 °C 4,1 °C 89 % 1025,3 hPa 0,0 mm 9,3 km/h (2 Bft) W-NW 291 ° 0 min 0,000 mm 0,5 UV-I 76 W/m² 2,5 °C 1,7 °C 14,5 km/h (3 Bft)
10.03.2017 09:29 4,1 °C 4,1 °C 89 % 1025,3 hPa 0,0 mm 9,3 km/h (2 Bft) W-NW 288 ° 0 min 0,000 mm 0,5 UV-I 77 W/m² 2,5 °C 1,7 °C 14,5 km/h (3 Bft)
10.03.2017 09:30 4,1 °C 4,1 °C 89 % 1025,4 hPa 0,0 mm 8,4 km/h (2 Bft) W-SW 253 ° 0 min 0,000 mm 0,5 UV-I 81 W/m² 2,5 °C 2,0 °C 12,9 km/h (3 Bft)
10.03.2017 09:31 4,1 °C 4,1 °C 89 % 1025,4 hPa 0,0 mm 12,1 km/h (2 Bft) W 268 ° 0 min 0,000 mm 0,6 UV-I 97 W/m² 2,5 °C 1,1 °C 14,5 km/h (3 Bft)
10.03.2017 09:32 4,1 °C 4,1 °C 89 % 1025,4 hPa 0,0 mm 14,6 km/h (3 Bft) W-NW 290 ° 0 min 0,000 mm 0,7 UV-I 109 W/m² 2,5 °C 0,7 °C 20,9 km/h (4 Bft)
10.03.2017 09:33 4,1 °C 4,1 °C 88 % 1025,4 hPa 0,0 mm 11,5 km/h (2 Bft) W-NW 284 ° 0 min 0,000 mm 0,8 UV-I 120 W/m² 2,3 °C 1,3 °C 17,7 km/h (3 Bft)
10.03.2017 09:34 4,1 °C 4,1 °C 88 % 1025,4 hPa 0,0 mm 10,9 km/h (2 Bft) W-NW 296 ° 0 min 0,000 mm 0,8 UV-I 116 W/m² 2,3 °C 1,4 °C 17,7 km/h (3 Bft)
10.03.2017 09:35 4,1 °C 4,1 °C 88 % 1025,4 hPa 0,0 mm 14,0 km/h (3 Bft) W-NW 293 ° 0 min 0,000 mm 0,8 UV-I 121 W/m² 2,3 °C 0,8 °C 20,9 km/h (4 Bft)
10.03.2017 09:36 4,1 °C 4,1 °C 88 % 1025,5 hPa 0,0 mm 12,1 km/h (2 Bft) W-NW 300 ° 0 min 0,000 mm 0,9 UV-I 139 W/m² 2,3 °C 1,1 °C 17,7 km/h (3 Bft)
10.03.2017 09:37 4,2 °C 4,2 °C 88 % 1025,4 hPa 0,0 mm 16,0 km/h (3 Bft) W 263 ° 0 min 0,000 mm 0,9 UV-I 121 W/m² 2,4 °C 0,6 °C 25,7 km/h (4 Bft)
10.03.2017 09:38 4,2 °C 4,2 °C 88 % 1025,4 hPa 0,0 mm 12,0 km/h (2 Bft) W 276 ° 0 min 0,000 mm 0,8 UV-I 111 W/m² 2,4 °C 1,3 °C 16,1 km/h (3 Bft)
10.03.2017 09:39 4,2 °C 4,2 °C 88 % 1025,5 hPa 0,0 mm 9,4 km/h (2 Bft) W-NW 288 ° 0 min 0,000 mm 0,9 UV-I 114 W/m² 2,4 °C 1,8 °C 14,5 km/h (3 Bft)
10.03.2017 09:40 4,2 °C 4,2 °C 88 % 1025,4 hPa 0,0 mm 7,9 km/h (2 Bft) W-SW 254 ° 0 min 0,000 mm 1,0 UV-I 128 W/m² 2,4 °C 2,2 °C 14,5 km/h (3 Bft)
10.03.2017 09:41 4,2 °C 4,2 °C 88 % 1025,5 hPa 0,0 mm 10,2 km/h (2 Bft) W-NW 296 ° 0 min 0,000 mm 1,1 UV-I 146 W/m² 2,4 °C 1,7 °C 12,9 km/h (3 Bft)
10.03.2017 09:42 4,2 °C 4,2 °C 88 % 1025,5 hPa 0,0 mm 8,4 km/h (2 Bft) W-NW 286 ° 0 min 0,000 mm 1,2 UV-I 169 W/m² 2,4 °C 2,1 °C 11,3 km/h (2 Bft)
10.03.2017 09:43 4,3 °C 4,3 °C 89 % 1025,5 hPa 0,0 mm 5,6 km/h (1 Bft) W-NW 303 ° 1 min 0,000 mm 1,3 UV-I 206 W/m² 2,7 °C 3,1 °C 11,3 km/h (2 Bft)
10.03.2017 09:44 4,3 °C 4,3 °C 89 % 1025,5 hPa 0,0 mm 9,5 km/h (2 Bft) NW 316 ° 1 min 0,000 mm 1,3 UV-I 237 W/m² 2,7 °C 1,9 °C 16,1 km/h (3 Bft)
10.03.2017 09:45 4,4 °C 4,4 °C 89 % 1025,5 hPa 0,0 mm 9,1 km/h (2 Bft) W 277 ° 1 min 0,000 mm 1,3 UV-I 276 W/m² 2,7 °C 2,2 °C 12,9 km/h (3 Bft)
10.03.2017 09:46 4,5 °C 4,5 °C 89 % 1025,4 hPa 0,0 mm 8,3 km/h (2 Bft) W-NW 290 ° 0 min 0,000 mm 1,0 UV-I 176 W/m² 2,8 °C 2,5 °C 14,5 km/h (3 Bft)
10.03.2017 09:47 4,6 °C 4,6 °C 89 % 1025,5 hPa 0,0 mm 9,4 km/h (2 Bft) NW 319 ° 0 min 0,000 mm 0,8 UV-I 176 W/m² 2,9 °C 2,3 °C 16,1 km/h (3 Bft)
10.03.2017 09:48 4,6 °C 4,6 °C 88 % 1025,5 hPa 0,0 mm 10,9 km/h (2 Bft) W-NW 298 ° 0 min 0,000 mm 0,7 UV-I 107 W/m² 2,8 °C 2,0 °C 14,5 km/h (3 Bft)
10.03.2017 09:49 4,5 °C 4,6 °C 89 % 1025,5 hPa 0,0 mm 9,3 km/h (2 Bft) W-NW 286 ° 0 min 0,000 mm 0,7 UV-I 107 W/m² 2,8 °C 2,2 °C 16,1 km/h (3 Bft)
10.03.2017 09:50 4,5 °C 4,6 °C 88 % 1025,5 hPa 0,0 mm 13,1 km/h (3 Bft) NW 308 ° 0 min 0,000 mm 0,9 UV-I 148 W/m² 2,7 °C 1,4 °C 16,1 km/h (3 Bft)
10.03.2017 09:51 4,4 °C 4,5 °C 88 % 1025,5 hPa 0,0 mm 8,9 km/h (2 Bft) W-NW 300 ° 0 min 0,000 mm 1,0 UV-I 160 W/m² 2,6 °C 2,2 °C 17,7 km/h (3 Bft)
10.03.2017 09:52 4,3 °C 4,4 °C 88 % 1025,5 hPa 0,0 mm 13,5 km/h (3 Bft) NW 309 ° 0 min 0,000 mm 1,1 UV-I 179 W/m² 2,5 °C 1,1 °C 16,1 km/h (3 Bft)
10.03.2017 09:53 4,3 °C 4,3 °C 88 % 1025,5 hPa 0,0 mm 12,7 km/h (3 Bft) W-NW 288 ° 0 min 0,000 mm 1,1 UV-I 195 W/m² 2,5 °C 1,3 °C 17,7 km/h (3 Bft)
10.03.2017 09:54 4,3 °C 4,3 °C 88 % 1025,5 hPa 0,0 mm 10,2 km/h (2 Bft) NW 317 ° 1 min 0,000 mm 1,4 UV-I 221 W/m² 2,5 °C 1,8 °C 16,1 km/h (3 Bft)
10.03.2017 09:55 4,3 °C 4,3 °C 88 % 1025,4 hPa 0,0 mm 13,4 km/h (3 Bft) NW 315 ° 1 min 0,000 mm 1,5 UV-I 269 W/m² 2,5 °C 1,2 °C 19,3 km/h (3 Bft)
10.03.2017 09:56 4,3 °C 4,3 °C 88 % 1025,4 hPa 0,0 mm 10,4 km/h (2 Bft) W 277 ° 1 min 0,000 mm 1,4 UV-I 269 W/m² 2,5 °C 1,7 °C 16,1 km/h (3 Bft)
10.03.2017 09:57 4,3 °C 4,3 °C 88 % 1025,4 hPa 0,0 mm 6,4 km/h (2 Bft) NW 321 ° 0 min 0,000 mm 1,4 UV-I 190 W/m² 2,5 °C 2,8 °C 16,1 km/h (3 Bft)
10.03.2017 09:58 4,3 °C 4,3 °C 88 % 1025,4 hPa 0,0 mm 6,1 km/h (2 Bft) NW 321 ° 1 min 0,000 mm 1,5 UV-I 202 W/m² 2,5 °C 2,9 °C 16,1 km/h (3 Bft)
10.03.2017 09:59 4,3 °C 4,3 °C 88 % 1025,4 hPa 0,0 mm 8,7 km/h (2 Bft) NW 311 ° 0 min 0,000 mm 1,4 UV-I 190 W/m² 2,5 °C 2,1 °C 12,9 km/h (3 Bft)
10.03.2017 10:00 4,3 °C 4,3 °C 89 % 1025,4 hPa 0,0 mm 7,7 km/h (2 Bft) W 272 ° 0 min 0,051 mm 1,4 UV-I 186 W/m² 2,7 °C 2,4 °C 12,9 km/h (3 Bft)
10.03.2017 10:01 4,4 °C 4,4 °C 89 % 1025,4 hPa 0,0 mm 8,0 km/h (2 Bft) W 262 ° 1 min 0,000 mm 1,4 UV-I 216 W/m² 2,7 °C 2,4 °C 14,5 km/h (3 Bft)
10.03.2017 10:02 4,4 °C 4,4 °C 88 % 1025,5 hPa 0,0 mm 7,2 km/h (2 Bft) W 279 ° 1 min 0,000 mm 1,4 UV-I 204 W/m² 2,6 °C 2,7 °C 11,3 km/h (2 Bft)
10.03.2017 10:03 4,4 °C 4,4 °C 88 % 1025,4 hPa 0,0 mm 10,3 km/h (2 Bft) W-NW 297 ° 0 min 0,000 mm 1,3 UV-I 179 W/m² 2,6 °C 1,9 °C 14,5 km/h (3 Bft)
10.03.2017 10:04 4,4 °C 4,4 °C 88 % 1025,4 hPa 0,0 mm 7,4 km/h (2 Bft) NW 304 ° 0 min 0,000 mm 1,2 UV-I 121 W/m² 2,6 °C 2,6 °C 12,9 km/h (3 Bft)
10.03.2017 10:05 4,3 °C 4,4 °C 88 % 1025,5 hPa 0,0 mm 10,7 km/h (2 Bft) W 265 ° 0 min 0,000 mm 1,2 UV-I 113 W/m² 2,5 °C 1,7 °C 19,3 km/h (3 Bft)
10.03.2017 10:06 4,3 °C 4,3 °C 87 % 1025,5 hPa 0,0 mm 9,4 km/h (2 Bft) NW 306 ° 0 min 0,000 mm 1,2 UV-I 114 W/m² 2,3 °C 2,0 °C 14,5 km/h (3 Bft)
10.03.2017 10:07 4,3 °C 4,3 °C 88 % 1025,4 hPa 0,0 mm 10,5 km/h (2 Bft) W-NW 293 ° 0 min 0,000 mm 1,3 UV-I 132 W/m² 2,5 °C 1,7 °C 17,7 km/h (3 Bft)
10.03.2017 10:08 4,2 °C 4,3 °C 87 % 1025,4 hPa 0,0 mm 8,8 km/h (2 Bft) W 273 ° 0 min 0,000 mm 1,3 UV-I 151 W/m² 2,2 °C 2,0 °C 12,9 km/h (3 Bft)
10.03.2017 10:09 4,2 °C 4,2 °C 87 % 1025,4 hPa 0,0 mm 5,6 km/h (1 Bft) W 277 ° 0 min 0,000 mm 1,3 UV-I 149 W/m² 2,2 °C 2,9 °C 8,0 km/h (2 Bft)
10.03.2017 10:10 4,2 °C 4,2 °C 89 % 1025,5 hPa 0,0 mm 6,2 km/h (2 Bft) W 260 ° 0 min 0,000 mm 1,3 UV-I 134 W/m² 2,6 °C 2,7 °C 11,3 km/h (2 Bft)
10.03.2017 10:11 4,2 °C 4,2 °C 89 % 1025,5 hPa 0,0 mm 10,4 km/h (2 Bft) NW 309 ° 0 min 0,000 mm 1,3 UV-I 130 W/m² 2,6 °C 1,6 °C 14,5 km/h (3 Bft)
10.03.2017 10:12 4,2 °C 4,2 °C 88 % 1025,5 hPa 0,0 mm 6,2 km/h (2 Bft) NW 325 ° 0 min 0,000 mm 1,3 UV-I 97 W/m² 2,4 °C 2,7 °C 11,3 km/h (2 Bft)
10.03.2017 10:13 4,2 °C 4,2 °C 88 % 1025,5 hPa 0,0 mm 8,4 km/h (2 Bft) NW 316 ° 0 min 0,000 mm 1,3 UV-I 98 W/m² 2,4 °C 2,1 °C 14,5 km/h (3 Bft)
10.03.2017 10:14 4,2 °C 4,2 °C 88 % 1025,4 hPa 0,0 mm 12,5 km/h (3 Bft) W-NW 282 ° 0 min 0,000 mm 1,6 UV-I 153 W/m² 2,4 °C 1,2 °C 17,7 km/h (3 Bft)
10.03.2017 10:15 4,2 °C 4,2 °C 88 % 1025,4 hPa 0,0 mm 14,7 km/h (3 Bft) W-NW 291 ° 0 min 0,000 mm 2,0 UV-I 153 W/m² 2,4 °C 0,8 °C 17,7 km/h (3 Bft)
10.03.2017 10:16 4,2 °C 4,2 °C 87 % 1025,3 hPa 0,0 mm 11,0 km/h (2 Bft) W-NW 288 ° 0 min 0,000 mm 2,0 UV-I 153 W/m² 2,2 °C 1,5 °C 17,7 km/h (3 Bft)
10.03.2017 10:17 4,3 °C 4,3 °C 89 % 1025,4 hPa 0,0 mm 9,7 km/h (2 Bft) W 263 ° 1 min 0,000 mm 2,0 UV-I 265 W/m² 2,7 °C 1,9 °C 16,1 km/h (3 Bft)
10.03.2017 10:18 4,3 °C 4,4 °C 88 % 1025,4 hPa 0,0 mm 12,8 km/h (3 Bft) W 278 ° 1 min 0,000 mm 1,7 UV-I 202 W/m² 2,5 °C 1,3 °C 20,9 km/h (4 Bft)
10.03.2017 10:19 4,4 °C 4,4 °C 87 % 1025,3 hPa 0,0 mm 8,0 km/h (2 Bft) NW 307 ° 0 min 0,000 mm 1,7 UV-I 151 W/m² 2,4 °C 2,4 °C 12,9 km/h (3 Bft)
10.03.2017 10:20 4,4 °C 4,4 °C 88 % 1025,3 hPa 0,0 mm 8,7 km/h (2 Bft) W 271 ° 0 min 0,000 mm 1,5 UV-I 127 W/m² 2,6 °C 2,2 °C 16,1 km/h (3 Bft)
10.03.2017 10:21 4,5 °C 4,5 °C 88 % 1025,3 hPa 0,0 mm 13,3 km/h (3 Bft) W 279 ° 1 min 0,000 mm 1,7 UV-I 221 W/m² 2,7 °C 1,4 °C 19,3 km/h (3 Bft)
10.03.2017 10:22 4,5 °C 4,6 °C 86 % 1025,4 hPa 0,0 mm 17,2 km/h (3 Bft) W-NW 283 ° 0 min 0,000 mm 1,4 UV-I 192 W/m² 2,4 °C 0,8 °C 22,5 km/h (4 Bft)
10.03.2017 10:23 4,5 °C 4,6 °C 86 % 1025,4 hPa 0,0 mm 13,0 km/h (3 Bft) W 260 ° 0 min 0,000 mm 1,2 UV-I 155 W/m² 2,4 °C 1,5 °C 19,3 km/h (3 Bft)
10.03.2017 10:24 4,5 °C 4,5 °C 85 % 1025,4 hPa 0,0 mm 13,7 km/h (3 Bft) W 264 ° 0 min 0,000 mm 1,3 UV-I 139 W/m² 2,2 °C 1,3 °C 19,3 km/h (3 Bft)
10.03.2017 10:25 4,4 °C 4,5 °C 85 % 1025,4 hPa 0,0 mm 12,7 km/h (3 Bft) W-NW 286 ° 0 min 0,000 mm 1,3 UV-I 139 W/m² 2,1 °C 1,4 °C 19,3 km/h (3 Bft)
10.03.2017 10:26 4,4 °C 4,4 °C 85 % 1025,3 hPa 0,0 mm 13,7 km/h (3 Bft) W 280 ° 0 min 0,000 mm 1,2 UV-I 116 W/m² 2,1 °C 1,2 °C 17,7 km/h (3 Bft)
10.03.2017 10:27 4,4 °C 4,4 °C 85 % 1025,3 hPa 0,0 mm 11,5 km/h (2 Bft) W-NW 302 ° 0 min 0,000 mm 1,4 UV-I 121 W/m² 2,1 °C 1,6 °C 17,7 km/h (3 Bft)
10.03.2017 10:28 4,4 °C 4,4 °C 87 % 1025,4 hPa 0,0 mm 11,1 km/h (2 Bft) W 267 ° 0 min 0,000 mm 1,5 UV-I 121 W/m² 2,4 °C 1,7 °C 14,5 km/h (3 Bft)
10.03.2017 10:29 4,3 °C 4,4 °C 86 % 1025,4 hPa 0,0 mm 12,7 km/h (3 Bft) W-SW 248 ° 0 min 0,000 mm 1,5 UV-I 148 W/m² 2,2 °C 1,3 °C 19,3 km/h (3 Bft)
10.03.2017 10:30 4,3 °C 4,4 °C 86 % 1025,4 hPa 0,0 mm 11,8 km/h (2 Bft) W-NW 285 ° 1 min 0,000 mm 1,6 UV-I 236 W/m² 2,2 °C 1,4 °C 17,7 km/h (3 Bft)
10.03.2017 10:31 4,4 °C 4,4 °C 87 % 1025,4 hPa 0,0 mm 9,7 km/h (2 Bft) W-NW 292 ° 0 min 0,000 mm 1,5 UV-I 155 W/m² 2,4 °C 2,0 °C 16,1 km/h (3 Bft)
10.03.2017 10:32 4,4 °C 4,4 °C 87 % 1025,4 hPa 0,0 mm 12,0 km/h (2 Bft) W 260 ° 0 min 0,000 mm 1,5 UV-I 132 W/m² 2,4 °C 1,5 °C 19,3 km/h (3 Bft)
10.03.2017 10:33 4,4 °C 4,5 °C 86 % 1025,4 hPa 0,0 mm 15,9 km/h (3 Bft) W-NW 283 ° 0 min 0,000 mm 1,6 UV-I 155 W/m² 2,3 °C 0,9 °C 24,1 km/h (4 Bft)
10.03.2017 10:34 4,4 °C 4,5 °C 85 % 1025,4 hPa 0,0 mm 14,1 km/h (3 Bft) W-NW 287 ° 0 min 0,000 mm 1,7 UV-I 179 W/m² 2,1 °C 1,2 °C 19,3 km/h (3 Bft)
10.03.2017 10:35 4,4 °C 4,4 °C 85 % 1025,4 hPa 0,0 mm 15,8 km/h (3 Bft) W 264 ° 0 min 0,000 mm 1,9 UV-I 181 W/m² 2,1 °C 0,9 °C 22,5 km/h (4 Bft)
10.03.2017 10:36 4,4 °C 4,4 °C 85 % 1025,4 hPa 0,0 mm 11,9 km/h (2 Bft) W-NW 289 ° 0 min 0,000 mm 1,5 UV-I 134 W/m² 2,1 °C 1,5 °C 17,7 km/h (3 Bft)
10.03.2017 10:37 4,4 °C 4,4 °C 85 % 1025,4 hPa 0,0 mm 14,1 km/h (3 Bft) W 277 ° 0 min 0,000 mm 1,7 UV-I 163 W/m² 2,1 °C 1,2 °C 22,5 km/h (4 Bft)
10.03.2017 10:38 4,3 °C 4,4 °C 85 % 1025,4 hPa 0,0 mm 18,2 km/h (3 Bft) W-NW 283 ° 0 min 0,000 mm 1,7 UV-I 190 W/m² 2,0 °C 0,4 °C 22,5 km/h (4 Bft)
10.03.2017 10:39 4,4 °C 4,4 °C 87 % 1025,4 hPa 0,0 mm 16,4 km/h (3 Bft) W-SW 256 ° 0 min 0,000 mm 1,7 UV-I 172 W/m² 2,4 °C 0,8 °C 22,5 km/h (4 Bft)
10.03.2017 10:40 4,4 °C 4,4 °C 86 % 1025,5 hPa 0,0 mm 9,5 km/h (2 Bft) W 276 ° 0 min 0,000 mm 1,7 UV-I 176 W/m² 2,3 °C 2,1 °C 14,5 km/h (3 Bft)
10.03.2017 10:41 4,4 °C 4,4 °C 87 % 1025,4 hPa 0,0 mm 8,9 km/h (2 Bft) W-NW 287 ° 0 min 0,000 mm 1,8 UV-I 172 W/m² 2,4 °C 2,2 °C 14,5 km/h (3 Bft)
10.03.2017 10:42 4,5 °C 4,5 °C 87 % 1025,4 hPa 0,0 mm 9,4 km/h (2 Bft) W 271 ° 1 min 0,000 mm 2,2 UV-I 251 W/m² 2,5 °C 2,2 °C 16,1 km/h (3 Bft)
10.03.2017 10:43 4,6 °C 4,6 °C 87 % 1025,4 hPa 0,0 mm 11,3 km/h (2 Bft) W 281 ° 1 min 0,000 mm 1,7 UV-I 251 W/m² 2,6 °C 1,9 °C 14,5 km/h (3 Bft)
10.03.2017 10:44 4,8 °C 4,8 °C 87 % 1025,4 hPa 0,0 mm 12,8 km/h (3 Bft) W 281 ° 1 min 0,000 mm 1,6 UV-I 257 W/m² 2,8 °C 1,9 °C 17,7 km/h (3 Bft)
10.03.2017 10:45 4,8 °C 4,8 °C 87 % 1025,4 hPa 0,0 mm 8,2 km/h (2 Bft) W 269 ° 1 min 0,000 mm 1,6 UV-I 234 W/m² 2,8 °C 2,8 °C 19,3 km/h (3 Bft)
10.03.2017 10:46 4,9 °C 4,9 °C 85 % 1025,4 hPa 0,0 mm 12,3 km/h (3 Bft) W-NW 287 ° 1 min 0,000 mm 1,8 UV-I 229 W/m² 2,6 °C 2,1 °C 17,7 km/h (3 Bft)
10.03.2017 10:47 4,9 °C 4,9 °C 86 % 1025,3 hPa 0,0 mm 10,4 km/h (2 Bft) NW 304 ° 1 min 0,000 mm 1,9 UV-I 311 W/m² 2,8 °C 2,5 °C 14,5 km/h (3 Bft)
10.03.2017 10:48 5,1 °C 5,1 °C 87 % 1025,3 hPa 0,0 mm 14,8 km/h (3 Bft) W-SW 256 ° 0 min 0,000 mm 1,6 UV-I 174 W/m² 3,1 °C 1,9 °C 22,5 km/h (4 Bft)
10.03.2017 10:49 5,1 °C 5,1 °C 85 % 1025,4 hPa 0,0 mm 14,3 km/h (3 Bft) W-SW 253 ° 1 min 0,000 mm 1,5 UV-I 206 W/m² 2,8 °C 2,0 °C 20,9 km/h (4 Bft)
10.03.2017 10:50 5,0 °C 5,1 °C 84 % 1025,4 hPa 0,0 mm 15,2 km/h (3 Bft) W 279 ° 1 min 0,000 mm 1,9 UV-I 262 W/m² 2,5 °C 1,7 °C 19,3 km/h (3 Bft)
10.03.2017 10:51 4,9 °C 5,0 °C 85 % 1025,4 hPa 0,0 mm 13,5 km/h (3 Bft) NW 313 ° 1 min 0,000 mm 3,0 UV-I 262 W/m² 2,6 °C 1,9 °C 19,3 km/h (3 Bft)
10.03.2017 10:52 5,1 °C 5,1 °C 87 % 1025,4 hPa 0,0 mm 11,3 km/h (2 Bft) NW 315 ° 1 min 0,000 mm 1,9 UV-I 373 W/m² 3,1 °C 2,5 °C 16,1 km/h (3 Bft)
10.03.2017 10:53 5,2 °C 5,2 °C 86 % 1025,5 hPa 0,0 mm 12,9 km/h (3 Bft) W 266 ° 0 min 0,000 mm 1,7 UV-I 183 W/m² 3,1 °C 2,3 °C 17,7 km/h (3 Bft)
10.03.2017 10:54 5,2 °C 5,3 °C 84 % 1025,5 hPa 0,0 mm 8,4 km/h (2 Bft) NW 325 ° 1 min 0,000 mm 2,1 UV-I 257 W/m² 2,7 °C 3,3 °C 17,7 km/h (3 Bft)
10.03.2017 10:55 5,2 °C 5,2 °C 84 % 1025,5 hPa 0,0 mm 9,9 km/h (2 Bft) W-SW 244 ° 1 min 0,000 mm 2,0 UV-I 276 W/m² 2,7 °C 2,9 °C 16,1 km/h (3 Bft)
10.03.2017 10:56 5,1 °C 5,2 °C 83 % 1025,5 hPa 0,0 mm 9,7 km/h (2 Bft) NW 304 ° 1 min 0,000 mm 2,2 UV-I 327 W/m² 2,5 °C 2,8 °C 14,5 km/h (3 Bft)
10.03.2017 10:57 5,1 °C 5,1 °C 86 % 1025,5 hPa 0,0 mm 10,9 km/h (2 Bft) W 260 ° 1 min 0,000 mm 2,0 UV-I 327 W/m² 3,0 °C 2,6 °C 19,3 km/h (3 Bft)
10.03.2017 10:58 5,2 °C 5,2 °C 85 % 1025,4 hPa 0,0 mm 9,6 km/h (2 Bft) NW 312 ° 1 min 0,000 mm 1,7 UV-I 327 W/m² 2,9 °C 3,0 °C 14,5 km/h (3 Bft)
10.03.2017 10:59 5,3 °C 5,3 °C 85 % 1025,5 hPa 0,0 mm 14,3 km/h (3 Bft) W 274 ° 1 min 0,000 mm 1,6 UV-I 255 W/m² 3,0 °C 2,2 °C 17,7 km/h (3 Bft)
10.03.2017 11:00 5,3 °C 5,3 °C 84 % 1025,4 hPa 0,0 mm 10,3 km/h (2 Bft) NW 312 ° 1 min 0,102 mm 1,5 UV-I 223 W/m² 2,8 °C 3,0 °C 16,1 km/h (3 Bft)
10.03.2017 11:01 5,4 °C 5,4 °C 85 % 1025,5 hPa 0,0 mm 7,2 km/h (2 Bft) W 268 ° 1 min 0,000 mm 1,8 UV-I 223 W/m² 3,1 °C 3,8 °C 11,3 km/h (2 Bft)
10.03.2017 11:02 5,4 °C 5,4 °C 86 % 1025,5 hPa 0,0 mm 10,0 km/h (2 Bft) N-NW 328 ° 1 min 0,000 mm 1,3 UV-I 223 W/m² 3,3 °C 3,1 °C 14,5 km/h (3 Bft)
10.03.2017 11:03 5,4 °C 5,4 °C 85 % 1025,5 hPa 0,0 mm 7,8 km/h (2 Bft) W 278 ° 0 min 0,000 mm 1,5 UV-I 185 W/m² 3,1 °C 3,7 °C 14,5 km/h (3 Bft)
10.03.2017 11:04 5,3 °C 5,4 °C 83 % 1025,5 hPa 0,0 mm 9,8 km/h (2 Bft) W-NW 296 ° 0 min 0,000 mm 2,2 UV-I 193 W/m² 2,7 °C 3,1 °C 12,9 km/h (3 Bft)
10.03.2017 11:05 5,3 °C 5,3 °C 84 % 1025,5 hPa 0,0 mm 11,5 km/h (2 Bft) W-NW 297 ° 0 min 0,000 mm 1,5 UV-I 132 W/m² 2,8 °C 2,7 °C 17,7 km/h (3 Bft)
10.03.2017 11:06 5,2 °C 5,3 °C 84 % 1025,5 hPa 0,0 mm 13,0 km/h (3 Bft) W-NW 294 ° 0 min 0,000 mm 1,6 UV-I 135 W/m² 2,7 °C 2,3 °C 19,3 km/h (3 Bft)
10.03.2017 11:07 5,2 °C 5,2 °C 85 % 1025,5 hPa 0,0 mm 13,7 km/h (3 Bft) W-NW 286 ° 1 min 0,000 mm 1,8 UV-I 211 W/m² 2,9 °C 2,2 °C 17,7 km/h (3 Bft)
10.03.2017 11:08 5,1 °C 5,2 °C 84 % 1025,5 hPa 0,0 mm 8,8 km/h (2 Bft) W-NW 286 ° 1 min 0,000 mm 1,8 UV-I 214 W/m² 2,6 °C 3,1 °C 14,5 km/h (3 Bft)
10.03.2017 11:09 5,1 °C 5,1 °C 83 % 1025,5 hPa 0,0 mm 6,6 km/h (2 Bft) W 277 ° 1 min 0,000 mm 2,2 UV-I 258 W/m² 2,5 °C 3,6 °C 12,9 km/h (3 Bft)
10.03.2017 11:10 5,0 °C 5,1 °C 84 % 1025,4 hPa 0,0 mm 8,1 km/h (2 Bft) N 355 ° 1 min 0,000 mm 2,2 UV-I 272 W/m² 2,5 °C 3,1 °C 14,5 km/h (3 Bft)
10.03.2017 11:11 5,1 °C 5,1 °C 86 % 1025,4 hPa 0,0 mm 11,6 km/h (2 Bft) W-NW 300 ° 1 min 0,000 mm 3,2 UV-I 786 W/m² 3,0 °C 2,5 °C 16,1 km/h (3 Bft)
10.03.2017 11:12 5,3 °C 5,3 °C 86 % 1025,4 hPa 0,0 mm 13,1 km/h (3 Bft) W-NW 297 ° 1 min 0,000 mm 3,2 UV-I 786 W/m² 3,2 °C 2,4 °C 22,5 km/h (4 Bft)
10.03.2017 11:13 5,5 °C 5,5 °C 86 % 1025,3 hPa 0,0 mm 14,8 km/h (3 Bft) W-NW 301 ° 1 min 0,000 mm 3,2 UV-I 786 W/m² 3,3 °C 2,4 °C 20,9 km/h (4 Bft)
10.03.2017 11:14 5,7 °C 5,7 °C 86 % 1025,3 hPa 0,0 mm 15,8 km/h (3 Bft) W-NW 295 ° 1 min 0,000 mm 3,1 UV-I 786 W/m² 3,5 °C 2,5 °C 19,3 km/h (3 Bft)
10.03.2017 11:15 5,8 °C 5,8 °C 84 % 1025,3 hPa 0,0 mm 11,1 km/h (2 Bft) N-NW 347 ° 1 min 0,000 mm 3,1 UV-I 810 W/m² 3,3 °C 3,4 °C 16,1 km/h (3 Bft)
10.03.2017 11:16 5,8 °C 5,9 °C 85 % 1025,3 hPa 0,0 mm 11,0 km/h (2 Bft) NW 304 ° 1 min 0,000 mm 2,7 UV-I 810 W/m² 3,5 °C 3,4 °C 14,5 km/h (3 Bft)
10.03.2017 11:17 5,9 °C 5,9 °C 83 % 1025,3 hPa 0,0 mm 9,9 km/h (2 Bft) W 273 ° 1 min 0,000 mm 1,8 UV-I 810 W/m² 3,2 °C 3,8 °C 14,5 km/h (3 Bft)
10.03.2017 11:18 5,8 °C 5,9 °C 82 % 1025,3 hPa 0,0 mm 10,3 km/h (2 Bft) W-NW 287 ° 1 min 0,000 mm 1,6 UV-I 267 W/m² 3,0 °C 3,6 °C 16,1 km/h (3 Bft)
10.03.2017 11:19 5,7 °C 5,8 °C 83 % 1025,3 hPa 0,0 mm 10,7 km/h (2 Bft) W 275 ° 0 min 0,000 mm 1,5 UV-I 183 W/m² 3,0 °C 3,4 °C 16,1 km/h (3 Bft)
10.03.2017 11:20 5,6 °C 5,7 °C 81 % 1025,3 hPa 0,0 mm 5,3 km/h (1 Bft) W-NW 296 ° 0 min 0,000 mm 1,4 UV-I 190 W/m² 2,6 °C 4,7 °C 6,4 km/h (2 Bft)
10.03.2017 11:21 5,5 °C 5,6 °C 82 % 1025,3 hPa 0,0 mm 10,7 km/h (2 Bft) NW 317 ° 1 min 0,000 mm 1,3 UV-I 204 W/m² 2,7 °C 3,1 °C 17,7 km/h (3 Bft)
10.03.2017 11:22 5,5 °C 5,5 °C 83 % 1025,2 hPa 0,0 mm 13,3 km/h (3 Bft) W 270 ° 0 min 0,000 mm 1,2 UV-I 171 W/m² 2,8 °C 2,6 °C 19,3 km/h (3 Bft)
10.03.2017 11:23 5,5 °C 5,5 °C 82 % 1025,3 hPa 0,0 mm 5,1 km/h (1 Bft) NW 304 ° 0 min 0,000 mm 1,3 UV-I 172 W/m² 2,7 °C 4,6 °C 11,3 km/h (2 Bft)
10.03.2017 11:24 5,4 °C 5,5 °C 83 % 1025,3 hPa 0,0 mm 11,6 km/h (2 Bft) W-NW 293 ° 0 min 0,000 mm 1,2 UV-I 132 W/m² 2,7 °C 2,8 °C 17,7 km/h (3 Bft)
10.03.2017 11:25 5,4 °C 5,4 °C 83 % 1025,3 hPa 0,0 mm 14,4 km/h (3 Bft) W-NW 297 ° 0 min 0,000 mm 1,2 UV-I 113 W/m² 2,7 °C 2,3 °C 20,9 km/h (4 Bft)
10.03.2017 11:26 5,4 °C 5,4 °C 82 % 1025,2 hPa 0,0 mm 9,1 km/h (2 Bft) NW 305 ° 0 min 0,000 mm 1,3 UV-I 102 W/m² 2,6 °C 3,3 °C 12,9 km/h (3 Bft)
10.03.2017 11:27 5,3 °C 5,4 °C 83 % 1025,2 hPa 0,0 mm 9,5 km/h (2 Bft) NW 313 ° 0 min 0,000 mm 1,3 UV-I 93 W/m² 2,7 °C 3,1 °C 12,9 km/h (3 Bft)
10.03.2017 11:28 5,3 °C 5,3 °C 83 % 1025,2 hPa 0,0 mm 9,3 km/h (2 Bft) W-NW 300 ° 0 min 0,000 mm 1,4 UV-I 88 W/m² 2,7 °C 3,2 °C 14,5 km/h (3 Bft)
10.03.2017 11:29 5,2 °C 5,3 °C 84 % 1025,2 hPa 0,0 mm 7,1 km/h (2 Bft) W-NW 303 ° 0 min 0,000 mm 1,5 UV-I 98 W/m² 2,7 °C 3,6 °C 12,9 km/h (3 Bft)
10.03.2017 11:30 5,2 °C 5,2 °C 84 % 1025,2 hPa 0,0 mm 8,9 km/h (2 Bft) NW 321 ° 0 min 0,000 mm 1,7 UV-I 121 W/m² 2,7 °C 3,1 °C 14,5 km/h (3 Bft)
10.03.2017 11:31 5,1 °C 5,2 °C 83 % 1025,2 hPa 0,0 mm 14,4 km/h (3 Bft) NW 326 ° 0 min 0,000 mm 3,1 UV-I 121 W/m² 2,5 °C 2,0 °C 19,3 km/h (3 Bft)
10.03.2017 11:32 5,2 °C 5,2 °C 85 % 1025,2 hPa 0,0 mm 13,1 km/h (3 Bft) W-NW 301 ° 0 min 0,000 mm 1,7 UV-I 121 W/m² 2,9 °C 2,3 °C 17,7 km/h (3 Bft)
10.03.2017 11:33 5,2 °C 5,2 °C 85 % 1025,3 hPa 0,0 mm 13,1 km/h (3 Bft) W 266 ° 0 min 0,000 mm 1,7 UV-I 121 W/m² 2,9 °C 2,3 °C 16,1 km/h (3 Bft)
10.03.2017 11:34 5,1 °C 5,2 °C 85 % 1025,2 hPa 0,0 mm 8,0 km/h (2 Bft) NW 308 ° 0 min 0,000 mm 1,8 UV-I 79 W/m² 2,8 °C 3,3 °C 11,3 km/h (2 Bft)
10.03.2017 11:35 5,1 °C 5,2 °C 83 % 1025,2 hPa 0,0 mm 8,1 km/h (2 Bft) W-NW 289 ° 0 min 0,000 mm 2,5 UV-I 79 W/m² 2,5 °C 3,2 °C 16,1 km/h (3 Bft)
10.03.2017 11:36 5,1 °C 5,1 °C 83 % 1025,3 hPa 0,0 mm 14,7 km/h (3 Bft) NW 326 ° 0 min 0,000 mm 2,0 UV-I 79 W/m² 2,5 °C 1,9 °C 19,3 km/h (3 Bft)
10.03.2017 11:37 5,2 °C 5,2 °C 83 % 1025,2 hPa 0,0 mm 9,1 km/h (2 Bft) NW 315 ° 0 min 0,000 mm 3,3 UV-I 79 W/m² 2,6 °C 3,1 °C 16,1 km/h (3 Bft)
10.03.2017 11:38 5,3 °C 5,3 °C 84 % 1025,3 hPa 0,0 mm 9,0 km/h (2 Bft) W-NW 290 ° 1 min 0,000 mm 3,4 UV-I 652 W/m² 2,8 °C 3,2 °C 16,1 km/h (3 Bft)
10.03.2017 11:39 5,6 °C 5,6 °C 85 % 1025,3 hPa 0,0 mm 12,8 km/h (3 Bft) W-NW 296 ° 1 min 0,000 mm 3,4 UV-I 664 W/m² 3,3 °C 2,8 °C 17,7 km/h (3 Bft)
10.03.2017 11:40 5,8 °C 5,8 °C 83 % 1025,4 hPa 0,0 mm 9,7 km/h (2 Bft) W-NW 290 ° 1 min 0,000 mm 3,5 UV-I 810 W/m² 3,1 °C 3,7 °C 14,5 km/h (3 Bft)
10.03.2017 11:41 5,9 °C 5,9 °C 82 % 1025,2 hPa 0,0 mm 12,9 km/h (3 Bft) W-NW 286 ° 1 min 0,000 mm 3,7 UV-I 810 W/m² 3,1 °C 3,2 °C 17,7 km/h (3 Bft)
10.03.2017 11:42 5,9 °C 5,9 °C 82 % 1025,2 hPa 0,0 mm 13,4 km/h (3 Bft) W-NW 296 ° 1 min 0,000 mm 3,1 UV-I 325 W/m² 3,1 °C 3,1 °C 16,1 km/h (3 Bft)
10.03.2017 11:43 6,1 °C 6,1 °C 81 % 1025,2 hPa 0,0 mm 14,1 km/h (3 Bft) W 261 ° 1 min 0,000 mm 2,2 UV-I 299 W/m² 3,1 °C 3,2 °C 20,9 km/h (4 Bft)
10.03.2017 11:44 6,1 °C 6,2 °C 81 % 1025,3 hPa 0,0 mm 15,8 km/h (3 Bft) W-NW 299 ° 1 min 0,000 mm 2,1 UV-I 257 W/m² 3,1 °C 3,0 °C 20,9 km/h (4 Bft)
10.03.2017 11:45 6,2 °C 6,2 °C 82 % 1025,2 hPa 0,0 mm 9,4 km/h (2 Bft) N-NW 342 ° 1 min 0,000 mm 2,6 UV-I 257 W/m² 3,4 °C 4,2 °C 16,1 km/h (3 Bft)
10.03.2017 11:46 6,3 °C 6,3 °C 83 % 1025,2 hPa 0,0 mm 8,9 km/h (2 Bft) NW 309 ° 1 min 0,000 mm 2,0 UV-I 257 W/m² 3,6 °C 4,4 °C 17,7 km/h (3 Bft)
10.03.2017 11:47 6,3 °C 6,3 °C 83 % 1025,2 hPa 0,0 mm 13,9 km/h (3 Bft) W-NW 300 ° 0 min 0,000 mm 1,6 UV-I 141 W/m² 3,6 °C 3,5 °C 22,5 km/h (4 Bft)
10.03.2017 11:48 6,2 °C 6,3 °C 82 % 1025,3 hPa 0,0 mm 14,4 km/h (3 Bft) W 260 ° 0 min 0,000 mm 1,8 UV-I 160 W/m² 3,4 °C 3,3 °C 19,3 km/h (3 Bft)
10.03.2017 11:49 6,1 °C 6,2 °C 80 % 1025,3 hPa 0,0 mm 15,0 km/h (3 Bft) W-SW 257 ° 0 min 0,000 mm 1,7 UV-I 120 W/m² 2,9 °C 3,1 °C 19,3 km/h (3 Bft)
10.03.2017 11:50 5,9 °C 6,1 °C 79 % 1025,3 hPa 0,0 mm 12,3 km/h (3 Bft) W-NW 295 ° 0 min 0,000 mm 1,7 UV-I 84 W/m² 2,5 °C 3,3 °C 16,1 km/h (3 Bft)
10.03.2017 11:51 5,7 °C 5,9 °C 79 % 1025,3 hPa 0,0 mm 10,2 km/h (2 Bft) W 269 ° 0 min 0,000 mm 1,8 UV-I 74 W/m² 2,3 °C 3,5 °C 14,5 km/h (3 Bft)
10.03.2017 11:52 5,6 °C 5,7 °C 79 % 1025,3 hPa 0,0 mm 15,0 km/h (3 Bft) W-NW 285 ° 0 min 0,000 mm 3,1 UV-I 74 W/m² 2,3 °C 2,5 °C 19,3 km/h (3 Bft)
10.03.2017 11:53 5,5 °C 5,6 °C 80 % 1025,3 hPa 0,0 mm 12,1 km/h (2 Bft) W 280 ° 1 min 0,000 mm 3,3 UV-I 649 W/m² 2,3 °C 2,8 °C 16,1 km/h (3 Bft)
10.03.2017 11:54 5,6 °C 5,6 °C 80 % 1025,3 hPa 0,0 mm 12,5 km/h (3 Bft) NW 312 ° 1 min 0,000 mm 3,4 UV-I 649 W/m² 2,4 °C 2,9 °C 17,7 km/h (3 Bft)
10.03.2017 11:55 5,7 °C 5,7 °C 82 % 1025,2 hPa 0,0 mm 15,9 km/h (3 Bft) W-NW 298 ° 1 min 0,000 mm 3,5 UV-I 649 W/m² 2,9 °C 2,5 °C 24,1 km/h (4 Bft)
10.03.2017 11:56 5,8 °C 5,9 °C 80 % 1025,2 hPa 0,0 mm 18,5 km/h (3 Bft) W-NW 284 ° 1 min 0,000 mm 3,4 UV-I 657 W/m² 2,6 °C 2,3 °C 25,7 km/h (4 Bft)
10.03.2017 11:57 6,0 °C 6,0 °C 80 % 1025,2 hPa 0,0 mm 10,8 km/h (2 Bft) W 277 ° 1 min 0,000 mm 3,4 UV-I 652 W/m² 2,8 °C 3,7 °C 16,1 km/h (3 Bft)
10.03.2017 11:58 6,2 °C 6,2 °C 80 % 1025,2 hPa 0,0 mm 11,5 km/h (2 Bft) NW 311 ° 1 min 0,000 mm 3,5 UV-I 675 W/m² 3,0 °C 3,8 °C 16,1 km/h (3 Bft)
10.03.2017 11:59 6,4 °C 6,4 °C 82 % 1025,2 hPa 0,0 mm 11,9 km/h (2 Bft) NW 317 ° 1 min 0,000 mm 3,5 UV-I 671 W/m² 3,6 °C 4,0 °C 19,3 km/h (3 Bft)
10.03.2017 12:00 6,6 °C 6,6 °C 81 % 1025,2 hPa 0,0 mm 9,7 km/h (2 Bft) W 265 ° 1 min 0,177 mm 3,5 UV-I 671 W/m² 3,6 °C 4,6 °C 19,3 km/h (3 Bft)
10.03.2017 12:01 6,7 °C 6,7 °C 80 % 1025,2 hPa 0,0 mm 13,8 km/h (3 Bft) NW 312 ° 1 min 0,000 mm 3,6 UV-I 679 W/m² 3,5 °C 4,0 °C 17,7 km/h (3 Bft)
10.03.2017 12:02 6,8 °C 6,8 °C 79 % 1025,2 hPa 0,0 mm 13,0 km/h (3 Bft) NW 306 ° 1 min 0,000 mm 3,6 UV-I 689 W/m² 3,4 °C 4,3 °C 19,3 km/h (3 Bft)
10.03.2017 12:03 6,9 °C 6,9 °C 77 % 1025,2 hPa 0,0 mm 13,3 km/h (3 Bft) W 275 ° 1 min 0,000 mm 3,6 UV-I 698 W/m² 3,2 °C 4,3 °C 19,3 km/h (3 Bft)
10.03.2017 12:04 7,1 °C 7,1 °C 78 % 1025,1 hPa 0,0 mm 13,6 km/h (3 Bft) NW 307 ° 1 min 0,000 mm 3,6 UV-I 724 W/m² 3,5 °C 4,5 °C 19,3 km/h (3 Bft)
10.03.2017 12:05 7,2 °C 7,2 °C 79 % 1025,1 hPa 0,0 mm 12,1 km/h (2 Bft) W 265 ° 1 min 0,000 mm 2,7 UV-I 724 W/m² 3,8 °C 4,9 °C 17,7 km/h (3 Bft)
10.03.2017 12:06 7,2 °C 7,2 °C 77 % 1025,1 hPa 0,0 mm 14,1 km/h (3 Bft) W-NW 300 ° 1 min 0,000 mm 3,6 UV-I 724 W/m² 3,4 °C 4,6 °C 22,5 km/h (4 Bft)
10.03.2017 12:07 7,3 °C 7,3 °C 74 % 1025,2 hPa 0,0 mm 18,5 km/h (3 Bft) W-NW 294 ° 1 min 0,000 mm 3,6 UV-I 766 W/m² 3,0 °C 4,1 °C 27,4 km/h (4 Bft)
10.03.2017 12:08 7,2 °C 7,3 °C 72 % 1025,2 hPa 0,0 mm 16,8 km/h (3 Bft) W 279 ° 1 min 0,000 mm 3,9 UV-I 810 W/m² 2,5 °C 4,2 °C 25,7 km/h (4 Bft)
10.03.2017 12:09 7,2 °C 7,2 °C 72 % 1025,2 hPa 0,0 mm 10,7 km/h (2 Bft) NW 309 ° 1 min 0,000 mm 3,8 UV-I 861 W/m² 2,5 °C 5,2 °C 16,1 km/h (3 Bft)
10.03.2017 12:10 7,3 °C 7,3 °C 75 % 1025,1 hPa 0,0 mm 10,4 km/h (2 Bft) W 265 ° 1 min 0,000 mm 2,8 UV-I 638 W/m² 3,2 °C 5,3 °C 17,7 km/h (3 Bft)
10.03.2017 12:11 7,3 °C 7,3 °C 74 % 1025,1 hPa 0,0 mm 9,3 km/h (2 Bft) NW 323 ° 1 min 0,000 mm 3,6 UV-I 638 W/m² 3,0 °C 5,5 °C 16,1 km/h (3 Bft)
10.03.2017 12:12 7,4 °C 7,4 °C 74 % 1025,0 hPa 0,0 mm 15,0 km/h (3 Bft) W-SW 250 ° 1 min 0,000 mm 3,6 UV-I 814 W/m² 3,1 °C 4,7 °C 22,5 km/h (4 Bft)
10.03.2017 12:13 7,4 °C 7,4 °C 76 % 1025,1 hPa 0,0 mm 16,1 km/h (3 Bft) NW 305 ° 1 min 0,000 mm 2,3 UV-I 814 W/m² 3,5 °C 4,6 °C 24,1 km/h (4 Bft)
10.03.2017 12:14 7,4 °C 7,4 °C 76 % 1025,1 hPa 0,0 mm 15,3 km/h (3 Bft) N-NW 330 ° 1 min 0,000 mm 3,1 UV-I 338 W/m² 3,5 °C 4,7 °C 24,1 km/h (4 Bft)
10.03.2017 12:15 7,3 °C 7,4 °C 76 % 1025,1 hPa 0,0 mm 15,4 km/h (3 Bft) W-NW 297 ° 1 min 0,000 mm 3,5 UV-I 714 W/m² 3,4 °C 4,5 °C 22,5 km/h (4 Bft)
10.03.2017 12:16 7,2 °C 7,3 °C 77 % 1025,2 hPa 0,0 mm 18,0 km/h (3 Bft) NW 304 ° 1 min 0,000 mm 3,6 UV-I 721 W/m² 3,4 °C 4,1 °C 24,1 km/h (4 Bft)
10.03.2017 12:17 7,1 °C 7,2 °C 75 % 1025,2 hPa 0,0 mm 13,6 km/h (3 Bft) N-NW 338 ° 1 min 0,000 mm 2,2 UV-I 721 W/m² 3,0 °C 4,5 °C 17,7 km/h (3 Bft)
10.03.2017 12:18 6,9 °C 7,1 °C 76 % 1025,1 hPa 0,0 mm 18,0 km/h (3 Bft) NW 309 ° 0 min 0,000 mm 1,8 UV-I 121 W/m² 3,0 °C 3,7 °C 24,1 km/h (4 Bft)
10.03.2017 12:19 6,8 °C 6,9 °C 76 % 1025,1 hPa 0,0 mm 13,0 km/h (3 Bft) NW 314 ° 0 min 0,000 mm 1,7 UV-I 91 W/m² 2,9 °C 4,3 °C 16,1 km/h (3 Bft)
10.03.2017 12:20 6,6 °C 6,8 °C 75 % 1025,1 hPa 0,0 mm 10,9 km/h (2 Bft) W-NW 291 ° 0 min 0,000 mm 1,7 UV-I 90 W/m² 2,5 °C 4,4 °C 16,1 km/h (3 Bft)
10.03.2017 12:21 6,4 °C 6,6 °C 75 % 1025,1 hPa 0,0 mm 12,1 km/h (2 Bft) W 268 ° 0 min 0,000 mm 1,9 UV-I 91 W/m² 2,3 °C 3,9 °C 17,7 km/h (3 Bft)
10.03.2017 12:22 6,3 °C 6,4 °C 76 % 1025,1 hPa 0,0 mm 10,9 km/h (2 Bft) NW 306 ° 1 min 0,000 mm 3,5 UV-I 686 W/m² 2,4 °C 4,0 °C 16,1 km/h (3 Bft)
10.03.2017 12:23 6,4 °C 6,4 °C 76 % 1025,1 hPa 0,0 mm 14,2 km/h (3 Bft) W-NW 302 ° 1 min 0,000 mm 3,6 UV-I 671 W/m² 2,5 °C 3,6 °C 20,9 km/h (4 Bft)
10.03.2017 12:24 6,4 °C 6,4 °C 77 % 1025,1 hPa 0,0 mm 9,6 km/h (2 Bft) W-NW 302 ° 1 min 0,000 mm 3,6 UV-I 668 W/m² 2,7 °C 4,4 °C 17,7 km/h (3 Bft)
10.03.2017 12:25 6,6 °C 6,6 °C 75 % 1025,1 hPa 0,0 mm 13,0 km/h (3 Bft) NW 319 ° 1 min 0,000 mm 3,6 UV-I 668 W/m² 2,5 °C 4,0 °C 17,7 km/h (3 Bft)
10.03.2017 12:26 6,7 °C 6,7 °C 78 % 1025,0 hPa 0,0 mm 13,2 km/h (3 Bft) N-NW 330 ° 1 min 0,000 mm 3,5 UV-I 668 W/m² 3,1 °C 4,1 °C 17,7 km/h (3 Bft)
10.03.2017 12:27 6,8 °C 6,8 °C 76 % 1025,0 hPa 0,0 mm 13,7 km/h (3 Bft) NW 321 ° 1 min 0,000 mm 3,5 UV-I 670 W/m² 2,9 °C 4,2 °C 19,3 km/h (3 Bft)
10.03.2017 12:28 6,8 °C 6,8 °C 75 % 1025,1 hPa 0,0 mm 9,9 km/h (2 Bft) W 276 ° 1 min 0,000 mm 3,5 UV-I 671 W/m² 2,7 °C 4,8 °C 17,7 km/h (3 Bft)
10.03.2017 12:29 7,0 °C 7,0 °C 75 % 1025,0 hPa 0,0 mm 11,9 km/h (2 Bft) NW 313 ° 1 min 0,000 mm 3,6 UV-I 670 W/m² 2,9 °C 4,7 °C 17,7 km/h (3 Bft)
10.03.2017 12:30 7,1 °C 7,1 °C 74 % 1025,0 hPa 0,0 mm 14,9 km/h (3 Bft) W-SW 243 ° 1 min 0,000 mm 3,6 UV-I 682 W/m² 2,8 °C 4,4 °C 22,5 km/h (4 Bft)
10.03.2017 12:31 7,2 °C 7,2 °C 74 % 1024,9 hPa 0,0 mm 12,7 km/h (3 Bft) W 261 ° 1 min 0,000 mm 3,6 UV-I 684 W/m² 2,9 °C 4,8 °C 19,3 km/h (3 Bft)
10.03.2017 12:32 7,2 °C 7,3 °C 70 % 1024,9 hPa 0,0 mm 14,3 km/h (3 Bft) W 265 ° 1 min 0,000 mm 3,6 UV-I 710 W/m² 2,1 °C 4,6 °C 19,3 km/h (3 Bft)
10.03.2017 12:33 7,2 °C 7,2 °C 71 % 1024,9 hPa 0,0 mm 11,5 km/h (2 Bft) W 267 ° 1 min 0,000 mm 3,7 UV-I 786 W/m² 2,3 °C 5,0 °C 14,5 km/h (3 Bft)
10.03.2017 12:34 7,3 °C 7,3 °C 73 % 1025,0 hPa 0,0 mm 19,1 km/h (3 Bft) W 267 ° 1 min 0,000 mm 3,7 UV-I 786 W/m² 2,8 °C 4,1 °C 24,1 km/h (4 Bft)
10.03.2017 12:35 7,4 °C 7,4 °C 75 % 1025,0 hPa 0,0 mm 14,6 km/h (3 Bft) W-NW 292 ° 1 min 0,000 mm 3,7 UV-I 766 W/m² 3,3 °C 4,8 °C 19,3 km/h (3 Bft)
10.03.2017 12:36 7,5 °C 7,6 °C 71 % 1025,0 hPa 0,0 mm 10,1 km/h (2 Bft) W-NW 298 ° 1 min 0,000 mm 3,8 UV-I 784 W/m² 2,6 °C 5,6 °C 14,5 km/h (3 Bft)
10.03.2017 12:37 7,4 °C 7,5 °C 74 % 1024,9 hPa 0,0 mm 11,5 km/h (2 Bft) NW 323 ° 1 min 0,000 mm 2,8 UV-I 784 W/m² 3,1 °C 5,2 °C 20,9 km/h (4 Bft)
10.03.2017 12:38 7,4 °C 7,4 °C 74 % 1024,9 hPa 0,0 mm 15,2 km/h (3 Bft) NW 304 ° 1 min 0,000 mm 2,8 UV-I 784 W/m² 3,1 °C 4,7 °C 22,5 km/h (4 Bft)
10.03.2017 12:39 7,3 °C 7,4 °C 73 % 1024,9 hPa 0,0 mm 15,4 km/h (3 Bft) NW 317 ° 1 min 0,000 mm 2,3 UV-I 784 W/m² 2,8 °C 4,5 °C 27,4 km/h (4 Bft)
10.03.2017 12:40 7,4 °C 7,4 °C 76 % 1025,0 hPa 0,0 mm 12,6 km/h (3 Bft) NW 318 ° 1 min 0,000 mm 3,5 UV-I 693 W/m² 3,5 °C 5,1 °C 16,1 km/h (3 Bft)
10.03.2017 12:41 7,5 °C 7,5 °C 75 % 1025,0 hPa 0,0 mm 15,3 km/h (3 Bft) W-NW 296 ° 1 min 0,000 mm 3,6 UV-I 717 W/m² 3,4 °C 4,8 °C 22,5 km/h (4 Bft)
10.03.2017 12:42 7,5 °C 7,6 °C 73 % 1025,0 hPa 0,0 mm 15,4 km/h (3 Bft) W 280 ° 1 min 0,000 mm 3,6 UV-I 754 W/m² 3,0 °C 4,8 °C 20,9 km/h (4 Bft)
10.03.2017 12:43 7,4 °C 7,5 °C 73 % 1025,0 hPa 0,0 mm 13,4 km/h (3 Bft) W 277 ° 1 min 0,000 mm 3,5 UV-I 754 W/m² 2,9 °C 4,9 °C 19,3 km/h (3 Bft)
10.03.2017 12:44 7,4 °C 7,4 °C 73 % 1025,0 hPa 0,0 mm 12,9 km/h (3 Bft) W-NW 292 ° 1 min 0,000 mm 3,6 UV-I 754 W/m² 2,9 °C 5,0 °C 19,3 km/h (3 Bft)
10.03.2017 12:45 7,3 °C 7,4 °C 73 % 1025,0 hPa 0,0 mm 8,4 km/h (2 Bft) W 259 ° 1 min 0,000 mm 3,6 UV-I 752 W/m² 2,8 °C 5,7 °C 14,5 km/h (3 Bft)
10.03.2017 12:46 7,2 °C 7,3 °C 74 % 1025,0 hPa 0,0 mm 14,8 km/h (3 Bft) W 263 ° 1 min 0,000 mm 1,8 UV-I 752 W/m² 2,9 °C 4,5 °C 20,9 km/h (4 Bft)
10.03.2017 12:47 7,1 °C 7,2 °C 73 % 1024,9 hPa 0,0 mm 12,9 km/h (3 Bft) W 273 ° 0 min 0,000 mm 1,8 UV-I 93 W/m² 2,6 °C 4,7 °C 19,3 km/h (3 Bft)
10.03.2017 12:48 6,9 °C 7,1 °C 73 % 1024,9 hPa 0,0 mm 10,0 km/h (2 Bft) W-NW 296 ° 0 min 0,000 mm 1,8 UV-I 93 W/m² 2,4 °C 4,9 °C 16,1 km/h (3 Bft)
10.03.2017 12:49 6,8 °C 6,9 °C 74 % 1024,9 hPa 0,0 mm 14,0 km/h (3 Bft) W-NW 294 ° 0 min 0,000 mm 3,4 UV-I 93 W/m² 2,5 °C 4,1 °C 20,9 km/h (4 Bft)
10.03.2017 12:50 6,7 °C 6,8 °C 73 % 1024,9 hPa 0,0 mm 11,9 km/h (2 Bft) W 271 ° 1 min 0,000 mm 3,1 UV-I 522 W/m² 2,2 °C 4,3 °C 16,1 km/h (3 Bft)
10.03.2017 12:51 6,7 °C 6,7 °C 74 % 1024,9 hPa 0,0 mm 7,3 km/h (2 Bft) W-NW 303 ° 1 min 0,000 mm 3,2 UV-I 679 W/m² 2,4 °C 5,3 °C 14,5 km/h (3 Bft)
10.03.2017 12:52 6,8 °C 6,8 °C 76 % 1024,9 hPa 0,0 mm 8,0 km/h (2 Bft) W-NW 284 ° 1 min 0,000 mm 3,5 UV-I 679 W/m² 2,9 °C 5,2 °C 14,5 km/h (3 Bft)
10.03.2017 12:53 6,9 °C 6,9 °C 75 % 1024,9 hPa 0,0 mm 7,0 km/h (2 Bft) W 269 ° 1 min 0,000 mm 3,4 UV-I 650 W/m² 2,8 °C 5,6 °C 11,3 km/h (2 Bft)
10.03.2017 12:54 7,1 °C 7,1 °C 75 % 1024,9 hPa 0,0 mm 9,9 km/h (2 Bft) W 261 ° 1 min 0,000 mm 3,5 UV-I 671 W/m² 3,0 °C 5,2 °C 16,1 km/h (3 Bft)
10.03.2017 12:55 7,2 °C 7,2 °C 75 % 1024,9 hPa 0,0 mm 11,3 km/h (2 Bft) W-NW 292 ° 1 min 0,000 mm 3,5 UV-I 675 W/m² 3,1 °C 5,0 °C 16,1 km/h (3 Bft)
10.03.2017 12:56 7,3 °C 7,3 °C 73 % 1024,9 hPa 0,0 mm 16,0 km/h (3 Bft) W 259 ° 1 min 0,000 mm 3,5 UV-I 675 W/m² 2,8 °C 4,4 °C 25,7 km/h (4 Bft)
10.03.2017 12:57 7,4 °C 7,4 °C 71 % 1024,8 hPa 0,0 mm 14,5 km/h (3 Bft) W-NW 284 ° 1 min 0,000 mm 3,5 UV-I 668 W/m² 2,5 °C 4,8 °C 19,3 km/h (3 Bft)
10.03.2017 12:58 7,3 °C 7,4 °C 69 % 1024,8 hPa 0,0 mm 16,8 km/h (3 Bft) W 270 ° 1 min 0,000 mm 3,5 UV-I 668 W/m² 2,0 °C 4,3 °C 24,1 km/h (4 Bft)
10.03.2017 12:59 7,4 °C 7,4 °C 70 % 1024,8 hPa 0,0 mm 12,8 km/h (3 Bft) W 278 ° 1 min 0,000 mm 3,5 UV-I 671 W/m² 2,3 °C 5,0 °C 19,3 km/h (3 Bft)
10.03.2017 13:00 7,4 °C 7,4 °C 71 % 1024,7 hPa 0,0 mm 14,8 km/h (3 Bft) W 259 ° 1 min 0,000 mm 3,5 UV-I 677 W/m² 2,5 °C 4,7 °C 22,5 km/h (4 Bft)
10.03.2017 13:01 7,4 °C 7,4 °C 67 % 1024,7 hPa 0,0 mm 21,2 km/h (4 Bft) W 264 ° 1 min 0,280 mm 3,5 UV-I 675 W/m² 1,7 °C 4,0 °C 27,4 km/h (4 Bft)
10.03.2017 13:02 7,4 °C 7,4 °C 66 % 1024,7 hPa 0,0 mm 13,8 km/h (3 Bft) W 280 ° 1 min 0,000 mm 3,5 UV-I 679 W/m² 1,5 °C 4,9 °C 22,5 km/h (4 Bft)
10.03.2017 13:03 7,6 °C 7,6 °C 67 % 1024,7 hPa 0,0 mm 14,4 km/h (3 Bft) NW 306 ° 1 min 0,000 mm 3,6 UV-I 714 W/m² 1,9 °C 5,0 °C 19,3 km/h (3 Bft)
10.03.2017 13:04 7,6 °C 7,6 °C 66 % 1024,6 hPa 0,0 mm 18,2 km/h (3 Bft) W-NW 291 ° 1 min 0,000 mm 3,6 UV-I 729 W/m² 1,7 °C 4,5 °C 24,1 km/h (4 Bft)
10.03.2017 13:05 7,7 °C 7,7 °C 70 % 1024,7 hPa 0,0 mm 11,3 km/h (2 Bft) W-NW 301 ° 1 min 0,000 mm 3,5 UV-I 749 W/m² 2,6 °C 5,6 °C 17,7 km/h (3 Bft)
10.03.2017 13:06 7,8 °C 7,8 °C 71 % 1024,7 hPa 0,0 mm 11,5 km/h (2 Bft) W 277 ° 1 min 0,000 mm 3,4 UV-I 763 W/m² 2,9 °C 5,7 °C 19,3 km/h (3 Bft)
10.03.2017 13:07 7,8 °C 7,8 °C 70 % 1024,7 hPa 0,0 mm 13,7 km/h (3 Bft) NW 323 ° 1 min 0,000 mm 2,7 UV-I 763 W/m² 2,7 °C 5,4 °C 17,7 km/h (3 Bft)
10.03.2017 13:08 7,7 °C 7,8 °C 70 % 1024,6 hPa 0,0 mm 11,0 km/h (2 Bft) W 275 ° 1 min 0,000 mm 2,4 UV-I 561 W/m² 2,6 °C 5,7 °C 16,1 km/h (3 Bft)
10.03.2017 13:09 7,7 °C 7,7 °C 72 % 1024,7 hPa 0,0 mm 19,7 km/h (3 Bft) NW 305 ° 1 min 0,000 mm 1,7 UV-I 561 W/m² 3,0 °C 4,5 °C 29,0 km/h (5 Bft)
10.03.2017 13:10 7,4 °C 7,7 °C 71 % 1024,7 hPa 0,0 mm 12,5 km/h (3 Bft) W-NW 286 ° 0 min 0,000 mm 1,7 UV-I 125 W/m² 2,5 °C 5,1 °C 19,3 km/h (3 Bft)
10.03.2017 13:11 7,3 °C 7,4 °C 70 % 1024,7 hPa 0,0 mm 15,4 km/h (3 Bft) W-NW 294 ° 0 min 0,000 mm 1,9 UV-I 153 W/m² 2,2 °C 4,5 °C 22,5 km/h (4 Bft)
10.03.2017 13:12 7,1 °C 7,3 °C 71 % 1024,7 hPa 0,0 mm 12,1 km/h (2 Bft) W-NW 299 ° 0 min 0,000 mm 1,9 UV-I 153 W/m² 2,2 °C 4,8 °C 16,1 km/h (3 Bft)
10.03.2017 13:13 6,9 °C 7,1 °C 72 % 1024,8 hPa 0,0 mm 11,1 km/h (2 Bft) NW 315 ° 1 min 0,000 mm 3,3 UV-I 668 W/m² 2,2 °C 4,7 °C 22,5 km/h (4 Bft)
10.03.2017 13:14 6,9 °C 6,9 °C 71 % 1024,7 hPa 0,0 mm 12,2 km/h (2 Bft) W-NW 300 ° 1 min 0,000 mm 3,4 UV-I 654 W/m² 2,0 °C 4,5 °C 17,7 km/h (3 Bft)
10.03.2017 13:15 6,9 °C 6,9 °C 71 % 1024,7 hPa 0,0 mm 17,4 km/h (3 Bft) W 263 ° 1 min 0,000 mm 1,9 UV-I 654 W/m² 2,0 °C 3,8 °C 20,9 km/h (4 Bft)
10.03.2017 13:16 6,9 °C 6,9 °C 69 % 1024,6 hPa 0,0 mm 12,9 km/h (3 Bft) NW 309 ° 1 min 0,000 mm 2,1 UV-I 237 W/m² 1,6 °C 4,4 °C 16,1 km/h (3 Bft)
10.03.2017 13:17 6,9 °C 6,9 °C 71 % 1024,7 hPa 0,0 mm 10,9 km/h (2 Bft) W 265 ° 1 min 0,000 mm 3,4 UV-I 237 W/m² 2,0 °C 4,8 °C 19,3 km/h (3 Bft)
10.03.2017 13:18 6,9 °C 6,9 °C 71 % 1024,6 hPa 0,0 mm 13,7 km/h (3 Bft) W-SW 257 ° 1 min 0,000 mm 3,3 UV-I 642 W/m² 2,0 °C 4,3 °C 17,7 km/h (3 Bft)
10.03.2017 13:19 7,0 °C 7,0 °C 71 % 1024,6 hPa 0,0 mm 14,8 km/h (3 Bft) W-NW 286 ° 1 min 0,000 mm 3,3 UV-I 621 W/m² 2,1 °C 4,2 °C 19,3 km/h (3 Bft)
10.03.2017 13:20 7,0 °C 7,1 °C 70 % 1024,6 hPa 0,0 mm 14,1 km/h (3 Bft) W-NW 291 ° 1 min 0,000 mm 3,1 UV-I 649 W/m² 1,9 °C 4,3 °C 17,7 km/h (3 Bft)
10.03.2017 13:21 7,1 °C 7,1 °C 70 % 1024,5 hPa 0,0 mm 15,4 km/h (3 Bft) NW 304 ° 1 min 0,000 mm 3,3 UV-I 652 W/m² 2,0 °C 4,3 °C 25,7 km/h (4 Bft)
10.03.2017 13:22 7,2 °C 7,2 °C 71 % 1024,4 hPa 0,0 mm 10,4 km/h (2 Bft) W-NW 283 ° 1 min 0,000 mm 3,3 UV-I 650 W/m² 2,3 °C 5,2 °C 17,7 km/h (3 Bft)
10.03.2017 13:23 7,3 °C 7,3 °C 70 % 1024,4 hPa 0,0 mm 15,2 km/h (3 Bft) W-NW 302 ° 1 min 0,000 mm 3,3 UV-I 638 W/m² 2,2 °C 4,6 °C 27,4 km/h (4 Bft)
10.03.2017 13:24 7,3 °C 7,3 °C 70 % 1024,5 hPa 0,0 mm 11,7 km/h (2 Bft) NW 320 ° 1 min 0,000 mm 3,3 UV-I 635 W/m² 2,2 °C 5,1 °C 19,3 km/h (3 Bft)
10.03.2017 13:25 7,4 °C 7,4 °C 73 % 1024,5 hPa 0,0 mm 11,0 km/h (2 Bft) NW 304 ° 1 min 0,000 mm 3,3 UV-I 645 W/m² 2,9 °C 5,3 °C 14,5 km/h (3 Bft)
10.03.2017 13:26 7,7 °C 7,7 °C 71 % 1024,4 hPa 0,0 mm 12,7 km/h (3 Bft) W 279 ° 1 min 0,000 mm 3,3 UV-I 642 W/m² 2,8 °C 5,4 °C 14,5 km/h (3 Bft)
10.03.2017 13:27 7,8 °C 7,8 °C 71 % 1024,4 hPa 0,0 mm 17,4 km/h (3 Bft) W-SW 258 ° 1 min 0,000 mm 3,3 UV-I 664 W/m² 2,9 °C 4,9 °C 24,1 km/h (4 Bft)
10.03.2017 13:28 7,8 °C 7,8 °C 68 % 1024,4 hPa 0,0 mm 18,6 km/h (3 Bft) W 264 ° 1 min 0,000 mm 3,3 UV-I 668 W/m² 2,3 °C 4,8 °C 25,7 km/h (4 Bft)
10.03.2017 13:29 7,6 °C 7,8 °C 66 % 1024,4 hPa 0,0 mm 14,8 km/h (3 Bft) SW 215 ° 1 min 0,000 mm 3,3 UV-I 659 W/m² 1,7 °C 5,0 °C 20,9 km/h (4 Bft)
10.03.2017 13:30 7,6 °C 7,6 °C 67 % 1024,4 hPa 0,0 mm 13,3 km/h (3 Bft) W 273 ° 1 min 0,000 mm 3,3 UV-I 671 W/m² 1,9 °C 5,2 °C 19,3 km/h (3 Bft)
10.03.2017 13:31 7,7 °C 7,7 °C 69 % 1024,4 hPa 0,0 mm 11,9 km/h (2 Bft) W 259 ° 1 min 0,000 mm 3,3 UV-I 686 W/m² 2,4 °C 5,5 °C 17,7 km/h (3 Bft)
10.03.2017 13:32 7,7 °C 7,7 °C 65 % 1024,4 hPa 0,0 mm 11,7 km/h (2 Bft) W-NW 295 ° 1 min 0,000 mm 3,4 UV-I 687 W/m² 1,5 °C 5,6 °C 17,7 km/h (3 Bft)
10.03.2017 13:33 7,7 °C 7,7 °C 64 % 1024,4 hPa 0,0 mm 12,9 km/h (3 Bft) W-SW 253 ° 1 min 0,000 mm 3,4 UV-I 689 W/m² 1,3 °C 5,4 °C 19,3 km/h (3 Bft)
10.03.2017 13:34 7,8 °C 7,8 °C 63 % 1024,3 hPa 0,0 mm 14,9 km/h (3 Bft) SW 220 ° 1 min 0,000 mm 3,4 UV-I 696 W/m² 1,2 °C 5,2 °C 20,9 km/h (4 Bft)
10.03.2017 13:35 7,8 °C 7,8 °C 67 % 1024,4 hPa 0,0 mm 13,5 km/h (3 Bft) W-NW 294 ° 1 min 0,000 mm 3,3 UV-I 682 W/m² 2,1 °C 5,4 °C 17,7 km/h (3 Bft)
10.03.2017 13:36 7,7 °C 7,8 °C 68 % 1024,3 hPa 0,0 mm 9,8 km/h (2 Bft) W-NW 299 ° 1 min 0,000 mm 3,3 UV-I 673 W/m² 2,2 °C 5,9 °C 19,3 km/h (3 Bft)
10.03.2017 13:37 7,8 °C 7,8 °C 69 % 1024,3 hPa 0,0 mm 12,5 km/h (3 Bft) W-NW 300 ° 1 min 0,000 mm 3,3 UV-I 675 W/m² 2,5 °C 5,6 °C 20,9 km/h (4 Bft)
10.03.2017 13:38 7,8 °C 7,8 °C 69 % 1024,3 hPa 0,0 mm 12,3 km/h (3 Bft) W-NW 283 ° 1 min 0,000 mm 3,3 UV-I 712 W/m² 2,5 °C 5,6 °C 19,3 km/h (3 Bft)
10.03.2017 13:39 7,8 °C 7,8 °C 68 % 1024,4 hPa 0,0 mm 10,1 km/h (2 Bft) W-NW 295 ° 1 min 0,000 mm 3,1 UV-I 731 W/m² 2,3 °C 6,0 °C 24,1 km/h (4 Bft)
10.03.2017 13:40 7,8 °C 7,8 °C 70 % 1024,4 hPa 0,0 mm 23,1 km/h (4 Bft) NW 320 ° 1 min 0,000 mm 1,7 UV-I 731 W/m² 2,7 °C 4,3 °C 29,0 km/h (5 Bft)
10.03.2017 13:41 7,7 °C 7,8 °C 69 % 1024,4 hPa 0,0 mm 18,8 km/h (3 Bft) W-NW 303 ° 0 min 0,000 mm 1,6 UV-I 141 W/m² 2,4 °C 4,6 °C 30,6 km/h (5 Bft)
10.03.2017 13:42 7,5 °C 7,7 °C 69 % 1024,4 hPa 0,0 mm 20,8 km/h (4 Bft) NW 325 ° 0 min 0,000 mm 1,6 UV-I 156 W/m² 2,2 °C 4,1 °C 25,7 km/h (4 Bft)
10.03.2017 13:43 7,3 °C 7,5 °C 71 % 1024,5 hPa 0,0 mm 17,6 km/h (3 Bft) NW 324 ° 0 min 0,000 mm 1,6 UV-I 121 W/m² 2,4 °C 4,2 °C 22,5 km/h (4 Bft)
10.03.2017 13:44 7,3 °C 7,3 °C 71 % 1024,5 hPa 0,0 mm 10,4 km/h (2 Bft) W 275 ° 0 min 0,000 mm 3,1 UV-I 123 W/m² 2,4 °C 5,3 °C 17,7 km/h (3 Bft)
10.03.2017 13:45 7,2 °C 7,3 °C 69 % 1024,5 hPa 0,0 mm 16,9 km/h (3 Bft) W-NW 290 ° 0 min 0,000 mm 3,1 UV-I 123 W/m² 1,9 °C 4,2 °C 22,5 km/h (4 Bft)
10.03.2017 13:46 7,1 °C 7,2 °C 68 % 1024,5 hPa 0,0 mm 14,1 km/h (3 Bft) W-NW 295 ° 1 min 0,000 mm 3,1 UV-I 619 W/m² 1,6 °C 4,5 °C 19,3 km/h (3 Bft)
10.03.2017 13:47 7,2 °C 7,2 °C 72 % 1024,4 hPa 0,0 mm 12,5 km/h (3 Bft) W-NW 295 ° 1 min 0,000 mm 3,1 UV-I 610 W/m² 2,5 °C 4,8 °C 17,7 km/h (3 Bft)
10.03.2017 13:48 7,3 °C 7,3 °C 68 % 1024,5 hPa 0,0 mm 13,1 km/h (3 Bft) W 275 ° 1 min 0,000 mm 3,1 UV-I 621 W/m² 1,8 °C 4,9 °C 19,3 km/h (3 Bft)
10.03.2017 13:49 7,3 °C 7,3 °C 69 % 1024,4 hPa 0,0 mm 14,4 km/h (3 Bft) W 279 ° 1 min 0,000 mm 3,1 UV-I 615 W/m² 2,0 °C 4,7 °C 24,1 km/h (4 Bft)
10.03.2017 13:50 7,4 °C 7,4 °C 67 % 1024,5 hPa 0,0 mm 16,4 km/h (3 Bft) W-NW 291 ° 1 min 0,000 mm 2,3 UV-I 615 W/m² 1,7 °C 4,5 °C 24,1 km/h (4 Bft)
10.03.2017 13:51 7,4 °C 7,4 °C 67 % 1024,4 hPa 0,0 mm 17,6 km/h (3 Bft) NW 306 ° 1 min 0,000 mm 3,1 UV-I 615 W/m² 1,7 °C 4,4 °C 24,1 km/h (4 Bft)
10.03.2017 13:52 7,4 °C 7,4 °C 67 % 1024,5 hPa 0,0 mm 10,7 km/h (2 Bft) NW 322 ° 1 min 0,000 mm 1,6 UV-I 615 W/m² 1,7 °C 5,4 °C 14,5 km/h (3 Bft)
10.03.2017 13:53 7,3 °C 7,4 °C 67 % 1024,5 hPa 0,0 mm 11,1 km/h (2 Bft) NW 312 ° 0 min 0,000 mm 1,5 UV-I 76 W/m² 1,6 °C 5,2 °C 17,7 km/h (3 Bft)
10.03.2017 13:54 7,3 °C 7,3 °C 66 % 1024,6 hPa 0,0 mm 15,7 km/h (3 Bft) NW 321 ° 0 min 0,000 mm 1,5 UV-I 81 W/m² 1,4 °C 4,5 °C 22,5 km/h (4 Bft)
10.03.2017 13:55 7,1 °C 7,3 °C 65 % 1024,6 hPa 0,0 mm 15,3 km/h (3 Bft) W-NW 302 ° 0 min 0,000 mm 1,5 UV-I 91 W/m² 1,0 °C 4,3 °C 20,9 km/h (4 Bft)
10.03.2017 13:56 7,0 °C 7,1 °C 64 % 1024,6 hPa 0,0 mm 10,2 km/h (2 Bft) W 278 ° 0 min 0,000 mm 1,6 UV-I 107 W/m² 0,7 °C 5,0 °C 17,7 km/h (3 Bft)
10.03.2017 13:57 6,9 °C 7,0 °C 66 % 1024,5 hPa 0,0 mm 13,9 km/h (3 Bft) W 279 ° 0 min 0,000 mm 1,8 UV-I 107 W/m² 1,0 °C 4,3 °C 17,7 km/h (3 Bft)
10.03.2017 13:58 6,8 °C 6,9 °C 66 % 1024,5 hPa 0,0 mm 8,9 km/h (2 Bft) W-NW 291 ° 1 min 0,000 mm 1,7 UV-I 682 W/m² 0,9 °C 5,0 °C 19,3 km/h (3 Bft)
10.03.2017 13:59 6,8 °C 6,9 °C 65 % 1024,5 hPa 0,0 mm 11,9 km/h (2 Bft) W 267 ° 1 min 0,000 mm 1,7 UV-I 682 W/m² 0,7 °C 4,5 °C 16,1 km/h (3 Bft)
10.03.2017 14:00 6,9 °C 6,9 °C 65 % 1024,4 hPa 0,0 mm 14,9 km/h (3 Bft) W 266 ° 1 min 0,254 mm 3,1 UV-I 682 W/m² 0,8 °C 4,1 °C 22,5 km/h (4 Bft)
10.03.2017 14:01 6,9 °C 6,9 °C 64 % 1024,4 hPa 0,0 mm 14,6 km/h (3 Bft) W 281 ° 1 min 0,000 mm 3,1 UV-I 696 W/m² 0,6 °C 4,1 °C 19,3 km/h (3 Bft)
10.03.2017 14:02 7,2 °C 7,2 °C 67 % 1024,4 hPa 0,0 mm 12,6 km/h (3 Bft) W-NW 291 ° 1 min 0,000 mm 3,1 UV-I 708 W/m² 1,5 °C 4,8 °C 19,3 km/h (3 Bft)
10.03.2017 14:03 7,3 °C 7,3 °C 66 % 1024,4 hPa 0,0 mm 10,1 km/h (2 Bft) W-NW 284 ° 1 min 0,000 mm 3,0 UV-I 694 W/m² 1,4 °C 5,4 °C 16,1 km/h (3 Bft)
10.03.2017 14:04 7,5 °C 7,5 °C 64 % 1024,5 hPa 0,0 mm 17,4 km/h (3 Bft) W 275 ° 1 min 0,000 mm 3,0 UV-I 664 W/m² 1,1 °C 4,5 °C 24,1 km/h (4 Bft)
10.03.2017 14:05 7,6 °C 7,6 °C 64 % 1024,4 hPa 0,0 mm 15,1 km/h (3 Bft) W-NW 292 ° 1 min 0,000 mm 3,0 UV-I 661 W/m² 1,2 °C 4,9 °C 22,5 km/h (4 Bft)
10.03.2017 14:06 7,7 °C 7,7 °C 65 % 1024,4 hPa 0,0 mm 16,6 km/h (3 Bft) W-NW 300 ° 1 min 0,000 mm 3,0 UV-I 617 W/m² 1,5 °C 4,9 °C 20,9 km/h (4 Bft)
10.03.2017 14:07 7,8 °C 7,8 °C 65 % 1024,4 hPa 0,0 mm 15,2 km/h (3 Bft) W-NW 301 ° 1 min 0,000 mm 2,9 UV-I 635 W/m² 1,6 °C 5,2 °C 19,3 km/h (3 Bft)
10.03.2017 14:08 7,9 °C 7,9 °C 65 % 1024,4 hPa 0,0 mm 9,3 km/h (2 Bft) W-NW 302 ° 1 min 0,000 mm 3,0 UV-I 645 W/m² 1,7 °C 6,3 °C 14,5 km/h (3 Bft)
10.03.2017 14:09 8,0 °C 8,0 °C 65 % 1024,5 hPa 0,0 mm 9,9 km/h (2 Bft) NW 313 ° 1 min 0,000 mm 3,0 UV-I 640 W/m² 1,8 °C 6,3 °C 17,7 km/h (3 Bft)
10.03.2017 14:10 8,2 °C 8,2 °C 69 % 1024,4 hPa 0,0 mm 15,8 km/h (3 Bft) W 273 ° 1 min 0,000 mm 2,9 UV-I 670 W/m² 2,9 °C 5,6 °C 22,5 km/h (4 Bft)
10.03.2017 14:11 8,2 °C 8,2 °C 66 % 1024,5 hPa 0,0 mm 15,5 km/h (3 Bft) N-NW 330 ° 1 min 0,000 mm 2,4 UV-I 670 W/m² 2,2 °C 5,6 °C 22,5 km/h (4 Bft)
10.03.2017 14:12 8,1 °C 8,2 °C 67 % 1024,5 hPa 0,0 mm 13,4 km/h (3 Bft) N-NW 327 ° 0 min 0,000 mm 1,8 UV-I 183 W/m² 2,3 °C 5,8 °C 19,3 km/h (3 Bft)
10.03.2017 14:13 7,9 °C 8,1 °C 65 % 1024,4 hPa 0,0 mm 10,4 km/h (2 Bft) NW 321 ° 0 min 0,000 mm 1,6 UV-I 139 W/m² 1,7 °C 6,0 °C 16,1 km/h (3 Bft)
10.03.2017 14:14 7,7 °C 7,9 °C 64 % 1024,4 hPa 0,0 mm 12,5 km/h (3 Bft) W-NW 299 ° 0 min 0,000 mm 2,7 UV-I 139 W/m² 1,3 °C 5,4 °C 19,3 km/h (3 Bft)
10.03.2017 14:15 7,6 °C 7,7 °C 66 % 1024,4 hPa 0,0 mm 11,2 km/h (2 Bft) W-NW 285 ° 0 min 0,000 mm 2,8 UV-I 139 W/m² 1,7 °C 5,5 °C 17,7 km/h (3 Bft)
10.03.2017 14:16 7,6 °C 7,6 °C 66 % 1024,3 hPa 0,0 mm 11,1 km/h (2 Bft) W-NW 295 ° 0 min 0,000 mm 2,8 UV-I 139 W/m² 1,7 °C 5,6 °C 16,1 km/h (3 Bft)
10.03.2017 14:17 7,6 °C 7,6 °C 66 % 1024,4 hPa 0,0 mm 11,0 km/h (2 Bft) W 279 ° 1 min 0,000 mm 2,6 UV-I 540 W/m² 1,7 °C 5,6 °C 14,5 km/h (3 Bft)
10.03.2017 14:18 7,6 °C 7,7 °C 65 % 1024,4 hPa 0,0 mm 17,0 km/h (3 Bft) W-NW 296 ° 1 min 0,000 mm 2,7 UV-I 452 W/m² 1,5 °C 4,7 °C 24,1 km/h (4 Bft)
10.03.2017 14:19 7,7 °C 7,7 °C 65 % 1024,4 hPa 0,0 mm 13,3 km/h (3 Bft) W-NW 294 ° 1 min 0,000 mm 2,5 UV-I 536 W/m² 1,5 °C 5,3 °C 19,3 km/h (3 Bft)
10.03.2017 14:20 7,7 °C 7,7 °C 64 % 1024,4 hPa 0,0 mm 15,4 km/h (3 Bft) W-NW 300 ° 1 min 0,000 mm 1,8 UV-I 536 W/m² 1,3 °C 5,0 °C 24,1 km/h (4 Bft)
10.03.2017 14:21 7,7 °C 7,7 °C 64 % 1024,4 hPa 0,0 mm 10,9 km/h (2 Bft) NW 313 ° 0 min 0,000 mm 2,3 UV-I 190 W/m² 1,3 °C 5,7 °C 14,5 km/h (3 Bft)
10.03.2017 14:22 7,7 °C 7,7 °C 65 % 1024,4 hPa 0,0 mm 13,8 km/h (3 Bft) NW 323 ° 0 min 0,000 mm 2,5 UV-I 190 W/m² 1,5 °C 5,2 °C 20,9 km/h (4 Bft)
10.03.2017 14:23 7,7 °C 7,7 °C 64 % 1024,4 hPa 0,0 mm 16,8 km/h (3 Bft) W-NW 286 ° 1 min 0,000 mm 2,4 UV-I 462 W/m² 1,3 °C 4,8 °C 19,3 km/h (3 Bft)
10.03.2017 14:24 7,7 °C 7,7 °C 64 % 1024,3 hPa 0,0 mm 8,8 km/h (2 Bft) W-NW 301 ° 1 min 0,000 mm 2,3 UV-I 457 W/m² 1,3 °C 6,1 °C 12,9 km/h (3 Bft)
10.03.2017 14:25 7,8 °C 7,8 °C 64 % 1024,4 hPa 0,0 mm 11,8 km/h (2 Bft) W 267 ° 1 min 0,000 mm 2,4 UV-I 462 W/m² 1,4 °C 5,7 °C 19,3 km/h (3 Bft)
10.03.2017 14:26 7,8 °C 7,8 °C 63 % 1024,4 hPa 0,0 mm 15,4 km/h (3 Bft) W 273 ° 1 min 0,000 mm 2,6 UV-I 462 W/m² 1,2 °C 5,1 °C 20,9 km/h (4 Bft)
10.03.2017 14:27 7,7 °C 7,8 °C 62 % 1024,4 hPa 0,0 mm 9,5 km/h (2 Bft) W-NW 293 ° 1 min 0,000 mm 2,5 UV-I 462 W/m² 0,9 °C 6,0 °C 16,1 km/h (3 Bft)
10.03.2017 14:28 7,8 °C 7,8 °C 64 % 1024,3 hPa 0,0 mm 12,3 km/h (3 Bft) W 275 ° 1 min 0,000 mm 2,0 UV-I 510 W/m² 1,4 °C 5,6 °C 16,1 km/h (3 Bft)
10.03.2017 14:29 7,9 °C 7,9 °C 64 % 1024,3 hPa 0,0 mm 10,5 km/h (2 Bft) W 264 ° 1 min 0,000 mm 2,4 UV-I 506 W/m² 1,5 °C 6,0 °C 17,7 km/h (3 Bft)
10.03.2017 14:30 7,9 °C 7,9 °C 65 % 1024,3 hPa 0,0 mm 6,4 km/h (2 Bft) W-NW 285 ° 1 min 0,000 mm 2,4 UV-I 520 W/m² 1,7 °C 6,9 °C 9,7 km/h (2 Bft)
10.03.2017 14:31 8,1 °C 8,1 °C 63 % 1024,4 hPa 0,0 mm 10,0 km/h (2 Bft) NW 325 ° 1 min 0,000 mm 1,8 UV-I 520 W/m² 1,5 °C 6,4 °C 14,5 km/h (3 Bft)
10.03.2017 14:32 8,2 °C 8,2 °C 66 % 1024,5 hPa 0,0 mm 13,5 km/h (3 Bft) NW 315 ° 1 min 0,000 mm 1,9 UV-I 520 W/m² 2,2 °C 5,9 °C 17,7 km/h (3 Bft)
10.03.2017 14:33 8,2 °C 8,2 °C 66 % 1024,3 hPa 0,0 mm 13,9 km/h (3 Bft) NW 315 ° 1 min 0,000 mm 2,2 UV-I 520 W/m² 2,2 °C 5,8 °C 17,7 km/h (3 Bft)
10.03.2017 14:34 8,2 °C 8,2 °C 67 % 1024,4 hPa 0,0 mm 14,2 km/h (3 Bft) W-NW 303 ° 1 min 0,000 mm 2,2 UV-I 513 W/m² 2,4 °C 5,8 °C 20,9 km/h (4 Bft)
10.03.2017 14:35 8,2 °C 8,2 °C 68 % 1024,4 hPa 0,0 mm 15,1 km/h (3 Bft) NW 319 ° 1 min 0,000 mm 2,2 UV-I 492 W/m² 2,7 °C 5,7 °C 19,3 km/h (3 Bft)
10.03.2017 14:36 8,3 °C 8,3 °C 67 % 1024,6 hPa 0,0 mm 12,5 km/h (3 Bft) N-NW 327 ° 1 min 0,000 mm 2,2 UV-I 492 W/m² 2,5 °C 6,2 °C 22,5 km/h (4 Bft)
10.03.2017 14:37 8,2 °C 8,3 °C 64 % 1024,6 hPa 0,0 mm 12,1 km/h (2 Bft) NW 304 ° 1 min 0,000 mm 2,0 UV-I 478 W/m² 1,8 °C 6,1 °C 19,3 km/h (3 Bft)
10.03.2017 14:38 8,1 °C 8,2 °C 65 % 1024,5 hPa 0,0 mm 15,8 km/h (3 Bft) N 355 ° 1 min 0,000 mm 2,1 UV-I 490 W/m² 1,9 °C 5,5 °C 22,5 km/h (4 Bft)
10.03.2017 14:39 8,0 °C 8,1 °C 67 % 1024,4 hPa 0,0 mm 13,5 km/h (3 Bft) N-NW 327 ° 1 min 0,000 mm 2,2 UV-I 396 W/m² 2,3 °C 5,7 °C 17,7 km/h (3 Bft)
10.03.2017 14:40 8,0 °C 8,0 °C 68 % 1024,5 hPa 0,0 mm 11,8 km/h (2 Bft) NW 308 ° 1 min 0,000 mm 2,2 UV-I 482 W/m² 2,5 °C 5,9 °C 17,7 km/h (3 Bft)
10.03.2017 14:41 8,1 °C 8,1 °C 68 % 1024,6 hPa 0,0 mm 10,3 km/h (2 Bft) NW 312 ° 1 min 0,000 mm 2,1 UV-I 482 W/m² 2,6 °C 6,3 °C 24,1 km/h (4 Bft)
10.03.2017 14:42 8,1 °C 8,1 °C 66 % 1024,6 hPa 0,0 mm 12,9 km/h (3 Bft) NW 317 ° 1 min 0,000 mm 2,0 UV-I 501 W/m² 2,1 °C 5,9 °C 19,3 km/h (3 Bft)
10.03.2017 14:43 8,1 °C 8,1 °C 67 % 1024,6 hPa 0,0 mm 18,0 km/h (3 Bft) NW 311 ° 1 min 0,000 mm 2,1 UV-I 538 W/m² 2,3 °C 5,2 °C 25,7 km/h (4 Bft)
10.03.2017 14:44 8,0 °C 8,1 °C 66 % 1024,6 hPa 0,0 mm 14,0 km/h (3 Bft) W-NW 294 ° 1 min 0,000 mm 2,0 UV-I 538 W/m² 2,0 °C 5,6 °C 19,3 km/h (3 Bft)
10.03.2017 14:45 7,9 °C 8,0 °C 67 % 1024,6 hPa 0,0 mm 13,4 km/h (3 Bft) NW 306 ° 1 min 0,000 mm 1,7 UV-I 538 W/m² 2,2 °C 5,6 °C 19,3 km/h (3 Bft)
10.03.2017 14:46 7,9 °C 8,0 °C 66 % 1024,6 hPa 0,0 mm 11,9 km/h (2 Bft) NW 307 ° 1 min 0,000 mm 1,6 UV-I 206 W/m² 1,9 °C 5,8 °C 19,3 km/h (3 Bft)
10.03.2017 14:47 7,8 °C 7,9 °C 66 % 1024,6 hPa 0,0 mm 9,4 km/h (2 Bft) W-NW 297 ° 1 min 0,000 mm 1,9 UV-I 206 W/m² 1,9 °C 6,1 °C 14,5 km/h (3 Bft)
10.03.2017 14:48 7,8 °C 7,8 °C 68 % 1024,6 hPa 0,0 mm 11,8 km/h (2 Bft) W 275 ° 1 min 0,000 mm 1,9 UV-I 341 W/m² 2,3 °C 5,7 °C 19,3 km/h (3 Bft)
10.03.2017 14:49 7,8 °C 7,8 °C 66 % 1024,6 hPa 0,0 mm 11,6 km/h (2 Bft) W-NW 286 ° 1 min 0,000 mm 1,9 UV-I 385 W/m² 1,9 °C 5,7 °C 19,3 km/h (3 Bft)
10.03.2017 14:50 7,7 °C 7,8 °C 65 % 1024,6 hPa 0,0 mm 15,5 km/h (3 Bft) W-NW 297 ° 1 min 0,000 mm 1,9 UV-I 341 W/m² 1,5 °C 5,0 °C 27,4 km/h (4 Bft)
10.03.2017 14:51 7,7 °C 7,7 °C 66 % 1024,6 hPa 0,0 mm 11,5 km/h (2 Bft) W-NW 296 ° 1 min 0,000 mm 1,9 UV-I 341 W/m² 1,8 °C 5,6 °C 17,7 km/h (3 Bft)
10.03.2017 14:52 7,7 °C 7,7 °C 64 % 1024,6 hPa 0,0 mm 12,2 km/h (2 Bft) W 281 ° 1 min 0,000 mm 1,9 UV-I 355 W/m² 1,3 °C 5,5 °C 14,5 km/h (3 Bft)
10.03.2017 14:53 7,7 °C 7,7 °C 64 % 1024,4 hPa 0,0 mm 10,7 km/h (2 Bft) W 279 ° 1 min 0,000 mm 1,9 UV-I 352 W/m² 1,3 °C 5,8 °C 16,1 km/h (3 Bft)
10.03.2017 14:54 7,7 °C 7,7 °C 64 % 1024,6 hPa 0,0 mm 14,8 km/h (3 Bft) W-SW 245 ° 1 min 0,000 mm 1,8 UV-I 318 W/m² 1,3 °C 5,1 °C 20,9 km/h (4 Bft)
10.03.2017 14:55 7,7 °C 7,7 °C 62 % 1024,6 hPa 0,0 mm 16,2 km/h (3 Bft) W 268 ° 1 min 0,000 mm 1,8 UV-I 338 W/m² 0,9 °C 4,9 °C 24,1 km/h (4 Bft)
10.03.2017 14:56 7,7 °C 7,7 °C 61 % 1024,6 hPa 0,0 mm 19,1 km/h (3 Bft) W-NW 287 ° 1 min 0,000 mm 1,8 UV-I 355 W/m² 0,7 °C 4,6 °C 25,7 km/h (4 Bft)
10.03.2017 14:57 7,7 °C 7,7 °C 61 % 1024,6 hPa 0,0 mm 13,3 km/h (3 Bft) NW 309 ° 1 min 0,000 mm 1,8 UV-I 330 W/m² 0,7 °C 5,3 °C 17,7 km/h (3 Bft)
10.03.2017 14:58 7,7 °C 7,7 °C 60 % 1024,6 hPa 0,0 mm 14,0 km/h (3 Bft) NW 304 ° 1 min 0,000 mm 1,9 UV-I 392 W/m² 0,4 °C 5,2 °C 22,5 km/h (4 Bft)
10.03.2017 14:59 7,7 °C 7,7 °C 60 % 1024,6 hPa 0,0 mm 12,1 km/h (2 Bft) NW 316 ° 1 min 0,000 mm 1,9 UV-I 422 W/m² 0,4 °C 5,5 °C 19,3 km/h (3 Bft)
10.03.2017 15:00 7,7 °C 7,7 °C 61 % 1024,6 hPa 0,0 mm 12,9 km/h (3 Bft) W 275 ° 1 min 0,000 mm 1,8 UV-I 360 W/m² 0,7 °C 5,4 °C 17,7 km/h (3 Bft)
10.03.2017 15:01 7,7 °C 7,7 °C 60 % 1024,6 hPa 0,0 mm 13,3 km/h (3 Bft) W-NW 290 ° 1 min 0,228 mm 1,6 UV-I 359 W/m² 0,4 °C 5,3 °C 17,7 km/h (3 Bft)
10.03.2017 15:02 7,7 °C 7,7 °C 61 % 1024,6 hPa 0,0 mm 13,3 km/h (3 Bft) NW 313 ° 1 min 0,000 mm 1,8 UV-I 306 W/m² 0,7 °C 5,3 °C 20,9 km/h (4 Bft)
10.03.2017 15:03 7,7 °C 7,7 °C 64 % 1024,6 hPa 0,0 mm 11,3 km/h (2 Bft) NW 321 ° 1 min 0,000 mm 1,9 UV-I 401 W/m² 1,3 °C 5,6 °C 14,5 km/h (3 Bft)
10.03.2017 15:04 7,7 °C 7,7 °C 68 % 1024,7 hPa 0,0 mm 16,6 km/h (3 Bft) NW 323 ° 1 min 0,000 mm 2,0 UV-I 392 W/m² 2,2 °C 4,9 °C 22,5 km/h (4 Bft)
10.03.2017 15:05 7,6 °C 7,7 °C 66 % 1024,7 hPa 0,0 mm 11,6 km/h (2 Bft) NW 314 ° 1 min 0,000 mm 1,9 UV-I 343 W/m² 1,7 °C 5,5 °C 19,3 km/h (3 Bft)
10.03.2017 15:06 7,6 °C 7,7 °C 68 % 1024,6 hPa 0,0 mm 10,9 km/h (2 Bft) N 5 ° 1 min 0,000 mm 1,4 UV-I 343 W/m² 2,1 °C 5,6 °C 17,7 km/h (3 Bft)
10.03.2017 15:07 7,6 °C 7,6 °C 68 % 1024,6 hPa 0,0 mm 10,5 km/h (2 Bft) N-NO 22 ° 0 min 0,000 mm 1,4 UV-I 193 W/m² 2,1 °C 5,7 °C 17,7 km/h (3 Bft)
10.03.2017 15:08 7,6 °C 7,6 °C 68 % 1024,7 hPa 0,0 mm 13,1 km/h (3 Bft) NW 323 ° 0 min 0,000 mm 1,4 UV-I 171 W/m² 2,1 °C 5,2 °C 17,7 km/h (3 Bft)
10.03.2017 15:09 7,4 °C 7,6 °C 67 % 1024,6 hPa 0,0 mm 7,6 km/h (2 Bft) W-NW 284 ° 0 min 0,000 mm 1,4 UV-I 163 W/m² 1,7 °C 6,0 °C 12,9 km/h (3 Bft)
10.03.2017 15:10 7,4 °C 7,4 °C 67 % 1024,7 hPa 0,0 mm 8,0 km/h (2 Bft) W 276 ° 1 min 0,000 mm 1,4 UV-I 202 W/m² 1,7 °C 6,0 °C 12,9 km/h (3 Bft)
10.03.2017 15:11 7,3 °C 7,4 °C 68 % 1024,6 hPa 0,0 mm 8,8 km/h (2 Bft) NW 321 ° 0 min 0,000 mm 1,4 UV-I 162 W/m² 1,8 °C 5,7 °C 12,9 km/h (3 Bft)
10.03.2017 15:12 7,3 °C 7,3 °C 68 % 1024,7 hPa 0,0 mm 9,3 km/h (2 Bft) NW 306 ° 0 min 0,000 mm 1,4 UV-I 148 W/m² 1,8 °C 5,5 °C 14,5 km/h (3 Bft)
10.03.2017 15:13 7,2 °C 7,3 °C 68 % 1024,6 hPa 0,0 mm 5,3 km/h (1 Bft) NW 306 ° 0 min 0,000 mm 1,4 UV-I 151 W/m² 1,7 °C 6,5 °C 8,0 km/h (2 Bft)
10.03.2017 15:14 7,2 °C 7,2 °C 68 % 1024,6 hPa 0,0 mm 4,9 km/h (1 Bft) W-NW 297 ° 0 min 0,000 mm 1,6 UV-I 151 W/m² 1,7 °C 6,6 °C 8,0 km/h (2 Bft)
10.03.2017 15:15 7,2 °C 7,2 °C 69 % 1024,6 hPa 0,0 mm 7,0 km/h (2 Bft) NW 307 ° 1 min 0,000 mm 1,6 UV-I 316 W/m² 1,9 °C 6,0 °C 14,5 km/h (3 Bft)
10.03.2017 15:16 7,2 °C 7,2 °C 68 % 1024,6 hPa 0,0 mm 11,8 km/h (2 Bft) NW 315 ° 1 min 0,000 mm 1,6 UV-I 276 W/m² 1,7 °C 5,0 °C 17,7 km/h (3 Bft)
10.03.2017 15:17 7,2 °C 7,2 °C 68 % 1024,6 hPa 0,0 mm 11,1 km/h (2 Bft) NW 312 ° 1 min 0,000 mm 1,6 UV-I 320 W/m² 1,7 °C 5,1 °C 19,3 km/h (3 Bft)
10.03.2017 15:18 7,3 °C 7,3 °C 68 % 1024,5 hPa 0,0 mm 10,0 km/h (2 Bft) NW 318 ° 1 min 0,000 mm 1,6 UV-I 327 W/m² 1,8 °C 5,4 °C 14,5 km/h (3 Bft)
10.03.2017 15:19 7,3 °C 7,3 °C 68 % 1024,5 hPa 0,0 mm 12,0 km/h (2 Bft) N 5 ° 1 min 0,000 mm 1,6 UV-I 311 W/m² 1,8 °C 5,0 °C 17,7 km/h (3 Bft)
10.03.2017 15:20 7,4 °C 7,4 °C 68 % 1024,5 hPa 0,0 mm 5,4 km/h (1 Bft) N 355 ° 1 min 0,000 mm 1,6 UV-I 294 W/m² 1,9 °C 6,7 °C 12,9 km/h (3 Bft)
10.03.2017 15:21 7,4 °C 7,4 °C 68 % 1024,4 hPa 0,0 mm 13,4 km/h (3 Bft) NW 310 ° 1 min 0,000 mm 1,6 UV-I 294 W/m² 1,9 °C 4,9 °C 19,3 km/h (3 Bft)
10.03.2017 15:22 7,6 °C 7,6 °C 69 % 1024,4 hPa 0,0 mm 8,4 km/h (2 Bft) W 272 ° 1 min 0,000 mm 1,5 UV-I 267 W/m² 2,3 °C 6,1 °C 11,3 km/h (2 Bft)
10.03.2017 15:23 7,6 °C 7,6 °C 67 % 1024,4 hPa 0,0 mm 10,7 km/h (2 Bft) NW 324 ° 0 min 0,000 mm 1,5 UV-I 178 W/m² 1,9 °C 5,6 °C 17,7 km/h (3 Bft)
10.03.2017 15:24 7,6 °C 7,6 °C 68 % 1024,5 hPa 0,0 mm 13,9 km/h (3 Bft) N-NW 341 ° 0 min 0,000 mm 1,7 UV-I 178 W/m² 2,1 °C 5,1 °C 17,7 km/h (3 Bft)
10.03.2017 15:25 7,5 °C 7,6 °C 67 % 1024,5 hPa 0,0 mm 11,6 km/h (2 Bft) NW 309 ° 1 min 0,000 mm 1,5 UV-I 308 W/m² 1,8 °C 5,4 °C 14,5 km/h (3 Bft)
10.03.2017 15:26 7,5 °C 7,5 °C 68 % 1024,5 hPa 0,0 mm 10,9 km/h (2 Bft) NW 318 ° 1 min 0,000 mm 1,6 UV-I 309 W/m² 2,0 °C 5,5 °C 17,7 km/h (3 Bft)
10.03.2017 15:27 7,5 °C 7,5 °C 68 % 1024,4 hPa 0,0 mm 10,9 km/h (2 Bft) NW 307 ° 1 min 0,000 mm 1,5 UV-I 295 W/m² 2,0 °C 5,5 °C 17,7 km/h (3 Bft)
10.03.2017 15:28 7,5 °C 7,5 °C 67 % 1024,4 hPa 0,0 mm 14,7 km/h (3 Bft) NW 319 ° 1 min 0,000 mm 1,5 UV-I 287 W/m² 1,8 °C 4,9 °C 17,7 km/h (3 Bft)
10.03.2017 15:29 7,6 °C 7,6 °C 68 % 1024,4 hPa 0,0 mm 8,6 km/h (2 Bft) W-NW 285 ° 1 min 0,000 mm 1,6 UV-I 274 W/m² 2,1 °C 6,1 °C 14,5 km/h (3 Bft)
10.03.2017 15:30 7,6 °C 7,6 °C 68 % 1024,4 hPa 0,0 mm 5,4 km/h (1 Bft) W-NW 290 ° 1 min 0,000 mm 1,5 UV-I 260 W/m² 2,1 °C 6,9 °C 11,3 km/h (2 Bft)
10.03.2017 15:31 7,6 °C 7,6 °C 69 % 1024,4 hPa 0,0 mm 8,7 km/h (2 Bft) N 355 ° 1 min 0,000 mm 1,6 UV-I 334 W/m² 2,3 °C 6,0 °C 14,5 km/h (3 Bft)
10.03.2017 15:32 7,5 °C 7,6 °C 67 % 1024,4 hPa 0,0 mm 9,7 km/h (2 Bft) W-NW 302 ° 1 min 0,000 mm 1,5 UV-I 267 W/m² 1,8 °C 5,7 °C 16,1 km/h (3 Bft)
10.03.2017 15:33 7,4 °C 7,5 °C 68 % 1024,6 hPa 0,0 mm 6,4 km/h (2 Bft) W 277 ° 0 min 0,000 mm 1,3 UV-I 188 W/m² 1,9 °C 6,4 °C 11,3 km/h (2 Bft)
10.03.2017 15:34 7,4 °C 7,4 °C 67 % 1024,6 hPa 0,0 mm 6,0 km/h (2 Bft) NW 323 ° 1 min 0,000 mm 1,4 UV-I 243 W/m² 1,7 °C 6,5 °C 9,7 km/h (2 Bft)
10.03.2017 15:35 7,4 °C 7,4 °C 68 % 1024,6 hPa 0,0 mm 12,3 km/h (3 Bft) N-NW 345 ° 1 min 0,000 mm 1,3 UV-I 209 W/m² 1,9 °C 5,1 °C 19,3 km/h (3 Bft)
10.03.2017 15:36 7,3 °C 7,4 °C 68 % 1024,6 hPa 0,0 mm 5,8 km/h (2 Bft) NW 315 ° 0 min 0,000 mm 1,2 UV-I 156 W/m² 1,8 °C 6,4 °C 8,0 km/h (2 Bft)
10.03.2017 15:37 7,3 °C 7,3 °C 67 % 1024,6 hPa 0,0 mm 5,2 km/h (1 Bft) N 9 ° 0 min 0,000 mm 1,1 UV-I 116 W/m² 1,6 °C 6,6 °C 16,1 km/h (3 Bft)
10.03.2017 15:38 7,3 °C 7,3 °C 66 % 1024,6 hPa 0,0 mm 13,1 km/h (3 Bft) W-NW 294 ° 0 min 0,000 mm 1,2 UV-I 174 W/m² 1,4 °C 4,9 °C 19,3 km/h (3 Bft)
10.03.2017 15:39 7,2 °C 7,3 °C 68 % 1024,7 hPa 0,0 mm 14,2 km/h (3 Bft) NW 306 ° 1 min 0,000 mm 1,3 UV-I 221 W/m² 1,7 °C 4,6 °C 19,3 km/h (3 Bft)
10.03.2017 15:40 7,2 °C 7,2 °C 68 % 1024,7 hPa 0,0 mm 11,5 km/h (2 Bft) NW 312 ° 1 min 0,000 mm 1,3 UV-I 221 W/m² 1,7 °C 5,0 °C 16,1 km/h (3 Bft)
10.03.2017 15:41 7,2 °C 7,2 °C 66 % 1024,7 hPa 0,0 mm 8,0 km/h (2 Bft) W-NW 300 ° 0 min 0,000 mm 1,2 UV-I 121 W/m² 1,3 °C 5,7 °C 12,9 km/h (3 Bft)
10.03.2017 15:42 7,1 °C 7,2 °C 68 % 1024,7 hPa 0,0 mm 7,2 km/h (2 Bft) NW 317 ° 0 min 0,000 mm 1,2 UV-I 153 W/m² 1,6 °C 5,8 °C 11,3 km/h (2 Bft)
10.03.2017 15:43 7,1 °C 7,1 °C 68 % 1024,7 hPa 0,0 mm 5,6 km/h (1 Bft) NW 315 ° 0 min 0,000 mm 1,2 UV-I 155 W/m² 1,6 °C 6,3 °C 8,0 km/h (2 Bft)
10.03.2017 15:44 7,0 °C 7,1 °C 67 % 1024,6 hPa 0,0 mm 6,9 km/h (2 Bft) NW 323 ° 0 min 0,000 mm 1,1 UV-I 120 W/m² 1,3 °C 5,8 °C 8,0 km/h (2 Bft)
10.03.2017 15:45 7,0 °C 7,0 °C 68 % 1024,6 hPa 0,0 mm 5,2 km/h (1 Bft) NW 310 ° 0 min 0,000 mm 1,1 UV-I 141 W/m² 1,5 °C 6,3 °C 8,0 km/h (2 Bft)
10.03.2017 15:46 6,9 °C 7,0 °C 67 % 1024,6 hPa 0,0 mm 5,8 km/h (2 Bft) NW 306 ° 0 min 0,000 mm 1,1 UV-I 127 W/m² 1,2 °C 6,0 °C 11,3 km/h (2 Bft)
10.03.2017 15:47 6,9 °C 6,9 °C 68 % 1024,7 hPa 0,0 mm 15,5 km/h (3 Bft) NW 320 ° 0 min 0,000 mm 1,1 UV-I 134 W/m² 1,4 °C 4,0 °C 22,5 km/h (4 Bft)
10.03.2017 15:48 6,9 °C 6,9 °C 68 % 1024,8 hPa 0,0 mm 9,2 km/h (2 Bft) NW 317 ° 0 min 0,000 mm 1,1 UV-I 128 W/m² 1,4 °C 5,1 °C 14,5 km/h (3 Bft)
10.03.2017 15:49 6,9 °C 6,9 °C 67 % 1024,6 hPa 0,0 mm 9,5 km/h (2 Bft) NW 319 ° 0 min 0,000 mm 1,1 UV-I 125 W/m² 1,2 °C 5,0 °C 14,5 km/h (3 Bft)
10.03.2017 15:50 6,9 °C 6,9 °C 67 % 1024,7 hPa 0,0 mm 11,1 km/h (2 Bft) NW 313 ° 0 min 0,000 mm 1,1 UV-I 132 W/m² 1,2 °C 4,7 °C 17,7 km/h (3 Bft)
10.03.2017 15:51 6,9 °C 6,9 °C 67 % 1024,6 hPa 0,0 mm 9,3 km/h (2 Bft) NW 320 ° 0 min 0,000 mm 1,1 UV-I 137 W/m² 1,2 °C 5,1 °C 12,9 km/h (3 Bft)
10.03.2017 15:52 6,9 °C 6,9 °C 67 % 1024,6 hPa 0,0 mm 7,5 km/h (2 Bft) W-NW 291 ° 0 min 0,000 mm 1,1 UV-I 137 W/m² 1,2 °C 5,5 °C 12,9 km/h (3 Bft)
10.03.2017 15:53 6,9 °C 6,9 °C 67 % 1024,6 hPa 0,0 mm 9,7 km/h (2 Bft) NW 315 ° 0 min 0,000 mm 1,1 UV-I 128 W/m² 1,2 °C 5,0 °C 16,1 km/h (3 Bft)
10.03.2017 15:54 6,9 °C 6,9 °C 68 % 1024,7 hPa 0,0 mm 9,1 km/h (2 Bft) NW 316 ° 0 min 0,000 mm 1,1 UV-I 121 W/m² 1,4 °C 5,1 °C 17,7 km/h (3 Bft)
10.03.2017 15:55 6,9 °C 6,9 °C 68 % 1024,6 hPa 0,0 mm 13,3 km/h (3 Bft) W-NW 285 ° 0 min 0,000 mm 1,0 UV-I 107 W/m² 1,4 °C 4,3 °C 17,7 km/h (3 Bft)
10.03.2017 15:56 6,8 °C 6,9 °C 67 % 1024,6 hPa 0,0 mm 8,4 km/h (2 Bft) N-NW 332 ° 0 min 0,000 mm 1,0 UV-I 102 W/m² 1,1 °C 5,2 °C 12,9 km/h (3 Bft)
10.03.2017 15:57 6,8 °C 6,8 °C 68 % 1024,6 hPa 0,0 mm 10,5 km/h (2 Bft) N-NW 335 ° 0 min 0,000 mm 1,0 UV-I 97 W/m² 1,3 °C 4,7 °C 14,5 km/h (3 Bft)
10.03.2017 15:58 6,8 °C 6,8 °C 68 % 1024,6 hPa 0,0 mm 9,0 km/h (2 Bft) NW 307 ° 0 min 0,000 mm 1,0 UV-I 114 W/m² 1,3 °C 5,0 °C 14,5 km/h (3 Bft)
10.03.2017 15:59 6,7 °C 6,8 °C 67 % 1024,6 hPa 0,0 mm 11,5 km/h (2 Bft) NW 311 ° 0 min 0,000 mm 1,0 UV-I 113 W/m² 1,0 °C 4,4 °C 17,7 km/h (3 Bft)
10.03.2017 16:00 6,8 °C 6,8 °C 67 % 1024,6 hPa 0,0 mm 9,6 km/h (2 Bft) W 275 ° 0 min 0,000 mm 1,0 UV-I 116 W/m² 1,1 °C 4,9 °C 14,5 km/h (3 Bft)
10.03.2017 16:01 6,7 °C 6,8 °C 65 % 1024,6 hPa 0,0 mm 8,8 km/h (2 Bft) NW 309 ° 0 min 0,127 mm 1,0 UV-I 113 W/m² 0,6 °C 4,9 °C 14,5 km/h (3 Bft)
10.03.2017 16:02 6,7 °C 6,7 °C 67 % 1024,6 hPa 0,0 mm 7,9 km/h (2 Bft) W-NW 291 ° 0 min 0,000 mm 1,0 UV-I 114 W/m² 1,0 °C 5,2 °C 12,9 km/h (3 Bft)
10.03.2017 16:03 6,8 °C 6,8 °C 68 % 1024,6 hPa 0,0 mm 9,1 km/h (2 Bft) NW 320 ° 0 min 0,000 mm 1,0 UV-I 125 W/m² 1,3 °C 5,0 °C 12,9 km/h (3 Bft)
10.03.2017 16:04 6,8 °C 6,8 °C 66 % 1024,7 hPa 0,0 mm 12,1 km/h (2 Bft) NW 312 ° 0 min 0,000 mm 1,0 UV-I 130 W/m² 0,9 °C 4,4 °C 19,3 km/h (3 Bft)
10.03.2017 16:05 6,8 °C 6,8 °C 66 % 1024,6 hPa 0,0 mm 9,4 km/h (2 Bft) NW 317 ° 0 min 0,000 mm 1,0 UV-I 121 W/m² 0,9 °C 4,9 °C 14,5 km/h (3 Bft)
10.03.2017 16:06 6,8 °C 6,8 °C 67 % 1024,6 hPa 0,0 mm 6,1 km/h (2 Bft) N 360 ° 0 min 0,000 mm 1,0 UV-I 127 W/m² 1,1 °C 5,8 °C 9,7 km/h (2 Bft)
10.03.2017 16:07 6,9 °C 6,9 °C 68 % 1024,5 hPa 0,0 mm 9,5 km/h (2 Bft) NW 324 ° 0 min 0,000 mm 1,0 UV-I 125 W/m² 1,4 °C 5,0 °C 12,9 km/h (3 Bft)
10.03.2017 16:08 6,9 °C 6,9 °C 65 % 1024,5 hPa 0,0 mm 9,3 km/h (2 Bft) N-NW 345 ° 0 min 0,000 mm 0,9 UV-I 114 W/m² 0,8 °C 5,1 °C 16,1 km/h (3 Bft)
10.03.2017 16:09 6,9 °C 6,9 °C 65 % 1024,5 hPa 0,0 mm 10,8 km/h (2 Bft) NW 317 ° 0 min 0,000 mm 0,9 UV-I 90 W/m² 0,8 °C 4,8 °C 14,5 km/h (3 Bft)
10.03.2017 16:10 6,9 °C 6,9 °C 65 % 1024,6 hPa 0,0 mm 7,2 km/h (2 Bft) W-NW 296 ° 0 min 0,000 mm 0,9 UV-I 81 W/m² 0,8 °C 5,6 °C 12,9 km/h (3 Bft)
10.03.2017 16:11 6,9 °C 6,9 °C 66 % 1024,6 hPa 0,0 mm 9,8 km/h (2 Bft) W-NW 303 ° 0 min 0,000 mm 0,9 UV-I 91 W/m² 1,0 °C 5,0 °C 12,9 km/h (3 Bft)
10.03.2017 16:12 6,8 °C 6,9 °C 67 % 1024,6 hPa 0,0 mm 7,2 km/h (2 Bft) W-NW 288 ° 0 min 0,000 mm 0,9 UV-I 162 W/m² 1,1 °C 5,5 °C 11,3 km/h (2 Bft)
10.03.2017 16:13 6,8 °C 6,9 °C 67 % 1024,6 hPa 0,0 mm 7,7 km/h (2 Bft) W 275 ° 0 min 0,000 mm 0,9 UV-I 132 W/m² 1,1 °C 5,3 °C 12,9 km/h (3 Bft)
10.03.2017 16:14 6,8 °C 6,8 °C 65 % 1024,8 hPa 0,0 mm 8,7 km/h (2 Bft) W-NW 292 ° 0 min 0,000 mm 0,9 UV-I 121 W/m² 0,7 °C 5,1 °C 16,1 km/h (3 Bft)
10.03.2017 16:15 6,8 °C 6,8 °C 66 % 1024,6 hPa 0,0 mm 9,6 km/h (2 Bft) NW 324 ° 0 min 0,000 mm 0,8 UV-I 79 W/m² 0,9 °C 4,9 °C 14,5 km/h (3 Bft)
10.03.2017 16:16 6,8 °C 6,8 °C 66 % 1024,6 hPa 0,0 mm 6,6 km/h (2 Bft) W 275 ° 0 min 0,000 mm 0,8 UV-I 100 W/m² 0,9 °C 5,6 °C 12,9 km/h (3 Bft)
10.03.2017 16:17 6,7 °C 6,8 °C 67 % 1024,6 hPa 0,0 mm 8,7 km/h (2 Bft) N-NW 337 ° 0 min 0,000 mm 0,9 UV-I 135 W/m² 1,0 °C 5,0 °C 16,1 km/h (3 Bft)
10.03.2017 16:18 6,7 °C 6,8 °C 65 % 1024,7 hPa 0,0 mm 9,6 km/h (2 Bft) NW 309 ° 0 min 0,000 mm 0,9 UV-I 148 W/m² 0,6 °C 4,8 °C 14,5 km/h (3 Bft)
10.03.2017 16:19 6,7 °C 6,7 °C 65 % 1024,6 hPa 0,0 mm 11,0 km/h (2 Bft) NW 310 ° 0 min 0,000 mm 0,9 UV-I 160 W/m² 0,6 °C 4,5 °C 16,1 km/h (3 Bft)
10.03.2017 16:20 6,7 °C 6,7 °C 64 % 1024,7 hPa 0,0 mm 10,9 km/h (2 Bft) NW 322 ° 0 min 0,000 mm 0,8 UV-I 95 W/m² 0,4 °C 4,5 °C 14,5 km/h (3 Bft)
10.03.2017 16:21 6,7 °C 6,7 °C 64 % 1024,6 hPa 0,0 mm 9,5 km/h (2 Bft) N-NW 338 ° 0 min 0,000 mm 0,8 UV-I 76 W/m² 0,4 °C 4,8 °C 14,5 km/h (3 Bft)
10.03.2017 16:22 6,7 °C 6,7 °C 65 % 1024,7 hPa 0,0 mm 9,1 km/h (2 Bft) W-NW 299 ° 0 min 0,000 mm 0,8 UV-I 77 W/m² 0,6 °C 4,9 °C 12,9 km/h (3 Bft)
10.03.2017 16:23 6,7 °C 6,7 °C 66 % 1024,7 hPa 0,0 mm 7,4 km/h (2 Bft) NW 313 ° 0 min 0,000 mm 0,8 UV-I 107 W/m² 0,8 °C 5,3 °C 12,9 km/h (3 Bft)
10.03.2017 16:24 6,6 °C 6,7 °C 67 % 1024,7 hPa 0,0 mm 9,7 km/h (2 Bft) N-NW 333 ° 0 min 0,000 mm 0,8 UV-I 123 W/m² 0,9 °C 4,6 °C 12,9 km/h (3 Bft)
10.03.2017 16:25 6,6 °C 6,6 °C 66 % 1024,7 hPa 0,0 mm 5,0 km/h (1 Bft) NW 305 ° 0 min 0,000 mm 0,8 UV-I 114 W/m² 0,7 °C 5,9 °C 8,0 km/h (2 Bft)
10.03.2017 16:26 6,5 °C 6,6 °C 66 % 1024,6 hPa 0,0 mm 5,8 km/h (2 Bft) N-NW 327 ° 0 min 0,000 mm 0,8 UV-I 146 W/m² 0,6 °C 5,5 °C 9,7 km/h (2 Bft)
10.03.2017 16:27 6,6 °C 6,6 °C 67 % 1024,6 hPa 0,0 mm 5,2 km/h (1 Bft) N-NO 17 ° 0 min 0,000 mm 0,8 UV-I 113 W/m² 0,9 °C 5,8 °C 9,7 km/h (2 Bft)
10.03.2017 16:28 6,6 °C 6,6 °C 66 % 1024,6 hPa 0,0 mm 6,1 km/h (2 Bft) N-NO 19 ° 0 min 0,000 mm 0,8 UV-I 127 W/m² 0,7 °C 5,5 °C 12,9 km/h (3 Bft)
10.03.2017 16:29 6,6 °C 6,6 °C 67 % 1024,6 hPa 0,0 mm 7,0 km/h (2 Bft) N-NW 342 ° 0 min 0,000 mm 0,7 UV-I 97 W/m² 0,9 °C 5,3 °C 12,9 km/h (3 Bft)
10.03.2017 16:30 6,7 °C 6,7 °C 67 % 1024,7 hPa 0,0 mm 5,8 km/h (2 Bft) N-NW 348 ° 0 min 0,000 mm 0,8 UV-I 102 W/m² 1,0 °C 5,7 °C 9,7 km/h (2 Bft)
10.03.2017 16:31 6,7 °C 6,7 °C 66 % 1024,7 hPa 0,0 mm 5,8 km/h (2 Bft) N-NW 342 ° 0 min 0,000 mm 0,8 UV-I 98 W/m² 0,8 °C 5,7 °C 8,0 km/h (2 Bft)
10.03.2017 16:32 6,7 °C 6,7 °C 67 % 1024,7 hPa 0,0 mm 9,6 km/h (2 Bft) W-NW 298 ° 0 min 0,000 mm 0,7 UV-I 81 W/m² 1,0 °C 4,8 °C 16,1 km/h (3 Bft)
10.03.2017 16:33 6,7 °C 6,7 °C 66 % 1024,7 hPa 0,0 mm 8,3 km/h (2 Bft) NW 311 ° 0 min 0,000 mm 0,7 UV-I 84 W/m² 0,8 °C 5,1 °C 12,9 km/h (3 Bft)
10.03.2017 16:34 6,7 °C 6,7 °C 66 % 1024,8 hPa 0,0 mm 7,8 km/h (2 Bft) NW 306 ° 0 min 0,000 mm 0,7 UV-I 86 W/m² 0,8 °C 5,2 °C 11,3 km/h (2 Bft)
10.03.2017 16:35 6,7 °C 6,7 °C 67 % 1024,7 hPa 0,0 mm 10,1 km/h (2 Bft) W-NW 293 ° 0 min 0,000 mm 0,7 UV-I 93 W/m² 1,0 °C 4,7 °C 14,5 km/h (3 Bft)
10.03.2017 16:36 6,6 °C 6,7 °C 67 % 1024,8 hPa 0,0 mm 9,1 km/h (2 Bft) N-NO 16 ° 0 min 0,000 mm 0,7 UV-I 113 W/m² 0,9 °C 4,8 °C 14,5 km/h (3 Bft)
10.03.2017 16:37 6,6 °C 6,6 °C 67 % 1024,8 hPa 0,0 mm 7,2 km/h (2 Bft) W 265 ° 0 min 0,000 mm 0,7 UV-I 163 W/m² 0,9 °C 5,2 °C 12,9 km/h (3 Bft)
10.03.2017 16:38 6,6 °C 6,6 °C 68 % 1024,7 hPa 0,0 mm 9,1 km/h (2 Bft) W-NW 296 ° 0 min 0,000 mm 0,7 UV-I 160 W/m² 1,1 °C 4,8 °C 12,9 km/h (3 Bft)
10.03.2017 16:39 6,6 °C 6,6 °C 68 % 1024,7 hPa 0,0 mm 11,5 km/h (2 Bft) NW 326 ° 0 min 0,000 mm 0,7 UV-I 141 W/m² 1,1 °C 4,3 °C 16,1 km/h (3 Bft)
10.03.2017 16:40 6,7 °C 6,7 °C 69 % 1024,7 hPa 0,0 mm 9,2 km/h (2 Bft) N-NW 328 ° 0 min 0,000 mm 0,7 UV-I 135 W/m² 1,4 °C 4,9 °C 16,1 km/h (3 Bft)
10.03.2017 16:41 6,7 °C 6,7 °C 68 % 1024,7 hPa 0,0 mm 6,6 km/h (2 Bft) N-NW 343 ° 0 min 0,000 mm 0,7 UV-I 127 W/m² 1,2 °C 5,5 °C 12,9 km/h (3 Bft)
10.03.2017 16:42 6,7 °C 6,7 °C 68 % 1024,7 hPa 0,0 mm 6,8 km/h (2 Bft) N 355 ° 0 min 0,000 mm 0,7 UV-I 121 W/m² 1,2 °C 5,4 °C 12,9 km/h (3 Bft)
10.03.2017 16:43 6,8 °C 6,8 °C 67 % 1024,8 hPa 0,0 mm 7,5 km/h (2 Bft) NW 323 ° 0 min 0,000 mm 0,7 UV-I 121 W/m² 1,1 °C 5,4 °C 9,7 km/h (2 Bft)
10.03.2017 16:44 6,8 °C 6,8 °C 65 % 1024,8 hPa 0,0 mm 9,8 km/h (2 Bft) N-NW 327 ° 0 min 0,000 mm 0,7 UV-I 109 W/m² 0,7 °C 4,8 °C 14,5 km/h (3 Bft)
10.03.2017 16:45 6,7 °C 6,8 °C 65 % 1024,7 hPa 0,0 mm 6,7 km/h (2 Bft) W-NW 294 ° 0 min 0,000 mm 0,7 UV-I 105 W/m² 0,6 °C 5,5 °C 8,0 km/h (2 Bft)
10.03.2017 16:46 6,7 °C 6,8 °C 66 % 1024,7 hPa 0,0 mm 8,3 km/h (2 Bft) NW 304 ° 0 min 0,000 mm 0,7 UV-I 113 W/m² 0,8 °C 5,1 °C 16,1 km/h (3 Bft)
10.03.2017 16:47 6,7 °C 6,7 °C 66 % 1024,7 hPa 0,0 mm 9,1 km/h (2 Bft) W-NW 301 ° 0 min 0,000 mm 0,7 UV-I 111 W/m² 0,8 °C 4,9 °C 14,5 km/h (3 Bft)
10.03.2017 16:48 6,7 °C 6,7 °C 67 % 1024,7 hPa 0,0 mm 8,2 km/h (2 Bft) NW 305 ° 0 min 0,000 mm 0,6 UV-I 107 W/m² 1,0 °C 5,1 °C 12,9 km/h (3 Bft)
10.03.2017 16:49 6,7 °C 6,7 °C 67 % 1024,7 hPa 0,0 mm 12,5 km/h (3 Bft) NW 311 ° 0 min 0,000 mm 0,6 UV-I 105 W/m² 1,0 °C 4,2 °C 16,1 km/h (3 Bft)
10.03.2017 16:50 6,6 °C 6,7 °C 67 % 1024,7 hPa 0,0 mm 9,9 km/h (2 Bft) NW 316 ° 0 min 0,000 mm 0,6 UV-I 107 W/m² 0,9 °C 4,6 °C 12,9 km/h (3 Bft)
10.03.2017 16:51 6,6 °C 6,6 °C 67 % 1024,7 hPa 0,0 mm 5,2 km/h (1 Bft) N 355 ° 0 min 0,000 mm 0,6 UV-I 111 W/m² 0,9 °C 5,8 °C 8,0 km/h (2 Bft)
10.03.2017 16:52 6,6 °C 6,6 °C 68 % 1024,7 hPa 0,0 mm 5,4 km/h (1 Bft) N-NO 22 ° 0 min 0,000 mm 0,6 UV-I 105 W/m² 1,1 °C 5,8 °C 8,0 km/h (2 Bft)
10.03.2017 16:53 6,6 °C 6,6 °C 68 % 1024,7 hPa 0,0 mm 9,5 km/h (2 Bft) N 5 ° 0 min 0,000 mm 0,6 UV-I 100 W/m² 1,1 °C 4,7 °C 14,5 km/h (3 Bft)
10.03.2017 16:54 6,7 °C 6,7 °C 67 % 1024,7 hPa 0,0 mm 7,0 km/h (2 Bft) N-NW 333 ° 0 min 0,000 mm 0,6 UV-I 97 W/m² 1,0 °C 5,4 °C 9,7 km/h (2 Bft)
10.03.2017 16:55 6,6 °C 6,7 °C 68 % 1024,7 hPa 0,0 mm 6,0 km/h (2 Bft) NW 325 ° 0 min 0,000 mm 0,6 UV-I 95 W/m² 1,1 °C 5,6 °C 9,7 km/h (2 Bft)
10.03.2017 16:56 6,6 °C 6,7 °C 68 % 1024,7 hPa 0,0 mm 10,6 km/h (2 Bft) N-NW 338 ° 0 min 0,000 mm 0,6 UV-I 91 W/m² 1,1 °C 4,5 °C 14,5 km/h (3 Bft)
10.03.2017 16:57 6,6 °C 6,6 °C 67 % 1024,7 hPa 0,0 mm 6,0 km/h (2 Bft) N 360 ° 0 min 0,000 mm 0,5 UV-I 90 W/m² 0,9 °C 5,6 °C 12,9 km/h (3 Bft)
10.03.2017 16:58 6,5 °C 6,6 °C 67 % 1024,7 hPa 0,0 mm 5,0 km/h (1 Bft) N-NW 340 ° 0 min 0,000 mm 0,5 UV-I 90 W/m² 0,8 °C 5,8 °C 6,4 km/h (2 Bft)
10.03.2017 16:59 6,5 °C 6,5 °C 68 % 1024,8 hPa 0,0 mm 4,5 km/h (1 Bft) N-NW 342 ° 0 min 0,000 mm 0,5 UV-I 90 W/m² 1,0 °C 6,5 °C 6,4 km/h (2 Bft)
10.03.2017 17:00 6,4 °C 6,5 °C 68 % 1024,8 hPa 0,0 mm 6,1 km/h (2 Bft) N-NW 340 ° 0 min 0,077 mm 0,5 UV-I 90 W/m² 0,9 °C 5,3 °C 8,0 km/h (2 Bft)
10.03.2017 17:01 6,4 °C 6,4 °C 68 % 1024,8 hPa 0,0 mm 7,0 km/h (2 Bft) N-NW 336 ° 0 min 0,000 mm 0,5 UV-I 88 W/m² 0,9 °C 5,0 °C 9,7 km/h (2 Bft)
10.03.2017 17:02 6,4 °C 6,4 °C 68 % 1024,8 hPa 0,0 mm 7,8 km/h (2 Bft) W-NW 303 ° 0 min 0,000 mm 0,5 UV-I 84 W/m² 0,9 °C 4,8 °C 14,5 km/h (3 Bft)
10.03.2017 17:03 6,3 °C 6,4 °C 67 % 1024,8 hPa 0,0 mm 7,2 km/h (2 Bft) NW 315 ° 0 min 0,000 mm 0,5 UV-I 84 W/m² 0,6 °C 4,9 °C 9,7 km/h (2 Bft)
10.03.2017 17:04 6,4 °C 6,4 °C 68 % 1024,8 hPa 0,0 mm 5,8 km/h (2 Bft) NW 315 ° 0 min 0,000 mm 0,5 UV-I 83 W/m² 0,9 °C 5,4 °C 9,7 km/h (2 Bft)
10.03.2017 17:05 6,3 °C 6,4 °C 69 % 1024,7 hPa 0,0 mm 4,4 km/h (1 Bft) W-NW 292 ° 0 min 0,000 mm 0,5 UV-I 81 W/m² 1,0 °C 6,3 °C 6,4 km/h (2 Bft)
10.03.2017 17:06 6,3 °C 6,3 °C 68 % 1024,7 hPa 0,0 mm 9,3 km/h (2 Bft) N-NW 335 ° 0 min 0,000 mm 0,5 UV-I 79 W/m² 0,8 °C 4,4 °C 12,9 km/h (3 Bft)
10.03.2017 17:07 6,3 °C 6,3 °C 68 % 1024,8 hPa 0,0 mm 7,0 km/h (2 Bft) NW 315 ° 0 min 0,000 mm 0,5 UV-I 79 W/m² 0,8 °C 4,9 °C 11,3 km/h (2 Bft)
10.03.2017 17:08 6,3 °C 6,3 °C 68 % 1024,8 hPa 0,0 mm 5,8 km/h (2 Bft) NW 304 ° 0 min 0,000 mm 0,0 UV-I 76 W/m² 0,8 °C 5,3 °C 11,3 km/h (2 Bft)
10.03.2017 17:09 6,2 °C 6,3 °C 68 % 1024,8 hPa 0,0 mm 6,2 km/h (2 Bft) NW 320 ° 0 min 0,000 mm 0,0 UV-I 74 W/m² 0,7 °C 5,0 °C 8,0 km/h (2 Bft)
10.03.2017 17:10 6,2 °C 6,2 °C 68 % 1024,8 hPa 0,0 mm 7,6 km/h (2 Bft) N 349 ° 0 min 0,000 mm 0,0 UV-I 72 W/m² 0,7 °C 4,6 °C 12,9 km/h (3 Bft)
10.03.2017 17:11 6,2 °C 6,2 °C 68 % 1024,8 hPa 0,0 mm 6,9 km/h (2 Bft) NW 306 ° 0 min 0,000 mm 0,0 UV-I 72 W/m² 0,7 °C 4,8 °C 12,9 km/h (3 Bft)
10.03.2017 17:12 6,1 °C 6,2 °C 67 % 1024,8 hPa 0,0 mm 6,3 km/h (2 Bft) N-NW 340 ° 0 min 0,000 mm 0,0 UV-I 70 W/m² 0,4 °C 4,9 °C 8,0 km/h (2 Bft)
10.03.2017 17:13 6,1 °C 6,2 °C 68 % 1024,8 hPa 0,0 mm 6,0 km/h (2 Bft) NW 315 ° 0 min 0,000 mm 0,0 UV-I 69 W/m² 0,6 °C 5,0 °C 8,0 km/h (2 Bft)
10.03.2017 17:14 6,1 °C 6,1 °C 68 % 1024,7 hPa 0,0 mm 5,4 km/h (1 Bft) N 5 ° 0 min 0,000 mm 0,0 UV-I 65 W/m² 0,6 °C 5,2 °C 9,7 km/h (2 Bft)
10.03.2017 17:15 6,1 °C 6,1 °C 68 % 1024,8 hPa 0,0 mm 8,8 km/h (2 Bft) NW 316 ° 0 min 0,000 mm 0,0 UV-I 65 W/m² 0,6 °C 4,2 °C 12,9 km/h (3 Bft)
10.03.2017 17:16 6,1 °C 6,1 °C 68 % 1024,8 hPa 0,0 mm 8,5 km/h (2 Bft) N-NW 348 ° 0 min 0,000 mm 0,0 UV-I 63 W/m² 0,6 °C 4,3 °C 12,9 km/h (3 Bft)
10.03.2017 17:17 6,1 °C 6,1 °C 68 % 1024,8 hPa 0,0 mm 5,6 km/h (1 Bft) N 355 ° 0 min 0,000 mm 0,0 UV-I 62 W/m² 0,6 °C 5,1 °C 8,0 km/h (2 Bft)
10.03.2017 17:18 6,1 °C 6,1 °C 68 % 1024,8 hPa 0,0 mm 5,1 km/h (1 Bft) N-NW 347 ° 0 min 0,000 mm 0,0 UV-I 60 W/m² 0,6 °C 5,3 °C 8,0 km/h (2 Bft)
10.03.2017 17:19 6,1 °C 6,1 °C 68 % 1024,8 hPa 0,0 mm 6,9 km/h (2 Bft) N-NW 348 ° 0 min 0,000 mm 0,0 UV-I 58 W/m² 0,6 °C 4,7 °C 9,7 km/h (2 Bft)
10.03.2017 17:20 6,1 °C 6,1 °C 67 % 1024,8 hPa 0,0 mm 5,0 km/h (1 Bft) N 5 ° 0 min 0,000 mm 0,0 UV-I 56 W/m² 0,4 °C 5,3 °C 8,0 km/h (2 Bft)
10.03.2017 17:21 6,0 °C 6,1 °C 67 % 1024,9 hPa 0,0 mm 4,6 km/h (1 Bft) NW 323 ° 0 min 0,000 mm 0,0 UV-I 56 W/m² 0,3 °C 5,4 °C 6,4 km/h (2 Bft)
10.03.2017 17:22 6,0 °C 6,1 °C 67 % 1024,9 hPa 0,0 mm 5,6 km/h (1 Bft) W-NW 300 ° 0 min 0,000 mm 0,0 UV-I 56 W/m² 0,3 °C 5,0 °C 8,0 km/h (2 Bft)
10.03.2017 17:23 5,9 °C 6,0 °C 69 % 1024,9 hPa 0,0 mm 4,2 km/h (1 Bft) NW 320 ° 0 min 0,000 mm 0,0 UV-I 56 W/m² 0,7 °C 5,9 °C 8,0 km/h (2 Bft)
10.03.2017 17:24 5,9 °C 5,9 °C 69 % 1024,9 hPa 0,0 mm 3,9 km/h (1 Bft) N-NW 348 ° 0 min 0,000 mm 0,0 UV-I 54 W/m² 0,7 °C 5,9 °C 6,4 km/h (2 Bft)
10.03.2017 17:25 5,9 °C 5,9 °C 69 % 1024,9 hPa 0,0 mm 6,2 km/h (2 Bft) N 360 ° 0 min 0,000 mm 0,0 UV-I 54 W/m² 0,7 °C 4,7 °C 11,3 km/h (2 Bft)
10.03.2017 17:26 5,9 °C 5,9 °C 69 % 1024,9 hPa 0,0 mm 5,4 km/h (1 Bft) NW 315 ° 0 min 0,000 mm 0,0 UV-I 53 W/m² 0,7 °C 5,0 °C 12,9 km/h (3 Bft)
10.03.2017 17:27 5,9 °C 5,9 °C 68 % 1024,9 hPa 0,0 mm 4,6 km/h (1 Bft) W-NW 303 ° 0 min 0,000 mm 0,0 UV-I 51 W/m² 0,5 °C 5,3 °C 6,4 km/h (2 Bft)
10.03.2017 17:28 5,8 °C 5,9 °C 68 % 1024,9 hPa 0,0 mm 4,8 km/h (1 Bft) N 355 ° 0 min 0,000 mm 0,0 UV-I 49 W/m² 0,4 °C 5,1 °C 6,4 km/h (2 Bft)
10.03.2017 17:29 5,8 °C 5,8 °C 69 % 1024,9 hPa 0,0 mm 3,1 km/h (1 Bft) N-NW 342 ° 0 min 0,000 mm 0,0 UV-I 49 W/m² 0,6 °C 5,8 °C 6,4 km/h (2 Bft)
10.03.2017 17:30 5,8 °C 5,8 °C 69 % 1024,9 hPa 0,0 mm 4,0 km/h (1 Bft) N 351 ° 0 min 0,000 mm 0,0 UV-I 49 W/m² 0,6 °C 5,8 °C 6,4 km/h (2 Bft)
10.03.2017 17:31 5,8 °C 5,8 °C 69 % 1024,9 hPa 0,0 mm 5,7 km/h (1 Bft) W-NW 298 ° 0 min 0,000 mm 0,0 UV-I 47 W/m² 0,6 °C 4,7 °C 8,0 km/h (2 Bft)
10.03.2017 17:32 5,8 °C 5,8 °C 69 % 1024,9 hPa 0,0 mm 7,0 km/h (2 Bft) N 355 ° 0 min 0,000 mm 0,0 UV-I 46 W/m² 0,6 °C 4,3 °C 8,0 km/h (2 Bft)
10.03.2017 17:33 5,7 °C 5,8 °C 68 % 1024,9 hPa 0,0 mm 5,9 km/h (2 Bft) NW 317 ° 0 min 0,000 mm 0,0 UV-I 46 W/m² 0,3 °C 4,6 °C 9,7 km/h (2 Bft)
10.03.2017 17:34 5,7 °C 5,7 °C 68 % 1024,9 hPa 0,0 mm 4,8 km/h (1 Bft) W-NW 291 ° 0 min 0,000 mm 0,0 UV-I 44 W/m² 0,3 °C 5,0 °C 8,0 km/h (2 Bft)
10.03.2017 17:35 5,7 °C 5,7 °C 68 % 1024,9 hPa 0,0 mm 6,6 km/h (2 Bft) NW 313 ° 0 min 0,000 mm 0,0 UV-I 44 W/m² 0,3 °C 4,3 °C 11,3 km/h (2 Bft)
10.03.2017 17:36 5,6 °C 5,7 °C 68 % 1025,0 hPa 0,0 mm 3,8 km/h (1 Bft) NW 306 ° 0 min 0,000 mm 0,0 UV-I 42 W/m² 0,2 °C 5,6 °C 6,4 km/h (2 Bft)
10.03.2017 17:37 5,6 °C 5,6 °C 68 % 1024,9 hPa 0,0 mm 7,3 km/h (2 Bft) NW 304 ° 0 min 0,000 mm 0,0 UV-I 40 W/m² 0,2 °C 4,0 °C 11,3 km/h (2 Bft)
10.03.2017 17:38 5,6 °C 5,6 °C 68 % 1024,9 hPa 0,0 mm 4,5 km/h (1 Bft) W-NW 302 ° 0 min 0,000 mm 0,0 UV-I 39 W/m² 0,2 °C 5,6 °C 6,4 km/h (2 Bft)
10.03.2017 17:39 5,6 °C 5,6 °C 69 % 1025,0 hPa 0,0 mm 3,3 km/h (1 Bft) NW 322 ° 0 min 0,000 mm 0,0 UV-I 37 W/m² 0,4 °C 5,6 °C 4,8 km/h (1 Bft)
10.03.2017 17:40 5,6 °C 5,6 °C 70 % 1025,0 hPa 0,0 mm 4,1 km/h (1 Bft) O-NO 67 ° 0 min 0,000 mm 0,0 UV-I 37 W/m² 0,6 °C 5,6 °C 6,4 km/h (2 Bft)
10.03.2017 17:41 5,6 °C 5,6 °C 69 % 1025,0 hPa 0,0 mm 4,1 km/h (1 Bft) NO 52 ° 0 min 0,000 mm 0,0 UV-I 35 W/m² 0,4 °C 5,6 °C 6,4 km/h (2 Bft)
10.03.2017 17:42 5,5 °C 5,6 °C 68 % 1025,0 hPa 0,0 mm 7,0 km/h (2 Bft) N 355 ° 0 min 0,000 mm 0,0 UV-I 35 W/m² 0,1 °C 4,0 °C 8,0 km/h (2 Bft)
10.03.2017 17:43 5,5 °C 5,5 °C 69 % 1025,0 hPa 0,0 mm 4,8 km/h (1 Bft) N 350 ° 0 min 0,000 mm 0,0 UV-I 35 W/m² 0,3 °C 4,7 °C 11,3 km/h (2 Bft)
10.03.2017 17:44 5,5 °C 5,5 °C 69 % 1025,0 hPa 0,0 mm 3,8 km/h (1 Bft) N-NO 13 ° 0 min 0,000 mm 0,0 UV-I 33 W/m² 0,3 °C 5,5 °C 6,4 km/h (2 Bft)
10.03.2017 17:45 5,4 °C 5,5 °C 69 % 1025,1 hPa 0,0 mm 3,2 km/h (1 Bft) N-NO 19 ° 0 min 0,000 mm 0,0 UV-I 32 W/m² 0,2 °C 5,4 °C 6,4 km/h (2 Bft)
10.03.2017 17:46 5,3 °C 5,4 °C 69 % 1025,1 hPa 0,0 mm 1,8 km/h (1 Bft) N-NO 12 ° 0 min 0,000 mm 0,0 UV-I 32 W/m² 0,1 °C 5,3 °C 3,2 km/h (1 Bft)
10.03.2017 17:47 5,3 °C 5,3 °C 69 % 1025,1 hPa 0,0 mm 1,7 km/h (1 Bft) N-NO 12 ° 0 min 0,000 mm 0,0 UV-I 32 W/m² 0,1 °C 5,3 °C 3,2 km/h (1 Bft)
10.03.2017 17:48 5,3 °C 5,3 °C 70 % 1025,1 hPa 0,0 mm 1,7 km/h (1 Bft) N-NO 12 ° 0 min 0,000 mm 0,0 UV-I 30 W/m² 0,3 °C 5,3 °C 3,2 km/h (1 Bft)
10.03.2017 17:49 5,3 °C 5,3 °C 70 % 1025,1 hPa 0,0 mm 2,0 km/h (1 Bft) N-NO 12 ° 0 min 0,000 mm 0,0 UV-I 30 W/m² 0,3 °C 5,3 °C 3,2 km/h (1 Bft)
10.03.2017 17:50 5,3 °C 5,3 °C 70 % 1025,1 hPa 0,0 mm 0,9 km/h (0 Bft) N-NO 12 ° 0 min 0,000 mm 0,0 UV-I 28 W/m² 0,3 °C 5,3 °C 1,6 km/h (1 Bft)
10.03.2017 17:51 5,3 °C 5,3 °C 70 % 1025,1 hPa 0,0 mm 1,7 km/h (1 Bft) N-NO 12 ° 0 min 0,000 mm 0,0 UV-I 28 W/m² 0,3 °C 5,3 °C 3,2 km/h (1 Bft)
10.03.2017 17:52 5,3 °C 5,3 °C 70 % 1025,1 hPa 0,0 mm 2,4 km/h (1 Bft) N-NO 12 ° 0 min 0,000 mm 0,0 UV-I 26 W/m² 0,3 °C 5,3 °C 3,2 km/h (1 Bft)
10.03.2017 17:53 5,3 °C 5,3 °C 70 % 1025,1 hPa 0,0 mm 2,1 km/h (1 Bft) NO 34 ° 0 min 0,000 mm 0,0 UV-I 26 W/m² 0,3 °C 5,3 °C 4,8 km/h (1 Bft)
10.03.2017 17:54 5,3 °C 5,3 °C 70 % 1025,1 hPa 0,0 mm 2,8 km/h (1 Bft) NO 34 ° 0 min 0,000 mm 0,0 UV-I 25 W/m² 0,3 °C 5,3 °C 3,2 km/h (1 Bft)
10.03.2017 17:55 5,2 °C 5,3 °C 70 % 1025,1 hPa 0,0 mm 2,9 km/h (1 Bft) NO 34 ° 0 min 0,000 mm 0,0 UV-I 23 W/m² 0,2 °C 5,2 °C 4,8 km/h (1 Bft)
10.03.2017 17:56 5,2 °C 5,2 °C 70 % 1025,1 hPa 0,0 mm 2,8 km/h (1 Bft) NO 34 ° 0 min 0,000 mm 0,0 UV-I 21 W/m² 0,2 °C 5,2 °C 3,2 km/h (1 Bft)
10.03.2017 17:57 5,2 °C 5,2 °C 70 % 1025,1 hPa 0,0 mm 3,0 km/h (1 Bft) NO 34 ° 0 min 0,000 mm 0,0 UV-I 21 W/m² 0,2 °C 5,2 °C 4,8 km/h (1 Bft)
10.03.2017 17:58 5,2 °C 5,2 °C 71 % 1025,1 hPa 0,0 mm 2,0 km/h (1 Bft) NO 34 ° 0 min 0,000 mm 0,0 UV-I 19 W/m² 0,4 °C 5,2 °C 3,2 km/h (1 Bft)
10.03.2017 17:59 5,1 °C 5,2 °C 72 % 1025,1 hPa 0,0 mm 0,9 km/h (0 Bft) NO 34 ° 0 min 0,000 mm 0,0 UV-I 19 W/m² 0,5 °C 5,1 °C 3,2 km/h (1 Bft)
10.03.2017 18:00 5,0 °C 5,1 °C 72 % 1025,2 hPa 0,0 mm 3,9 km/h (1 Bft) O-NO 62 ° 0 min 0,000 mm 0,0 UV-I 18 W/m² 0,4 °C 5,0 °C 8,0 km/h (2 Bft)
10.03.2017 18:01 4,9 °C 5,0 °C 72 % 1025,2 hPa 0,0 mm 6,5 km/h (2 Bft) NO 37 ° 0 min 0,025 mm 0,0 UV-I 16 W/m² 0,3 °C 3,4 °C 11,3 km/h (2 Bft)
10.03.2017 18:02 4,9 °C 4,9 °C 71 % 1025,1 hPa 0,0 mm 5,0 km/h (1 Bft) NO 40 ° 0 min 0,000 mm 0,0 UV-I 14 W/m² 0,1 °C 4,0 °C 8,0 km/h (2 Bft)
10.03.2017 18:03 4,9 °C 4,9 °C 71 % 1025,2 hPa 0,0 mm 5,7 km/h (1 Bft) N 9 ° 0 min 0,000 mm 0,0 UV-I 14 W/m² 0,1 °C 3,7 °C 8,0 km/h (2 Bft)
10.03.2017 18:04 4,9 °C 4,9 °C 71 % 1025,2 hPa 0,0 mm 5,6 km/h (1 Bft) N-NO 15 ° 0 min 0,000 mm 0,0 UV-I 12 W/m² 0,1 °C 3,7 °C 8,0 km/h (2 Bft)
10.03.2017 18:05 4,9 °C 5,0 °C 69 % 1025,2 hPa 0,0 mm 3,1 km/h (1 Bft) N 9 ° 0 min 0,000 mm 0,0 UV-I 12 W/m² -0,3 °C 4,9 °C 6,4 km/h (2 Bft)
10.03.2017 18:06 5,0 °C 5,0 °C 69 % 1025,2 hPa 0,0 mm 3,4 km/h (1 Bft) N-NO 17 ° 0 min 0,000 mm 0,0 UV-I 11 W/m² -0,2 °C 5,0 °C 6,4 km/h (2 Bft)
10.03.2017 18:07 5,0 °C 5,1 °C 70 % 1025,2 hPa 0,0 mm 3,1 km/h (1 Bft) NO 48 ° 0 min 0,000 mm 0,0 UV-I 9 W/m² -0,0 °C 5,0 °C 3,2 km/h (1 Bft)
10.03.2017 18:08 5,0 °C 5,1 °C 70 % 1025,2 hPa 0,0 mm 3,2 km/h (1 Bft) NO 48 ° 0 min 0,000 mm 0,0 UV-I 9 W/m² -0,0 °C 5,0 °C 4,8 km/h (1 Bft)
10.03.2017 18:09 5,0 °C 5,0 °C 70 % 1025,2 hPa 0,0 mm 2,1 km/h (1 Bft) NO 48 ° 0 min 0,000 mm 0,0 UV-I 7 W/m² -0,0 °C 5,0 °C 3,2 km/h (1 Bft)
10.03.2017 18:10 5,0 °C 5,0 °C 70 % 1025,2 hPa 0,0 mm 2,0 km/h (1 Bft) NO 48 ° 0 min 0,000 mm 0,0 UV-I 7 W/m² -0,0 °C 5,0 °C 3,2 km/h (1 Bft)
10.03.2017 18:11 4,9 °C 5,0 °C 70 % 1025,2 hPa 0,0 mm 2,2 km/h (1 Bft) NO 48 ° 0 min 0,000 mm 0,0 UV-I 5 W/m² -0,1 °C 4,9 °C 3,2 km/h (1 Bft)
10.03.2017 18:12 4,9 °C 4,9 °C 70 % 1025,2 hPa 0,0 mm 2,1 km/h (1 Bft) NO 48 ° 0 min 0,000 mm 0,0 UV-I 5 W/m² -0,1 °C 4,9 °C 3,2 km/h (1 Bft)
10.03.2017 18:13 4,8 °C 4,9 °C 70 % 1025,3 hPa 0,0 mm 1,1 km/h (1 Bft) NO 48 ° 0 min 0,000 mm 0,0 UV-I 5 W/m² -0,2 °C 4,8 °C 1,6 km/h (1 Bft)
10.03.2017 18:14 4,8 °C 4,8 °C 70 % 1025,2 hPa 0,0 mm 2,0 km/h (1 Bft) NO 48 ° 0 min 0,000 mm 0,0 UV-I 0 W/m² -0,2 °C 4,8 °C 3,2 km/h (1 Bft)
10.03.2017 18:15 4,8 °C 4,8 °C 70 % 1025,2 hPa 0,0 mm 2,1 km/h (1 Bft) NO 51 ° 0 min 0,000 mm 0,0 UV-I 0 W/m² -0,2 °C 4,8 °C 3,2 km/h (1 Bft)
10.03.2017 18:16 4,7 °C 4,8 °C 70 % 1025,2 hPa 0,0 mm 1,9 km/h (1 Bft) NO 51 ° 0 min 0,000 mm 0,0 UV-I 0 W/m² -0,3 °C 4,7 °C 3,2 km/h (1 Bft)
10.03.2017 18:17 4,7 °C 4,7 °C 71 % 1025,3 hPa 0,0 mm 0,3 km/h (0 Bft) NO 51 ° 0 min 0,000 mm 0,0 UV-I 0 W/m² -0,1 °C 4,7 °C 1,6 km/h (1 Bft)
10.03.2017 18:18 4,6 °C 4,7 °C 70 % 1025,3 hPa 0,0 mm 0,0 km/h (0 Bft) NO 51 ° 0 min 0,000 mm 0,0 UV-I 0 W/m² -0,4 °C 4,6 °C 0,0 km/h (0 Bft)
10.03.2017 18:19 4,6 °C 4,6 °C 71 % 1025,2 hPa 0,0 mm 0,9 km/h (0 Bft) NO 51 ° 0 min 0,000 mm 0,0 UV-I 0 W/m² -0,2 °C 4,6 °C 1,6 km/h (1 Bft)
10.03.2017 18:20 4,5 °C 4,6 °C 71 % 1025,3 hPa 0,0 mm 0,1 km/h (0 Bft) NO 51 ° 0 min 0,000 mm 0,0 UV-I 0 W/m² -0,3 °C 4,5 °C 1,6 km/h (1 Bft)
10.03.2017 18:21 4,4 °C 4,5 °C 72 % 1025,3 hPa 0,0 mm 0,3 km/h (0 Bft) NO 51 ° 0 min 0,000 mm 0,0 UV-I 0 W/m² -0,2 °C 4,4 °C 1,6 km/h (1 Bft)
10.03.2017 18:22 4,3 °C 4,4 °C 72 % 1025,3 hPa 0,0 mm 1,6 km/h (1 Bft) NO 51 ° 0 min 0,000 mm 0,0 UV-I 0 W/m² -0,3 °C 4,3 °C 1,6 km/h (1 Bft)
10.03.2017 18:23 4,3 °C 4,3 °C 72 % 1025,3 hPa 0,0 mm 2,1 km/h (1 Bft) NO 51 ° 0 min 0,000 mm 0,0 UV-I 0 W/m² -0,3 °C 4,3 °C 3,2 km/h (1 Bft)
10.03.2017 18:24 4,3 °C 4,3 °C 73 % 1025,2 hPa 0,0 mm 1,9 km/h (1 Bft) NO 51 ° 0 min 0,000 mm 0,0 UV-I 0 W/m² -0,1 °C 4,3 °C 3,2 km/h (1 Bft)
10.03.2017 18:25 4,2 °C 4,3 °C 73 % 1025,3 hPa 0,0 mm 1,3 km/h (1 Bft) NO 51 ° 0 min 0,000 mm 0,0 UV-I 0 W/m² -0,2 °C 4,2 °C 3,2 km/h (1 Bft)
10.03.2017 18:26 4,2 °C 4,2 °C 73 % 1025,3 hPa 0,0 mm 1,6 km/h (1 Bft) NO 51 ° 0 min 0,000 mm 0,0 UV-I 0 W/m² -0,2 °C 4,2 °C 3,2 km/h (1 Bft)
10.03.2017 18:27 4,2 °C 4,2 °C 73 % 1025,3 hPa 0,0 mm 1,0 km/h (0 Bft) NO 51 ° 0 min 0,000 mm 0,0 UV-I 0 W/m² -0,2 °C 4,2 °C 1,6 km/h (1 Bft)
10.03.2017 18:28 4,2 °C 4,2 °C 73 % 1025,3 hPa 0,0 mm 1,0 km/h (0 Bft) NO 51 ° 0 min 0,000 mm 0,0 UV-I 0 W/m² -0,2 °C 4,2 °C 1,6 km/h (1 Bft)
10.03.2017 18:29 4,2 °C 4,2 °C 72 % 1025,4 hPa 0,0 mm 1,1 km/h (1 Bft) NO 51 ° 0 min 0,000 mm 0,0 UV-I 0 W/m² -0,4 °C 4,2 °C 1,6 km/h (1 Bft)
10.03.2017 18:30 4,3 °C 4,3 °C 72 % 1025,3 hPa 0,0 mm 1,5 km/h (1 Bft) NO 51 ° 0 min 0,000 mm 0,0 UV-I 0 W/m² -0,3 °C 4,3 °C 3,2 km/h (1 Bft)
10.03.2017 18:31 4,3 °C 4,3 °C 72 % 1025,4 hPa 0,0 mm 1,0 km/h (0 Bft) NO 51 ° 0 min 0,000 mm 0,0 UV-I 0 W/m² -0,3 °C 4,3 °C 1,6 km/h (1 Bft)
10.03.2017 18:32 4,1 °C 4,3 °C 73 % 1025,4 hPa 0,0 mm 1,2 km/h (1 Bft) NO 51 ° 0 min 0,000 mm 0,0 UV-I 0 W/m² -0,3 °C 4,1 °C 1,6 km/h (1 Bft)
10.03.2017 18:33 3,9 °C 4,1 °C 74 % 1025,4 hPa 0,0 mm 1,6 km/h (1 Bft) NO 51 ° 0 min 0,000 mm 0,0 UV-I 0 W/m² -0,3 °C 3,9 °C 3,2 km/h (1 Bft)
10.03.2017 18:34 3,8 °C 3,9 °C 74 % 1025,4 hPa 0,0 mm 2,0 km/h (1 Bft) NO 51 ° 0 min 0,000 mm 0,0 UV-I 0 W/m² -0,4 °C 3,8 °C 3,2 km/h (1 Bft)
10.03.2017 18:35 3,7 °C 3,8 °C 77 % 1025,5 hPa 0,0 mm 4,2 km/h (1 Bft) O-NO 67 ° 0 min 0,000 mm 0,0 UV-I 0 W/m² 0,1 °C 3,7 °C 4,8 km/h (1 Bft)
10.03.2017 18:36 3,6 °C 3,7 °C 78 % 1025,5 hPa 0,0 mm 3,4 km/h (1 Bft) O 89 ° 0 min 0,000 mm 0,0 UV-I 0 W/m² 0,1 °C 3,6 °C 4,8 km/h (1 Bft)
10.03.2017 18:37 3,6 °C 3,6 °C 77 % 1025,4 hPa 0,0 mm 3,4 km/h (1 Bft) O 89 ° 0 min 0,000 mm 0,0 UV-I 0 W/m² -0,0 °C 3,6 °C 4,8 km/h (1 Bft)
10.03.2017 18:38 3,6 °C 3,6 °C 77 % 1025,4 hPa 0,0 mm 3,9 km/h (1 Bft) O 101 ° 0 min 0,000 mm 0,0 UV-I 0 W/m² -0,0 °C 3,6 °C 4,8 km/h (1 Bft)
10.03.2017 18:39 3,6 °C 3,6 °C 77 % 1025,4 hPa 0,0 mm 3,7 km/h (1 Bft) O 101 ° 0 min 0,000 mm 0,0 UV-I 0 W/m² -0,0 °C 3,6 °C 4,8 km/h (1 Bft)
10.03.2017 18:40 3,5 °C 3,6 °C 78 % 1025,5 hPa 0,0 mm 3,1 km/h (1 Bft) O 101 ° 0 min 0,000 mm 0,0 UV-I 0 W/m² 0,0 °C 3,5 °C 4,8 km/h (1 Bft)
10.03.2017 18:41 3,4 °C 3,5 °C 79 % 1025,5 hPa 0,0 mm 3,2 km/h (1 Bft) O 101 ° 0 min 0,000 mm 0,0 UV-I 0 W/m² 0,1 °C 3,4 °C 4,8 km/h (1 Bft)
10.03.2017 18:42 3,3 °C 3,4 °C 79 % 1025,5 hPa 0,0 mm 2,6 km/h (1 Bft) O 101 ° 0 min 0,000 mm 0,0 UV-I 0 W/m² 0,0 °C 3,3 °C 3,2 km/h (1 Bft)
10.03.2017 18:43 3,3 °C 3,3 °C 80 % 1025,5 hPa 0,0 mm 2,4 km/h (1 Bft) O 101 ° 0 min 0,000 mm 0,0 UV-I 0 W/m² 0,2 °C 3,3 °C 3,2 km/h (1 Bft)
10.03.2017 18:44 3,2 °C 3,3 °C 79 % 1025,6 hPa 0,0 mm 1,7 km/h (1 Bft) O 101 ° 0 min 0,000 mm 0,0 UV-I 0 W/m² -0,1 °C 3,2 °C 3,2 km/h (1 Bft)
10.03.2017 18:45 3,2 °C 3,2 °C 79 % 1025,5 hPa 0,0 mm 2,0 km/h (1 Bft) O 101 ° 0 min 0,000 mm 0,0 UV-I 0 W/m² -0,1 °C 3,2 °C 3,2 km/h (1 Bft)
10.03.2017 18:46 3,1 °C 3,2 °C 79 % 1025,5 hPa 0,0 mm 1,6 km/h (1 Bft) O 101 ° 0 min 0,000 mm 0,0 UV-I 0 W/m² -0,2 °C 3,1 °C 3,2 km/h (1 Bft)
10.03.2017 18:47 3,1 °C 3,1 °C 79 % 1025,5 hPa 0,0 mm 1,5 km/h (1 Bft) O 101 ° 0 min 0,000 mm 0,0 UV-I 0 W/m² -0,2 °C 3,1 °C 3,2 km/h (1 Bft)
10.03.2017 18:48 3,0 °C 3,1 °C 79 % 1025,5 hPa 0,0 mm 1,6 km/h (1 Bft) O 101 ° 0 min 0,000 mm 0,0 UV-I 0 W/m² -0,3 °C 3,0 °C 3,2 km/h (1 Bft)
10.03.2017 18:49 2,9 °C 3,0 °C 79 % 1025,6 hPa 0,0 mm 2,1 km/h (1 Bft) O 101 ° 0 min 0,000 mm 0,0 UV-I 0 W/m² -0,4 °C 2,9 °C 3,2 km/h (1 Bft)
10.03.2017 18:50 2,9 °C 2,9 °C 80 % 1025,6 hPa 0,0 mm 2,3 km/h (1 Bft) O 101 ° 0 min 0,000 mm 0,0 UV-I 0 W/m² -0,2 °C 2,9 °C 3,2 km/h (1 Bft)
10.03.2017 18:51 2,9 °C 2,9 °C 79 % 1025,6 hPa 0,0 mm 2,5 km/h (1 Bft) O 101 ° 0 min 0,000 mm 0,0 UV-I 0 W/m² -0,4 °C 2,9 °C 3,2 km/h (1 Bft)
10.03.2017 18:52 2,9 °C 2,9 °C 80 % 1025,7 hPa 0,0 mm 3,2 km/h (1 Bft) O 101 ° 0 min 0,000 mm 0,0 UV-I 0 W/m² -0,2 °C 2,9 °C 4,8 km/h (1 Bft)
10.03.2017 18:53 2,9 °C 2,9 °C 80 % 1025,6 hPa 0,0 mm 1,8 km/h (1 Bft) O 101 ° 0 min 0,000 mm 0,0 UV-I 0 W/m² -0,2 °C 2,9 °C 3,2 km/h (1 Bft)
10.03.2017 18:54 2,9 °C 2,9 °C 80 % 1025,7 hPa 0,0 mm 2,7 km/h (1 Bft) O 101 ° 0 min 0,000 mm 0,0 UV-I 0 W/m² -0,2 °C 2,9 °C 4,8 km/h (1 Bft)
10.03.2017 18:55 2,8 °C 2,9 °C 80 % 1025,7 hPa 0,0 mm 3,0 km/h (1 Bft) O 101 ° 0 min 0,000 mm 0,0 UV-I 0 W/m² -0,3 °C 2,8 °C 4,8 km/h (1 Bft)
10.03.2017 18:56 2,8 °C 2,9 °C 80 % 1025,7 hPa 0,0 mm 2,5 km/h (1 Bft) O 101 ° 0 min 0,000 mm 0,0 UV-I 0 W/m² -0,3 °C 2,8 °C 3,2 km/h (1 Bft)
10.03.2017 18:57 2,8 °C 2,8 °C 80 % 1025,7 hPa 0,0 mm 2,2 km/h (1 Bft) O 101 ° 0 min 0,000 mm 0,0 UV-I 0 W/m² -0,3 °C 2,8 °C 4,8 km/h (1 Bft)
10.03.2017 18:58 2,9 °C 2,9 °C 79 % 1025,7 hPa 0,0 mm 2,1 km/h (1 Bft) O 101 ° 0 min 0,000 mm 0,0 UV-I 0 W/m² -0,4 °C 2,9 °C 4,8 km/h (1 Bft)
10.03.2017 18:59 2,8 °C 2,9 °C 80 % 1025,7 hPa 0,0 mm 2,4 km/h (1 Bft) O 101 ° 0 min 0,000 mm 0,0 UV-I 0 W/m² -0,3 °C 2,8 °C 3,2 km/h (1 Bft)
10.03.2017 19:00 2,8 °C 2,8 °C 80 % 1025,7 hPa 0,0 mm 2,5 km/h (1 Bft) O 101 ° 0 min 0,000 mm 0,0 UV-I 0 W/m² -0,3 °C 2,8 °C 3,2 km/h (1 Bft)
10.03.2017 19:01 2,8 °C 2,8 °C 80 % 1025,7 hPa 0,0 mm 1,7 km/h (1 Bft) O 101 ° 0 min 0,000 mm 0,0 UV-I 0 W/m² -0,3 °C 2,8 °C 3,2 km/h (1 Bft)
10.03.2017 19:02 2,8 °C 2,8 °C 80 % 1025,7 hPa 0,0 mm 2,8 km/h (1 Bft) O 101 ° 0 min 0,000 mm 0,0 UV-I 0 W/m² -0,3 °C 2,8 °C 3,2 km/h (1 Bft)
10.03.2017 19:03 2,8 °C 2,8 °C 80 % 1025,7 hPa 0,0 mm 1,5 km/h (1 Bft) O 101 ° 0 min 0,000 mm 0,0 UV-I 0 W/m² -0,3 °C 2,8 °C 1,6 km/h (1 Bft)
10.03.2017 19:04 2,7 °C 2,8 °C 81 % 1025,7 hPa 0,0 mm 2,2 km/h (1 Bft) O 101 ° 0 min 0,000 mm 0,0 UV-I 0 W/m² -0,2 °C 2,7 °C 3,2 km/h (1 Bft)
10.03.2017 19:05 2,7 °C 2,7 °C 80 % 1025,7 hPa 0,0 mm 2,1 km/h (1 Bft) O 101 ° 0 min 0,000 mm 0,0 UV-I 0 W/m² -0,4 °C 2,7 °C 3,2 km/h (1 Bft)
10.03.2017 19:06 2,6 °C 2,7 °C 80 % 1025,7 hPa 0,0 mm 1,7 km/h (1 Bft) O 101 ° 0 min 0,000 mm 0,0 UV-I 0 W/m² -0,5 °C 2,6 °C 3,2 km/h (1 Bft)
10.03.2017 19:07 2,7 °C 2,7 °C 80 % 1025,8 hPa 0,0 mm 3,0 km/h (1 Bft) O 101 ° 0 min 0,000 mm 0,0 UV-I 0 W/m² -0,4 °C 2,7 °C 3,2 km/h (1 Bft)
10.03.2017 19:08 2,6 °C 2,7 °C 81 % 1025,8 hPa 0,0 mm 1,3 km/h (1 Bft) O 101 ° 0 min 0,000 mm 0,0 UV-I 0 W/m² -0,3 °C 2,6 °C 1,6 km/h (1 Bft)
10.03.2017 19:09 2,6 °C 2,6 °C 81 % 1025,8 hPa 0,0 mm 1,8 km/h (1 Bft) O 101 ° 0 min 0,000 mm 0,0 UV-I 0 W/m² -0,3 °C 2,6 °C 3,2 km/h (1 Bft)
10.03.2017 19:10 2,6 °C 2,6 °C 81 % 1025,8 hPa 0,0 mm 1,9 km/h (1 Bft) O 101 ° 0 min 0,000 mm 0,0 UV-I 0 W/m² -0,3 °C 2,6 °C 3,2 km/h (1 Bft)
10.03.2017 19:11 2,6 °C 2,6 °C 81 % 1025,8 hPa 0,0 mm 2,7 km/h (1 Bft) O 101 ° 0 min 0,000 mm 0,0 UV-I 0 W/m² -0,3 °C 2,6 °C 3,2 km/h (1 Bft)
10.03.2017 19:12 2,6 °C 2,6 °C 81 % 1025,8 hPa 0,0 mm 2,7 km/h (1 Bft) O 101 ° 0 min 0,000 mm 0,0 UV-I 0 W/m² -0,3 °C 2,6 °C 4,8 km/h (1 Bft)
10.03.2017 19:13 2,6 °C 2,6 °C 80 % 1025,8 hPa 0,0 mm 1,7 km/h (1 Bft) O 101 ° 0 min 0,000 mm 0,0 UV-I 0 W/m² -0,5 °C 2,6 °C 3,2 km/h (1 Bft)
10.03.2017 19:14 2,6 °C 2,6 °C 80 % 1025,7 hPa 0,0 mm 3,2 km/h (1 Bft) O 101 ° 0 min 0,000 mm 0,0 UV-I 0 W/m² -0,5 °C 2,6 °C 4,8 km/h (1 Bft)
10.03.2017 19:15 2,6 °C 2,6 °C 80 % 1025,7 hPa 0,0 mm 2,5 km/h (1 Bft) O 101 ° 0 min 0,000 mm 0,0 UV-I 0 W/m² -0,5 °C 2,6 °C 3,2 km/h (1 Bft)
10.03.2017 19:16 2,6 °C 2,6 °C 80 % 1025,7 hPa 0,0 mm 1,6 km/h (1 Bft) O 101 ° 0 min 0,000 mm 0,0 UV-I 0 W/m² -0,5 °C 2,6 °C 3,2 km/h (1 Bft)
10.03.2017 19:17 2,6 °C 2,6 °C 80 % 1025,7 hPa 0,0 mm 3,0 km/h (1 Bft) O 101 ° 0 min 0,000 mm 0,0 UV-I 0 W/m² -0,5 °C 2,6 °C 3,2 km/h (1 Bft)
10.03.2017 19:18 2,6 °C 2,6 °C 80 % 1025,7 hPa 0,0 mm 2,5 km/h (1 Bft) O 101 ° 0 min 0,000 mm 0,0 UV-I 0 W/m² -0,5 °C 2,6 °C 3,2 km/h (1 Bft)
10.03.2017 19:19 2,5 °C 2,6 °C 80 % 1025,8 hPa 0,0 mm 2,2 km/h (1 Bft) O 101 ° 0 min 0,000 mm 0,0 UV-I 0 W/m² -0,6 °C 2,5 °C 4,8 km/h (1 Bft)
10.03.2017 19:20 2,6 °C 2,6 °C 80 % 1025,8 hPa 0,0 mm 1,7 km/h (1 Bft) O 101 ° 0 min 0,000 mm 0,0 UV-I 0 W/m² -0,5 °C 2,6 °C 3,2 km/h (1 Bft)
10.03.2017 19:21 2,5 °C 2,6 °C 79 % 1025,8 hPa 0,0 mm 2,7 km/h (1 Bft) O 101 ° 0 min 0,000 mm 0,0 UV-I 0 W/m² -0,8 °C 2,5 °C 3,2 km/h (1 Bft)
10.03.2017 19:22 2,5 °C 2,6 °C 80 % 1025,8 hPa 0,0 mm 3,2 km/h (1 Bft) O 101 ° 0 min 0,000 mm 0,0 UV-I 0 W/m² -0,6 °C 2,5 °C 4,8 km/h (1 Bft)
10.03.2017 19:23 2,4 °C 2,5 °C 80 % 1025,9 hPa 0,0 mm 1,7 km/h (1 Bft) O 101 ° 0 min 0,000 mm 0,0 UV-I 0 W/m² -0,7 °C 2,4 °C 3,2 km/h (1 Bft)
10.03.2017 19:24 2,4 °C 2,4 °C 80 % 1025,9 hPa 0,0 mm 2,0 km/h (1 Bft) O 101 ° 0 min 0,000 mm 0,0 UV-I 0 W/m² -0,7 °C 2,4 °C 3,2 km/h (1 Bft)
10.03.2017 19:25 2,4 °C 2,4 °C 80 % 1025,9 hPa 0,0 mm 2,0 km/h (1 Bft) O 101 ° 0 min 0,000 mm 0,0 UV-I 0 W/m² -0,7 °C 2,4 °C 3,2 km/h (1 Bft)
10.03.2017 19:26 2,4 °C 2,4 °C 80 % 1025,9 hPa 0,0 mm 3,8 km/h (1 Bft) O 101 ° 0 min 0,000 mm 0,0 UV-I 0 W/m² -0,7 °C 2,4 °C 4,8 km/h (1 Bft)
10.03.2017 19:27 2,3 °C 2,4 °C 80 % 1025,9 hPa 0,0 mm 2,7 km/h (1 Bft) O 101 ° 0 min 0,000 mm 0,0 UV-I 0 W/m² -0,8 °C 2,3 °C 4,8 km/h (1 Bft)
10.03.2017 19:28 2,3 °C 2,3 °C 80 % 1025,9 hPa 0,0 mm 1,0 km/h (0 Bft) O 101 ° 0 min 0,000 mm 0,0 UV-I 0 W/m² -0,8 °C 2,3 °C 3,2 km/h (1 Bft)
10.03.2017 19:29 2,3 °C 2,3 °C 80 % 1025,9 hPa 0,0 mm 1,5 km/h (1 Bft) O 101 ° 0 min 0,000 mm 0,0 UV-I 0 W/m² -0,8 °C 2,3 °C 3,2 km/h (1 Bft)
10.03.2017 19:30 2,3 °C 2,3 °C 80 % 1025,9 hPa 0,0 mm 2,1 km/h (1 Bft) O 101 ° 0 min 0,000 mm 0,0 UV-I 0 W/m² -0,8 °C 2,3 °C 3,2 km/h (1 Bft)
10.03.2017 19:31 2,3 °C 2,3 °C 79 % 1026,0 hPa 0,0 mm 2,4 km/h (1 Bft) O 101 ° 0 min 0,000 mm 0,0 UV-I 0 W/m² -1,0 °C 2,3 °C 3,2 km/h (1 Bft)
10.03.2017 19:32 2,3 °C 2,3 °C 80 % 1026,0 hPa 0,0 mm 1,9 km/h (1 Bft) O 101 ° 0 min 0,000 mm 0,0 UV-I 0 W/m² -0,8 °C 2,3 °C 3,2 km/h (1 Bft)
10.03.2017 19:33 2,3 °C 2,3 °C 79 % 1025,9 hPa 0,0 mm 1,2 km/h (1 Bft) O 101 ° 0 min 0,000 mm 0,0 UV-I 0 W/m² -1,0 °C 2,3 °C 3,2 km/h (1 Bft)
10.03.2017 19:34 2,3 °C 2,3 °C 79 % 1025,9 hPa 0,0 mm 1,5 km/h (1 Bft) O 101 ° 0 min 0,000 mm 0,0 UV-I 0 W/m² -1,0 °C 2,3 °C 3,2 km/h (1 Bft)
10.03.2017 19:35 2,3 °C 2,3 °C 79 % 1026,0 hPa 0,0 mm 1,1 km/h (1 Bft) O 101 ° 0 min 0,000 mm 0,0 UV-I 0 W/m² -1,0 °C 2,3 °C 1,6 km/h (1 Bft)
10.03.2017 19:36 2,3 °C 2,3 °C 80 % 1026,0 hPa 0,0 mm 1,1 km/h (1 Bft) O 101 ° 0 min 0,000 mm 0,0 UV-I 0 W/m² -0,8 °C 2,3 °C 3,2 km/h (1 Bft)
10.03.2017 19:37 2,3 °C 2,3 °C 79 % 1026,0 hPa 0,0 mm 0,5 km/h (0 Bft) O 101 ° 0 min 0,000 mm 0,0 UV-I 0 W/m² -1,0 °C 2,3 °C 1,6 km/h (1 Bft)
10.03.2017 19:38 2,3 °C 2,3 °C 79 % 1026,0 hPa 0,0 mm 0,3 km/h (0 Bft) O 101 ° 0 min 0,000 mm 0,0 UV-I 0 W/m² -1,0 °C 2,3 °C 1,6 km/h (1 Bft)
10.03.2017 19:39 2,3 °C 2,3 °C 80 % 1026,0 hPa 0,0 mm 0,1 km/h (0 Bft) O 101 ° 0 min 0,000 mm 0,0 UV-I 0 W/m² -0,8 °C 2,3 °C 1,6 km/h (1 Bft)
10.03.2017 19:40 2,2 °C 2,3 °C 80 % 1026,0 hPa 0,0 mm 0,0 km/h (0 Bft) O 101 ° 0 min 0,000 mm 0,0 UV-I 0 W/m² -0,9 °C 2,2 °C 0,0 km/h (0 Bft)
10.03.2017 19:41 2,1 °C 2,2 °C 80 % 1026,0 hPa 0,0 mm 0,0 km/h (0 Bft) O 101 ° 0 min 0,000 mm 0,0 UV-I 0 W/m² -1,0 °C 2,1 °C 0,0 km/h (0 Bft)
10.03.2017 19:42 1,9 °C 2,1 °C 81 % 1026,0 hPa 0,0 mm 0,0 km/h (0 Bft) O 101 ° 0 min 0,000 mm 0,0 UV-I 0 W/m² -1,0 °C 1,9 °C 0,0 km/h (0 Bft)
10.03.2017 19:43 1,7 °C 1,9 °C 82 % 1026,0 hPa 0,0 mm 0,0 km/h (0 Bft) O 101 ° 0 min 0,000 mm 0,0 UV-I 0 W/m² -1,0 °C 1,7 °C 0,0 km/h (0 Bft)
10.03.2017 19:44 1,6 °C 1,7 °C 83 % 1026,0 hPa 0,0 mm 0,0 km/h (0 Bft) O 101 ° 0 min 0,000 mm 0,0 UV-I 0 W/m² -1,0 °C 1,6 °C 0,0 km/h (0 Bft)
10.03.2017 19:45 1,6 °C 1,6 °C 83 % 1026,1 hPa 0,0 mm 0,0 km/h (0 Bft) O 101 ° 0 min 0,000 mm 0,0 UV-I 0 W/m² -1,0 °C 1,6 °C 0,0 km/h (0 Bft)
10.03.2017 19:46 1,4 °C 1,6 °C 83 % 1026,1 hPa 0,0 mm 0,0 km/h (0 Bft) O 101 ° 0 min 0,000 mm 0,0 UV-I 0 W/m² -1,2 °C 1,4 °C 0,0 km/h (0 Bft)
10.03.2017 19:47 1,4 °C 1,5 °C 84 % 1026,0 hPa 0,0 mm 0,0 km/h (0 Bft) O 101 ° 0 min 0,000 mm 0,0 UV-I 0 W/m² -1,0 °C 1,4 °C 0,0 km/h (0 Bft)
10.03.2017 19:48 1,4 °C 1,4 °C 84 % 1026,1 hPa 0,0 mm 0,0 km/h (0 Bft) O 101 ° 0 min 0,000 mm 0,0 UV-I 0 W/m² -1,0 °C 1,4 °C 0,0 km/h (0 Bft)
10.03.2017 19:49 1,4 °C 1,4 °C 84 % 1026,1 hPa 0,0 mm 0,0 km/h (0 Bft) O 101 ° 0 min 0,000 mm 0,0 UV-I 0 W/m² -1,0 °C 1,4 °C 0,0 km/h (0 Bft)
10.03.2017 19:50 1,4 °C 1,4 °C 83 % 1026,1 hPa 0,0 mm 0,0 km/h (0 Bft) O 101 ° 0 min 0,000 mm 0,0 UV-I 0 W/m² -1,2 °C 1,4 °C 0,0 km/h (0 Bft)
10.03.2017 19:51 1,6 °C 1,6 °C 83 % 1026,1 hPa 0,0 mm 0,0 km/h (0 Bft) O 101 ° 0 min 0,000 mm 0,0 UV-I 0 W/m² -1,0 °C 1,6 °C 0,0 km/h (0 Bft)
10.03.2017 19:52 1,6 °C 1,6 °C 82 % 1026,1 hPa 0,0 mm 0,0 km/h (0 Bft) O 101 ° 0 min 0,000 mm 0,0 UV-I 0 W/m² -1,1 °C 1,6 °C 0,0 km/h (0 Bft)
10.03.2017 19:53 1,7 °C 1,7 °C 82 % 1026,1 hPa 0,0 mm 0,1 km/h (0 Bft) O 101 ° 0 min 0,000 mm 0,0 UV-I 0 W/m² -1,0 °C 1,7 °C 1,6 km/h (1 Bft)
10.03.2017 19:54 1,7 °C 1,7 °C 82 % 1026,2 hPa 0,0 mm 0,8 km/h (0 Bft) O 101 ° 0 min 0,000 mm 0,0 UV-I 0 W/m² -1,0 °C 1,7 °C 1,6 km/h (1 Bft)
10.03.2017 19:55 1,7 °C 1,7 °C 82 % 1026,2 hPa 0,0 mm 0,1 km/h (0 Bft) O 101 ° 0 min 0,000 mm 0,0 UV-I 0 W/m² -1,0 °C 1,7 °C 1,6 km/h (1 Bft)
10.03.2017 19:56 1,6 °C 1,7 °C 82 % 1026,2 hPa 0,0 mm 0,0 km/h (0 Bft) O 101 ° 0 min 0,000 mm 0,0 UV-I 0 W/m² -1,1 °C 1,6 °C 0,0 km/h (0 Bft)
10.03.2017 19:57 1,5 °C 1,6 °C 82 % 1026,2 hPa 0,0 mm 0,0 km/h (0 Bft) O 101 ° 0 min 0,000 mm 0,0 UV-I 0 W/m² -1,2 °C 1,5 °C 0,0 km/h (0 Bft)
10.03.2017 19:58 1,4 °C 1,5 °C 83 % 1026,2 hPa 0,0 mm 0,0 km/h (0 Bft) O 101 ° 0 min 0,000 mm 0,0 UV-I 0 W/m² -1,2 °C 1,4 °C 0,0 km/h (0 Bft)
10.03.2017 19:59 1,4 °C 1,4 °C 83 % 1026,2 hPa 0,0 mm 0,0 km/h (0 Bft) O 101 ° 0 min 0,000 mm 0,0 UV-I 0 W/m² -1,2 °C 1,4 °C 0,0 km/h (0 Bft)
10.03.2017 20:00 1,4 °C 1,4 °C 84 % 1026,2 hPa 0,0 mm 0,0 km/h (0 Bft) O 101 ° 0 min 0,000 mm 0,0 UV-I 0 W/m² -1,0 °C 1,4 °C 0,0 km/h (0 Bft)
10.03.2017 20:01 1,4 °C 1,4 °C 84 % 1026,2 hPa 0,0 mm 0,0 km/h (0 Bft) O 101 ° 0 min 0,000 mm 0,0 UV-I 0 W/m² -1,0 °C 1,4 °C 0,0 km/h (0 Bft)
10.03.2017 20:02 1,4 °C 1,4 °C 84 % 1026,2 hPa 0,0 mm 0,0 km/h (0 Bft) O 101 ° 0 min 0,000 mm 0,0 UV-I 0 W/m² -1,0 °C 1,4 °C 0,0 km/h (0 Bft)
10.03.2017 20:03 1,4 °C 1,4 °C 84 % 1026,3 hPa 0,0 mm 0,0 km/h (0 Bft) O 101 ° 0 min 0,000 mm 0,0 UV-I 0 W/m² -1,0 °C 1,4 °C 0,0 km/h (0 Bft)
10.03.2017 20:04 1,4 °C 1,4 °C 84 % 1026,2 hPa 0,0 mm 0,0 km/h (0 Bft) O 101 ° 0 min 0,000 mm 0,0 UV-I 0 W/m² -1,0 °C 1,4 °C 0,0 km/h (0 Bft)
10.03.2017 20:05 1,4 °C 1,4 °C 83 % 1026,2 hPa 0,0 mm 0,0 km/h (0 Bft) O 101 ° 0 min 0,000 mm 0,0 UV-I 0 W/m² -1,2 °C 1,4 °C 0,0 km/h (0 Bft)
10.03.2017 20:06 1,4 °C 1,4 °C 83 % 1026,3 hPa 0,0 mm 0,0 km/h (0 Bft) O 101 ° 0 min 0,000 mm 0,0 UV-I 0 W/m² -1,2 °C 1,4 °C 0,0 km/h (0 Bft)
10.03.2017 20:07 1,4 °C 1,4 °C 83 % 1026,3 hPa 0,0 mm 0,0 km/h (0 Bft) O 101 ° 0 min 0,000 mm 0,0 UV-I 0 W/m² -1,2 °C 1,4 °C 0,0 km/h (0 Bft)
10.03.2017 20:08 1,4 °C 1,4 °C 83 % 1026,2 hPa 0,0 mm 1,3 km/h (1 Bft) O 101 ° 0 min 0,000 mm 0,0 UV-I 0 W/m² -1,2 °C 1,4 °C 1,6 km/h (1 Bft)
10.03.2017 20:09 1,4 °C 1,4 °C 84 % 1026,3 hPa 0,0 mm 1,4 km/h (1 Bft) O 101 ° 0 min 0,000 mm 0,0 UV-I 0 W/m² -1,0 °C 1,4 °C 3,2 km/h (1 Bft)
10.03.2017 20:10 1,3 °C 1,4 °C 84 % 1026,3 hPa 0,0 mm 1,6 km/h (1 Bft) O 101 ° 0 min 0,000 mm 0,0 UV-I 0 W/m² -1,1 °C 1,3 °C 3,2 km/h (1 Bft)
10.03.2017 20:11 1,3 °C 1,3 °C 84 % 1026,3 hPa 0,0 mm 1,2 km/h (1 Bft) O 101 ° 0 min 0,000 mm 0,0 UV-I 0 W/m² -1,1 °C 1,3 °C 1,6 km/h (1 Bft)
10.03.2017 20:12 1,3 °C 1,3 °C 84 % 1026,3 hPa 0,0 mm 1,4 km/h (1 Bft) O 101 ° 0 min 0,000 mm 0,0 UV-I 0 W/m² -1,1 °C 1,3 °C 1,6 km/h (1 Bft)
10.03.2017 20:13 1,3 °C 1,3 °C 85 % 1026,4 hPa 0,0 mm 1,7 km/h (1 Bft) O 101 ° 0 min 0,000 mm 0,0 UV-I 0 W/m² -0,9 °C 1,3 °C 3,2 km/h (1 Bft)
10.03.2017 20:14 1,2 °C 1,3 °C 85 % 1026,3 hPa 0,0 mm 1,7 km/h (1 Bft) O 101 ° 0 min 0,000 mm 0,0 UV-I 0 W/m² -1,0 °C 1,2 °C 3,2 km/h (1 Bft)
10.03.2017 20:15 1,2 °C 1,2 °C 85 % 1026,3 hPa 0,0 mm 1,2 km/h (1 Bft) O 101 ° 0 min 0,000 mm 0,0 UV-I 0 W/m² -1,0 °C 1,2 °C 1,6 km/h (1 Bft)
10.03.2017 20:16 1,2 °C 1,2 °C 85 % 1026,3 hPa 0,0 mm 0,8 km/h (0 Bft) O 101 ° 0 min 0,000 mm 0,0 UV-I 0 W/m² -1,0 °C 1,2 °C 1,6 km/h (1 Bft)
10.03.2017 20:17 1,2 °C 1,2 °C 85 % 1026,3 hPa 0,0 mm 0,0 km/h (0 Bft) O 101 ° 0 min 0,000 mm 0,0 UV-I 0 W/m² -1,0 °C 1,2 °C 0,0 km/h (0 Bft)
10.03.2017 20:18 1,2 °C 1,2 °C 85 % 1026,3 hPa 0,0 mm 0,0 km/h (0 Bft) O 101 ° 0 min 0,000 mm 0,0 UV-I 0 W/m² -1,0 °C 1,2 °C 0,0 km/h (0 Bft)
10.03.2017 20:19 1,2 °C 1,2 °C 85 % 1026,3 hPa 0,0 mm 0,0 km/h (0 Bft) O 101 ° 0 min 0,000 mm 0,0 UV-I 0 W/m² -1,0 °C 1,2 °C 0,0 km/h (0 Bft)
10.03.2017 20:20 1,2 °C 1,2 °C 85 % 1026,4 hPa 0,0 mm 0,0 km/h (0 Bft) O 101 ° 0 min 0,000 mm 0,0 UV-I 0 W/m² -1,0 °C 1,2 °C 0,0 km/h (0 Bft)
10.03.2017 20:21 1,2 °C 1,2 °C 85 % 1026,4 hPa 0,0 mm 0,0 km/h (0 Bft) O 101 ° 0 min 0,000 mm 0,0 UV-I 0 W/m² -1,0 °C 1,2 °C 0,0 km/h (0 Bft)
10.03.2017 20:22 1,2 °C 1,2 °C 85 % 1026,4 hPa 0,0 mm 0,0 km/h (0 Bft) O 101 ° 0 min 0,000 mm 0,0 UV-I 0 W/m² -1,0 °C 1,2 °C 0,0 km/h (0 Bft)
10.03.2017 20:23 1,2 °C 1,2 °C 85 % 1026,4 hPa 0,0 mm 0,0 km/h (0 Bft) O 101 ° 0 min 0,000 mm 0,0 UV-I 0 W/m² -1,0 °C 1,2 °C 0,0 km/h (0 Bft)
10.03.2017 20:24 1,2 °C 1,2 °C 85 % 1026,4 hPa 0,0 mm 0,0 km/h (0 Bft) O 101 ° 0 min 0,000 mm 0,0 UV-I 0 W/m² -1,0 °C 1,2 °C 0,0 km/h (0 Bft)
10.03.2017 20:25 1,1 °C 1,2 °C 85 % 1026,4 hPa 0,0 mm 0,0 km/h (0 Bft) O 101 ° 0 min 0,000 mm 0,0 UV-I 0 W/m² -1,1 °C 1,1 °C 0,0 km/h (0 Bft)
10.03.2017 20:26 1,1 °C 1,1 °C 85 % 1026,4 hPa 0,0 mm 0,0 km/h (0 Bft) O 101 ° 0 min 0,000 mm 0,0 UV-I 0 W/m² -1,1 °C 1,1 °C 0,0 km/h (0 Bft)
10.03.2017 20:27 1,0 °C 1,1 °C 86 % 1026,4 hPa 0,0 mm 0,0 km/h (0 Bft) O 101 ° 0 min 0,000 mm 0,0 UV-I 0 W/m² -1,1 °C 1,0 °C 0,0 km/h (0 Bft)
10.03.2017 20:28 0,9 °C 1,0 °C 86 % 1026,4 hPa 0,0 mm 0,5 km/h (0 Bft) O 101 ° 0 min 0,000 mm 0,0 UV-I 0 W/m² -1,2 °C 0,9 °C 1,6 km/h (1 Bft)
10.03.2017 20:29 0,8 °C 0,9 °C 85 % 1026,4 hPa 0,0 mm 0,3 km/h (0 Bft) O 101 ° 0 min 0,000 mm 0,0 UV-I 0 W/m² -1,4 °C 0,8 °C 1,6 km/h (1 Bft)
10.03.2017 20:30 0,7 °C 0,8 °C 86 % 1026,4 hPa 0,0 mm 0,0 km/h (0 Bft) O 101 ° 0 min 0,000 mm 0,0 UV-I 0 W/m² -1,4 °C 0,7 °C 0,0 km/h (0 Bft)
10.03.2017 20:31 0,7 °C 0,7 °C 87 % 1026,4 hPa 0,0 mm 0,0 km/h (0 Bft) O 101 ° 0 min 0,000 mm 0,0 UV-I 0 W/m² -1,2 °C 0,7 °C 0,0 km/h (0 Bft)
10.03.2017 20:32 0,7 °C 0,7 °C 87 % 1026,4 hPa 0,0 mm 0,0 km/h (0 Bft) O 101 ° 0 min 0,000 mm 0,0 UV-I 0 W/m² -1,2 °C 0,7 °C 0,0 km/h (0 Bft)
10.03.2017 20:33 0,7 °C 0,7 °C 87 % 1026,4 hPa 0,0 mm 0,1 km/h (0 Bft) O 101 ° 0 min 0,000 mm 0,0 UV-I 0 W/m² -1,2 °C 0,7 °C 1,6 km/h (1 Bft)
10.03.2017 20:34 0,6 °C 0,7 °C 88 % 1026,5 hPa 0,0 mm 1,3 km/h (1 Bft) O 101 ° 0 min 0,000 mm 0,0 UV-I 0 W/m² -1,2 °C 0,6 °C 3,2 km/h (1 Bft)
10.03.2017 20:35 0,6 °C 0,6 °C 87 % 1026,5 hPa 0,0 mm 1,4 km/h (1 Bft) O 101 ° 0 min 0,000 mm 0,0 UV-I 0 W/m² -1,3 °C 0,6 °C 1,6 km/h (1 Bft)
10.03.2017 20:36 0,5 °C 0,6 °C 88 % 1026,5 hPa 0,0 mm 1,2 km/h (1 Bft) O 101 ° 0 min 0,000 mm 0,0 UV-I 0 W/m² -1,3 °C 0,5 °C 3,2 km/h (1 Bft)
10.03.2017 20:37 0,4 °C 0,5 °C 87 % 1026,6 hPa 0,0 mm 0,3 km/h (0 Bft) O 101 ° 0 min 0,000 mm 0,0 UV-I 0 W/m² -1,5 °C 0,4 °C 1,6 km/h (1 Bft)
10.03.2017 20:38 0,2 °C 0,4 °C 87 % 1026,6 hPa 0,0 mm 0,2 km/h (0 Bft) O 101 ° 0 min 0,000 mm 0,0 UV-I 0 W/m² -1,7 °C 0,2 °C 1,6 km/h (1 Bft)
10.03.2017 20:39 0,1 °C 0,2 °C 87 % 1026,6 hPa 0,0 mm 1,3 km/h (1 Bft) O 101 ° 0 min 0,000 mm 0,0 UV-I 0 W/m² -1,8 °C 0,1 °C 1,6 km/h (1 Bft)
10.03.2017 20:40 0,0 °C 0,1 °C 87 % 1026,7 hPa 0,0 mm 0,1 km/h (0 Bft) O 101 ° 0 min 0,000 mm 0,0 UV-I 0 W/m² -1,9 °C 0,0 °C 1,6 km/h (1 Bft)
10.03.2017 20:41 -0,1 °C 0,0 °C 88 % 1026,7 hPa 0,0 mm 0,2 km/h (0 Bft) O 101 ° 0 min 0,000 mm 0,0 UV-I 0 W/m² -1,8 °C -0,1 °C 1,6 km/h (1 Bft)
10.03.2017 20:42 -0,2 °C -0,1 °C 88 % 1026,6 hPa 0,0 mm 0,9 km/h (0 Bft) O 101 ° 0 min 0,000 mm 0,0 UV-I 0 W/m² -1,9 °C -0,2 °C 1,6 km/h (1 Bft)
10.03.2017 20:43 -0,1 °C -0,1 °C 89 % 1026,7 hPa 0,0 mm 1,5 km/h (1 Bft) O 101 ° 0 min 0,000 mm 0,0 UV-I 0 W/m² -1,7 °C -0,1 °C 1,6 km/h (1 Bft)
10.03.2017 20:44 -0,1 °C -0,1 °C 89 % 1026,7 hPa 0,0 mm 1,5 km/h (1 Bft) O 101 ° 0 min 0,000 mm 0,0 UV-I 0 W/m² -1,7 °C -0,1 °C 1,6 km/h (1 Bft)
10.03.2017 20:45 0,0 °C 0,0 °C 89 % 1026,7 hPa 0,0 mm 0,8 km/h (0 Bft) O 101 ° 0 min 0,000 mm 0,0 UV-I 0 W/m² -1,6 °C 0,0 °C 1,6 km/h (1 Bft)
10.03.2017 20:46 0,1 °C 0,1 °C 90 % 1026,7 hPa 0,0 mm 0,8 km/h (0 Bft) O 101 ° 0 min 0,000 mm 0,0 UV-I 0 W/m² -1,3 °C 0,1 °C 1,6 km/h (1 Bft)
10.03.2017 20:47 0,1 °C 0,1 °C 89 % 1026,7 hPa 0,0 mm 0,8 km/h (0 Bft) O 101 ° 0 min 0,000 mm 0,0 UV-I 0 W/m² -1,5 °C 0,1 °C 1,6 km/h (1 Bft)
10.03.2017 20:48 0,0 °C 0,1 °C 89 % 1026,7 hPa 0,0 mm 0,0 km/h (0 Bft) O 101 ° 0 min 0,000 mm 0,0 UV-I 0 W/m² -1,6 °C 0,0 °C 0,0 km/h (0 Bft)
10.03.2017 20:49 -0,1 °C 0,0 °C 89 % 1026,7 hPa 0,0 mm 0,0 km/h (0 Bft) O 101 ° 0 min 0,000 mm 0,0 UV-I 0 W/m² -1,7 °C -0,1 °C 0,0 km/h (0 Bft)
10.03.2017 20:50 -0,1 °C -0,1 °C 89 % 1026,7 hPa 0,0 mm 0,1 km/h (0 Bft) O 101 ° 0 min 0,000 mm 0,0 UV-I 0 W/m² -1,7 °C -0,1 °C 1,6 km/h (1 Bft)
10.03.2017 20:51 -0,1 °C -0,1 °C 89 % 1026,7 hPa 0,0 mm 1,3 km/h (1 Bft) O 101 ° 0 min 0,000 mm 0,0 UV-I 0 W/m² -1,7 °C -0,1 °C 1,6 km/h (1 Bft)
10.03.2017 20:52 -0,1 °C -0,1 °C 89 % 1026,7 hPa 0,0 mm 0,9 km/h (0 Bft) O 101 ° 0 min 0,000 mm 0,0 UV-I 0 W/m² -1,7 °C -0,1 °C 1,6 km/h (1 Bft)
10.03.2017 20:53 -0,1 °C -0,1 °C 89 % 1026,7 hPa 0,0 mm 0,8 km/h (0 Bft) O 101 ° 0 min 0,000 mm 0,0 UV-I 0 W/m² -1,7 °C -0,1 °C 1,6 km/h (1 Bft)
10.03.2017 20:54 0,1 °C 0,1 °C 89 % 1026,7 hPa 0,0 mm 0,3 km/h (0 Bft) O 101 ° 0 min 0,000 mm 0,0 UV-I 0 W/m² -1,5 °C 0,1 °C 1,6 km/h (1 Bft)
10.03.2017 20:55 0,1 °C 0,1 °C 88 % 1026,8 hPa 0,0 mm 0,0 km/h (0 Bft) O 101 ° 0 min 0,000 mm 0,0 UV-I 0 W/m² -1,6 °C 0,1 °C 0,0 km/h (0 Bft)
10.03.2017 20:56 0,1 °C 0,1 °C 88 % 1026,8 hPa 0,0 mm 0,0 km/h (0 Bft) O 101 ° 0 min 0,000 mm 0,0 UV-I 0 W/m² -1,6 °C 0,1 °C 0,0 km/h (0 Bft)
10.03.2017 20:57 0,2 °C 0,2 °C 88 % 1026,8 hPa 0,0 mm 1,1 km/h (1 Bft) O 101 ° 0 min 0,000 mm 0,0 UV-I 0 W/m² -1,5 °C 0,2 °C 1,6 km/h (1 Bft)
10.03.2017 20:58 0,3 °C 0,3 °C 88 % 1026,8 hPa 0,0 mm 1,7 km/h (1 Bft) O 101 ° 0 min 0,000 mm 0,0 UV-I 0 W/m² -1,4 °C 0,3 °C 3,2 km/h (1 Bft)
10.03.2017 20:59 0,3 °C 0,3 °C 87 % 1026,8 hPa 0,0 mm 0,9 km/h (0 Bft) O 101 ° 0 min 0,000 mm 0,0 UV-I 0 W/m² -1,6 °C 0,3 °C 1,6 km/h (1 Bft)
10.03.2017 21:00 0,4 °C 0,4 °C 87 % 1026,8 hPa 0,0 mm 0,8 km/h (0 Bft) O 101 ° 0 min 0,000 mm 0,0 UV-I 0 W/m² -1,5 °C 0,4 °C 1,6 km/h (1 Bft)
10.03.2017 21:01 0,4 °C 0,4 °C 87 % 1026,7 hPa 0,0 mm 0,3 km/h (0 Bft) O 101 ° 0 min 0,000 mm 0,0 UV-I 0 W/m² -1,5 °C 0,4 °C 1,6 km/h (1 Bft)
10.03.2017 21:02 0,4 °C 0,4 °C 87 % 1026,8 hPa 0,0 mm 1,0 km/h (0 Bft) O 101 ° 0 min 0,000 mm 0,0 UV-I 0 W/m² -1,5 °C 0,4 °C 1,6 km/h (1 Bft)
10.03.2017 21:03 0,4 °C 0,4 °C 87 % 1026,8 hPa 0,0 mm 0,9 km/h (0 Bft) O 101 ° 0 min 0,000 mm 0,0 UV-I 0 W/m² -1,5 °C 0,4 °C 1,6 km/h (1 Bft)
10.03.2017 21:04 0,4 °C 0,4 °C 86 % 1026,9 hPa 0,0 mm 0,8 km/h (0 Bft) O 101 ° 0 min 0,000 mm 0,0 UV-I 0 W/m² -1,7 °C 0,4 °C 1,6 km/h (1 Bft)
10.03.2017 21:05 0,4 °C 0,4 °C 86 % 1026,8 hPa 0,0 mm 0,6 km/h (0 Bft) O 101 ° 0 min 0,000 mm 0,0 UV-I 0 W/m² -1,7 °C 0,4 °C 1,6 km/h (1 Bft)
10.03.2017 21:06 0,4 °C 0,4 °C 86 % 1026,9 hPa 0,0 mm 1,2 km/h (1 Bft) O 101 ° 0 min 0,000 mm 0,0 UV-I 0 W/m² -1,7 °C 0,4 °C 1,6 km/h (1 Bft)
10.03.2017 21:07 0,4 °C 0,4 °C 86 % 1026,9 hPa 0,0 mm 1,4 km/h (1 Bft) O 101 ° 0 min 0,000 mm 0,0 UV-I 0 W/m² -1,7 °C 0,4 °C 3,2 km/h (1 Bft)
10.03.2017 21:08 0,4 °C 0,4 °C 86 % 1026,9 hPa 0,0 mm 1,1 km/h (1 Bft) O 101 ° 0 min 0,000 mm 0,0 UV-I 0 W/m² -1,7 °C 0,4 °C 3,2 km/h (1 Bft)
10.03.2017 21:09 0,4 °C 0,4 °C 86 % 1026,9 hPa 0,0 mm 1,2 km/h (1 Bft) O 101 ° 0 min 0,000 mm 0,0 UV-I 0 W/m² -1,7 °C 0,4 °C 1,6 km/h (1 Bft)
10.03.2017 21:10 0,4 °C 0,4 °C 86 % 1026,9 hPa 0,0 mm 1,0 km/h (0 Bft) O 101 ° 0 min 0,000 mm 0,0 UV-I 0 W/m² -1,7 °C 0,4 °C 3,2 km/h (1 Bft)
10.03.2017 21:11 0,4 °C 0,4 °C 86 % 1026,9 hPa 0,0 mm 0,7 km/h (0 Bft) O 101 ° 0 min 0,000 mm 0,0 UV-I 0 W/m² -1,7 °C 0,4 °C 1,6 km/h (1 Bft)
10.03.2017 21:12 0,3 °C 0,4 °C 86 % 1026,9 hPa 0,0 mm 0,8 km/h (0 Bft) O 101 ° 0 min 0,000 mm 0,0 UV-I 0 W/m² -1,8 °C 0,3 °C 1,6 km/h (1 Bft)
10.03.2017 21:13 0,3 °C 0,3 °C 86 % 1026,9 hPa 0,0 mm 0,5 km/h (0 Bft) O 101 ° 0 min 0,000 mm 0,0 UV-I 0 W/m² -1,8 °C 0,3 °C 1,6 km/h (1 Bft)
10.03.2017 21:14 0,2 °C 0,3 °C 86 % 1026,9 hPa 0,0 mm 0,0 km/h (0 Bft) O 101 ° 0 min 0,000 mm 0,0 UV-I 0 W/m² -1,9 °C 0,2 °C 0,0 km/h (0 Bft)
10.03.2017 21:15 0,1 °C 0,2 °C 86 % 1026,9 hPa 0,0 mm 0,1 km/h (0 Bft) O 101 ° 0 min 0,000 mm 0,0 UV-I 0 W/m² -2,0 °C 0,1 °C 1,6 km/h (1 Bft)
10.03.2017 21:16 0,0 °C 0,1 °C 87 % 1026,9 hPa 0,0 mm 0,9 km/h (0 Bft) O 101 ° 0 min 0,000 mm 0,0 UV-I 0 W/m² -1,9 °C 0,0 °C 1,6 km/h (1 Bft)
10.03.2017 21:17 -0,2 °C 0,0 °C 87 % 1026,9 hPa 0,0 mm 0,3 km/h (0 Bft) O 101 ° 0 min 0,000 mm 0,0 UV-I 0 W/m² -2,1 °C -0,2 °C 1,6 km/h (1 Bft)
10.03.2017 21:18 -0,3 °C -0,2 °C 88 % 1026,9 hPa 0,0 mm 0,1 km/h (0 Bft) O 101 ° 0 min 0,000 mm 0,0 UV-I 0 W/m² -2,0 °C -0,3 °C 1,6 km/h (1 Bft)
10.03.2017 21:19 -0,3 °C -0,3 °C 88 % 1026,9 hPa 0,0 mm 1,9 km/h (1 Bft) O 101 ° 0 min 0,000 mm 0,0 UV-I 0 W/m² -2,0 °C -0,3 °C 4,8 km/h (1 Bft)
10.03.2017 21:20 -0,3 °C -0,3 °C 89 % 1026,8 hPa 0,0 mm 0,9 km/h (0 Bft) O 101 ° 0 min 0,000 mm 0,0 UV-I 0 W/m² -1,9 °C -0,3 °C 1,6 km/h (1 Bft)
10.03.2017 21:21 -0,3 °C -0,3 °C 89 % 1026,9 hPa 0,0 mm 0,1 km/h (0 Bft) O 101 ° 0 min 0,000 mm 0,0 UV-I 0 W/m² -1,9 °C -0,3 °C 1,6 km/h (1 Bft)
10.03.2017 21:22 -0,3 °C -0,3 °C 88 % 1026,8 hPa 0,0 mm 0,0 km/h (0 Bft) O 101 ° 0 min 0,000 mm 0,0 UV-I 0 W/m² -2,0 °C -0,3 °C 0,0 km/h (0 Bft)
10.03.2017 21:23 -0,3 °C -0,3 °C 89 % 1026,9 hPa 0,0 mm 0,7 km/h (0 Bft) O 101 ° 0 min 0,000 mm 0,0 UV-I 0 W/m² -1,9 °C -0,3 °C 1,6 km/h (1 Bft)
10.03.2017 21:24 -0,3 °C -0,3 °C 89 % 1026,9 hPa 0,0 mm 0,5 km/h (0 Bft) O 101 ° 0 min 0,000 mm 0,0 UV-I 0 W/m² -1,9 °C -0,3 °C 1,6 km/h (1 Bft)
10.03.2017 21:25 -0,2 °C -0,2 °C 89 % 1026,9 hPa 0,0 mm 0,0 km/h (0 Bft) O 101 ° 0 min 0,000 mm 0,0 UV-I 0 W/m² -1,8 °C -0,2 °C 0,0 km/h (0 Bft)
10.03.2017 21:26 -0,2 °C -0,2 °C 89 % 1027,0 hPa 0,0 mm 0,0 km/h (0 Bft) O 101 ° 0 min 0,000 mm 0,0 UV-I 0 W/m² -1,8 °C -0,2 °C 0,0 km/h (0 Bft)
10.03.2017 21:27 -0,2 °C -0,2 °C 88 % 1026,9 hPa 0,0 mm 0,0 km/h (0 Bft) O 101 ° 0 min 0,000 mm 0,0 UV-I 0 W/m² -1,9 °C -0,2 °C 0,0 km/h (0 Bft)
10.03.2017 21:28 -0,2 °C -0,2 °C 89 % 1027,0 hPa 0,0 mm 0,9 km/h (0 Bft) O 101 ° 0 min 0,000 mm 0,0 UV-I 0 W/m² -1,8 °C -0,2 °C 1,6 km/h (1 Bft)
10.03.2017 21:29 -0,1 °C -0,1 °C 89 % 1026,9 hPa 0,0 mm 0,9 km/h (0 Bft) O 101 ° 0 min 0,000 mm 0,0 UV-I 0 W/m² -1,7 °C -0,1 °C 1,6 km/h (1 Bft)
10.03.2017 21:30 -0,1 °C -0,1 °C 88 % 1026,9 hPa 0,0 mm 0,0 km/h (0 Bft) O 101 ° 0 min 0,000 mm 0,0 UV-I 0 W/m² -1,8 °C -0,1 °C 0,0 km/h (0 Bft)
10.03.2017 21:31 -0,1 °C -0,1 °C 88 % 1026,9 hPa 0,0 mm 0,0 km/h (0 Bft) O 101 ° 0 min 0,000 mm 0,0 UV-I 0 W/m² -1,8 °C -0,1 °C 0,0 km/h (0 Bft)
10.03.2017 21:32 -0,1 °C 0,0 °C 88 % 1026,9 hPa 0,0 mm 0,0 km/h (0 Bft) O 101 ° 0 min 0,000 mm 0,0 UV-I 0 W/m² -1,8 °C -0,1 °C 0,0 km/h (0 Bft)
10.03.2017 21:33 -0,1 °C 0,0 °C 88 % 1027,0 hPa 0,0 mm 0,0 km/h (0 Bft) O 101 ° 0 min 0,000 mm 0,0 UV-I 0 W/m² -1,8 °C -0,1 °C 0,0 km/h (0 Bft)
10.03.2017 21:34 -0,1 °C -0,1 °C 88 % 1027,0 hPa 0,0 mm 0,0 km/h (0 Bft) O 101 ° 0 min 0,000 mm 0,0 UV-I 0 W/m² -1,8 °C -0,1 °C 0,0 km/h (0 Bft)
10.03.2017 21:35 -0,2 °C -0,1 °C 88 % 1027,0 hPa 0,0 mm 0,0 km/h (0 Bft) O 101 ° 0 min 0,000 mm 0,0 UV-I 0 W/m² -1,9 °C -0,2 °C 0,0 km/h (0 Bft)
10.03.2017 21:36 -0,2 °C -0,2 °C 88 % 1027,0 hPa 0,0 mm 0,0 km/h (0 Bft) O 101 ° 0 min 0,000 mm 0,0 UV-I 0 W/m² -1,9 °C -0,2 °C 0,0 km/h (0 Bft)
10.03.2017 21:37 -0,2 °C -0,2 °C 88 % 1027,0 hPa 0,0 mm 0,0 km/h (0 Bft) O 101 ° 0 min 0,000 mm 0,0 UV-I 0 W/m² -1,9 °C -0,2 °C 0,0 km/h (0 Bft)
10.03.2017 21:38 -0,3 °C -0,2 °C 88 % 1027,0 hPa 0,0 mm 0,0 km/h (0 Bft) O 101 ° 0 min 0,000 mm 0,0 UV-I 0 W/m² -2,0 °C -0,3 °C 0,0 km/h (0 Bft)
10.03.2017 21:39 -0,4 °C -0,3 °C 88 % 1027,1 hPa 0,0 mm 0,0 km/h (0 Bft) O 101 ° 0 min 0,000 mm 0,0 UV-I 0 W/m² -2,1 °C -0,4 °C 0,0 km/h (0 Bft)
10.03.2017 21:40 -0,6 °C -0,4 °C 88 % 1027,1 hPa 0,0 mm 0,0 km/h (0 Bft) O 101 ° 0 min 0,000 mm 0,0 UV-I 0 W/m² -2,3 °C -0,6 °C 0,0 km/h (0 Bft)
10.03.2017 21:41 -0,6 °C -0,6 °C 88 % 1027,0 hPa 0,0 mm 0,0 km/h (0 Bft) O 101 ° 0 min 0,000 mm 0,0 UV-I 0 W/m² -2,3 °C -0,6 °C 0,0 km/h (0 Bft)
10.03.2017 21:42 -0,7 °C -0,6 °C 89 % 1027,1 hPa 0,0 mm 0,0 km/h (0 Bft) O 101 ° 0 min 0,000 mm 0,0 UV-I 0 W/m² -2,3 °C -0,7 °C 0,0 km/h (0 Bft)
10.03.2017 21:43 -0,8 °C -0,7 °C 89 % 1027,1 hPa 0,0 mm 0,0 km/h (0 Bft) O 101 ° 0 min 0,000 mm 0,0 UV-I 0 W/m² -2,4 °C -0,8 °C 0,0 km/h (0 Bft)
10.03.2017 21:44 -0,8 °C -0,8 °C 89 % 1027,1 hPa 0,0 mm 0,0 km/h (0 Bft) O 101 ° 0 min 0,000 mm 0,0 UV-I 0 W/m² -2,4 °C -0,8 °C 0,0 km/h (0 Bft)
10.03.2017 21:45 -0,9 °C -0,8 °C 89 % 1027,1 hPa 0,0 mm 0,0 km/h (0 Bft) O 101 ° 0 min 0,000 mm 0,0 UV-I 0 W/m² -2,5 °C -0,9 °C 0,0 km/h (0 Bft)
10.03.2017 21:46 -1,1 °C -0,9 °C 89 % 1027,1 hPa 0,0 mm 0,0 km/h (0 Bft) O 101 ° 0 min 0,000 mm 0,0 UV-I 0 W/m² -2,7 °C -1,1 °C 0,0 km/h (0 Bft)
10.03.2017 21:47 -1,1 °C -1,0 °C 90 % 1027,1 hPa 0,0 mm 0,0 km/h (0 Bft) O 101 ° 0 min 0,000 mm 0,0 UV-I 0 W/m² -2,5 °C -1,1 °C 0,0 km/h (0 Bft)
10.03.2017 21:48 -1,1 °C -1,1 °C 90 % 1027,0 hPa 0,0 mm 0,0 km/h (0 Bft) O 101 ° 0 min 0,000 mm 0,0 UV-I 0 W/m² -2,5 °C -1,1 °C 0,0 km/h (0 Bft)
10.03.2017 21:49 -1,1 °C -1,1 °C 90 % 1027,0 hPa 0,0 mm 0,0 km/h (0 Bft) O 101 ° 0 min 0,000 mm 0,0 UV-I 0 W/m² -2,5 °C -1,1 °C 0,0 km/h (0 Bft)
10.03.2017 21:50 -1,1 °C -1,1 °C 90 % 1027,1 hPa 0,0 mm 0,0 km/h (0 Bft) O 101 ° 0 min 0,000 mm 0,0 UV-I 0 W/m² -2,5 °C -1,1 °C 0,0 km/h (0 Bft)
10.03.2017 21:51 -1,2 °C -1,1 °C 90 % 1027,1 hPa 0,0 mm 0,0 km/h (0 Bft) O 101 ° 0 min 0,000 mm 0,0 UV-I 0 W/m² -2,6 °C -1,2 °C 0,0 km/h (0 Bft)
10.03.2017 21:52 -1,2 °C -1,2 °C 90 % 1027,1 hPa 0,0 mm 0,0 km/h (0 Bft) O 101 ° 0 min 0,000 mm 0,0 UV-I 0 W/m² -2,6 °C -1,2 °C 0,0 km/h (0 Bft)
10.03.2017 21:53 -1,2 °C -1,2 °C 90 % 1027,1 hPa 0,0 mm 0,0 km/h (0 Bft) O 101 ° 0 min 0,000 mm 0,0 UV-I 0 W/m² -2,6 °C -1,2 °C 0,0 km/h (0 Bft)
10.03.2017 21:54 -1,2 °C -1,2 °C 90 % 1027,1 hPa 0,0 mm 0,0 km/h (0 Bft) O 101 ° 0 min 0,000 mm 0,0 UV-I 0 W/m² -2,6 °C -1,2 °C 0,0 km/h (0 Bft)
10.03.2017 21:55 -1,3 °C -1,2 °C 90 % 1027,1 hPa 0,0 mm 0,0 km/h (0 Bft) O 101 ° 0 min 0,000 mm 0,0 UV-I 0 W/m² -2,7 °C -1,3 °C 0,0 km/h (0 Bft)
10.03.2017 21:56 -1,3 °C -1,3 °C 90 % 1027,0 hPa 0,0 mm 0,0 km/h (0 Bft) O 101 ° 0 min 0,000 mm 0,0 UV-I 0 W/m² -2,7 °C -1,3 °C 0,0 km/h (0 Bft)
10.03.2017 21:57 -1,3 °C -1,3 °C 90 % 1027,0 hPa 0,0 mm 0,0 km/h (0 Bft) O 101 ° 0 min 0,000 mm 0,0 UV-I 0 W/m² -2,7 °C -1,3 °C 0,0 km/h (0 Bft)
10.03.2017 21:58 -1,3 °C -1,3 °C 91 % 1027,1 hPa 0,0 mm 0,0 km/h (0 Bft) O 101 ° 0 min 0,000 mm 0,0 UV-I 0 W/m² -2,6 °C -1,3 °C 0,0 km/h (0 Bft)
10.03.2017 21:59 -1,3 °C -1,3 °C 91 % 1027,0 hPa 0,0 mm 0,0 km/h (0 Bft) O 101 ° 0 min 0,000 mm 0,0 UV-I 0 W/m² -2,6 °C -1,3 °C 0,0 km/h (0 Bft)
10.03.2017 22:00 -1,3 °C -1,3 °C 90 % 1027,0 hPa 0,0 mm 0,0 km/h (0 Bft) O 101 ° 0 min 0,000 mm 0,0 UV-I 0 W/m² -2,7 °C -1,3 °C 0,0 km/h (0 Bft)
10.03.2017 22:01 -1,4 °C -1,3 °C 90 % 1027,0 hPa 0,0 mm 0,0 km/h (0 Bft) O 101 ° 0 min 0,000 mm 0,0 UV-I 0 W/m² -2,8 °C -1,4 °C 0,0 km/h (0 Bft)
10.03.2017 22:02 -1,4 °C -1,3 °C 91 % 1027,0 hPa 0,0 mm 0,0 km/h (0 Bft) O 101 ° 0 min 0,000 mm 0,0 UV-I 0 W/m² -2,7 °C -1,4 °C 0,0 km/h (0 Bft)
10.03.2017 22:03 -1,4 °C -1,4 °C 91 % 1027,1 hPa 0,0 mm 0,0 km/h (0 Bft) O 101 ° 0 min 0,000 mm 0,0 UV-I 0 W/m² -2,7 °C -1,4 °C 0,0 km/h (0 Bft)
10.03.2017 22:04 -1,4 °C -1,4 °C 90 % 1027,0 hPa 0,0 mm 0,0 km/h (0 Bft) O 101 ° 0 min 0,000 mm 0,0 UV-I 0 W/m² -2,8 °C -1,4 °C 0,0 km/h (0 Bft)
10.03.2017 22:05 -1,4 °C -1,4 °C 91 % 1027,0 hPa 0,0 mm 0,0 km/h (0 Bft) O 101 ° 0 min 0,000 mm 0,0 UV-I 0 W/m² -2,7 °C -1,4 °C 0,0 km/h (0 Bft)
10.03.2017 22:06 -1,4 °C -1,4 °C 91 % 1027,1 hPa 0,0 mm 0,0 km/h (0 Bft) O 101 ° 0 min 0,000 mm 0,0 UV-I 0 W/m² -2,7 °C -1,4 °C 0,0 km/h (0 Bft)
10.03.2017 22:07 -1,4 °C -1,4 °C 91 % 1027,0 hPa 0,0 mm 0,0 km/h (0 Bft) O 101 ° 0 min 0,000 mm 0,0 UV-I 0 W/m² -2,7 °C -1,4 °C 0,0 km/h (0 Bft)
10.03.2017 22:08 -1,4 °C -1,4 °C 91 % 1027,0 hPa 0,0 mm 0,0 km/h (0 Bft) O 101 ° 0 min 0,000 mm 0,0 UV-I 0 W/m² -2,7 °C -1,4 °C 0,0 km/h (0 Bft)
10.03.2017 22:09 -1,3 °C -1,3 °C 92 % 1027,0 hPa 0,0 mm 0,0 km/h (0 Bft) O 101 ° 0 min 0,000 mm 0,0 UV-I 0 W/m² -2,4 °C -1,3 °C 0,0 km/h (0 Bft)
10.03.2017 22:10 -1,3 °C -1,3 °C 92 % 1027,0 hPa 0,0 mm 0,0 km/h (0 Bft) O 101 ° 0 min 0,000 mm 0,0 UV-I 0 W/m² -2,4 °C -1,3 °C 0,0 km/h (0 Bft)
10.03.2017 22:11 -1,3 °C -1,3 °C 91 % 1027,1 hPa 0,0 mm 0,0 km/h (0 Bft) O 101 ° 0 min 0,000 mm 0,0 UV-I 0 W/m² -2,6 °C -1,3 °C 0,0 km/h (0 Bft)
10.03.2017 22:12 -1,3 °C -1,3 °C 92 % 1027,1 hPa 0,0 mm 0,0 km/h (0 Bft) O 101 ° 0 min 0,000 mm 0,0 UV-I 0 W/m² -2,4 °C -1,3 °C 0,0 km/h (0 Bft)
10.03.2017 22:13 -1,3 °C -1,3 °C 92 % 1027,1 hPa 0,0 mm 0,0 km/h (0 Bft) O 101 ° 0 min 0,000 mm 0,0 UV-I 0 W/m² -2,4 °C -1,3 °C 0,0 km/h (0 Bft)
10.03.2017 22:14 -1,3 °C -1,3 °C 92 % 1027,1 hPa 0,0 mm 0,0 km/h (0 Bft) O 101 ° 0 min 0,000 mm 0,0 UV-I 0 W/m² -2,4 °C -1,3 °C 0,0 km/h (0 Bft)
10.03.2017 22:15 -1,3 °C -1,3 °C 91 % 1027,1 hPa 0,0 mm 0,0 km/h (0 Bft) O 101 ° 0 min 0,000 mm 0,0 UV-I 0 W/m² -2,6 °C -1,3 °C 0,0 km/h (0 Bft)
10.03.2017 22:16 -1,4 °C -1,3 °C 91 % 1027,1 hPa 0,0 mm 0,0 km/h (0 Bft) O 101 ° 0 min 0,000 mm 0,0 UV-I 0 W/m² -2,7 °C -1,4 °C 0,0 km/h (0 Bft)
10.03.2017 22:17 -1,3 °C -1,3 °C 91 % 1027,1 hPa 0,0 mm 0,0 km/h (0 Bft) O 101 ° 0 min 0,000 mm 0,0 UV-I 0 W/m² -2,6 °C -1,3 °C 0,0 km/h (0 Bft)
10.03.2017 22:18 -1,3 °C -1,3 °C 91 % 1027,1 hPa 0,0 mm 0,0 km/h (0 Bft) O 101 ° 0 min 0,000 mm 0,0 UV-I 0 W/m² -2,6 °C -1,3 °C 0,0 km/h (0 Bft)
10.03.2017 22:19 -1,3 °C -1,3 °C 91 % 1027,1 hPa 0,0 mm 0,0 km/h (0 Bft) O 101 ° 0 min 0,000 mm 0,0 UV-I 0 W/m² -2,6 °C -1,3 °C 0,0 km/h (0 Bft)
10.03.2017 22:20 -1,4 °C -1,3 °C 91 % 1027,1 hPa 0,0 mm 0,0 km/h (0 Bft) O 101 ° 0 min 0,000 mm 0,0 UV-I 0 W/m² -2,7 °C -1,4 °C 0,0 km/h (0 Bft)
10.03.2017 22:21 -1,4 °C -1,4 °C 91 % 1027,1 hPa 0,0 mm 0,0 km/h (0 Bft) O 101 ° 0 min 0,000 mm 0,0 UV-I 0 W/m² -2,7 °C -1,4 °C 0,0 km/h (0 Bft)
10.03.2017 22:22 -1,4 °C -1,4 °C 91 % 1027,0 hPa 0,0 mm 0,0 km/h (0 Bft) O 101 ° 0 min 0,000 mm 0,0 UV-I 0 W/m² -2,7 °C -1,4 °C 0,0 km/h (0 Bft)
10.03.2017 22:23 -1,4 °C -1,4 °C 91 % 1027,1 hPa 0,0 mm 0,0 km/h (0 Bft) O 101 ° 0 min 0,000 mm 0,0 UV-I 0 W/m² -2,7 °C -1,4 °C 0,0 km/h (0 Bft)
10.03.2017 22:24 -1,5 °C -1,4 °C 91 % 1027,0 hPa 0,0 mm 0,0 km/h (0 Bft) O 101 ° 0 min 0,000 mm 0,0 UV-I 0 W/m² -2,8 °C -1,5 °C 0,0 km/h (0 Bft)
10.03.2017 22:25 -1,5 °C -1,5 °C 91 % 1027,0 hPa 0,0 mm 0,0 km/h (0 Bft) O 101 ° 0 min 0,000 mm 0,0 UV-I 0 W/m² -2,8 °C -1,5 °C 0,0 km/h (0 Bft)
10.03.2017 22:26 -1,5 °C -1,5 °C 92 % 1027,0 hPa 0,0 mm 0,0 km/h (0 Bft) O 101 ° 0 min 0,000 mm 0,0 UV-I 0 W/m² -2,6 °C -1,5 °C 0,0 km/h (0 Bft)
10.03.2017 22:27 -1,5 °C -1,5 °C 91 % 1027,0 hPa 0,0 mm 0,0 km/h (0 Bft) O 101 ° 0 min 0,000 mm 0,0 UV-I 0 W/m² -2,8 °C -1,5 °C 0,0 km/h (0 Bft)
10.03.2017 22:28 -1,5 °C -1,5 °C 92 % 1027,0 hPa 0,0 mm 0,0 km/h (0 Bft) O 101 ° 0 min 0,000 mm 0,0 UV-I 0 W/m² -2,6 °C -1,5 °C 0,0 km/h (0 Bft)
10.03.2017 22:29 -1,5 °C -1,5 °C 92 % 1027,0 hPa 0,0 mm 0,0 km/h (0 Bft) O 101 ° 0 min 0,000 mm 0,0 UV-I 0 W/m² -2,6 °C -1,5 °C 0,0 km/h (0 Bft)
10.03.2017 22:30 -1,4 °C -1,4 °C 92 % 1027,0 hPa 0,0 mm 0,0 km/h (0 Bft) O 101 ° 0 min 0,000 mm 0,0 UV-I 0 W/m² -2,5 °C -1,4 °C 0,0 km/h (0 Bft)
10.03.2017 22:31 -1,4 °C -1,4 °C 92 % 1027,0 hPa 0,0 mm 0,0 km/h (0 Bft) O 101 ° 0 min 0,000 mm 0,0 UV-I 0 W/m² -2,5 °C -1,4 °C 0,0 km/h (0 Bft)
10.03.2017 22:32 -1,3 °C -1,3 °C 92 % 1027,0 hPa 0,0 mm 0,0 km/h (0 Bft) O 101 ° 0 min 0,000 mm 0,0 UV-I 0 W/m² -2,4 °C -1,3 °C 0,0 km/h (0 Bft)
10.03.2017 22:33 -1,3 °C -1,3 °C 92 % 1027,0 hPa 0,0 mm 0,0 km/h (0 Bft) O 101 ° 0 min 0,000 mm 0,0 UV-I 0 W/m² -2,4 °C -1,3 °C 0,0 km/h (0 Bft)
10.03.2017 22:34 -1,3 °C -1,3 °C 92 % 1027,0 hPa 0,0 mm 0,0 km/h (0 Bft) O 101 ° 0 min 0,000 mm 0,0 UV-I 0 W/m² -2,4 °C -1,3 °C 0,0 km/h (0 Bft)
10.03.2017 22:35 -1,3 °C -1,3 °C 92 % 1027,0 hPa 0,0 mm 0,0 km/h (0 Bft) O 101 ° 0 min 0,000 mm 0,0 UV-I 0 W/m² -2,4 °C -1,3 °C 0,0 km/h (0 Bft)
10.03.2017 22:36 -1,3 °C -1,3 °C 92 % 1027,0 hPa 0,0 mm 0,0 km/h (0 Bft) O 101 ° 0 min 0,000 mm 0,0 UV-I 0 W/m² -2,4 °C -1,3 °C 0,0 km/h (0 Bft)
10.03.2017 22:37 -1,4 °C -1,3 °C 91 % 1027,0 hPa 0,0 mm 0,0 km/h (0 Bft) O 101 ° 0 min 0,000 mm 0,0 UV-I 0 W/m² -2,7 °C -1,4 °C 0,0 km/h (0 Bft)
10.03.2017 22:38 -1,4 °C -1,4 °C 91 % 1027,0 hPa 0,0 mm 0,0 km/h (0 Bft) O 101 ° 0 min 0,000 mm 0,0 UV-I 0 W/m² -2,7 °C -1,4 °C 0,0 km/h (0 Bft)
10.03.2017 22:39 -1,5 °C -1,4 °C 91 % 1027,0 hPa 0,0 mm 0,0 km/h (0 Bft) O 101 ° 0 min 0,000 mm 0,0 UV-I 0 W/m² -2,8 °C -1,5 °C 0,0 km/h (0 Bft)
10.03.2017 22:40 -1,6 °C -1,5 °C 91 % 1027,0 hPa 0,0 mm 0,0 km/h (0 Bft) O 101 ° 0 min 0,000 mm 0,0 UV-I 0 W/m² -2,9 °C -1,6 °C 0,0 km/h (0 Bft)
10.03.2017 22:41 -1,6 °C -1,6 °C 91 % 1027,0 hPa 0,0 mm 0,0 km/h (0 Bft) O 101 ° 0 min 0,000 mm 0,0 UV-I 0 W/m² -2,9 °C -1,6 °C 0,0 km/h (0 Bft)
10.03.2017 22:42 -1,6 °C -1,6 °C 91 % 1027,0 hPa 0,0 mm 0,0 km/h (0 Bft) O 101 ° 0 min 0,000 mm 0,0 UV-I 0 W/m² -2,9 °C -1,6 °C 0,0 km/h (0 Bft)
10.03.2017 22:43 -1,6 °C -1,6 °C 91 % 1027,0 hPa 0,0 mm 0,0 km/h (0 Bft) O 101 ° 0 min 0,000 mm 0,0 UV-I 0 W/m² -2,9 °C -1,6 °C 0,0 km/h (0 Bft)
10.03.2017 22:44 -1,6 °C -1,6 °C 91 % 1027,0 hPa 0,0 mm 0,0 km/h (0 Bft) O 101 ° 0 min 0,000 mm 0,0 UV-I 0 W/m² -2,9 °C -1,6 °C 0,0 km/h (0 Bft)
10.03.2017 22:45 -1,6 °C -1,6 °C 91 % 1027,0 hPa 0,0 mm 0,0 km/h (0 Bft) O 101 ° 0 min 0,000 mm 0,0 UV-I 0 W/m² -2,9 °C -1,6 °C 0,0 km/h (0 Bft)
10.03.2017 22:46 -1,7 °C -1,6 °C 91 % 1026,9 hPa 0,0 mm 0,0 km/h (0 Bft) O 101 ° 0 min 0,000 mm 0,0 UV-I 0 W/m² -3,0 °C -1,7 °C 0,0 km/h (0 Bft)
10.03.2017 22:47 -1,8 °C -1,7 °C 91 % 1026,9 hPa 0,0 mm 0,0 km/h (0 Bft) O 101 ° 0 min 0,000 mm 0,0 UV-I 0 W/m² -3,1 °C -1,8 °C 0,0 km/h (0 Bft)
10.03.2017 22:48 -1,7 °C -1,7 °C 91 % 1027,0 hPa 0,0 mm 0,0 km/h (0 Bft) O 101 ° 0 min 0,000 mm 0,0 UV-I 0 W/m² -3,0 °C -1,7 °C 0,0 km/h (0 Bft)
10.03.2017 22:49 -1,8 °C -1,7 °C 91 % 1026,9 hPa 0,0 mm 0,0 km/h (0 Bft) O 101 ° 0 min 0,000 mm 0,0 UV-I 0 W/m² -3,1 °C -1,8 °C 0,0 km/h (0 Bft)
10.03.2017 22:50 -1,7 °C -1,7 °C 92 % 1026,9 hPa 0,0 mm 0,0 km/h (0 Bft) O 101 ° 0 min 0,000 mm 0,0 UV-I 0 W/m² -2,8 °C -1,7 °C 0,0 km/h (0 Bft)
10.03.2017 22:51 -1,7 °C -1,7 °C 92 % 1026,9 hPa 0,0 mm 0,0 km/h (0 Bft) O 101 ° 0 min 0,000 mm 0,0 UV-I 0 W/m² -2,8 °C -1,7 °C 0,0 km/h (0 Bft)
10.03.2017 22:52 -1,7 °C -1,7 °C 92 % 1026,9 hPa 0,0 mm 0,0 km/h (0 Bft) O 101 ° 0 min 0,000 mm 0,0 UV-I 0 W/m² -2,8 °C -1,7 °C 0,0 km/h (0 Bft)
10.03.2017 22:53 -1,6 °C -1,6 °C 92 % 1026,9 hPa 0,0 mm 0,0 km/h (0 Bft) O 101 ° 0 min 0,000 mm 0,0 UV-I 0 W/m² -2,7 °C -1,6 °C 0,0 km/h (0 Bft)
10.03.2017 22:54 -1,6 °C -1,6 °C 92 % 1027,0 hPa 0,0 mm 0,0 km/h (0 Bft) O 101 ° 0 min 0,000 mm 0,0 UV-I 0 W/m² -2,7 °C -1,6 °C 0,0 km/h (0 Bft)
10.03.2017 22:55 -1,7 °C -1,6 °C 91 % 1026,9 hPa 0,0 mm 0,0 km/h (0 Bft) O 101 ° 0 min 0,000 mm 0,0 UV-I 0 W/m² -3,0 °C -1,7 °C 0,0 km/h (0 Bft)
10.03.2017 22:56 -1,6 °C -1,6 °C 91 % 1026,9 hPa 0,0 mm 0,0 km/h (0 Bft) O 101 ° 0 min 0,000 mm 0,0 UV-I 0 W/m² -2,9 °C -1,6 °C 0,0 km/h (0 Bft)
10.03.2017 22:57 -1,7 °C -1,6 °C 91 % 1026,9 hPa 0,0 mm 0,0 km/h (0 Bft) O 101 ° 0 min 0,000 mm 0,0 UV-I 0 W/m² -3,0 °C -1,7 °C 0,0 km/h (0 Bft)
10.03.2017 22:58 -1,7 °C -1,7 °C 91 % 1026,9 hPa 0,0 mm 0,0 km/h (0 Bft) O 101 ° 0 min 0,000 mm 0,0 UV-I 0 W/m² -3,0 °C -1,7 °C 0,0 km/h (0 Bft)
10.03.2017 22:59 -1,7 °C -1,7 °C 91 % 1026,9 hPa 0,0 mm 0,0 km/h (0 Bft) O 101 ° 0 min 0,000 mm 0,0 UV-I 0 W/m² -3,0 °C -1,7 °C 0,0 km/h (0 Bft)
10.03.2017 23:00 -1,7 °C -1,7 °C 92 % 1026,9 hPa 0,0 mm 0,0 km/h (0 Bft) O 101 ° 0 min 0,000 mm 0,0 UV-I 0 W/m² -2,8 °C -1,7 °C 0,0 km/h (0 Bft)
10.03.2017 23:01 -1,7 °C -1,7 °C 92 % 1026,9 hPa 0,0 mm 0,0 km/h (0 Bft) O 101 ° 0 min 0,000 mm 0,0 UV-I 0 W/m² -2,8 °C -1,7 °C 0,0 km/h (0 Bft)
10.03.2017 23:02 -1,7 °C -1,7 °C 92 % 1026,9 hPa 0,0 mm 0,0 km/h (0 Bft) O 101 ° 0 min 0,000 mm 0,0 UV-I 0 W/m² -2,8 °C -1,7 °C 0,0 km/h (0 Bft)
10.03.2017 23:03 -1,7 °C -1,7 °C 92 % 1026,9 hPa 0,0 mm 0,0 km/h (0 Bft) O 101 ° 0 min 0,000 mm 0,0 UV-I 0 W/m² -2,8 °C -1,7 °C 0,0 km/h (0 Bft)
10.03.2017 23:04 -1,7 °C -1,7 °C 91 % 1026,9 hPa 0,0 mm 0,0 km/h (0 Bft) O 101 ° 0 min 0,000 mm 0,0 UV-I 0 W/m² -3,0 °C -1,7 °C 0,0 km/h (0 Bft)
10.03.2017 23:05 -1,8 °C -1,7 °C 91 % 1026,8 hPa 0,0 mm 0,4 km/h (0 Bft) O 101 ° 0 min 0,000 mm 0,0 UV-I 0 W/m² -3,1 °C -1,8 °C 1,6 km/h (1 Bft)
10.03.2017 23:06 -1,8 °C -1,8 °C 91 % 1026,9 hPa 0,0 mm 0,0 km/h (0 Bft) O 101 ° 0 min 0,000 mm 0,0 UV-I 0 W/m² -3,1 °C -1,8 °C 0,0 km/h (0 Bft)
10.03.2017 23:07 -1,8 °C -1,8 °C 91 % 1026,9 hPa 0,0 mm 0,0 km/h (0 Bft) O 101 ° 0 min 0,000 mm 0,0 UV-I 0 W/m² -3,1 °C -1,8 °C 0,0 km/h (0 Bft)
10.03.2017 23:08 -1,8 °C -1,8 °C 92 % 1026,9 hPa 0,0 mm 0,0 km/h (0 Bft) O 101 ° 0 min 0,000 mm 0,0 UV-I 0 W/m² -2,9 °C -1,8 °C 0,0 km/h (0 Bft)
10.03.2017 23:09 -1,9 °C -1,8 °C 91 % 1026,9 hPa 0,0 mm 0,0 km/h (0 Bft) O 101 ° 0 min 0,000 mm 0,0 UV-I 0 W/m² -3,2 °C -1,9 °C 0,0 km/h (0 Bft)
10.03.2017 23:10 -1,9 °C -1,9 °C 92 % 1026,9 hPa 0,0 mm 0,0 km/h (0 Bft) O 101 ° 0 min 0,000 mm 0,0 UV-I 0 W/m² -3,0 °C -1,9 °C 0,0 km/h (0 Bft)
10.03.2017 23:11 -1,9 °C -1,9 °C 92 % 1026,9 hPa 0,0 mm 0,0 km/h (0 Bft) O 101 ° 0 min 0,000 mm 0,0 UV-I 0 W/m² -3,0 °C -1,9 °C 0,0 km/h (0 Bft)
10.03.2017 23:12 -1,9 °C -1,9 °C 92 % 1026,8 hPa 0,0 mm 0,0 km/h (0 Bft) O 101 ° 0 min 0,000 mm 0,0 UV-I 0 W/m² -3,0 °C -1,9 °C 0,0 km/h (0 Bft)
10.03.2017 23:13 -1,9 °C -1,9 °C 92 % 1026,8 hPa 0,0 mm 0,0 km/h (0 Bft) O 101 ° 0 min 0,000 mm 0,0 UV-I 0 W/m² -3,0 °C -1,9 °C 0,0 km/h (0 Bft)
10.03.2017 23:14 -1,9 °C -1,9 °C 92 % 1026,7 hPa 0,0 mm 0,0 km/h (0 Bft) O 101 ° 0 min 0,000 mm 0,0 UV-I 0 W/m² -3,0 °C -1,9 °C 0,0 km/h (0 Bft)
10.03.2017 23:15 -1,8 °C -1,8 °C 92 % 1026,8 hPa 0,0 mm 0,0 km/h (0 Bft) O 101 ° 0 min 0,000 mm 0,0 UV-I 0 W/m² -2,9 °C -1,8 °C 0,0 km/h (0 Bft)
10.03.2017 23:16 -1,8 °C -1,8 °C 92 % 1026,7 hPa 0,0 mm 0,0 km/h (0 Bft) O 101 ° 0 min 0,000 mm 0,0 UV-I 0 W/m² -2,9 °C -1,8 °C 0,0 km/h (0 Bft)
10.03.2017 23:17 -1,8 °C -1,8 °C 92 % 1026,8 hPa 0,0 mm 0,0 km/h (0 Bft) O 101 ° 0 min 0,000 mm 0,0 UV-I 0 W/m² -2,9 °C -1,8 °C 0,0 km/h (0 Bft)
10.03.2017 23:18 -1,8 °C -1,8 °C 92 % 1026,8 hPa 0,0 mm 0,0 km/h (0 Bft) O 101 ° 0 min 0,000 mm 0,0 UV-I 0 W/m² -2,9 °C -1,8 °C 0,0 km/h (0 Bft)
10.03.2017 23:19 -1,8 °C -1,8 °C 92 % 1026,8 hPa 0,0 mm 0,0 km/h (0 Bft) O 101 ° 0 min 0,000 mm 0,0 UV-I 0 W/m² -2,9 °C -1,8 °C 0,0 km/h (0 Bft)
10.03.2017 23:20 -1,7 °C -1,7 °C 92 % 1026,7 hPa 0,0 mm 0,0 km/h (0 Bft) O 101 ° 0 min 0,000 mm 0,0 UV-I 0 W/m² -2,8 °C -1,7 °C 0,0 km/h (0 Bft)
10.03.2017 23:21 -1,6 °C -1,6 °C 93 % 1026,7 hPa 0,0 mm 0,0 km/h (0 Bft) O 101 ° 0 min 0,000 mm 0,0 UV-I 0 W/m² -2,6 °C -1,6 °C 0,0 km/h (0 Bft)
10.03.2017 23:22 -1,6 °C -1,6 °C 93 % 1026,8 hPa 0,0 mm 0,0 km/h (0 Bft) O 101 ° 0 min 0,000 mm 0,0 UV-I 0 W/m² -2,6 °C -1,6 °C 0,0 km/h (0 Bft)
10.03.2017 23:23 -1,4 °C -1,4 °C 93 % 1026,8 hPa 0,0 mm 0,0 km/h (0 Bft) O 101 ° 0 min 0,000 mm 0,0 UV-I 0 W/m² -2,4 °C -1,4 °C 0,0 km/h (0 Bft)
10.03.2017 23:24 -1,4 °C -1,4 °C 93 % 1026,8 hPa 0,0 mm 0,0 km/h (0 Bft) O 101 ° 0 min 0,000 mm 0,0 UV-I 0 W/m² -2,4 °C -1,4 °C 0,0 km/h (0 Bft)
10.03.2017 23:25 -1,4 °C -1,4 °C 93 % 1026,7 hPa 0,0 mm 0,0 km/h (0 Bft) O 101 ° 0 min 0,000 mm 0,0 UV-I 0 W/m² -2,4 °C -1,4 °C 0,0 km/h (0 Bft)
10.03.2017 23:26 -1,5 °C -1,4 °C 92 % 1026,8 hPa 0,0 mm 0,0 km/h (0 Bft) O 101 ° 0 min 0,000 mm 0,0 UV-I 0 W/m² -2,6 °C -1,5 °C 0,0 km/h (0 Bft)
10.03.2017 23:27 -1,6 °C -1,5 °C 92 % 1026,7 hPa 0,0 mm 0,0 km/h (0 Bft) O 101 ° 0 min 0,000 mm 0,0 UV-I 0 W/m² -2,7 °C -1,6 °C 0,0 km/h (0 Bft)
10.03.2017 23:28 -1,6 °C -1,5 °C 92 % 1026,7 hPa 0,0 mm 0,0 km/h (0 Bft) O 101 ° 0 min 0,000 mm 0,0 UV-I 0 W/m² -2,7 °C -1,6 °C 0,0 km/h (0 Bft)
10.03.2017 23:29 -1,6 °C -1,6 °C 92 % 1026,7 hPa 0,0 mm 0,0 km/h (0 Bft) O 101 ° 0 min 0,000 mm 0,0 UV-I 0 W/m² -2,7 °C -1,6 °C 0,0 km/h (0 Bft)
10.03.2017 23:30 -1,7 °C -1,6 °C 92 % 1026,7 hPa 0,0 mm 0,0 km/h (0 Bft) O 101 ° 0 min 0,000 mm 0,0 UV-I 0 W/m² -2,8 °C -1,7 °C 0,0 km/h (0 Bft)
10.03.2017 23:31 -1,7 °C -1,7 °C 92 % 1026,7 hPa 0,0 mm 0,0 km/h (0 Bft) O 101 ° 0 min 0,000 mm 0,0 UV-I 0 W/m² -2,8 °C -1,7 °C 0,0 km/h (0 Bft)
10.03.2017 23:32 -1,7 °C -1,7 °C 92 % 1026,7 hPa 0,0 mm 0,0 km/h (0 Bft) O 101 ° 0 min 0,000 mm 0,0 UV-I 0 W/m² -2,8 °C -1,7 °C 0,0 km/h (0 Bft)
10.03.2017 23:33 -1,8 °C -1,7 °C 92 % 1026,7 hPa 0,0 mm 0,0 km/h (0 Bft) O 101 ° 0 min 0,000 mm 0,0 UV-I 0 W/m² -2,9 °C -1,8 °C 0,0 km/h (0 Bft)
10.03.2017 23:34 -1,8 °C -1,8 °C 92 % 1026,7 hPa 0,0 mm 0,0 km/h (0 Bft) O 101 ° 0 min 0,000 mm 0,0 UV-I 0 W/m² -2,9 °C -1,8 °C 0,0 km/h (0 Bft)
10.03.2017 23:35 -1,7 °C -1,7 °C 92 % 1026,7 hPa 0,0 mm 0,0 km/h (0 Bft) O 101 ° 0 min 0,000 mm 0,0 UV-I 0 W/m² -2,8 °C -1,7 °C 0,0 km/h (0 Bft)
10.03.2017 23:36 -1,8 °C -1,7 °C 92 % 1026,7 hPa 0,0 mm 0,0 km/h (0 Bft) O 101 ° 0 min 0,000 mm 0,0 UV-I 0 W/m² -2,9 °C -1,8 °C 0,0 km/h (0 Bft)
10.03.2017 23:37 -1,8 °C -1,7 °C 92 % 1026,7 hPa 0,0 mm 0,0 km/h (0 Bft) O 101 ° 0 min 0,000 mm 0,0 UV-I 0 W/m² -2,9 °C -1,8 °C 0,0 km/h (0 Bft)
10.03.2017 23:38 -1,8 °C -1,7 °C 92 % 1026,7 hPa 0,0 mm 0,0 km/h (0 Bft) O 101 ° 0 min 0,000 mm 0,0 UV-I 0 W/m² -2,9 °C -1,8 °C 0,0 km/h (0 Bft)
10.03.2017 23:39 -1,8 °C -1,8 °C 92 % 1026,7 hPa 0,0 mm 0,0 km/h (0 Bft) O 101 ° 0 min 0,000 mm 0,0 UV-I 0 W/m² -2,9 °C -1,8 °C 0,0 km/h (0 Bft)
10.03.2017 23:40 -1,8 °C -1,8 °C 92 % 1026,7 hPa 0,0 mm 0,0 km/h (0 Bft) O 101 ° 0 min 0,000 mm 0,0 UV-I 0 W/m² -2,9 °C -1,8 °C 0,0 km/h (0 Bft)
10.03.2017 23:41 -1,8 °C -1,8 °C 92 % 1026,7 hPa 0,0 mm 0,0 km/h (0 Bft) O 101 ° 0 min 0,000 mm 0,0 UV-I 0 W/m² -2,9 °C -1,8 °C 0,0 km/h (0 Bft)
10.03.2017 23:42 -1,9 °C -1,8 °C 92 % 1026,7 hPa 0,0 mm 0,0 km/h (0 Bft) O 101 ° 0 min 0,000 mm 0,0 UV-I 0 W/m² -3,0 °C -1,9 °C 0,0 km/h (0 Bft)
10.03.2017 23:43 -1,8 °C -1,8 °C 92 % 1026,7 hPa 0,0 mm 0,0 km/h (0 Bft) O 101 ° 0 min 0,000 mm 0,0 UV-I 0 W/m² -2,9 °C -1,8 °C 0,0 km/h (0 Bft)
10.03.2017 23:44 -1,9 °C -1,8 °C 92 % 1026,6 hPa 0,0 mm 0,0 km/h (0 Bft) O 101 ° 0 min 0,000 mm 0,0 UV-I 0 W/m² -3,0 °C -1,9 °C 0,0 km/h (0 Bft)
10.03.2017 23:45 -1,9 °C -1,9 °C 92 % 1026,6 hPa 0,0 mm 0,0 km/h (0 Bft) O 101 ° 0 min 0,000 mm 0,0 UV-I 0 W/m² -3,0 °C -1,9 °C 0,0 km/h (0 Bft)
10.03.2017 23:46 -1,9 °C -1,9 °C 92 % 1026,7 hPa 0,0 mm 0,0 km/h (0 Bft) O 101 ° 0 min 0,000 mm 0,0 UV-I 0 W/m² -3,0 °C -1,9 °C 0,0 km/h (0 Bft)
10.03.2017 23:47 -1,9 °C -1,9 °C 92 % 1026,6 hPa 0,0 mm 0,0 km/h (0 Bft) O 101 ° 0 min 0,000 mm 0,0 UV-I 0 W/m² -3,0 °C -1,9 °C 0,0 km/h (0 Bft)
10.03.2017 23:48 -1,9 °C -1,9 °C 93 % 1026,7 hPa 0,0 mm 0,0 km/h (0 Bft) O 101 ° 0 min 0,000 mm 0,0 UV-I 0 W/m² -2,9 °C -1,9 °C 0,0 km/h (0 Bft)
10.03.2017 23:49 -1,9 °C -1,9 °C 93 % 1026,7 hPa 0,0 mm 0,0 km/h (0 Bft) O 101 ° 0 min 0,000 mm 0,0 UV-I 0 W/m² -2,9 °C -1,9 °C 0,0 km/h (0 Bft)
10.03.2017 23:50 -1,9 °C -1,9 °C 93 % 1026,7 hPa 0,0 mm 0,0 km/h (0 Bft) O 101 ° 0 min 0,000 mm 0,0 UV-I 0 W/m² -2,9 °C -1,9 °C 0,0 km/h (0 Bft)
10.03.2017 23:51 -1,9 °C -1,9 °C 93 % 1026,7 hPa 0,0 mm 0,0 km/h (0 Bft) O 101 ° 0 min 0,000 mm 0,0 UV-I 0 W/m² -2,9 °C -1,9 °C 0,0 km/h (0 Bft)
10.03.2017 23:52 -1,9 °C -1,9 °C 93 % 1026,7 hPa 0,0 mm 0,0 km/h (0 Bft) O 101 ° 0 min 0,000 mm 0,0 UV-I 0 W/m² -2,9 °C -1,9 °C 0,0 km/h (0 Bft)
10.03.2017 23:53 -1,9 °C -1,9 °C 93 % 1026,6 hPa 0,0 mm 0,0 km/h (0 Bft) O 101 ° 0 min 0,000 mm 0,0 UV-I 0 W/m² -2,9 °C -1,9 °C 0,0 km/h (0 Bft)
10.03.2017 23:54 -1,9 °C -1,9 °C 93 % 1026,6 hPa 0,0 mm 0,0 km/h (0 Bft) O 101 ° 0 min 0,000 mm 0,0 UV-I 0 W/m² -2,9 °C -1,9 °C 0,0 km/h (0 Bft)
10.03.2017 23:55 -2,0 °C -1,9 °C 93 % 1026,6 hPa 0,0 mm 0,0 km/h (0 Bft) O 101 ° 0 min 0,000 mm 0,0 UV-I 0 W/m² -3,0 °C -2,0 °C 0,0 km/h (0 Bft)
10.03.2017 23:56 -2,1 °C -2,0 °C 93 % 1026,7 hPa 0,0 mm 0,0 km/h (0 Bft) O 101 ° 0 min 0,000 mm 0,0 UV-I 0 W/m² -3,1 °C -2,1 °C 0,0 km/h (0 Bft)
10.03.2017 23:57 -2,1 °C -2,1 °C 93 % 1026,6 hPa 0,0 mm 0,0 km/h (0 Bft) O 101 ° 0 min 0,000 mm 0,0 UV-I 0 W/m² -3,1 °C -2,1 °C 0,0 km/h (0 Bft)
10.03.2017 23:58 -2,1 °C -2,1 °C 93 % 1026,7 hPa 0,0 mm 0,0 km/h (0 Bft) O 101 ° 0 min 0,000 mm 0,0 UV-I 0 W/m² -3,1 °C -2,1 °C 0,0 km/h (0 Bft)
10.03.2017 23:59 -2,1 °C -2,1 °C 93 % 1026,7 hPa 0,0 mm 0,0 km/h (0 Bft) O 101 ° 0 min 0,000 mm 0,0 UV-I 0 W/m² -3,1 °C -2,1 °C 0,0 km/h (0 Bft)
_ Min-Zeit 23:59 23:59 15:01 00:50 - 23:59 - - - - - - 23:09 23:59 23:59
Minimum _ -2,1 °C -2,1 °C 60 % 1021,0 hPa - 0,0 km/h (0 Bft) - - - - - - -3,2 °C -2,1 °C 0,0 km/h (0 Bft)
_ Max-Zeit 14:36 14:37 23:59 22:23 04:04 00:00 - - 15:40 13:01 12:08 12:09 00:20 14:30 01:21
Maximum _ 8,3 °C 8,3 °C 93 % 1027,1 hPa 0,2 mm 26,4 km/h
W-SW (4 Bft)
- - 1 min 0,280 mm 3,9 UV-I 861 W/m² 5,7 °C 6,9 °C 38,6 km/h
W (5 Bft)
Durchschnitt _ 4,4 °C 4,4 °C 83 % 1024,5 hPa #1,4 mm 8,8 km/h (2 Bft) W - #4:02 h #1,524 mm 1,8 UV-I 115 W/m² 1,7 °C 2,6 °C 13,3 km/h (3 Bft)